<?xml version="1.0" encoding="UTF-8" standalone="no" ?>
<gpx xmlns="http://www.topografix.com/GPX/1/1" xmlns:xsi="http://www.w3.org/2001/XMLSchema-instance" xsi:schemaLocation="http://www.topografix.com/GPX/1/1 http://www.topografix.com/GPX/1/1/gpx.xsd" version="1.1" creator="VisuGPX - https://www.visugpx.com">
  <metadata>
    <name>Champagnat Cyclisme sur route</name>
  </metadata>
  <trk>
    <name><![CDATA[Champagnat Cyclisme sur route_1]]></name>
    <trkseg>
      <trkpt lat="46.48267" lon="5.36832">
        <ele>267</ele>
        <time>2021-12-06T11:26:42Z</time>
      </trkpt>
      <trkpt lat="46.48257" lon="5.36821">
        <ele>266.4</ele>
        <time>2021-12-06T11:26:43Z</time>
      </trkpt>
      <trkpt lat="46.48247" lon="5.36812">
        <ele>265</ele>
        <time>2021-12-06T11:26:44Z</time>
      </trkpt>
      <trkpt lat="46.48226" lon="5.36794">
        <ele>262.8</ele>
        <time>2021-12-06T11:26:46Z</time>
      </trkpt>
      <trkpt lat="46.48215" lon="5.36786">
        <ele>261.6</ele>
        <time>2021-12-06T11:26:47Z</time>
      </trkpt>
      <trkpt lat="46.48205" lon="5.36777">
        <ele>261</ele>
        <time>2021-12-06T11:26:48Z</time>
      </trkpt>
      <trkpt lat="46.48194" lon="5.36769">
        <ele>259.8</ele>
        <time>2021-12-06T11:26:49Z</time>
      </trkpt>
      <trkpt lat="46.48174" lon="5.36752">
        <ele>258.8</ele>
        <time>2021-12-06T11:26:51Z</time>
      </trkpt>
      <trkpt lat="46.48154" lon="5.36736">
        <ele>256.8</ele>
        <time>2021-12-06T11:26:53Z</time>
      </trkpt>
      <trkpt lat="46.48135" lon="5.36721">
        <ele>255.6</ele>
        <time>2021-12-06T11:26:55Z</time>
      </trkpt>
      <trkpt lat="46.48114" lon="5.36704">
        <ele>253.8</ele>
        <time>2021-12-06T11:26:58Z</time>
      </trkpt>
      <trkpt lat="46.48109" lon="5.36691">
        <ele>252.8</ele>
        <time>2021-12-06T11:27:00Z</time>
      </trkpt>
      <trkpt lat="46.48113" lon="5.36677">
        <ele>252</ele>
        <time>2021-12-06T11:27:02Z</time>
      </trkpt>
      <trkpt lat="46.48117" lon="5.36671">
        <ele>251.8</ele>
        <time>2021-12-06T11:27:03Z</time>
      </trkpt>
      <trkpt lat="46.48122" lon="5.36665">
        <ele>251.6</ele>
        <time>2021-12-06T11:27:04Z</time>
      </trkpt>
      <trkpt lat="46.48135" lon="5.36653">
        <ele>251.2</ele>
        <time>2021-12-06T11:27:06Z</time>
      </trkpt>
      <trkpt lat="46.48147" lon="5.3664">
        <ele>250.6</ele>
        <time>2021-12-06T11:27:08Z</time>
      </trkpt>
      <trkpt lat="46.48155" lon="5.36634">
        <ele>250.2</ele>
        <time>2021-12-06T11:27:09Z</time>
      </trkpt>
      <trkpt lat="46.48163" lon="5.36627">
        <ele>249.6</ele>
        <time>2021-12-06T11:27:10Z</time>
      </trkpt>
      <trkpt lat="46.48187" lon="5.36612">
        <ele>249</ele>
        <time>2021-12-06T11:27:13Z</time>
      </trkpt>
      <trkpt lat="46.48196" lon="5.3661">
        <ele>248.8</ele>
        <time>2021-12-06T11:27:14Z</time>
      </trkpt>
      <trkpt lat="46.48212" lon="5.36602">
        <ele>248.4</ele>
        <time>2021-12-06T11:27:16Z</time>
      </trkpt>
      <trkpt lat="46.48218" lon="5.36595">
        <ele>248.2</ele>
        <time>2021-12-06T11:27:17Z</time>
      </trkpt>
      <trkpt lat="46.48221" lon="5.36586">
        <ele>248</ele>
        <time>2021-12-06T11:27:18Z</time>
      </trkpt>
      <trkpt lat="46.48221" lon="5.36586">
        <ele>247.8</ele>
        <time>2021-12-06T11:27:19Z</time>
      </trkpt>
      <trkpt lat="46.48228" lon="5.36564">
        <ele>247.8</ele>
        <time>2021-12-06T11:27:20Z</time>
      </trkpt>
      <trkpt lat="46.48234" lon="5.36556">
        <ele>247.6</ele>
        <time>2021-12-06T11:27:21Z</time>
      </trkpt>
      <trkpt lat="46.48247" lon="5.36541">
        <ele>247.6</ele>
        <time>2021-12-06T11:27:23Z</time>
      </trkpt>
      <trkpt lat="46.48253" lon="5.36534">
        <ele>247.4</ele>
        <time>2021-12-06T11:27:24Z</time>
      </trkpt>
      <trkpt lat="46.48293" lon="5.36489">
        <ele>246</ele>
        <time>2021-12-06T11:27:30Z</time>
      </trkpt>
      <trkpt lat="46.48307" lon="5.36474">
        <ele>245.2</ele>
        <time>2021-12-06T11:27:33Z</time>
      </trkpt>
      <trkpt lat="46.48329" lon="5.36449">
        <ele>245</ele>
        <time>2021-12-06T11:27:35Z</time>
      </trkpt>
      <trkpt lat="46.48337" lon="5.36441">
        <ele>244.8</ele>
        <time>2021-12-06T11:27:36Z</time>
      </trkpt>
      <trkpt lat="46.48373" lon="5.36402">
        <ele>243.8</ele>
        <time>2021-12-06T11:27:41Z</time>
      </trkpt>
      <trkpt lat="46.4838" lon="5.36394">
        <ele>243.4</ele>
        <time>2021-12-06T11:27:42Z</time>
      </trkpt>
      <trkpt lat="46.48396" lon="5.36378">
        <ele>242.4</ele>
        <time>2021-12-06T11:27:44Z</time>
      </trkpt>
      <trkpt lat="46.48411" lon="5.36364">
        <ele>241.8</ele>
        <time>2021-12-06T11:27:46Z</time>
      </trkpt>
      <trkpt lat="46.4842" lon="5.36358">
        <ele>241.6</ele>
        <time>2021-12-06T11:27:47Z</time>
      </trkpt>
      <trkpt lat="46.48428" lon="5.36354">
        <ele>241.2</ele>
        <time>2021-12-06T11:27:48Z</time>
      </trkpt>
      <trkpt lat="46.48437" lon="5.36351">
        <ele>241</ele>
        <time>2021-12-06T11:27:49Z</time>
      </trkpt>
      <trkpt lat="46.48454" lon="5.36348">
        <ele>240.6</ele>
        <time>2021-12-06T11:27:51Z</time>
      </trkpt>
      <trkpt lat="46.48471" lon="5.36345">
        <ele>240.2</ele>
        <time>2021-12-06T11:27:53Z</time>
      </trkpt>
      <trkpt lat="46.48479" lon="5.36344">
        <ele>240.2</ele>
        <time>2021-12-06T11:27:54Z</time>
      </trkpt>
      <trkpt lat="46.48535" lon="5.36334">
        <ele>239.8</ele>
        <time>2021-12-06T11:28:01Z</time>
      </trkpt>
      <trkpt lat="46.48594" lon="5.36325">
        <ele>240</ele>
        <time>2021-12-06T11:28:08Z</time>
      </trkpt>
      <trkpt lat="46.48611" lon="5.3632">
        <ele>239.8</ele>
        <time>2021-12-06T11:28:10Z</time>
      </trkpt>
      <trkpt lat="46.48627" lon="5.36306">
        <ele>239.6</ele>
        <time>2021-12-06T11:28:12Z</time>
      </trkpt>
      <trkpt lat="46.48633" lon="5.36294">
        <ele>239</ele>
        <time>2021-12-06T11:28:13Z</time>
      </trkpt>
      <trkpt lat="46.48636" lon="5.36281">
        <ele>238.4</ele>
        <time>2021-12-06T11:28:14Z</time>
      </trkpt>
      <trkpt lat="46.48639" lon="5.36267">
        <ele>238</ele>
        <time>2021-12-06T11:28:15Z</time>
      </trkpt>
      <trkpt lat="46.48641" lon="5.36253">
        <ele>237.2</ele>
        <time>2021-12-06T11:28:16Z</time>
      </trkpt>
      <trkpt lat="46.48643" lon="5.36224">
        <ele>236</ele>
        <time>2021-12-06T11:28:18Z</time>
      </trkpt>
      <trkpt lat="46.48646" lon="5.36196">
        <ele>234.6</ele>
        <time>2021-12-06T11:28:20Z</time>
      </trkpt>
      <trkpt lat="46.48648" lon="5.36155">
        <ele>233.4</ele>
        <time>2021-12-06T11:28:23Z</time>
      </trkpt>
      <trkpt lat="46.4865" lon="5.36142">
        <ele>233.2</ele>
        <time>2021-12-06T11:28:24Z</time>
      </trkpt>
      <trkpt lat="46.48658" lon="5.36104">
        <ele>232.4</ele>
        <time>2021-12-06T11:28:27Z</time>
      </trkpt>
      <trkpt lat="46.48673" lon="5.36037">
        <ele>232</ele>
        <time>2021-12-06T11:28:33Z</time>
      </trkpt>
      <trkpt lat="46.48675" lon="5.36017">
        <ele>232</ele>
        <time>2021-12-06T11:28:35Z</time>
      </trkpt>
      <trkpt lat="46.48677" lon="5.36008">
        <ele>232.2</ele>
        <time>2021-12-06T11:28:36Z</time>
      </trkpt>
      <trkpt lat="46.4868" lon="5.3599">
        <ele>232.6</ele>
        <time>2021-12-06T11:28:38Z</time>
      </trkpt>
      <trkpt lat="46.48685" lon="5.35961">
        <ele>233.6</ele>
        <time>2021-12-06T11:28:41Z</time>
      </trkpt>
      <trkpt lat="46.48689" lon="5.35928">
        <ele>234.2</ele>
        <time>2021-12-06T11:28:44Z</time>
      </trkpt>
      <trkpt lat="46.48691" lon="5.35918">
        <ele>234.2</ele>
        <time>2021-12-06T11:28:45Z</time>
      </trkpt>
      <trkpt lat="46.48701" lon="5.35887">
        <ele>234.4</ele>
        <time>2021-12-06T11:28:48Z</time>
      </trkpt>
      <trkpt lat="46.48705" lon="5.35877">
        <ele>234.4</ele>
        <time>2021-12-06T11:28:49Z</time>
      </trkpt>
      <trkpt lat="46.48734" lon="5.35805">
        <ele>233.2</ele>
        <time>2021-12-06T11:28:56Z</time>
      </trkpt>
      <trkpt lat="46.48743" lon="5.35786">
        <ele>232.4</ele>
        <time>2021-12-06T11:28:58Z</time>
      </trkpt>
      <trkpt lat="46.48747" lon="5.35776">
        <ele>232.2</ele>
        <time>2021-12-06T11:28:59Z</time>
      </trkpt>
      <trkpt lat="46.4876" lon="5.35747">
        <ele>231.4</ele>
        <time>2021-12-06T11:29:03Z</time>
      </trkpt>
      <trkpt lat="46.48768" lon="5.35728">
        <ele>231</ele>
        <time>2021-12-06T11:29:04Z</time>
      </trkpt>
      <trkpt lat="46.488" lon="5.35656">
        <ele>230.4</ele>
        <time>2021-12-06T11:29:12Z</time>
      </trkpt>
      <trkpt lat="46.48808" lon="5.35639">
        <ele>230.6</ele>
        <time>2021-12-06T11:29:14Z</time>
      </trkpt>
      <trkpt lat="46.48838" lon="5.3557">
        <ele>231.2</ele>
        <time>2021-12-06T11:29:22Z</time>
      </trkpt>
      <trkpt lat="46.48849" lon="5.35545">
        <ele>231.4</ele>
        <time>2021-12-06T11:29:25Z</time>
      </trkpt>
      <trkpt lat="46.48852" lon="5.35537">
        <ele>231.4</ele>
        <time>2021-12-06T11:29:26Z</time>
      </trkpt>
      <trkpt lat="46.48883" lon="5.35469">
        <ele>231.4</ele>
        <time>2021-12-06T11:29:34Z</time>
      </trkpt>
      <trkpt lat="46.48894" lon="5.35443">
        <ele>231.2</ele>
        <time>2021-12-06T11:29:37Z</time>
      </trkpt>
      <trkpt lat="46.48925" lon="5.35373">
        <ele>230.6</ele>
        <time>2021-12-06T11:29:45Z</time>
      </trkpt>
      <trkpt lat="46.48929" lon="5.35364">
        <ele>230.4</ele>
        <time>2021-12-06T11:29:46Z</time>
      </trkpt>
      <trkpt lat="46.48936" lon="5.35347">
        <ele>230.2</ele>
        <time>2021-12-06T11:29:48Z</time>
      </trkpt>
      <trkpt lat="46.48967" lon="5.35277">
        <ele>229.6</ele>
        <time>2021-12-06T11:29:56Z</time>
      </trkpt>
      <trkpt lat="46.4897" lon="5.35269">
        <ele>229.6</ele>
        <time>2021-12-06T11:29:57Z</time>
      </trkpt>
      <trkpt lat="46.48997" lon="5.35208">
        <ele>230.2</ele>
        <time>2021-12-06T11:30:05Z</time>
      </trkpt>
      <trkpt lat="46.49015" lon="5.3517">
        <ele>231</ele>
        <time>2021-12-06T11:30:10Z</time>
      </trkpt>
      <trkpt lat="46.49021" lon="5.35155">
        <ele>231.4</ele>
        <time>2021-12-06T11:30:12Z</time>
      </trkpt>
      <trkpt lat="46.49035" lon="5.35125">
        <ele>231.8</ele>
        <time>2021-12-06T11:30:16Z</time>
      </trkpt>
      <trkpt lat="46.49045" lon="5.35112">
        <ele>231.8</ele>
        <time>2021-12-06T11:30:18Z</time>
      </trkpt>
      <trkpt lat="46.4908" lon="5.3508">
        <ele>232.2</ele>
        <time>2021-12-06T11:30:24Z</time>
      </trkpt>
      <trkpt lat="46.49133" lon="5.35035">
        <ele>231.4</ele>
        <time>2021-12-06T11:30:32Z</time>
      </trkpt>
      <trkpt lat="46.49139" lon="5.35029">
        <ele>231.2</ele>
        <time>2021-12-06T11:30:33Z</time>
      </trkpt>
      <trkpt lat="46.49179" lon="5.34994">
        <ele>230.2</ele>
        <time>2021-12-06T11:30:39Z</time>
      </trkpt>
      <trkpt lat="46.49185" lon="5.34987">
        <ele>230</ele>
        <time>2021-12-06T11:30:40Z</time>
      </trkpt>
      <trkpt lat="46.49217" lon="5.34943">
        <ele>229.8</ele>
        <time>2021-12-06T11:30:46Z</time>
      </trkpt>
      <trkpt lat="46.49256" lon="5.34882">
        <ele>229.6</ele>
        <time>2021-12-06T11:30:54Z</time>
      </trkpt>
      <trkpt lat="46.49261" lon="5.34874">
        <ele>229.6</ele>
        <time>2021-12-06T11:30:55Z</time>
      </trkpt>
      <trkpt lat="46.49289" lon="5.34845">
        <ele>229.6</ele>
        <time>2021-12-06T11:31:00Z</time>
      </trkpt>
      <trkpt lat="46.49323" lon="5.34832">
        <ele>229.2</ele>
        <time>2021-12-06T11:31:05Z</time>
      </trkpt>
      <trkpt lat="46.4933" lon="5.34831">
        <ele>229</ele>
        <time>2021-12-06T11:31:06Z</time>
      </trkpt>
      <trkpt lat="46.49378" lon="5.34821">
        <ele>229.2</ele>
        <time>2021-12-06T11:31:13Z</time>
      </trkpt>
      <trkpt lat="46.49384" lon="5.34819">
        <ele>229.4</ele>
        <time>2021-12-06T11:31:14Z</time>
      </trkpt>
      <trkpt lat="46.49396" lon="5.34815">
        <ele>229.4</ele>
        <time>2021-12-06T11:31:16Z</time>
      </trkpt>
      <trkpt lat="46.49421" lon="5.348">
        <ele>229.4</ele>
        <time>2021-12-06T11:31:20Z</time>
      </trkpt>
      <trkpt lat="46.49454" lon="5.34768">
        <ele>228.8</ele>
        <time>2021-12-06T11:31:26Z</time>
      </trkpt>
      <trkpt lat="46.49481" lon="5.34737">
        <ele>228.2</ele>
        <time>2021-12-06T11:31:30Z</time>
      </trkpt>
      <trkpt lat="46.49496" lon="5.3472">
        <ele>227.4</ele>
        <time>2021-12-06T11:31:32Z</time>
      </trkpt>
      <trkpt lat="46.49512" lon="5.34704">
        <ele>226</ele>
        <time>2021-12-06T11:31:34Z</time>
      </trkpt>
      <trkpt lat="46.49528" lon="5.34686">
        <ele>224.6</ele>
        <time>2021-12-06T11:31:36Z</time>
      </trkpt>
      <trkpt lat="46.49536" lon="5.34677">
        <ele>224.2</ele>
        <time>2021-12-06T11:31:37Z</time>
      </trkpt>
      <trkpt lat="46.49551" lon="5.34659">
        <ele>222.6</ele>
        <time>2021-12-06T11:31:39Z</time>
      </trkpt>
      <trkpt lat="46.49573" lon="5.34631">
        <ele>221.2</ele>
        <time>2021-12-06T11:31:42Z</time>
      </trkpt>
      <trkpt lat="46.49588" lon="5.34612">
        <ele>220.2</ele>
        <time>2021-12-06T11:31:44Z</time>
      </trkpt>
      <trkpt lat="46.49594" lon="5.34603">
        <ele>219.8</ele>
        <time>2021-12-06T11:31:45Z</time>
      </trkpt>
      <trkpt lat="46.49607" lon="5.34583">
        <ele>219</ele>
        <time>2021-12-06T11:31:47Z</time>
      </trkpt>
      <trkpt lat="46.49624" lon="5.34558">
        <ele>217.6</ele>
        <time>2021-12-06T11:31:50Z</time>
      </trkpt>
      <trkpt lat="46.49648" lon="5.3453">
        <ele>217</ele>
        <time>2021-12-06T11:31:55Z</time>
      </trkpt>
      <trkpt lat="46.49659" lon="5.34511">
        <ele>217</ele>
        <time>2021-12-06T11:31:58Z</time>
      </trkpt>
      <trkpt lat="46.49667" lon="5.34489">
        <ele>217</ele>
        <time>2021-12-06T11:32:01Z</time>
      </trkpt>
      <trkpt lat="46.4967" lon="5.34481">
        <ele>217.2</ele>
        <time>2021-12-06T11:32:02Z</time>
      </trkpt>
      <trkpt lat="46.49672" lon="5.34474">
        <ele>217.4</ele>
        <time>2021-12-06T11:32:03Z</time>
      </trkpt>
      <trkpt lat="46.49677" lon="5.34459">
        <ele>217.6</ele>
        <time>2021-12-06T11:32:05Z</time>
      </trkpt>
      <trkpt lat="46.49681" lon="5.34443">
        <ele>217.8</ele>
        <time>2021-12-06T11:32:07Z</time>
      </trkpt>
      <trkpt lat="46.49694" lon="5.34396">
        <ele>218.8</ele>
        <time>2021-12-06T11:32:13Z</time>
      </trkpt>
      <trkpt lat="46.49696" lon="5.34388">
        <ele>219</ele>
        <time>2021-12-06T11:32:14Z</time>
      </trkpt>
      <trkpt lat="46.49702" lon="5.3436">
        <ele>219.8</ele>
        <time>2021-12-06T11:32:18Z</time>
      </trkpt>
      <trkpt lat="46.49708" lon="5.34339">
        <ele>220.8</ele>
        <time>2021-12-06T11:32:21Z</time>
      </trkpt>
      <trkpt lat="46.4971" lon="5.34333">
        <ele>221</ele>
        <time>2021-12-06T11:32:22Z</time>
      </trkpt>
      <trkpt lat="46.49717" lon="5.34313">
        <ele>221.6</ele>
        <time>2021-12-06T11:32:25Z</time>
      </trkpt>
      <trkpt lat="46.49723" lon="5.34298">
        <ele>222</ele>
        <time>2021-12-06T11:32:27Z</time>
      </trkpt>
      <trkpt lat="46.49727" lon="5.34291">
        <ele>222</ele>
        <time>2021-12-06T11:32:28Z</time>
      </trkpt>
      <trkpt lat="46.4975" lon="5.34249">
        <ele>222.2</ele>
        <time>2021-12-06T11:32:34Z</time>
      </trkpt>
      <trkpt lat="46.49789" lon="5.34184">
        <ele>222.4</ele>
        <time>2021-12-06T11:32:44Z</time>
      </trkpt>
      <trkpt lat="46.49823" lon="5.34127">
        <ele>223</ele>
        <time>2021-12-06T11:32:53Z</time>
      </trkpt>
      <trkpt lat="46.49831" lon="5.34115">
        <ele>223.2</ele>
        <time>2021-12-06T11:32:55Z</time>
      </trkpt>
      <trkpt lat="46.49852" lon="5.34082">
        <ele>223.2</ele>
        <time>2021-12-06T11:33:00Z</time>
      </trkpt>
      <trkpt lat="46.49867" lon="5.34062">
        <ele>223</ele>
        <time>2021-12-06T11:33:03Z</time>
      </trkpt>
      <trkpt lat="46.4991" lon="5.34013">
        <ele>222.8</ele>
        <time>2021-12-06T11:33:12Z</time>
      </trkpt>
      <trkpt lat="46.49953" lon="5.33966">
        <ele>224</ele>
        <time>2021-12-06T11:33:22Z</time>
      </trkpt>
      <trkpt lat="46.49958" lon="5.33962">
        <ele>224.2</ele>
        <time>2021-12-06T11:33:23Z</time>
      </trkpt>
      <trkpt lat="46.49985" lon="5.33933">
        <ele>225.2</ele>
        <time>2021-12-06T11:33:29Z</time>
      </trkpt>
      <trkpt lat="46.4999" lon="5.33928">
        <ele>225.4</ele>
        <time>2021-12-06T11:33:30Z</time>
      </trkpt>
      <trkpt lat="46.50019" lon="5.33895">
        <ele>225.6</ele>
        <time>2021-12-06T11:33:36Z</time>
      </trkpt>
      <trkpt lat="46.50063" lon="5.33847">
        <ele>225.2</ele>
        <time>2021-12-06T11:33:44Z</time>
      </trkpt>
      <trkpt lat="46.50069" lon="5.33841">
        <ele>225.4</ele>
        <time>2021-12-06T11:33:45Z</time>
      </trkpt>
      <trkpt lat="46.501" lon="5.33807">
        <ele>224</ele>
        <time>2021-12-06T11:33:50Z</time>
      </trkpt>
      <trkpt lat="46.50112" lon="5.33794">
        <ele>223.8</ele>
        <time>2021-12-06T11:33:52Z</time>
      </trkpt>
      <trkpt lat="46.5013" lon="5.33774">
        <ele>222.8</ele>
        <time>2021-12-06T11:33:55Z</time>
      </trkpt>
      <trkpt lat="46.50164" lon="5.33737">
        <ele>222.4</ele>
        <time>2021-12-06T11:34:01Z</time>
      </trkpt>
      <trkpt lat="46.50207" lon="5.33691">
        <ele>222.8</ele>
        <time>2021-12-06T11:34:09Z</time>
      </trkpt>
      <trkpt lat="46.50252" lon="5.33643">
        <ele>223</ele>
        <time>2021-12-06T11:34:17Z</time>
      </trkpt>
      <trkpt lat="46.50257" lon="5.33637">
        <ele>223</ele>
        <time>2021-12-06T11:34:18Z</time>
      </trkpt>
      <trkpt lat="46.50302" lon="5.33589">
        <ele>222.6</ele>
        <time>2021-12-06T11:34:26Z</time>
      </trkpt>
      <trkpt lat="46.50308" lon="5.33583">
        <ele>222.6</ele>
        <time>2021-12-06T11:34:27Z</time>
      </trkpt>
      <trkpt lat="46.50353" lon="5.33534">
        <ele>222</ele>
        <time>2021-12-06T11:34:35Z</time>
      </trkpt>
      <trkpt lat="46.50376" lon="5.33509">
        <ele>221.6</ele>
        <time>2021-12-06T11:34:40Z</time>
      </trkpt>
      <trkpt lat="46.504" lon="5.33484">
        <ele>221.4</ele>
        <time>2021-12-06T11:34:43Z</time>
      </trkpt>
      <trkpt lat="46.50436" lon="5.33443">
        <ele>220.6</ele>
        <time>2021-12-06T11:34:49Z</time>
      </trkpt>
      <trkpt lat="46.50446" lon="5.33427">
        <ele>220.2</ele>
        <time>2021-12-06T11:34:51Z</time>
      </trkpt>
      <trkpt lat="46.50455" lon="5.33408">
        <ele>219.8</ele>
        <time>2021-12-06T11:34:53Z</time>
      </trkpt>
      <trkpt lat="46.50458" lon="5.33398">
        <ele>219.6</ele>
        <time>2021-12-06T11:34:54Z</time>
      </trkpt>
      <trkpt lat="46.50461" lon="5.33388">
        <ele>219.6</ele>
        <time>2021-12-06T11:34:55Z</time>
      </trkpt>
      <trkpt lat="46.50467" lon="5.33334">
        <ele>219</ele>
        <time>2021-12-06T11:35:00Z</time>
      </trkpt>
      <trkpt lat="46.50469" lon="5.33263">
        <ele>218.8</ele>
        <time>2021-12-06T11:35:07Z</time>
      </trkpt>
      <trkpt lat="46.50468" lon="5.33207">
        <ele>219.4</ele>
        <time>2021-12-06T11:35:13Z</time>
      </trkpt>
      <trkpt lat="46.50468" lon="5.33127">
        <ele>219.2</ele>
        <time>2021-12-06T11:35:21Z</time>
      </trkpt>
      <trkpt lat="46.50469" lon="5.33116">
        <ele>219</ele>
        <time>2021-12-06T11:35:22Z</time>
      </trkpt>
      <trkpt lat="46.5047" lon="5.3307">
        <ele>218.2</ele>
        <time>2021-12-06T11:35:26Z</time>
      </trkpt>
      <trkpt lat="46.5047" lon="5.33058">
        <ele>218</ele>
        <time>2021-12-06T11:35:27Z</time>
      </trkpt>
      <trkpt lat="46.50471" lon="5.33034">
        <ele>217.2</ele>
        <time>2021-12-06T11:35:29Z</time>
      </trkpt>
      <trkpt lat="46.50472" lon="5.33008">
        <ele>215.8</ele>
        <time>2021-12-06T11:35:31Z</time>
      </trkpt>
      <trkpt lat="46.50472" lon="5.3297">
        <ele>214.4</ele>
        <time>2021-12-06T11:35:34Z</time>
      </trkpt>
      <trkpt lat="46.50472" lon="5.32957">
        <ele>213.4</ele>
        <time>2021-12-06T11:35:35Z</time>
      </trkpt>
      <trkpt lat="46.50472" lon="5.32944">
        <ele>213.2</ele>
        <time>2021-12-06T11:35:36Z</time>
      </trkpt>
      <trkpt lat="46.50473" lon="5.32905">
        <ele>211.2</ele>
        <time>2021-12-06T11:35:39Z</time>
      </trkpt>
      <trkpt lat="46.50474" lon="5.32866">
        <ele>209.8</ele>
        <time>2021-12-06T11:35:42Z</time>
      </trkpt>
      <trkpt lat="46.50475" lon="5.3284">
        <ele>208.8</ele>
        <time>2021-12-06T11:35:44Z</time>
      </trkpt>
      <trkpt lat="46.50475" lon="5.32827">
        <ele>208.6</ele>
        <time>2021-12-06T11:35:45Z</time>
      </trkpt>
      <trkpt lat="46.50475" lon="5.32801">
        <ele>207.6</ele>
        <time>2021-12-06T11:35:47Z</time>
      </trkpt>
      <trkpt lat="46.50475" lon="5.32776">
        <ele>206.6</ele>
        <time>2021-12-06T11:35:49Z</time>
      </trkpt>
      <trkpt lat="46.50477" lon="5.32693">
        <ele>205.6</ele>
        <time>2021-12-06T11:35:56Z</time>
      </trkpt>
      <trkpt lat="46.50478" lon="5.32672">
        <ele>205.4</ele>
        <time>2021-12-06T11:35:58Z</time>
      </trkpt>
      <trkpt lat="46.50477" lon="5.32589">
        <ele>204.8</ele>
        <time>2021-12-06T11:36:05Z</time>
      </trkpt>
      <trkpt lat="46.50476" lon="5.32577">
        <ele>204.8</ele>
        <time>2021-12-06T11:36:06Z</time>
      </trkpt>
      <trkpt lat="46.50476" lon="5.32556">
        <ele>204.4</ele>
        <time>2021-12-06T11:36:08Z</time>
      </trkpt>
      <trkpt lat="46.50472" lon="5.32487">
        <ele>203.4</ele>
        <time>2021-12-06T11:36:14Z</time>
      </trkpt>
      <trkpt lat="46.5047" lon="5.32462">
        <ele>203</ele>
        <time>2021-12-06T11:36:16Z</time>
      </trkpt>
      <trkpt lat="46.50461" lon="5.32409">
        <ele>202.4</ele>
        <time>2021-12-06T11:36:21Z</time>
      </trkpt>
      <trkpt lat="46.50457" lon="5.32385">
        <ele>202.2</ele>
        <time>2021-12-06T11:36:23Z</time>
      </trkpt>
      <trkpt lat="46.5044" lon="5.32305">
        <ele>201.8</ele>
        <time>2021-12-06T11:36:31Z</time>
      </trkpt>
      <trkpt lat="46.50436" lon="5.32283">
        <ele>201.8</ele>
        <time>2021-12-06T11:36:33Z</time>
      </trkpt>
      <trkpt lat="46.50433" lon="5.32223">
        <ele>201.6</ele>
        <time>2021-12-06T11:36:39Z</time>
      </trkpt>
      <trkpt lat="46.50435" lon="5.32149">
        <ele>201.4</ele>
        <time>2021-12-06T11:36:46Z</time>
      </trkpt>
      <trkpt lat="46.50436" lon="5.32095">
        <ele>200.6</ele>
        <time>2021-12-06T11:36:51Z</time>
      </trkpt>
      <trkpt lat="46.50436" lon="5.32072">
        <ele>200.2</ele>
        <time>2021-12-06T11:36:53Z</time>
      </trkpt>
      <trkpt lat="46.50438" lon="5.31986">
        <ele>199.2</ele>
        <time>2021-12-06T11:37:01Z</time>
      </trkpt>
      <trkpt lat="46.50438" lon="5.31954">
        <ele>198.8</ele>
        <time>2021-12-06T11:37:04Z</time>
      </trkpt>
      <trkpt lat="46.50438" lon="5.31873">
        <ele>198.4</ele>
        <time>2021-12-06T11:37:12Z</time>
      </trkpt>
      <trkpt lat="46.50437" lon="5.31863">
        <ele>198.4</ele>
        <time>2021-12-06T11:37:13Z</time>
      </trkpt>
      <trkpt lat="46.50425" lon="5.31803">
        <ele>198.4</ele>
        <time>2021-12-06T11:37:19Z</time>
      </trkpt>
      <trkpt lat="46.50404" lon="5.31732">
        <ele>198</ele>
        <time>2021-12-06T11:37:27Z</time>
      </trkpt>
      <trkpt lat="46.50373" lon="5.31676">
        <ele>197.6</ele>
        <time>2021-12-06T11:37:34Z</time>
      </trkpt>
      <trkpt lat="46.50362" lon="5.31662">
        <ele>197.2</ele>
        <time>2021-12-06T11:37:36Z</time>
      </trkpt>
      <trkpt lat="46.50345" lon="5.31647">
        <ele>197</ele>
        <time>2021-12-06T11:37:39Z</time>
      </trkpt>
      <trkpt lat="46.50294" lon="5.31609">
        <ele>196.6</ele>
        <time>2021-12-06T11:37:47Z</time>
      </trkpt>
      <trkpt lat="46.50289" lon="5.31605">
        <ele>196.6</ele>
        <time>2021-12-06T11:37:48Z</time>
      </trkpt>
      <trkpt lat="46.5025" lon="5.31567">
        <ele>196.6</ele>
        <time>2021-12-06T11:37:55Z</time>
      </trkpt>
      <trkpt lat="46.50223" lon="5.31525">
        <ele>196.8</ele>
        <time>2021-12-06T11:38:01Z</time>
      </trkpt>
      <trkpt lat="46.50208" lon="5.31486">
        <ele>197.8</ele>
        <time>2021-12-06T11:38:07Z</time>
      </trkpt>
      <trkpt lat="46.50206" lon="5.31479">
        <ele>197.8</ele>
        <time>2021-12-06T11:38:08Z</time>
      </trkpt>
      <trkpt lat="46.50204" lon="5.31475">
        <ele>198.2</ele>
        <time>2021-12-06T11:38:09Z</time>
      </trkpt>
      <trkpt lat="46.50196" lon="5.31451">
        <ele>199.2</ele>
        <time>2021-12-06T11:38:13Z</time>
      </trkpt>
      <trkpt lat="46.50194" lon="5.31445">
        <ele>199.2</ele>
        <time>2021-12-06T11:38:14Z</time>
      </trkpt>
      <trkpt lat="46.50188" lon="5.31423">
        <ele>200.6</ele>
        <time>2021-12-06T11:38:18Z</time>
      </trkpt>
      <trkpt lat="46.50185" lon="5.31413">
        <ele>201.2</ele>
        <time>2021-12-06T11:38:20Z</time>
      </trkpt>
      <trkpt lat="46.50183" lon="5.31408">
        <ele>201.6</ele>
        <time>2021-12-06T11:38:21Z</time>
      </trkpt>
      <trkpt lat="46.5018" lon="5.31402">
        <ele>201.6</ele>
        <time>2021-12-06T11:38:22Z</time>
      </trkpt>
      <trkpt lat="46.50174" lon="5.31382">
        <ele>202.6</ele>
        <time>2021-12-06T11:38:26Z</time>
      </trkpt>
      <trkpt lat="46.50172" lon="5.31377">
        <ele>202.8</ele>
        <time>2021-12-06T11:38:27Z</time>
      </trkpt>
      <trkpt lat="46.50163" lon="5.31348">
        <ele>203.8</ele>
        <time>2021-12-06T11:38:32Z</time>
      </trkpt>
      <trkpt lat="46.50156" lon="5.31325">
        <ele>204.4</ele>
        <time>2021-12-06T11:38:36Z</time>
      </trkpt>
      <trkpt lat="46.50149" lon="5.31305">
        <ele>204.8</ele>
        <time>2021-12-06T11:38:39Z</time>
      </trkpt>
      <trkpt lat="46.50136" lon="5.31266">
        <ele>205.2</ele>
        <time>2021-12-06T11:38:45Z</time>
      </trkpt>
      <trkpt lat="46.50119" lon="5.3122">
        <ele>205</ele>
        <time>2021-12-06T11:38:51Z</time>
      </trkpt>
      <trkpt lat="46.50098" lon="5.31159">
        <ele>203.8</ele>
        <time>2021-12-06T11:38:58Z</time>
      </trkpt>
      <trkpt lat="46.50095" lon="5.31149">
        <ele>203.6</ele>
        <time>2021-12-06T11:38:59Z</time>
      </trkpt>
      <trkpt lat="46.50079" lon="5.31104">
        <ele>202.2</ele>
        <time>2021-12-06T11:39:04Z</time>
      </trkpt>
      <trkpt lat="46.50073" lon="5.31087">
        <ele>202</ele>
        <time>2021-12-06T11:39:06Z</time>
      </trkpt>
      <trkpt lat="46.50059" lon="5.31046">
        <ele>202.2</ele>
        <time>2021-12-06T11:39:12Z</time>
      </trkpt>
      <trkpt lat="46.50051" lon="5.31024">
        <ele>204</ele>
        <time>2021-12-06T11:39:16Z</time>
      </trkpt>
      <trkpt lat="46.50049" lon="5.31018">
        <ele>204.2</ele>
        <time>2021-12-06T11:39:17Z</time>
      </trkpt>
      <trkpt lat="46.50047" lon="5.31013">
        <ele>204.6</ele>
        <time>2021-12-06T11:39:18Z</time>
      </trkpt>
      <trkpt lat="46.50042" lon="5.30998">
        <ele>205</ele>
        <time>2021-12-06T11:39:21Z</time>
      </trkpt>
      <trkpt lat="46.50039" lon="5.30993">
        <ele>205.6</ele>
        <time>2021-12-06T11:39:22Z</time>
      </trkpt>
      <trkpt lat="46.50032" lon="5.30973">
        <ele>206.6</ele>
        <time>2021-12-06T11:39:26Z</time>
      </trkpt>
      <trkpt lat="46.50024" lon="5.30948">
        <ele>208</ele>
        <time>2021-12-06T11:39:31Z</time>
      </trkpt>
      <trkpt lat="46.50014" lon="5.30923">
        <ele>209.2</ele>
        <time>2021-12-06T11:39:36Z</time>
      </trkpt>
      <trkpt lat="46.50012" lon="5.30918">
        <ele>209.2</ele>
        <time>2021-12-06T11:39:37Z</time>
      </trkpt>
      <trkpt lat="46.50005" lon="5.30899">
        <ele>210.2</ele>
        <time>2021-12-06T11:39:41Z</time>
      </trkpt>
      <trkpt lat="46.5" lon="5.30884">
        <ele>210.8</ele>
        <time>2021-12-06T11:39:44Z</time>
      </trkpt>
      <trkpt lat="46.49995" lon="5.3087">
        <ele>211.4</ele>
        <time>2021-12-06T11:39:47Z</time>
      </trkpt>
      <trkpt lat="46.49987" lon="5.30849">
        <ele>212.4</ele>
        <time>2021-12-06T11:39:51Z</time>
      </trkpt>
      <trkpt lat="46.49985" lon="5.30843">
        <ele>212.6</ele>
        <time>2021-12-06T11:39:52Z</time>
      </trkpt>
      <trkpt lat="46.49977" lon="5.3082">
        <ele>213.4</ele>
        <time>2021-12-06T11:39:56Z</time>
      </trkpt>
      <trkpt lat="46.49971" lon="5.30796">
        <ele>214</ele>
        <time>2021-12-06T11:40:00Z</time>
      </trkpt>
      <trkpt lat="46.49966" lon="5.30777">
        <ele>214.4</ele>
        <time>2021-12-06T11:40:03Z</time>
      </trkpt>
      <trkpt lat="46.49965" lon="5.30771">
        <ele>214.6</ele>
        <time>2021-12-06T11:40:04Z</time>
      </trkpt>
      <trkpt lat="46.4996" lon="5.30753">
        <ele>214.8</ele>
        <time>2021-12-06T11:40:07Z</time>
      </trkpt>
      <trkpt lat="46.49949" lon="5.30688">
        <ele>215.4</ele>
        <time>2021-12-06T11:40:16Z</time>
      </trkpt>
      <trkpt lat="46.49939" lon="5.30633">
        <ele>215</ele>
        <time>2021-12-06T11:40:22Z</time>
      </trkpt>
      <trkpt lat="46.49934" lon="5.30568">
        <ele>213.2</ele>
        <time>2021-12-06T11:40:28Z</time>
      </trkpt>
      <trkpt lat="46.49936" lon="5.30546">
        <ele>212.4</ele>
        <time>2021-12-06T11:40:30Z</time>
      </trkpt>
      <trkpt lat="46.49938" lon="5.30535">
        <ele>211.8</ele>
        <time>2021-12-06T11:40:31Z</time>
      </trkpt>
      <trkpt lat="46.4994" lon="5.30524">
        <ele>211.6</ele>
        <time>2021-12-06T11:40:32Z</time>
      </trkpt>
      <trkpt lat="46.49949" lon="5.30495">
        <ele>210.6</ele>
        <time>2021-12-06T11:40:35Z</time>
      </trkpt>
      <trkpt lat="46.49954" lon="5.30483">
        <ele>210.6</ele>
        <time>2021-12-06T11:40:36Z</time>
      </trkpt>
      <trkpt lat="46.49959" lon="5.30473">
        <ele>210.2</ele>
        <time>2021-12-06T11:40:37Z</time>
      </trkpt>
      <trkpt lat="46.49965" lon="5.30464">
        <ele>210.2</ele>
        <time>2021-12-06T11:40:38Z</time>
      </trkpt>
      <trkpt lat="46.49977" lon="5.3045">
        <ele>209.6</ele>
        <time>2021-12-06T11:40:40Z</time>
      </trkpt>
      <trkpt lat="46.49986" lon="5.30441">
        <ele>209.2</ele>
        <time>2021-12-06T11:40:41Z</time>
      </trkpt>
      <trkpt lat="46.50001" lon="5.30428">
        <ele>208.4</ele>
        <time>2021-12-06T11:40:43Z</time>
      </trkpt>
      <trkpt lat="46.50025" lon="5.3041">
        <ele>207.4</ele>
        <time>2021-12-06T11:40:46Z</time>
      </trkpt>
      <trkpt lat="46.50033" lon="5.30404">
        <ele>207.2</ele>
        <time>2021-12-06T11:40:47Z</time>
      </trkpt>
      <trkpt lat="46.50046" lon="5.30391">
        <ele>206.2</ele>
        <time>2021-12-06T11:40:49Z</time>
      </trkpt>
      <trkpt lat="46.50058" lon="5.30374">
        <ele>205.8</ele>
        <time>2021-12-06T11:40:51Z</time>
      </trkpt>
      <trkpt lat="46.50064" lon="5.30364">
        <ele>205.8</ele>
        <time>2021-12-06T11:40:52Z</time>
      </trkpt>
      <trkpt lat="46.50076" lon="5.30339">
        <ele>205.6</ele>
        <time>2021-12-06T11:40:55Z</time>
      </trkpt>
      <trkpt lat="46.50082" lon="5.30319">
        <ele>205.6</ele>
        <time>2021-12-06T11:40:57Z</time>
      </trkpt>
      <trkpt lat="46.50088" lon="5.30276">
        <ele>206.6</ele>
        <time>2021-12-06T11:41:02Z</time>
      </trkpt>
      <trkpt lat="46.5009" lon="5.30244">
        <ele>207.4</ele>
        <time>2021-12-06T11:41:06Z</time>
      </trkpt>
      <trkpt lat="46.50093" lon="5.30227">
        <ele>207.6</ele>
        <time>2021-12-06T11:41:08Z</time>
      </trkpt>
      <trkpt lat="46.50093" lon="5.30219">
        <ele>207.8</ele>
        <time>2021-12-06T11:41:09Z</time>
      </trkpt>
      <trkpt lat="46.50093" lon="5.30183">
        <ele>208</ele>
        <time>2021-12-06T11:41:13Z</time>
      </trkpt>
      <trkpt lat="46.50093" lon="5.30156">
        <ele>208.4</ele>
        <time>2021-12-06T11:41:16Z</time>
      </trkpt>
      <trkpt lat="46.50093" lon="5.30148">
        <ele>208.4</ele>
        <time>2021-12-06T11:41:17Z</time>
      </trkpt>
      <trkpt lat="46.50093" lon="5.30129">
        <ele>208.4</ele>
        <time>2021-12-06T11:41:19Z</time>
      </trkpt>
      <trkpt lat="46.50092" lon="5.30073">
        <ele>209.4</ele>
        <time>2021-12-06T11:41:26Z</time>
      </trkpt>
      <trkpt lat="46.50092" lon="5.30065">
        <ele>209.6</ele>
        <time>2021-12-06T11:41:27Z</time>
      </trkpt>
      <trkpt lat="46.50086" lon="5.29999">
        <ele>210.2</ele>
        <time>2021-12-06T11:41:35Z</time>
      </trkpt>
      <trkpt lat="46.50076" lon="5.29951">
        <ele>210.2</ele>
        <time>2021-12-06T11:41:41Z</time>
      </trkpt>
      <trkpt lat="46.50055" lon="5.29909">
        <ele>209.8</ele>
        <time>2021-12-06T11:41:47Z</time>
      </trkpt>
      <trkpt lat="46.50046" lon="5.29897">
        <ele>209.8</ele>
        <time>2021-12-06T11:41:49Z</time>
      </trkpt>
      <trkpt lat="46.5003" lon="5.29881">
        <ele>209.6</ele>
        <time>2021-12-06T11:41:52Z</time>
      </trkpt>
      <trkpt lat="46.50023" lon="5.2987">
        <ele>209.4</ele>
        <time>2021-12-06T11:41:54Z</time>
      </trkpt>
      <trkpt lat="46.50021" lon="5.29861">
        <ele>209.4</ele>
        <time>2021-12-06T11:41:55Z</time>
      </trkpt>
      <trkpt lat="46.50022" lon="5.29853">
        <ele>209.2</ele>
        <time>2021-12-06T11:41:56Z</time>
      </trkpt>
      <trkpt lat="46.50026" lon="5.29846">
        <ele>209</ele>
        <time>2021-12-06T11:41:57Z</time>
      </trkpt>
      <trkpt lat="46.50029" lon="5.29841">
        <ele>209</ele>
        <time>2021-12-06T11:41:58Z</time>
      </trkpt>
      <trkpt lat="46.50055" lon="5.2981">
        <ele>208.8</ele>
        <time>2021-12-06T11:42:03Z</time>
      </trkpt>
      <trkpt lat="46.50084" lon="5.29795">
        <ele>208.6</ele>
        <time>2021-12-06T11:42:08Z</time>
      </trkpt>
      <trkpt lat="46.50111" lon="5.29786">
        <ele>209</ele>
        <time>2021-12-06T11:42:13Z</time>
      </trkpt>
      <trkpt lat="46.50148" lon="5.29777">
        <ele>210.4</ele>
        <time>2021-12-06T11:42:20Z</time>
      </trkpt>
      <trkpt lat="46.50154" lon="5.29776">
        <ele>210.8</ele>
        <time>2021-12-06T11:42:21Z</time>
      </trkpt>
      <trkpt lat="46.50168" lon="5.29774">
        <ele>211.6</ele>
        <time>2021-12-06T11:42:24Z</time>
      </trkpt>
      <trkpt lat="46.50189" lon="5.29773">
        <ele>212.6</ele>
        <time>2021-12-06T11:42:28Z</time>
      </trkpt>
      <trkpt lat="46.50194" lon="5.29774">
        <ele>212.8</ele>
        <time>2021-12-06T11:42:29Z</time>
      </trkpt>
      <trkpt lat="46.50223" lon="5.29775">
        <ele>213.4</ele>
        <time>2021-12-06T11:42:34Z</time>
      </trkpt>
      <trkpt lat="46.50247" lon="5.29772">
        <ele>214</ele>
        <time>2021-12-06T11:42:38Z</time>
      </trkpt>
      <trkpt lat="46.50264" lon="5.29767">
        <ele>214.2</ele>
        <time>2021-12-06T11:42:41Z</time>
      </trkpt>
      <trkpt lat="46.50321" lon="5.29744">
        <ele>214.4</ele>
        <time>2021-12-06T11:42:51Z</time>
      </trkpt>
      <trkpt lat="46.50376" lon="5.2972">
        <ele>215</ele>
        <time>2021-12-06T11:43:01Z</time>
      </trkpt>
      <trkpt lat="46.50382" lon="5.29717">
        <ele>215</ele>
        <time>2021-12-06T11:43:02Z</time>
      </trkpt>
      <trkpt lat="46.50422" lon="5.29691">
        <ele>215.2</ele>
        <time>2021-12-06T11:43:09Z</time>
      </trkpt>
      <trkpt lat="46.50477" lon="5.29654">
        <ele>214.8</ele>
        <time>2021-12-06T11:43:18Z</time>
      </trkpt>
      <trkpt lat="46.50531" lon="5.29616">
        <ele>214.6</ele>
        <time>2021-12-06T11:43:27Z</time>
      </trkpt>
      <trkpt lat="46.50536" lon="5.29612">
        <ele>214.6</ele>
        <time>2021-12-06T11:43:28Z</time>
      </trkpt>
      <trkpt lat="46.50588" lon="5.29573">
        <ele>214.4</ele>
        <time>2021-12-06T11:43:37Z</time>
      </trkpt>
      <trkpt lat="46.50611" lon="5.29555">
        <ele>214.2</ele>
        <time>2021-12-06T11:43:41Z</time>
      </trkpt>
      <trkpt lat="46.50651" lon="5.29528">
        <ele>214</ele>
        <time>2021-12-06T11:43:48Z</time>
      </trkpt>
      <trkpt lat="46.50658" lon="5.29527">
        <ele>214</ele>
        <time>2021-12-06T11:43:49Z</time>
      </trkpt>
      <trkpt lat="46.50665" lon="5.29527">
        <ele>213.6</ele>
        <time>2021-12-06T11:43:50Z</time>
      </trkpt>
      <trkpt lat="46.50687" lon="5.29533">
        <ele>213.4</ele>
        <time>2021-12-06T11:43:53Z</time>
      </trkpt>
      <trkpt lat="46.50716" lon="5.29547">
        <ele>212.8</ele>
        <time>2021-12-06T11:43:57Z</time>
      </trkpt>
      <trkpt lat="46.50739" lon="5.29557">
        <ele>212.2</ele>
        <time>2021-12-06T11:44:00Z</time>
      </trkpt>
      <trkpt lat="46.50755" lon="5.29563">
        <ele>211.6</ele>
        <time>2021-12-06T11:44:02Z</time>
      </trkpt>
      <trkpt lat="46.50781" lon="5.29568">
        <ele>210.6</ele>
        <time>2021-12-06T11:44:05Z</time>
      </trkpt>
      <trkpt lat="46.5079" lon="5.29568">
        <ele>210.2</ele>
        <time>2021-12-06T11:44:06Z</time>
      </trkpt>
      <trkpt lat="46.50827" lon="5.29569">
        <ele>208.8</ele>
        <time>2021-12-06T11:44:10Z</time>
      </trkpt>
      <trkpt lat="46.50846" lon="5.29571">
        <ele>207.8</ele>
        <time>2021-12-06T11:44:12Z</time>
      </trkpt>
      <trkpt lat="46.50875" lon="5.29574">
        <ele>206</ele>
        <time>2021-12-06T11:44:15Z</time>
      </trkpt>
      <trkpt lat="46.50896" lon="5.29573">
        <ele>205.2</ele>
        <time>2021-12-06T11:44:17Z</time>
      </trkpt>
      <trkpt lat="46.50906" lon="5.2957">
        <ele>204.8</ele>
        <time>2021-12-06T11:44:18Z</time>
      </trkpt>
      <trkpt lat="46.50916" lon="5.29566">
        <ele>204.4</ele>
        <time>2021-12-06T11:44:19Z</time>
      </trkpt>
      <trkpt lat="46.50925" lon="5.2956">
        <ele>203.8</ele>
        <time>2021-12-06T11:44:20Z</time>
      </trkpt>
      <trkpt lat="46.50945" lon="5.29545">
        <ele>202.6</ele>
        <time>2021-12-06T11:44:22Z</time>
      </trkpt>
      <trkpt lat="46.50966" lon="5.29529">
        <ele>201.2</ele>
        <time>2021-12-06T11:44:24Z</time>
      </trkpt>
      <trkpt lat="46.50987" lon="5.29512">
        <ele>199.8</ele>
        <time>2021-12-06T11:44:26Z</time>
      </trkpt>
      <trkpt lat="46.51008" lon="5.29496">
        <ele>198</ele>
        <time>2021-12-06T11:44:28Z</time>
      </trkpt>
      <trkpt lat="46.51018" lon="5.29487">
        <ele>196.6</ele>
        <time>2021-12-06T11:44:29Z</time>
      </trkpt>
      <trkpt lat="46.51039" lon="5.29472">
        <ele>195</ele>
        <time>2021-12-06T11:44:31Z</time>
      </trkpt>
      <trkpt lat="46.5106" lon="5.29458">
        <ele>193.4</ele>
        <time>2021-12-06T11:44:33Z</time>
      </trkpt>
      <trkpt lat="46.5108" lon="5.29448">
        <ele>192.2</ele>
        <time>2021-12-06T11:44:35Z</time>
      </trkpt>
      <trkpt lat="46.51111" lon="5.29437">
        <ele>190.8</ele>
        <time>2021-12-06T11:44:38Z</time>
      </trkpt>
      <trkpt lat="46.51121" lon="5.29435">
        <ele>190.6</ele>
        <time>2021-12-06T11:44:39Z</time>
      </trkpt>
      <trkpt lat="46.51149" lon="5.29427">
        <ele>189.8</ele>
        <time>2021-12-06T11:44:42Z</time>
      </trkpt>
      <trkpt lat="46.51185" lon="5.29417">
        <ele>189.6</ele>
        <time>2021-12-06T11:44:46Z</time>
      </trkpt>
      <trkpt lat="46.51247" lon="5.29401">
        <ele>189</ele>
        <time>2021-12-06T11:44:53Z</time>
      </trkpt>
      <trkpt lat="46.51264" lon="5.29398">
        <ele>188.8</ele>
        <time>2021-12-06T11:44:55Z</time>
      </trkpt>
      <trkpt lat="46.51272" lon="5.29395">
        <ele>188.8</ele>
        <time>2021-12-06T11:44:56Z</time>
      </trkpt>
      <trkpt lat="46.51303" lon="5.2938">
        <ele>188.4</ele>
        <time>2021-12-06T11:45:00Z</time>
      </trkpt>
      <trkpt lat="46.51354" lon="5.29349">
        <ele>188.2</ele>
        <time>2021-12-06T11:45:07Z</time>
      </trkpt>
      <trkpt lat="46.51361" lon="5.29344">
        <ele>188.2</ele>
        <time>2021-12-06T11:45:08Z</time>
      </trkpt>
      <trkpt lat="46.51373" lon="5.29329">
        <ele>188.2</ele>
        <time>2021-12-06T11:45:10Z</time>
      </trkpt>
      <trkpt lat="46.51382" lon="5.29313">
        <ele>188.4</ele>
        <time>2021-12-06T11:45:12Z</time>
      </trkpt>
      <trkpt lat="46.51419" lon="5.2925">
        <ele>188.6</ele>
        <time>2021-12-06T11:45:20Z</time>
      </trkpt>
      <trkpt lat="46.51437" lon="5.29221">
        <ele>188.8</ele>
        <time>2021-12-06T11:45:24Z</time>
      </trkpt>
      <trkpt lat="46.51444" lon="5.29203">
        <ele>188.8</ele>
        <time>2021-12-06T11:45:26Z</time>
      </trkpt>
      <trkpt lat="46.51457" lon="5.29143">
        <ele>189</ele>
        <time>2021-12-06T11:45:32Z</time>
      </trkpt>
      <trkpt lat="46.51471" lon="5.29061">
        <ele>188.4</ele>
        <time>2021-12-06T11:45:40Z</time>
      </trkpt>
      <trkpt lat="46.51475" lon="5.29041">
        <ele>188</ele>
        <time>2021-12-06T11:45:42Z</time>
      </trkpt>
      <trkpt lat="46.5148" lon="5.2901">
        <ele>187.6</ele>
        <time>2021-12-06T11:45:45Z</time>
      </trkpt>
      <trkpt lat="46.51494" lon="5.28928">
        <ele>186.6</ele>
        <time>2021-12-06T11:45:53Z</time>
      </trkpt>
      <trkpt lat="46.51498" lon="5.28907">
        <ele>186.4</ele>
        <time>2021-12-06T11:45:55Z</time>
      </trkpt>
      <trkpt lat="46.51511" lon="5.28831">
        <ele>186</ele>
        <time>2021-12-06T11:46:03Z</time>
      </trkpt>
      <trkpt lat="46.51513" lon="5.28822">
        <ele>186</ele>
        <time>2021-12-06T11:46:04Z</time>
      </trkpt>
      <trkpt lat="46.51511" lon="5.28778">
        <ele>186</ele>
        <time>2021-12-06T11:46:09Z</time>
      </trkpt>
      <trkpt lat="46.51498" lon="5.28716">
        <ele>186.4</ele>
        <time>2021-12-06T11:46:16Z</time>
      </trkpt>
      <trkpt lat="46.51477" lon="5.2865">
        <ele>186</ele>
        <time>2021-12-06T11:46:23Z</time>
      </trkpt>
      <trkpt lat="46.51453" lon="5.28578">
        <ele>185.6</ele>
        <time>2021-12-06T11:46:31Z</time>
      </trkpt>
      <trkpt lat="46.51448" lon="5.28561">
        <ele>185.8</ele>
        <time>2021-12-06T11:46:33Z</time>
      </trkpt>
      <trkpt lat="46.51429" lon="5.28505">
        <ele>186</ele>
        <time>2021-12-06T11:46:40Z</time>
      </trkpt>
      <trkpt lat="46.51423" lon="5.2848">
        <ele>186.2</ele>
        <time>2021-12-06T11:46:43Z</time>
      </trkpt>
      <trkpt lat="46.51423" lon="5.28471">
        <ele>186.4</ele>
        <time>2021-12-06T11:46:44Z</time>
      </trkpt>
      <trkpt lat="46.51423" lon="5.28462">
        <ele>186.4</ele>
        <time>2021-12-06T11:46:45Z</time>
      </trkpt>
      <trkpt lat="46.51425" lon="5.28447">
        <ele>186.6</ele>
        <time>2021-12-06T11:46:47Z</time>
      </trkpt>
      <trkpt lat="46.51428" lon="5.28439">
        <ele>186.6</ele>
        <time>2021-12-06T11:46:48Z</time>
      </trkpt>
      <trkpt lat="46.5143" lon="5.28432">
        <ele>186.6</ele>
        <time>2021-12-06T11:46:49Z</time>
      </trkpt>
      <trkpt lat="46.51443" lon="5.28408">
        <ele>187</ele>
        <time>2021-12-06T11:46:53Z</time>
      </trkpt>
      <trkpt lat="46.51452" lon="5.28391">
        <ele>188</ele>
        <time>2021-12-06T11:46:56Z</time>
      </trkpt>
      <trkpt lat="46.51466" lon="5.28364">
        <ele>189.2</ele>
        <time>2021-12-06T11:47:01Z</time>
      </trkpt>
      <trkpt lat="46.51468" lon="5.28359">
        <ele>189.2</ele>
        <time>2021-12-06T11:47:02Z</time>
      </trkpt>
      <trkpt lat="46.51477" lon="5.28343">
        <ele>190.2</ele>
        <time>2021-12-06T11:47:05Z</time>
      </trkpt>
      <trkpt lat="46.51492" lon="5.28313">
        <ele>190.8</ele>
        <time>2021-12-06T11:47:11Z</time>
      </trkpt>
      <trkpt lat="46.51495" lon="5.28308">
        <ele>191</ele>
        <time>2021-12-06T11:47:12Z</time>
      </trkpt>
      <trkpt lat="46.5151" lon="5.28276">
        <ele>192.2</ele>
        <time>2021-12-06T11:47:18Z</time>
      </trkpt>
      <trkpt lat="46.51527" lon="5.28238">
        <ele>193.4</ele>
        <time>2021-12-06T11:47:25Z</time>
      </trkpt>
      <trkpt lat="46.51538" lon="5.2821">
        <ele>194.6</ele>
        <time>2021-12-06T11:47:30Z</time>
      </trkpt>
      <trkpt lat="46.51544" lon="5.28194">
        <ele>195.2</ele>
        <time>2021-12-06T11:47:33Z</time>
      </trkpt>
      <trkpt lat="46.51547" lon="5.28182">
        <ele>195.8</ele>
        <time>2021-12-06T11:47:35Z</time>
      </trkpt>
      <trkpt lat="46.51556" lon="5.28153">
        <ele>196.4</ele>
        <time>2021-12-06T11:47:40Z</time>
      </trkpt>
      <trkpt lat="46.51559" lon="5.28141">
        <ele>196.8</ele>
        <time>2021-12-06T11:47:42Z</time>
      </trkpt>
      <trkpt lat="46.51562" lon="5.28131">
        <ele>197.2</ele>
        <time>2021-12-06T11:47:44Z</time>
      </trkpt>
      <trkpt lat="46.51558" lon="5.28122">
        <ele>197.6</ele>
        <time>2021-12-06T11:47:46Z</time>
      </trkpt>
      <trkpt lat="46.51555" lon="5.28121">
        <ele>197.6</ele>
        <time>2021-12-06T11:47:47Z</time>
      </trkpt>
      <trkpt lat="46.51552" lon="5.28123">
        <ele>197.8</ele>
        <time>2021-12-06T11:47:48Z</time>
      </trkpt>
      <trkpt lat="46.51545" lon="5.28127">
        <ele>198.2</ele>
        <time>2021-12-06T11:47:50Z</time>
      </trkpt>
      <trkpt lat="46.51539" lon="5.28132">
        <ele>199</ele>
        <time>2021-12-06T11:47:53Z</time>
      </trkpt>
      <trkpt lat="46.51538" lon="5.28134">
        <ele>199.2</ele>
        <time>2021-12-06T11:47:54Z</time>
      </trkpt>
      <trkpt lat="46.51536" lon="5.28136">
        <ele>200</ele>
        <time>2021-12-06T11:47:58Z</time>
      </trkpt>
      <trkpt lat="46.51539" lon="5.28133">
        <ele>200.2</ele>
        <time>2021-12-06T11:49:02Z</time>
      </trkpt>
      <trkpt lat="46.51547" lon="5.28129">
        <ele>200.2</ele>
        <time>2021-12-06T11:49:04Z</time>
      </trkpt>
      <trkpt lat="46.51557" lon="5.28126">
        <ele>200.2</ele>
        <time>2021-12-06T11:49:06Z</time>
      </trkpt>
      <trkpt lat="46.51566" lon="5.28119">
        <ele>200</ele>
        <time>2021-12-06T11:49:08Z</time>
      </trkpt>
      <trkpt lat="46.51569" lon="5.28112">
        <ele>199.8</ele>
        <time>2021-12-06T11:49:09Z</time>
      </trkpt>
      <trkpt lat="46.51584" lon="5.28068">
        <ele>199.2</ele>
        <time>2021-12-06T11:49:15Z</time>
      </trkpt>
      <trkpt lat="46.51597" lon="5.28035">
        <ele>199.4</ele>
        <time>2021-12-06T11:49:20Z</time>
      </trkpt>
      <trkpt lat="46.51609" lon="5.28012">
        <ele>200.4</ele>
        <time>2021-12-06T11:49:24Z</time>
      </trkpt>
      <trkpt lat="46.51619" lon="5.27998">
        <ele>201.2</ele>
        <time>2021-12-06T11:49:27Z</time>
      </trkpt>
      <trkpt lat="46.51635" lon="5.27981">
        <ele>202</ele>
        <time>2021-12-06T11:49:31Z</time>
      </trkpt>
      <trkpt lat="46.5164" lon="5.27976">
        <ele>202.2</ele>
        <time>2021-12-06T11:49:32Z</time>
      </trkpt>
      <trkpt lat="46.51659" lon="5.27956">
        <ele>202.4</ele>
        <time>2021-12-06T11:49:36Z</time>
      </trkpt>
      <trkpt lat="46.51669" lon="5.27945">
        <ele>202.4</ele>
        <time>2021-12-06T11:49:38Z</time>
      </trkpt>
      <trkpt lat="46.51696" lon="5.27918">
        <ele>202.2</ele>
        <time>2021-12-06T11:49:43Z</time>
      </trkpt>
      <trkpt lat="46.51736" lon="5.27877">
        <ele>201.2</ele>
        <time>2021-12-06T11:49:50Z</time>
      </trkpt>
      <trkpt lat="46.51742" lon="5.2787">
        <ele>201</ele>
        <time>2021-12-06T11:49:51Z</time>
      </trkpt>
      <trkpt lat="46.51775" lon="5.27836">
        <ele>200.2</ele>
        <time>2021-12-06T11:49:56Z</time>
      </trkpt>
      <trkpt lat="46.51797" lon="5.27815">
        <ele>199</ele>
        <time>2021-12-06T11:49:59Z</time>
      </trkpt>
      <trkpt lat="46.51811" lon="5.27799">
        <ele>198</ele>
        <time>2021-12-06T11:50:01Z</time>
      </trkpt>
      <trkpt lat="46.51826" lon="5.27784">
        <ele>197.2</ele>
        <time>2021-12-06T11:50:03Z</time>
      </trkpt>
      <trkpt lat="46.51833" lon="5.27777">
        <ele>196.6</ele>
        <time>2021-12-06T11:50:04Z</time>
      </trkpt>
      <trkpt lat="46.51855" lon="5.27754">
        <ele>195.6</ele>
        <time>2021-12-06T11:50:07Z</time>
      </trkpt>
      <trkpt lat="46.5187" lon="5.27739">
        <ele>194.4</ele>
        <time>2021-12-06T11:50:09Z</time>
      </trkpt>
      <trkpt lat="46.51893" lon="5.27716">
        <ele>193.4</ele>
        <time>2021-12-06T11:50:12Z</time>
      </trkpt>
      <trkpt lat="46.519" lon="5.27709">
        <ele>192.8</ele>
        <time>2021-12-06T11:50:13Z</time>
      </trkpt>
      <trkpt lat="46.51915" lon="5.27692">
        <ele>192</ele>
        <time>2021-12-06T11:50:15Z</time>
      </trkpt>
      <trkpt lat="46.51938" lon="5.27667">
        <ele>190.8</ele>
        <time>2021-12-06T11:50:18Z</time>
      </trkpt>
      <trkpt lat="46.51952" lon="5.27649">
        <ele>190.2</ele>
        <time>2021-12-06T11:50:20Z</time>
      </trkpt>
      <trkpt lat="46.51974" lon="5.27621">
        <ele>189.6</ele>
        <time>2021-12-06T11:50:23Z</time>
      </trkpt>
      <trkpt lat="46.51994" lon="5.27593">
        <ele>188.6</ele>
        <time>2021-12-06T11:50:26Z</time>
      </trkpt>
      <trkpt lat="46.52007" lon="5.27576">
        <ele>187.4</ele>
        <time>2021-12-06T11:50:28Z</time>
      </trkpt>
      <trkpt lat="46.52043" lon="5.2753">
        <ele>187</ele>
        <time>2021-12-06T11:50:34Z</time>
      </trkpt>
      <trkpt lat="46.52079" lon="5.27485">
        <ele>187.8</ele>
        <time>2021-12-06T11:50:41Z</time>
      </trkpt>
      <trkpt lat="46.52091" lon="5.27468">
        <ele>188.6</ele>
        <time>2021-12-06T11:50:44Z</time>
      </trkpt>
      <trkpt lat="46.52102" lon="5.27451">
        <ele>189.6</ele>
        <time>2021-12-06T11:50:47Z</time>
      </trkpt>
      <trkpt lat="46.52105" lon="5.27446">
        <ele>189.8</ele>
        <time>2021-12-06T11:50:48Z</time>
      </trkpt>
      <trkpt lat="46.52117" lon="5.27422">
        <ele>191</ele>
        <time>2021-12-06T11:50:52Z</time>
      </trkpt>
      <trkpt lat="46.52121" lon="5.2741">
        <ele>191.4</ele>
        <time>2021-12-06T11:50:54Z</time>
      </trkpt>
      <trkpt lat="46.52126" lon="5.27392">
        <ele>192</ele>
        <time>2021-12-06T11:50:57Z</time>
      </trkpt>
      <trkpt lat="46.52126" lon="5.27386">
        <ele>192.4</ele>
        <time>2021-12-06T11:50:58Z</time>
      </trkpt>
      <trkpt lat="46.52128" lon="5.27373">
        <ele>192.8</ele>
        <time>2021-12-06T11:51:00Z</time>
      </trkpt>
      <trkpt lat="46.52128" lon="5.27367">
        <ele>193</ele>
        <time>2021-12-06T11:51:01Z</time>
      </trkpt>
      <trkpt lat="46.52127" lon="5.27348">
        <ele>193.4</ele>
        <time>2021-12-06T11:51:04Z</time>
      </trkpt>
      <trkpt lat="46.52127" lon="5.27343">
        <ele>193.8</ele>
        <time>2021-12-06T11:51:05Z</time>
      </trkpt>
      <trkpt lat="46.52123" lon="5.27332">
        <ele>194</ele>
        <time>2021-12-06T11:51:07Z</time>
      </trkpt>
      <trkpt lat="46.52118" lon="5.27322">
        <ele>194.6</ele>
        <time>2021-12-06T11:51:09Z</time>
      </trkpt>
      <trkpt lat="46.521" lon="5.27307">
        <ele>195.6</ele>
        <time>2021-12-06T11:51:14Z</time>
      </trkpt>
      <trkpt lat="46.52095" lon="5.27304">
        <ele>195.8</ele>
        <time>2021-12-06T11:51:15Z</time>
      </trkpt>
      <trkpt lat="46.52071" lon="5.27291">
        <ele>196.6</ele>
        <time>2021-12-06T11:51:20Z</time>
      </trkpt>
      <trkpt lat="46.52067" lon="5.27288">
        <ele>197</ele>
        <time>2021-12-06T11:51:21Z</time>
      </trkpt>
      <trkpt lat="46.52063" lon="5.27286">
        <ele>197</ele>
        <time>2021-12-06T11:51:22Z</time>
      </trkpt>
      <trkpt lat="46.52055" lon="5.27278">
        <ele>197.6</ele>
        <time>2021-12-06T11:51:24Z</time>
      </trkpt>
      <trkpt lat="46.52048" lon="5.27269">
        <ele>198</ele>
        <time>2021-12-06T11:51:26Z</time>
      </trkpt>
      <trkpt lat="46.52044" lon="5.27264">
        <ele>198.2</ele>
        <time>2021-12-06T11:51:27Z</time>
      </trkpt>
      <trkpt lat="46.52028" lon="5.27235">
        <ele>199.2</ele>
        <time>2021-12-06T11:51:33Z</time>
      </trkpt>
      <trkpt lat="46.52026" lon="5.2723">
        <ele>199.2</ele>
        <time>2021-12-06T11:51:34Z</time>
      </trkpt>
      <trkpt lat="46.52016" lon="5.27197">
        <ele>200.4</ele>
        <time>2021-12-06T11:51:40Z</time>
      </trkpt>
      <trkpt lat="46.52011" lon="5.27176">
        <ele>201.2</ele>
        <time>2021-12-06T11:51:44Z</time>
      </trkpt>
      <trkpt lat="46.52009" lon="5.27166">
        <ele>201.4</ele>
        <time>2021-12-06T11:51:46Z</time>
      </trkpt>
      <trkpt lat="46.52003" lon="5.27133">
        <ele>202.6</ele>
        <time>2021-12-06T11:51:52Z</time>
      </trkpt>
      <trkpt lat="46.52002" lon="5.27117">
        <ele>203.4</ele>
        <time>2021-12-06T11:51:55Z</time>
      </trkpt>
      <trkpt lat="46.52001" lon="5.27106">
        <ele>203.6</ele>
        <time>2021-12-06T11:51:57Z</time>
      </trkpt>
      <trkpt lat="46.51997" lon="5.27073">
        <ele>204.6</ele>
        <time>2021-12-06T11:52:03Z</time>
      </trkpt>
      <trkpt lat="46.51997" lon="5.27068">
        <ele>205</ele>
        <time>2021-12-06T11:52:04Z</time>
      </trkpt>
      <trkpt lat="46.51994" lon="5.27039">
        <ele>206.2</ele>
        <time>2021-12-06T11:52:09Z</time>
      </trkpt>
      <trkpt lat="46.51991" lon="5.27014">
        <ele>206.6</ele>
        <time>2021-12-06T11:52:13Z</time>
      </trkpt>
      <trkpt lat="46.51988" lon="5.26988">
        <ele>207</ele>
        <time>2021-12-06T11:52:17Z</time>
      </trkpt>
      <trkpt lat="46.5198" lon="5.2695">
        <ele>207.6</ele>
        <time>2021-12-06T11:52:23Z</time>
      </trkpt>
      <trkpt lat="46.51972" lon="5.26924">
        <ele>208.2</ele>
        <time>2021-12-06T11:52:27Z</time>
      </trkpt>
      <trkpt lat="46.51962" lon="5.26897">
        <ele>208.2</ele>
        <time>2021-12-06T11:52:31Z</time>
      </trkpt>
      <trkpt lat="46.51951" lon="5.26853">
        <ele>208</ele>
        <time>2021-12-06T11:52:36Z</time>
      </trkpt>
      <trkpt lat="46.51951" lon="5.26831">
        <ele>207.6</ele>
        <time>2021-12-06T11:52:38Z</time>
      </trkpt>
      <trkpt lat="46.51954" lon="5.2682">
        <ele>207.4</ele>
        <time>2021-12-06T11:52:39Z</time>
      </trkpt>
      <trkpt lat="46.51957" lon="5.26809">
        <ele>207.2</ele>
        <time>2021-12-06T11:52:40Z</time>
      </trkpt>
      <trkpt lat="46.51962" lon="5.26799">
        <ele>206.6</ele>
        <time>2021-12-06T11:52:41Z</time>
      </trkpt>
      <trkpt lat="46.51969" lon="5.2679">
        <ele>206.2</ele>
        <time>2021-12-06T11:52:42Z</time>
      </trkpt>
      <trkpt lat="46.51976" lon="5.26783">
        <ele>205.4</ele>
        <time>2021-12-06T11:52:43Z</time>
      </trkpt>
      <trkpt lat="46.51992" lon="5.26769">
        <ele>204.4</ele>
        <time>2021-12-06T11:52:45Z</time>
      </trkpt>
      <trkpt lat="46.52009" lon="5.26754">
        <ele>203.4</ele>
        <time>2021-12-06T11:52:47Z</time>
      </trkpt>
      <trkpt lat="46.52018" lon="5.26747">
        <ele>202.8</ele>
        <time>2021-12-06T11:52:48Z</time>
      </trkpt>
      <trkpt lat="46.52045" lon="5.26725">
        <ele>201.6</ele>
        <time>2021-12-06T11:52:51Z</time>
      </trkpt>
      <trkpt lat="46.52072" lon="5.26703">
        <ele>199.8</ele>
        <time>2021-12-06T11:52:54Z</time>
      </trkpt>
      <trkpt lat="46.52081" lon="5.26696">
        <ele>199.2</ele>
        <time>2021-12-06T11:52:55Z</time>
      </trkpt>
      <trkpt lat="46.5209" lon="5.26688">
        <ele>198.8</ele>
        <time>2021-12-06T11:52:56Z</time>
      </trkpt>
      <trkpt lat="46.52108" lon="5.26672">
        <ele>197.6</ele>
        <time>2021-12-06T11:52:58Z</time>
      </trkpt>
      <trkpt lat="46.52125" lon="5.26654">
        <ele>196.4</ele>
        <time>2021-12-06T11:53:00Z</time>
      </trkpt>
      <trkpt lat="46.52141" lon="5.26635">
        <ele>195.4</ele>
        <time>2021-12-06T11:53:02Z</time>
      </trkpt>
      <trkpt lat="46.52148" lon="5.26624">
        <ele>194.8</ele>
        <time>2021-12-06T11:53:03Z</time>
      </trkpt>
      <trkpt lat="46.52166" lon="5.2659">
        <ele>193</ele>
        <time>2021-12-06T11:53:06Z</time>
      </trkpt>
      <trkpt lat="46.5219" lon="5.26555">
        <ele>191.8</ele>
        <time>2021-12-06T11:53:10Z</time>
      </trkpt>
      <trkpt lat="46.52199" lon="5.26546">
        <ele>191.8</ele>
        <time>2021-12-06T11:53:11Z</time>
      </trkpt>
      <trkpt lat="46.52232" lon="5.26526">
        <ele>191.4</ele>
        <time>2021-12-06T11:53:15Z</time>
      </trkpt>
      <trkpt lat="46.5225" lon="5.26518">
        <ele>191</ele>
        <time>2021-12-06T11:53:17Z</time>
      </trkpt>
      <trkpt lat="46.52292" lon="5.26498">
        <ele>189.8</ele>
        <time>2021-12-06T11:53:22Z</time>
      </trkpt>
      <trkpt lat="46.52301" lon="5.26494">
        <ele>189.6</ele>
        <time>2021-12-06T11:53:23Z</time>
      </trkpt>
      <trkpt lat="46.52319" lon="5.26486">
        <ele>189</ele>
        <time>2021-12-06T11:53:25Z</time>
      </trkpt>
      <trkpt lat="46.52327" lon="5.26482">
        <ele>188.4</ele>
        <time>2021-12-06T11:53:26Z</time>
      </trkpt>
      <trkpt lat="46.52354" lon="5.2647">
        <ele>187.2</ele>
        <time>2021-12-06T11:53:29Z</time>
      </trkpt>
      <trkpt lat="46.5238" lon="5.26455">
        <ele>186.4</ele>
        <time>2021-12-06T11:53:32Z</time>
      </trkpt>
      <trkpt lat="46.52387" lon="5.26447">
        <ele>186</ele>
        <time>2021-12-06T11:53:33Z</time>
      </trkpt>
      <trkpt lat="46.52394" lon="5.26438">
        <ele>185.8</ele>
        <time>2021-12-06T11:53:34Z</time>
      </trkpt>
      <trkpt lat="46.52399" lon="5.26428">
        <ele>185.4</ele>
        <time>2021-12-06T11:53:35Z</time>
      </trkpt>
      <trkpt lat="46.52409" lon="5.26407">
        <ele>184.6</ele>
        <time>2021-12-06T11:53:37Z</time>
      </trkpt>
      <trkpt lat="46.52422" lon="5.26374">
        <ele>183.8</ele>
        <time>2021-12-06T11:53:40Z</time>
      </trkpt>
      <trkpt lat="46.52426" lon="5.26363">
        <ele>183.6</ele>
        <time>2021-12-06T11:53:41Z</time>
      </trkpt>
      <trkpt lat="46.52452" lon="5.2629">
        <ele>183</ele>
        <time>2021-12-06T11:53:48Z</time>
      </trkpt>
      <trkpt lat="46.52481" lon="5.26212">
        <ele>182.8</ele>
        <time>2021-12-06T11:53:56Z</time>
      </trkpt>
      <trkpt lat="46.52508" lon="5.2614">
        <ele>183</ele>
        <time>2021-12-06T11:54:04Z</time>
      </trkpt>
      <trkpt lat="46.52512" lon="5.26133">
        <ele>182.8</ele>
        <time>2021-12-06T11:54:05Z</time>
      </trkpt>
      <trkpt lat="46.52523" lon="5.26122">
        <ele>183</ele>
        <time>2021-12-06T11:54:07Z</time>
      </trkpt>
      <trkpt lat="46.52542" lon="5.26119">
        <ele>183.2</ele>
        <time>2021-12-06T11:54:10Z</time>
      </trkpt>
      <trkpt lat="46.52555" lon="5.26118">
        <ele>183.4</ele>
        <time>2021-12-06T11:54:12Z</time>
      </trkpt>
      <trkpt lat="46.52566" lon="5.26113">
        <ele>183.8</ele>
        <time>2021-12-06T11:54:14Z</time>
      </trkpt>
      <trkpt lat="46.52571" lon="5.26109">
        <ele>183.8</ele>
        <time>2021-12-06T11:54:15Z</time>
      </trkpt>
      <trkpt lat="46.52574" lon="5.26104">
        <ele>184</ele>
        <time>2021-12-06T11:54:16Z</time>
      </trkpt>
      <trkpt lat="46.52581" lon="5.26087">
        <ele>184.4</ele>
        <time>2021-12-06T11:54:19Z</time>
      </trkpt>
      <trkpt lat="46.52583" lon="5.26075">
        <ele>185</ele>
        <time>2021-12-06T11:54:21Z</time>
      </trkpt>
      <trkpt lat="46.52588" lon="5.26052">
        <ele>186.6</ele>
        <time>2021-12-06T11:54:25Z</time>
      </trkpt>
      <trkpt lat="46.5259" lon="5.26041">
        <ele>187.2</ele>
        <time>2021-12-06T11:54:27Z</time>
      </trkpt>
      <trkpt lat="46.52592" lon="5.2603">
        <ele>187.8</ele>
        <time>2021-12-06T11:54:29Z</time>
      </trkpt>
      <trkpt lat="46.52596" lon="5.26009">
        <ele>188.6</ele>
        <time>2021-12-06T11:54:33Z</time>
      </trkpt>
      <trkpt lat="46.52598" lon="5.26004">
        <ele>189</ele>
        <time>2021-12-06T11:54:34Z</time>
      </trkpt>
      <trkpt lat="46.52604" lon="5.25985">
        <ele>190</ele>
        <time>2021-12-06T11:54:38Z</time>
      </trkpt>
      <trkpt lat="46.52615" lon="5.25964">
        <ele>191.2</ele>
        <time>2021-12-06T11:54:43Z</time>
      </trkpt>
      <trkpt lat="46.52618" lon="5.25961">
        <ele>191.6</ele>
        <time>2021-12-06T11:54:44Z</time>
      </trkpt>
      <trkpt lat="46.52628" lon="5.25956">
        <ele>192.4</ele>
        <time>2021-12-06T11:54:47Z</time>
      </trkpt>
      <trkpt lat="46.52634" lon="5.25953">
        <ele>192.8</ele>
        <time>2021-12-06T11:54:49Z</time>
      </trkpt>
      <trkpt lat="46.5264" lon="5.25952">
        <ele>193.4</ele>
        <time>2021-12-06T11:54:51Z</time>
      </trkpt>
      <trkpt lat="46.52649" lon="5.25951">
        <ele>194.4</ele>
        <time>2021-12-06T11:54:54Z</time>
      </trkpt>
      <trkpt lat="46.52655" lon="5.25949">
        <ele>194.8</ele>
        <time>2021-12-06T11:54:56Z</time>
      </trkpt>
      <trkpt lat="46.52665" lon="5.25943">
        <ele>195.8</ele>
        <time>2021-12-06T11:54:59Z</time>
      </trkpt>
      <trkpt lat="46.52671" lon="5.25937">
        <ele>196</ele>
        <time>2021-12-06T11:55:01Z</time>
      </trkpt>
      <trkpt lat="46.52679" lon="5.25921">
        <ele>196.8</ele>
        <time>2021-12-06T11:55:05Z</time>
      </trkpt>
      <trkpt lat="46.52682" lon="5.25912">
        <ele>197.4</ele>
        <time>2021-12-06T11:55:07Z</time>
      </trkpt>
      <trkpt lat="46.52684" lon="5.25908">
        <ele>197.8</ele>
        <time>2021-12-06T11:55:08Z</time>
      </trkpt>
      <trkpt lat="46.52689" lon="5.25886">
        <ele>199</ele>
        <time>2021-12-06T11:55:13Z</time>
      </trkpt>
      <trkpt lat="46.52691" lon="5.25877">
        <ele>199.8</ele>
        <time>2021-12-06T11:55:15Z</time>
      </trkpt>
      <trkpt lat="46.52692" lon="5.25868">
        <ele>200</ele>
        <time>2021-12-06T11:55:17Z</time>
      </trkpt>
      <trkpt lat="46.52693" lon="5.25846">
        <ele>201</ele>
        <time>2021-12-06T11:55:22Z</time>
      </trkpt>
      <trkpt lat="46.52693" lon="5.25841">
        <ele>201.2</ele>
        <time>2021-12-06T11:55:23Z</time>
      </trkpt>
      <trkpt lat="46.52694" lon="5.25812">
        <ele>202.2</ele>
        <time>2021-12-06T11:55:29Z</time>
      </trkpt>
      <trkpt lat="46.52694" lon="5.25802">
        <ele>202.4</ele>
        <time>2021-12-06T11:55:31Z</time>
      </trkpt>
      <trkpt lat="46.52698" lon="5.25776">
        <ele>203.4</ele>
        <time>2021-12-06T11:55:36Z</time>
      </trkpt>
      <trkpt lat="46.52703" lon="5.2576">
        <ele>203.8</ele>
        <time>2021-12-06T11:55:39Z</time>
      </trkpt>
      <trkpt lat="46.52714" lon="5.25711">
        <ele>204.2</ele>
        <time>2021-12-06T11:55:47Z</time>
      </trkpt>
      <trkpt lat="46.52718" lon="5.25655">
        <ele>204.2</ele>
        <time>2021-12-06T11:55:55Z</time>
      </trkpt>
      <trkpt lat="46.5272" lon="5.25597">
        <ele>204.4</ele>
        <time>2021-12-06T11:56:03Z</time>
      </trkpt>
      <trkpt lat="46.52721" lon="5.25569">
        <ele>204.4</ele>
        <time>2021-12-06T11:56:07Z</time>
      </trkpt>
      <trkpt lat="46.52723" lon="5.25498">
        <ele>205</ele>
        <time>2021-12-06T11:56:17Z</time>
      </trkpt>
      <trkpt lat="46.52722" lon="5.25484">
        <ele>205.4</ele>
        <time>2021-12-06T11:56:19Z</time>
      </trkpt>
      <trkpt lat="46.52721" lon="5.25477">
        <ele>205.4</ele>
        <time>2021-12-06T11:56:20Z</time>
      </trkpt>
      <trkpt lat="46.52718" lon="5.25464">
        <ele>205.6</ele>
        <time>2021-12-06T11:56:22Z</time>
      </trkpt>
      <trkpt lat="46.52708" lon="5.25446">
        <ele>205.8</ele>
        <time>2021-12-06T11:56:25Z</time>
      </trkpt>
      <trkpt lat="46.52701" lon="5.25435">
        <ele>206</ele>
        <time>2021-12-06T11:56:27Z</time>
      </trkpt>
      <trkpt lat="46.5267" lon="5.2539">
        <ele>206.2</ele>
        <time>2021-12-06T11:56:35Z</time>
      </trkpt>
      <trkpt lat="46.52663" lon="5.25379">
        <ele>206.4</ele>
        <time>2021-12-06T11:56:37Z</time>
      </trkpt>
      <trkpt lat="46.52643" lon="5.25343">
        <ele>206.6</ele>
        <time>2021-12-06T11:56:43Z</time>
      </trkpt>
      <trkpt lat="46.52626" lon="5.25294">
        <ele>206.6</ele>
        <time>2021-12-06T11:56:50Z</time>
      </trkpt>
      <trkpt lat="46.52624" lon="5.25278">
        <ele>206.6</ele>
        <time>2021-12-06T11:56:52Z</time>
      </trkpt>
      <trkpt lat="46.5262" lon="5.25238">
        <ele>206.6</ele>
        <time>2021-12-06T11:56:57Z</time>
      </trkpt>
      <trkpt lat="46.52617" lon="5.25152">
        <ele>206.8</ele>
        <time>2021-12-06T11:57:07Z</time>
      </trkpt>
      <trkpt lat="46.52615" lon="5.2507">
        <ele>206.6</ele>
        <time>2021-12-06T11:57:16Z</time>
      </trkpt>
      <trkpt lat="46.52607" lon="5.24995">
        <ele>206</ele>
        <time>2021-12-06T11:57:24Z</time>
      </trkpt>
      <trkpt lat="46.52596" lon="5.24919">
        <ele>205.4</ele>
        <time>2021-12-06T11:57:32Z</time>
      </trkpt>
      <trkpt lat="46.52594" lon="5.249">
        <ele>205.2</ele>
        <time>2021-12-06T11:57:34Z</time>
      </trkpt>
      <trkpt lat="46.5259" lon="5.24814">
        <ele>205</ele>
        <time>2021-12-06T11:57:43Z</time>
      </trkpt>
      <trkpt lat="46.52588" lon="5.24731">
        <ele>205</ele>
        <time>2021-12-06T11:57:52Z</time>
      </trkpt>
      <trkpt lat="46.52583" lon="5.2466">
        <ele>205.2</ele>
        <time>2021-12-06T11:58:00Z</time>
      </trkpt>
      <trkpt lat="46.52577" lon="5.24634">
        <ele>205.2</ele>
        <time>2021-12-06T11:58:03Z</time>
      </trkpt>
      <trkpt lat="46.52569" lon="5.24608">
        <ele>205.2</ele>
        <time>2021-12-06T11:58:06Z</time>
      </trkpt>
      <trkpt lat="46.52543" lon="5.24539">
        <ele>204.8</ele>
        <time>2021-12-06T11:58:14Z</time>
      </trkpt>
      <trkpt lat="46.52537" lon="5.24521">
        <ele>204.4</ele>
        <time>2021-12-06T11:58:16Z</time>
      </trkpt>
      <trkpt lat="46.52534" lon="5.24512">
        <ele>204.4</ele>
        <time>2021-12-06T11:58:17Z</time>
      </trkpt>
      <trkpt lat="46.52521" lon="5.24463">
        <ele>204</ele>
        <time>2021-12-06T11:58:22Z</time>
      </trkpt>
      <trkpt lat="46.52515" lon="5.24434">
        <ele>203.2</ele>
        <time>2021-12-06T11:58:25Z</time>
      </trkpt>
      <trkpt lat="46.52508" lon="5.24385">
        <ele>202.6</ele>
        <time>2021-12-06T11:58:30Z</time>
      </trkpt>
      <trkpt lat="46.525" lon="5.2433">
        <ele>202.2</ele>
        <time>2021-12-06T11:58:36Z</time>
      </trkpt>
      <trkpt lat="46.52496" lon="5.24296">
        <ele>202</ele>
        <time>2021-12-06T11:58:40Z</time>
      </trkpt>
      <trkpt lat="46.52487" lon="5.24224">
        <ele>202.8</ele>
        <time>2021-12-06T11:58:49Z</time>
      </trkpt>
      <trkpt lat="46.52484" lon="5.24202">
        <ele>203.2</ele>
        <time>2021-12-06T11:58:52Z</time>
      </trkpt>
      <trkpt lat="46.52478" lon="5.2416">
        <ele>203.6</ele>
        <time>2021-12-06T11:58:58Z</time>
      </trkpt>
      <trkpt lat="46.52478" lon="5.24139">
        <ele>204</ele>
        <time>2021-12-06T11:59:02Z</time>
      </trkpt>
      <trkpt lat="46.52479" lon="5.24135">
        <ele>204.2</ele>
        <time>2021-12-06T11:59:03Z</time>
      </trkpt>
      <trkpt lat="46.5248" lon="5.24114">
        <ele>204.6</ele>
        <time>2021-12-06T11:59:07Z</time>
      </trkpt>
      <trkpt lat="46.52481" lon="5.24106">
        <ele>204.6</ele>
        <time>2021-12-06T11:59:08Z</time>
      </trkpt>
      <trkpt lat="46.52485" lon="5.24074">
        <ele>204.6</ele>
        <time>2021-12-06T11:59:12Z</time>
      </trkpt>
      <trkpt lat="46.52494" lon="5.24014">
        <ele>204.6</ele>
        <time>2021-12-06T11:59:19Z</time>
      </trkpt>
      <trkpt lat="46.52505" lon="5.23937">
        <ele>204.2</ele>
        <time>2021-12-06T11:59:28Z</time>
      </trkpt>
      <trkpt lat="46.52505" lon="5.23892">
        <ele>204</ele>
        <time>2021-12-06T11:59:33Z</time>
      </trkpt>
      <trkpt lat="46.52504" lon="5.23882">
        <ele>204</ele>
        <time>2021-12-06T11:59:34Z</time>
      </trkpt>
      <trkpt lat="46.52489" lon="5.23819">
        <ele>203.4</ele>
        <time>2021-12-06T11:59:41Z</time>
      </trkpt>
      <trkpt lat="46.52478" lon="5.23774">
        <ele>203</ele>
        <time>2021-12-06T11:59:46Z</time>
      </trkpt>
      <trkpt lat="46.52462" lon="5.23712">
        <ele>202.4</ele>
        <time>2021-12-06T11:59:53Z</time>
      </trkpt>
      <trkpt lat="46.52453" lon="5.23675">
        <ele>201.8</ele>
        <time>2021-12-06T11:59:57Z</time>
      </trkpt>
      <trkpt lat="46.52435" lon="5.23605">
        <ele>201.6</ele>
        <time>2021-12-06T12:00:05Z</time>
      </trkpt>
      <trkpt lat="46.52422" lon="5.23547">
        <ele>201.8</ele>
        <time>2021-12-06T12:00:12Z</time>
      </trkpt>
      <trkpt lat="46.52421" lon="5.23539">
        <ele>201.8</ele>
        <time>2021-12-06T12:00:13Z</time>
      </trkpt>
      <trkpt lat="46.52421" lon="5.23521">
        <ele>202</ele>
        <time>2021-12-06T12:00:15Z</time>
      </trkpt>
      <trkpt lat="46.52422" lon="5.23504">
        <ele>202</ele>
        <time>2021-12-06T12:00:17Z</time>
      </trkpt>
      <trkpt lat="46.52424" lon="5.23496">
        <ele>202</ele>
        <time>2021-12-06T12:00:18Z</time>
      </trkpt>
      <trkpt lat="46.52432" lon="5.23474">
        <ele>202.2</ele>
        <time>2021-12-06T12:00:21Z</time>
      </trkpt>
      <trkpt lat="46.52441" lon="5.23453">
        <ele>202.4</ele>
        <time>2021-12-06T12:00:24Z</time>
      </trkpt>
      <trkpt lat="46.52469" lon="5.23389">
        <ele>202.6</ele>
        <time>2021-12-06T12:00:33Z</time>
      </trkpt>
      <trkpt lat="46.52481" lon="5.2336">
        <ele>203</ele>
        <time>2021-12-06T12:00:37Z</time>
      </trkpt>
      <trkpt lat="46.52496" lon="5.23323">
        <ele>203</ele>
        <time>2021-12-06T12:00:42Z</time>
      </trkpt>
      <trkpt lat="46.52522" lon="5.23262">
        <ele>203.2</ele>
        <time>2021-12-06T12:00:50Z</time>
      </trkpt>
      <trkpt lat="46.52546" lon="5.23205">
        <ele>202.8</ele>
        <time>2021-12-06T12:00:57Z</time>
      </trkpt>
      <trkpt lat="46.52566" lon="5.2316">
        <ele>202.2</ele>
        <time>2021-12-06T12:01:02Z</time>
      </trkpt>
      <trkpt lat="46.5257" lon="5.23151">
        <ele>201.8</ele>
        <time>2021-12-06T12:01:03Z</time>
      </trkpt>
      <trkpt lat="46.52591" lon="5.23102">
        <ele>200.4</ele>
        <time>2021-12-06T12:01:08Z</time>
      </trkpt>
      <trkpt lat="46.52595" lon="5.23092">
        <ele>200.2</ele>
        <time>2021-12-06T12:01:09Z</time>
      </trkpt>
      <trkpt lat="46.52606" lon="5.2306">
        <ele>199.2</ele>
        <time>2021-12-06T12:01:12Z</time>
      </trkpt>
      <trkpt lat="46.5261" lon="5.23036">
        <ele>198.6</ele>
        <time>2021-12-06T12:01:14Z</time>
      </trkpt>
      <trkpt lat="46.52613" lon="5.23012">
        <ele>198</ele>
        <time>2021-12-06T12:01:16Z</time>
      </trkpt>
      <trkpt lat="46.52614" lon="5.22975">
        <ele>196.6</ele>
        <time>2021-12-06T12:01:19Z</time>
      </trkpt>
      <trkpt lat="46.52615" lon="5.22938">
        <ele>195.2</ele>
        <time>2021-12-06T12:01:22Z</time>
      </trkpt>
      <trkpt lat="46.52615" lon="5.22888">
        <ele>193.6</ele>
        <time>2021-12-06T12:01:26Z</time>
      </trkpt>
      <trkpt lat="46.52616" lon="5.2285">
        <ele>192.2</ele>
        <time>2021-12-06T12:01:29Z</time>
      </trkpt>
      <trkpt lat="46.52618" lon="5.22791">
        <ele>191</ele>
        <time>2021-12-06T12:01:34Z</time>
      </trkpt>
      <trkpt lat="46.52619" lon="5.22761">
        <ele>190.2</ele>
        <time>2021-12-06T12:01:37Z</time>
      </trkpt>
      <trkpt lat="46.52621" lon="5.22681">
        <ele>190.2</ele>
        <time>2021-12-06T12:01:44Z</time>
      </trkpt>
      <trkpt lat="46.52622" lon="5.2266">
        <ele>190.4</ele>
        <time>2021-12-06T12:01:46Z</time>
      </trkpt>
      <trkpt lat="46.52624" lon="5.22579">
        <ele>190.4</ele>
        <time>2021-12-06T12:01:54Z</time>
      </trkpt>
      <trkpt lat="46.52624" lon="5.22567">
        <ele>190.4</ele>
        <time>2021-12-06T12:01:55Z</time>
      </trkpt>
      <trkpt lat="46.52628" lon="5.22506">
        <ele>190.2</ele>
        <time>2021-12-06T12:02:01Z</time>
      </trkpt>
      <trkpt lat="46.52639" lon="5.22451">
        <ele>189.8</ele>
        <time>2021-12-06T12:02:06Z</time>
      </trkpt>
      <trkpt lat="46.52641" lon="5.22441">
        <ele>189.6</ele>
        <time>2021-12-06T12:02:07Z</time>
      </trkpt>
      <trkpt lat="46.5266" lon="5.22364">
        <ele>189.6</ele>
        <time>2021-12-06T12:02:15Z</time>
      </trkpt>
      <trkpt lat="46.52662" lon="5.22355">
        <ele>189.6</ele>
        <time>2021-12-06T12:02:16Z</time>
      </trkpt>
      <trkpt lat="46.52677" lon="5.22295">
        <ele>190.2</ele>
        <time>2021-12-06T12:02:23Z</time>
      </trkpt>
      <trkpt lat="46.52688" lon="5.22251">
        <ele>191</ele>
        <time>2021-12-06T12:02:29Z</time>
      </trkpt>
      <trkpt lat="46.5269" lon="5.22244">
        <ele>191.4</ele>
        <time>2021-12-06T12:02:30Z</time>
      </trkpt>
      <trkpt lat="46.52693" lon="5.22231">
        <ele>192</ele>
        <time>2021-12-06T12:02:32Z</time>
      </trkpt>
      <trkpt lat="46.52702" lon="5.22194">
        <ele>193</ele>
        <time>2021-12-06T12:02:38Z</time>
      </trkpt>
      <trkpt lat="46.52711" lon="5.22161">
        <ele>194.2</ele>
        <time>2021-12-06T12:02:44Z</time>
      </trkpt>
      <trkpt lat="46.52713" lon="5.22154">
        <ele>194.4</ele>
        <time>2021-12-06T12:02:45Z</time>
      </trkpt>
      <trkpt lat="46.52716" lon="5.22145">
        <ele>194.8</ele>
        <time>2021-12-06T12:02:47Z</time>
      </trkpt>
      <trkpt lat="46.5272" lon="5.22135">
        <ele>195.4</ele>
        <time>2021-12-06T12:02:49Z</time>
      </trkpt>
      <trkpt lat="46.52727" lon="5.22108">
        <ele>196.8</ele>
        <time>2021-12-06T12:02:54Z</time>
      </trkpt>
      <trkpt lat="46.52728" lon="5.22103">
        <ele>197</ele>
        <time>2021-12-06T12:02:55Z</time>
      </trkpt>
      <trkpt lat="46.52732" lon="5.2208">
        <ele>198</ele>
        <time>2021-12-06T12:02:59Z</time>
      </trkpt>
      <trkpt lat="46.52733" lon="5.22061">
        <ele>198.6</ele>
        <time>2021-12-06T12:03:02Z</time>
      </trkpt>
      <trkpt lat="46.52734" lon="5.22048">
        <ele>199.2</ele>
        <time>2021-12-06T12:03:04Z</time>
      </trkpt>
      <trkpt lat="46.52734" lon="5.22028">
        <ele>199.8</ele>
        <time>2021-12-06T12:03:07Z</time>
      </trkpt>
      <trkpt lat="46.52733" lon="5.22015">
        <ele>200.2</ele>
        <time>2021-12-06T12:03:09Z</time>
      </trkpt>
      <trkpt lat="46.52732" lon="5.22008">
        <ele>200.4</ele>
        <time>2021-12-06T12:03:10Z</time>
      </trkpt>
      <trkpt lat="46.52723" lon="5.21953">
        <ele>201</ele>
        <time>2021-12-06T12:03:18Z</time>
      </trkpt>
      <trkpt lat="46.5272" lon="5.21934">
        <ele>201.2</ele>
        <time>2021-12-06T12:03:21Z</time>
      </trkpt>
      <trkpt lat="46.52712" lon="5.21882">
        <ele>201.6</ele>
        <time>2021-12-06T12:03:28Z</time>
      </trkpt>
      <trkpt lat="46.52701" lon="5.21811">
        <ele>202</ele>
        <time>2021-12-06T12:03:37Z</time>
      </trkpt>
      <trkpt lat="46.52689" lon="5.21739">
        <ele>202</ele>
        <time>2021-12-06T12:03:46Z</time>
      </trkpt>
      <trkpt lat="46.52676" lon="5.21657">
        <ele>202</ele>
        <time>2021-12-06T12:03:56Z</time>
      </trkpt>
      <trkpt lat="46.52675" lon="5.21649">
        <ele>202</ele>
        <time>2021-12-06T12:03:57Z</time>
      </trkpt>
      <trkpt lat="46.52662" lon="5.21571">
        <ele>202</ele>
        <time>2021-12-06T12:04:06Z</time>
      </trkpt>
      <trkpt lat="46.5266" lon="5.21554">
        <ele>202.2</ele>
        <time>2021-12-06T12:04:08Z</time>
      </trkpt>
      <trkpt lat="46.52647" lon="5.21472">
        <ele>202.2</ele>
        <time>2021-12-06T12:04:17Z</time>
      </trkpt>
      <trkpt lat="46.52646" lon="5.21463">
        <ele>202.2</ele>
        <time>2021-12-06T12:04:18Z</time>
      </trkpt>
      <trkpt lat="46.52632" lon="5.2138">
        <ele>201.4</ele>
        <time>2021-12-06T12:04:27Z</time>
      </trkpt>
      <trkpt lat="46.52629" lon="5.21359">
        <ele>201.4</ele>
        <time>2021-12-06T12:04:29Z</time>
      </trkpt>
      <trkpt lat="46.52626" lon="5.2134">
        <ele>201.2</ele>
        <time>2021-12-06T12:04:31Z</time>
      </trkpt>
      <trkpt lat="46.52625" lon="5.2133">
        <ele>201.2</ele>
        <time>2021-12-06T12:04:32Z</time>
      </trkpt>
      <trkpt lat="46.52611" lon="5.21246">
        <ele>200.2</ele>
        <time>2021-12-06T12:04:40Z</time>
      </trkpt>
      <trkpt lat="46.52609" lon="5.21235">
        <ele>199.8</ele>
        <time>2021-12-06T12:04:41Z</time>
      </trkpt>
      <trkpt lat="46.52608" lon="5.21224">
        <ele>199.6</ele>
        <time>2021-12-06T12:04:42Z</time>
      </trkpt>
      <trkpt lat="46.52602" lon="5.21189">
        <ele>198.6</ele>
        <time>2021-12-06T12:04:45Z</time>
      </trkpt>
      <trkpt lat="46.52597" lon="5.21154">
        <ele>197.4</ele>
        <time>2021-12-06T12:04:48Z</time>
      </trkpt>
      <trkpt lat="46.5259" lon="5.2111">
        <ele>196.8</ele>
        <time>2021-12-06T12:04:52Z</time>
      </trkpt>
      <trkpt lat="46.52577" lon="5.21032">
        <ele>196.8</ele>
        <time>2021-12-06T12:05:00Z</time>
      </trkpt>
      <trkpt lat="46.5257" lon="5.20974">
        <ele>197.8</ele>
        <time>2021-12-06T12:05:07Z</time>
      </trkpt>
      <trkpt lat="46.52569" lon="5.20952">
        <ele>198.6</ele>
        <time>2021-12-06T12:05:10Z</time>
      </trkpt>
      <trkpt lat="46.52567" lon="5.20922">
        <ele>199.4</ele>
        <time>2021-12-06T12:05:14Z</time>
      </trkpt>
      <trkpt lat="46.52566" lon="5.20906">
        <ele>199.6</ele>
        <time>2021-12-06T12:05:16Z</time>
      </trkpt>
      <trkpt lat="46.52565" lon="5.20889">
        <ele>200</ele>
        <time>2021-12-06T12:05:18Z</time>
      </trkpt>
      <trkpt lat="46.52563" lon="5.20864">
        <ele>200.6</ele>
        <time>2021-12-06T12:05:21Z</time>
      </trkpt>
      <trkpt lat="46.52562" lon="5.20855">
        <ele>200.6</ele>
        <time>2021-12-06T12:05:22Z</time>
      </trkpt>
      <trkpt lat="46.52557" lon="5.20788">
        <ele>201.2</ele>
        <time>2021-12-06T12:05:30Z</time>
      </trkpt>
      <trkpt lat="46.52551" lon="5.20704">
        <ele>201.4</ele>
        <time>2021-12-06T12:05:40Z</time>
      </trkpt>
      <trkpt lat="46.52551" lon="5.20695">
        <ele>201.4</ele>
        <time>2021-12-06T12:05:41Z</time>
      </trkpt>
      <trkpt lat="46.52545" lon="5.20614">
        <ele>201.4</ele>
        <time>2021-12-06T12:05:51Z</time>
      </trkpt>
      <trkpt lat="46.52543" lon="5.20581">
        <ele>201.4</ele>
        <time>2021-12-06T12:05:55Z</time>
      </trkpt>
      <trkpt lat="46.52537" lon="5.20498">
        <ele>201.6</ele>
        <time>2021-12-06T12:06:05Z</time>
      </trkpt>
      <trkpt lat="46.52535" lon="5.20472">
        <ele>201.6</ele>
        <time>2021-12-06T12:06:08Z</time>
      </trkpt>
      <trkpt lat="46.52531" lon="5.20412">
        <ele>201.2</ele>
        <time>2021-12-06T12:06:14Z</time>
      </trkpt>
      <trkpt lat="46.52525" lon="5.20332">
        <ele>199.6</ele>
        <time>2021-12-06T12:06:21Z</time>
      </trkpt>
      <trkpt lat="46.52522" lon="5.20284">
        <ele>198.4</ele>
        <time>2021-12-06T12:06:25Z</time>
      </trkpt>
      <trkpt lat="46.52518" lon="5.20234">
        <ele>197</ele>
        <time>2021-12-06T12:06:29Z</time>
      </trkpt>
      <trkpt lat="46.52518" lon="5.20222">
        <ele>196.6</ele>
        <time>2021-12-06T12:06:30Z</time>
      </trkpt>
      <trkpt lat="46.52516" lon="5.20196">
        <ele>195.8</ele>
        <time>2021-12-06T12:06:32Z</time>
      </trkpt>
      <trkpt lat="46.52514" lon="5.20159">
        <ele>194.8</ele>
        <time>2021-12-06T12:06:35Z</time>
      </trkpt>
      <trkpt lat="46.52513" lon="5.20111">
        <ele>193.6</ele>
        <time>2021-12-06T12:06:39Z</time>
      </trkpt>
      <trkpt lat="46.52513" lon="5.20099">
        <ele>193.4</ele>
        <time>2021-12-06T12:06:40Z</time>
      </trkpt>
      <trkpt lat="46.52515" lon="5.20033">
        <ele>192.8</ele>
        <time>2021-12-06T12:06:46Z</time>
      </trkpt>
      <trkpt lat="46.52519" lon="5.19952">
        <ele>193.2</ele>
        <time>2021-12-06T12:06:54Z</time>
      </trkpt>
      <trkpt lat="46.52518" lon="5.19886">
        <ele>193.6</ele>
        <time>2021-12-06T12:07:01Z</time>
      </trkpt>
      <trkpt lat="46.52518" lon="5.19806">
        <ele>194.2</ele>
        <time>2021-12-06T12:07:10Z</time>
      </trkpt>
      <trkpt lat="46.52517" lon="5.19798">
        <ele>194.2</ele>
        <time>2021-12-06T12:07:11Z</time>
      </trkpt>
      <trkpt lat="46.52517" lon="5.19782">
        <ele>194.6</ele>
        <time>2021-12-06T12:07:13Z</time>
      </trkpt>
      <trkpt lat="46.52517" lon="5.1975">
        <ele>195.6</ele>
        <time>2021-12-06T12:07:17Z</time>
      </trkpt>
      <trkpt lat="46.52516" lon="5.19735">
        <ele>195.8</ele>
        <time>2021-12-06T12:07:19Z</time>
      </trkpt>
      <trkpt lat="46.52515" lon="5.197">
        <ele>197</ele>
        <time>2021-12-06T12:07:24Z</time>
      </trkpt>
      <trkpt lat="46.52516" lon="5.19679">
        <ele>197.4</ele>
        <time>2021-12-06T12:07:27Z</time>
      </trkpt>
      <trkpt lat="46.52515" lon="5.19658">
        <ele>198</ele>
        <time>2021-12-06T12:07:30Z</time>
      </trkpt>
      <trkpt lat="46.52513" lon="5.19624">
        <ele>199.2</ele>
        <time>2021-12-06T12:07:35Z</time>
      </trkpt>
      <trkpt lat="46.52513" lon="5.19586">
        <ele>200.2</ele>
        <time>2021-12-06T12:07:40Z</time>
      </trkpt>
      <trkpt lat="46.52512" lon="5.19563">
        <ele>200.6</ele>
        <time>2021-12-06T12:07:43Z</time>
      </trkpt>
      <trkpt lat="46.5251" lon="5.19484">
        <ele>201.2</ele>
        <time>2021-12-06T12:07:53Z</time>
      </trkpt>
      <trkpt lat="46.5251" lon="5.19468">
        <ele>201.2</ele>
        <time>2021-12-06T12:07:55Z</time>
      </trkpt>
      <trkpt lat="46.52508" lon="5.19402">
        <ele>201.4</ele>
        <time>2021-12-06T12:08:03Z</time>
      </trkpt>
      <trkpt lat="46.52507" lon="5.19326">
        <ele>201.4</ele>
        <time>2021-12-06T12:08:12Z</time>
      </trkpt>
      <trkpt lat="46.52506" lon="5.19241">
        <ele>201.6</ele>
        <time>2021-12-06T12:08:22Z</time>
      </trkpt>
      <trkpt lat="46.52506" lon="5.19233">
        <ele>201.6</ele>
        <time>2021-12-06T12:08:23Z</time>
      </trkpt>
      <trkpt lat="46.52505" lon="5.1916">
        <ele>201.6</ele>
        <time>2021-12-06T12:08:31Z</time>
      </trkpt>
      <trkpt lat="46.52512" lon="5.19103">
        <ele>201.4</ele>
        <time>2021-12-06T12:08:37Z</time>
      </trkpt>
      <trkpt lat="46.52528" lon="5.1906">
        <ele>201</ele>
        <time>2021-12-06T12:08:42Z</time>
      </trkpt>
      <trkpt lat="46.52558" lon="5.18989">
        <ele>201.2</ele>
        <time>2021-12-06T12:08:50Z</time>
      </trkpt>
      <trkpt lat="46.52586" lon="5.18926">
        <ele>199.8</ele>
        <time>2021-12-06T12:08:56Z</time>
      </trkpt>
      <trkpt lat="46.52595" lon="5.18905">
        <ele>198.8</ele>
        <time>2021-12-06T12:08:58Z</time>
      </trkpt>
      <trkpt lat="46.52605" lon="5.18881">
        <ele>197.4</ele>
        <time>2021-12-06T12:09:00Z</time>
      </trkpt>
      <trkpt lat="46.5261" lon="5.18866">
        <ele>196.8</ele>
        <time>2021-12-06T12:09:01Z</time>
      </trkpt>
      <trkpt lat="46.52614" lon="5.18853">
        <ele>196.4</ele>
        <time>2021-12-06T12:09:02Z</time>
      </trkpt>
      <trkpt lat="46.52616" lon="5.1884">
        <ele>195.8</ele>
        <time>2021-12-06T12:09:03Z</time>
      </trkpt>
      <trkpt lat="46.52619" lon="5.188">
        <ele>195</ele>
        <time>2021-12-06T12:09:06Z</time>
      </trkpt>
      <trkpt lat="46.52622" lon="5.18733">
        <ele>194.8</ele>
        <time>2021-12-06T12:09:12Z</time>
      </trkpt>
      <trkpt lat="46.52624" lon="5.18672">
        <ele>195.6</ele>
        <time>2021-12-06T12:09:18Z</time>
      </trkpt>
      <trkpt lat="46.52628" lon="5.18607">
        <ele>195.8</ele>
        <time>2021-12-06T12:09:24Z</time>
      </trkpt>
      <trkpt lat="46.52632" lon="5.18545">
        <ele>195.8</ele>
        <time>2021-12-06T12:09:29Z</time>
      </trkpt>
      <trkpt lat="46.52634" lon="5.18532">
        <ele>195.8</ele>
        <time>2021-12-06T12:09:30Z</time>
      </trkpt>
      <trkpt lat="46.52641" lon="5.18506">
        <ele>195.6</ele>
        <time>2021-12-06T12:09:32Z</time>
      </trkpt>
      <trkpt lat="46.52657" lon="5.18471">
        <ele>193.8</ele>
        <time>2021-12-06T12:09:35Z</time>
      </trkpt>
      <trkpt lat="46.52668" lon="5.18447">
        <ele>192.8</ele>
        <time>2021-12-06T12:09:37Z</time>
      </trkpt>
      <trkpt lat="46.52673" lon="5.18435">
        <ele>192.4</ele>
        <time>2021-12-06T12:09:38Z</time>
      </trkpt>
      <trkpt lat="46.52678" lon="5.18423">
        <ele>191.2</ele>
        <time>2021-12-06T12:09:39Z</time>
      </trkpt>
      <trkpt lat="46.52689" lon="5.184">
        <ele>190</ele>
        <time>2021-12-06T12:09:41Z</time>
      </trkpt>
      <trkpt lat="46.52719" lon="5.18333">
        <ele>189</ele>
        <time>2021-12-06T12:09:47Z</time>
      </trkpt>
      <trkpt lat="46.52724" lon="5.18322">
        <ele>188.8</ele>
        <time>2021-12-06T12:09:48Z</time>
      </trkpt>
      <trkpt lat="46.52751" lon="5.18262">
        <ele>188.4</ele>
        <time>2021-12-06T12:09:54Z</time>
      </trkpt>
      <trkpt lat="46.52759" lon="5.18243">
        <ele>188.6</ele>
        <time>2021-12-06T12:09:56Z</time>
      </trkpt>
      <trkpt lat="46.52769" lon="5.18214">
        <ele>188.8</ele>
        <time>2021-12-06T12:09:59Z</time>
      </trkpt>
      <trkpt lat="46.52773" lon="5.18195">
        <ele>189</ele>
        <time>2021-12-06T12:10:01Z</time>
      </trkpt>
      <trkpt lat="46.52776" lon="5.18167">
        <ele>189.6</ele>
        <time>2021-12-06T12:10:04Z</time>
      </trkpt>
      <trkpt lat="46.52778" lon="5.18149">
        <ele>190</ele>
        <time>2021-12-06T12:10:06Z</time>
      </trkpt>
      <trkpt lat="46.5278" lon="5.18115">
        <ele>191.2</ele>
        <time>2021-12-06T12:10:10Z</time>
      </trkpt>
      <trkpt lat="46.5278" lon="5.18049">
        <ele>192</ele>
        <time>2021-12-06T12:10:17Z</time>
      </trkpt>
      <trkpt lat="46.52779" lon="5.18039">
        <ele>192.2</ele>
        <time>2021-12-06T12:10:18Z</time>
      </trkpt>
      <trkpt lat="46.52771" lon="5.17997">
        <ele>192</ele>
        <time>2021-12-06T12:10:22Z</time>
      </trkpt>
      <trkpt lat="46.52763" lon="5.17949">
        <ele>191</ele>
        <time>2021-12-06T12:10:26Z</time>
      </trkpt>
      <trkpt lat="46.52762" lon="5.17936">
        <ele>190.2</ele>
        <time>2021-12-06T12:10:27Z</time>
      </trkpt>
      <trkpt lat="46.52762" lon="5.17924">
        <ele>189.6</ele>
        <time>2021-12-06T12:10:28Z</time>
      </trkpt>
      <trkpt lat="46.52763" lon="5.179">
        <ele>188.6</ele>
        <time>2021-12-06T12:10:30Z</time>
      </trkpt>
      <trkpt lat="46.52767" lon="5.17865">
        <ele>188</ele>
        <time>2021-12-06T12:10:33Z</time>
      </trkpt>
      <trkpt lat="46.52775" lon="5.17791">
        <ele>187.8</ele>
        <time>2021-12-06T12:10:40Z</time>
      </trkpt>
      <trkpt lat="46.52777" lon="5.17759">
        <ele>187.6</ele>
        <time>2021-12-06T12:10:43Z</time>
      </trkpt>
      <trkpt lat="46.52781" lon="5.17717">
        <ele>187.6</ele>
        <time>2021-12-06T12:10:47Z</time>
      </trkpt>
      <trkpt lat="46.52787" lon="5.17686">
        <ele>187.6</ele>
        <time>2021-12-06T12:10:50Z</time>
      </trkpt>
      <trkpt lat="46.52791" lon="5.17677">
        <ele>187.6</ele>
        <time>2021-12-06T12:10:51Z</time>
      </trkpt>
      <trkpt lat="46.52795" lon="5.17669">
        <ele>187.6</ele>
        <time>2021-12-06T12:10:52Z</time>
      </trkpt>
      <trkpt lat="46.52807" lon="5.17656">
        <ele>187.8</ele>
        <time>2021-12-06T12:10:54Z</time>
      </trkpt>
      <trkpt lat="46.52819" lon="5.17647">
        <ele>188</ele>
        <time>2021-12-06T12:10:56Z</time>
      </trkpt>
      <trkpt lat="46.52832" lon="5.17645">
        <ele>188.2</ele>
        <time>2021-12-06T12:10:58Z</time>
      </trkpt>
      <trkpt lat="46.52844" lon="5.17648">
        <ele>188.4</ele>
        <time>2021-12-06T12:11:00Z</time>
      </trkpt>
      <trkpt lat="46.52856" lon="5.17653">
        <ele>189</ele>
        <time>2021-12-06T12:11:02Z</time>
      </trkpt>
      <trkpt lat="46.52879" lon="5.17666">
        <ele>190</ele>
        <time>2021-12-06T12:11:06Z</time>
      </trkpt>
      <trkpt lat="46.5291" lon="5.17677">
        <ele>191</ele>
        <time>2021-12-06T12:11:11Z</time>
      </trkpt>
      <trkpt lat="46.52952" lon="5.17697">
        <ele>192.2</ele>
        <time>2021-12-06T12:11:18Z</time>
      </trkpt>
      <trkpt lat="46.52965" lon="5.17703">
        <ele>192.2</ele>
        <time>2021-12-06T12:11:20Z</time>
      </trkpt>
      <trkpt lat="46.5302" lon="5.17725">
        <ele>193</ele>
        <time>2021-12-06T12:11:29Z</time>
      </trkpt>
      <trkpt lat="46.53026" lon="5.17726">
        <ele>193.2</ele>
        <time>2021-12-06T12:11:30Z</time>
      </trkpt>
      <trkpt lat="46.53073" lon="5.17738">
        <ele>194</ele>
        <time>2021-12-06T12:11:38Z</time>
      </trkpt>
      <trkpt lat="46.53079" lon="5.17739">
        <ele>194.2</ele>
        <time>2021-12-06T12:11:39Z</time>
      </trkpt>
      <trkpt lat="46.53106" lon="5.17743">
        <ele>195.2</ele>
        <time>2021-12-06T12:11:44Z</time>
      </trkpt>
      <trkpt lat="46.53129" lon="5.17746">
        <ele>196.2</ele>
        <time>2021-12-06T12:11:48Z</time>
      </trkpt>
      <trkpt lat="46.53134" lon="5.17747">
        <ele>196.6</ele>
        <time>2021-12-06T12:11:49Z</time>
      </trkpt>
      <trkpt lat="46.53168" lon="5.17753">
        <ele>197.6</ele>
        <time>2021-12-06T12:11:55Z</time>
      </trkpt>
      <trkpt lat="46.53184" lon="5.17756">
        <ele>198</ele>
        <time>2021-12-06T12:11:58Z</time>
      </trkpt>
      <trkpt lat="46.53213" lon="5.17761">
        <ele>198.6</ele>
        <time>2021-12-06T12:12:03Z</time>
      </trkpt>
      <trkpt lat="46.53238" lon="5.17765">
        <ele>199</ele>
        <time>2021-12-06T12:12:07Z</time>
      </trkpt>
      <trkpt lat="46.53272" lon="5.17767">
        <ele>199.4</ele>
        <time>2021-12-06T12:12:12Z</time>
      </trkpt>
      <trkpt lat="46.53328" lon="5.17762">
        <ele>198.6</ele>
        <time>2021-12-06T12:12:19Z</time>
      </trkpt>
      <trkpt lat="46.53365" lon="5.17746">
        <ele>197.6</ele>
        <time>2021-12-06T12:12:24Z</time>
      </trkpt>
      <trkpt lat="46.53409" lon="5.17712">
        <ele>197.8</ele>
        <time>2021-12-06T12:12:31Z</time>
      </trkpt>
      <trkpt lat="46.53457" lon="5.17675">
        <ele>198.6</ele>
        <time>2021-12-06T12:12:39Z</time>
      </trkpt>
      <trkpt lat="46.53463" lon="5.17671">
        <ele>198.8</ele>
        <time>2021-12-06T12:12:40Z</time>
      </trkpt>
      <trkpt lat="46.53517" lon="5.1763">
        <ele>199.4</ele>
        <time>2021-12-06T12:12:49Z</time>
      </trkpt>
      <trkpt lat="46.5353" lon="5.17622">
        <ele>199.4</ele>
        <time>2021-12-06T12:12:51Z</time>
      </trkpt>
      <trkpt lat="46.53564" lon="5.17607">
        <ele>199.4</ele>
        <time>2021-12-06T12:12:56Z</time>
      </trkpt>
      <trkpt lat="46.53623" lon="5.17593">
        <ele>199</ele>
        <time>2021-12-06T12:13:04Z</time>
      </trkpt>
      <trkpt lat="46.5368" lon="5.17579">
        <ele>198.8</ele>
        <time>2021-12-06T12:13:12Z</time>
      </trkpt>
      <trkpt lat="46.53694" lon="5.17576">
        <ele>199</ele>
        <time>2021-12-06T12:13:14Z</time>
      </trkpt>
      <trkpt lat="46.53751" lon="5.17565">
        <ele>199.4</ele>
        <time>2021-12-06T12:13:22Z</time>
      </trkpt>
      <trkpt lat="46.53774" lon="5.1756">
        <ele>199.4</ele>
        <time>2021-12-06T12:13:25Z</time>
      </trkpt>
      <trkpt lat="46.53834" lon="5.17548">
        <ele>199</ele>
        <time>2021-12-06T12:13:33Z</time>
      </trkpt>
      <trkpt lat="46.53848" lon="5.17544">
        <ele>198.4</ele>
        <time>2021-12-06T12:13:35Z</time>
      </trkpt>
      <trkpt lat="46.53873" lon="5.17535">
        <ele>197.6</ele>
        <time>2021-12-06T12:13:38Z</time>
      </trkpt>
      <trkpt lat="46.53887" lon="5.17526">
        <ele>197.4</ele>
        <time>2021-12-06T12:13:40Z</time>
      </trkpt>
      <trkpt lat="46.53939" lon="5.17487">
        <ele>197.2</ele>
        <time>2021-12-06T12:13:48Z</time>
      </trkpt>
      <trkpt lat="46.53945" lon="5.17482">
        <ele>197.4</ele>
        <time>2021-12-06T12:13:49Z</time>
      </trkpt>
      <trkpt lat="46.53991" lon="5.17448">
        <ele>198.4</ele>
        <time>2021-12-06T12:13:56Z</time>
      </trkpt>
      <trkpt lat="46.54011" lon="5.17434">
        <ele>198.8</ele>
        <time>2021-12-06T12:13:59Z</time>
      </trkpt>
      <trkpt lat="46.54037" lon="5.17414">
        <ele>198.8</ele>
        <time>2021-12-06T12:14:03Z</time>
      </trkpt>
      <trkpt lat="46.54089" lon="5.17375">
        <ele>198.8</ele>
        <time>2021-12-06T12:14:11Z</time>
      </trkpt>
      <trkpt lat="46.54117" lon="5.17354">
        <ele>198.6</ele>
        <time>2021-12-06T12:14:15Z</time>
      </trkpt>
      <trkpt lat="46.54155" lon="5.17325">
        <ele>198</ele>
        <time>2021-12-06T12:14:20Z</time>
      </trkpt>
      <trkpt lat="46.54171" lon="5.17313">
        <ele>197.6</ele>
        <time>2021-12-06T12:14:22Z</time>
      </trkpt>
      <trkpt lat="46.54189" lon="5.17299">
        <ele>196.2</ele>
        <time>2021-12-06T12:14:24Z</time>
      </trkpt>
      <trkpt lat="46.54207" lon="5.17286">
        <ele>195.6</ele>
        <time>2021-12-06T12:14:26Z</time>
      </trkpt>
      <trkpt lat="46.54225" lon="5.17272">
        <ele>194.6</ele>
        <time>2021-12-06T12:14:28Z</time>
      </trkpt>
      <trkpt lat="46.54242" lon="5.17259">
        <ele>193.4</ele>
        <time>2021-12-06T12:14:30Z</time>
      </trkpt>
      <trkpt lat="46.54258" lon="5.17247">
        <ele>193</ele>
        <time>2021-12-06T12:14:32Z</time>
      </trkpt>
      <trkpt lat="46.54293" lon="5.17219">
        <ele>192.6</ele>
        <time>2021-12-06T12:14:37Z</time>
      </trkpt>
      <trkpt lat="46.54332" lon="5.1719">
        <ele>194.4</ele>
        <time>2021-12-06T12:14:43Z</time>
      </trkpt>
      <trkpt lat="46.54345" lon="5.1718">
        <ele>195</ele>
        <time>2021-12-06T12:14:45Z</time>
      </trkpt>
      <trkpt lat="46.54358" lon="5.1717">
        <ele>195.6</ele>
        <time>2021-12-06T12:14:47Z</time>
      </trkpt>
      <trkpt lat="46.54397" lon="5.17144">
        <ele>196.6</ele>
        <time>2021-12-06T12:14:53Z</time>
      </trkpt>
      <trkpt lat="46.54404" lon="5.17141">
        <ele>196.6</ele>
        <time>2021-12-06T12:14:54Z</time>
      </trkpt>
      <trkpt lat="46.54417" lon="5.17137">
        <ele>196.6</ele>
        <time>2021-12-06T12:14:56Z</time>
      </trkpt>
      <trkpt lat="46.54425" lon="5.17137">
        <ele>196.8</ele>
        <time>2021-12-06T12:14:57Z</time>
      </trkpt>
      <trkpt lat="46.54479" lon="5.17136">
        <ele>197.4</ele>
        <time>2021-12-06T12:15:04Z</time>
      </trkpt>
      <trkpt lat="46.54535" lon="5.17137">
        <ele>196.8</ele>
        <time>2021-12-06T12:15:11Z</time>
      </trkpt>
      <trkpt lat="46.54558" lon="5.17137">
        <ele>196.4</ele>
        <time>2021-12-06T12:15:14Z</time>
      </trkpt>
      <trkpt lat="46.54615" lon="5.17136">
        <ele>195.6</ele>
        <time>2021-12-06T12:15:21Z</time>
      </trkpt>
      <trkpt lat="46.54649" lon="5.17137">
        <ele>194.8</ele>
        <time>2021-12-06T12:15:25Z</time>
      </trkpt>
      <trkpt lat="46.54667" lon="5.17138">
        <ele>194.2</ele>
        <time>2021-12-06T12:15:27Z</time>
      </trkpt>
      <trkpt lat="46.54719" lon="5.17146">
        <ele>193.2</ele>
        <time>2021-12-06T12:15:33Z</time>
      </trkpt>
      <trkpt lat="46.54727" lon="5.17148">
        <ele>192.8</ele>
        <time>2021-12-06T12:15:34Z</time>
      </trkpt>
      <trkpt lat="46.54745" lon="5.17151">
        <ele>192.2</ele>
        <time>2021-12-06T12:15:36Z</time>
      </trkpt>
      <trkpt lat="46.54781" lon="5.17158">
        <ele>190.8</ele>
        <time>2021-12-06T12:15:40Z</time>
      </trkpt>
      <trkpt lat="46.548" lon="5.17161">
        <ele>189.8</ele>
        <time>2021-12-06T12:15:42Z</time>
      </trkpt>
      <trkpt lat="46.5481" lon="5.17162">
        <ele>189.2</ele>
        <time>2021-12-06T12:15:43Z</time>
      </trkpt>
      <trkpt lat="46.54849" lon="5.17162">
        <ele>187.6</ele>
        <time>2021-12-06T12:15:47Z</time>
      </trkpt>
      <trkpt lat="46.54868" lon="5.17154">
        <ele>186.6</ele>
        <time>2021-12-06T12:15:49Z</time>
      </trkpt>
      <trkpt lat="46.54876" lon="5.17147">
        <ele>186</ele>
        <time>2021-12-06T12:15:50Z</time>
      </trkpt>
      <trkpt lat="46.54891" lon="5.17131">
        <ele>185.4</ele>
        <time>2021-12-06T12:15:52Z</time>
      </trkpt>
      <trkpt lat="46.54911" lon="5.17106">
        <ele>185</ele>
        <time>2021-12-06T12:15:55Z</time>
      </trkpt>
      <trkpt lat="46.54926" lon="5.17093">
        <ele>185</ele>
        <time>2021-12-06T12:15:57Z</time>
      </trkpt>
      <trkpt lat="46.54941" lon="5.17089">
        <ele>184.8</ele>
        <time>2021-12-06T12:15:59Z</time>
      </trkpt>
      <trkpt lat="46.54962" lon="5.17089">
        <ele>185</ele>
        <time>2021-12-06T12:16:02Z</time>
      </trkpt>
      <trkpt lat="46.54969" lon="5.17088">
        <ele>185</ele>
        <time>2021-12-06T12:16:03Z</time>
      </trkpt>
      <trkpt lat="46.54976" lon="5.17084">
        <ele>185.2</ele>
        <time>2021-12-06T12:16:04Z</time>
      </trkpt>
      <trkpt lat="46.54988" lon="5.17076">
        <ele>186</ele>
        <time>2021-12-06T12:16:06Z</time>
      </trkpt>
      <trkpt lat="46.54994" lon="5.17072">
        <ele>186</ele>
        <time>2021-12-06T12:16:07Z</time>
      </trkpt>
      <trkpt lat="46.55009" lon="5.17059">
        <ele>186.6</ele>
        <time>2021-12-06T12:16:10Z</time>
      </trkpt>
      <trkpt lat="46.55022" lon="5.17046">
        <ele>187.4</ele>
        <time>2021-12-06T12:16:13Z</time>
      </trkpt>
      <trkpt lat="46.55026" lon="5.17042">
        <ele>188</ele>
        <time>2021-12-06T12:16:14Z</time>
      </trkpt>
      <trkpt lat="46.55034" lon="5.17033">
        <ele>189.2</ele>
        <time>2021-12-06T12:16:16Z</time>
      </trkpt>
      <trkpt lat="46.55038" lon="5.17028">
        <ele>189.6</ele>
        <time>2021-12-06T12:16:17Z</time>
      </trkpt>
      <trkpt lat="46.55041" lon="5.17023">
        <ele>189.8</ele>
        <time>2021-12-06T12:16:18Z</time>
      </trkpt>
      <trkpt lat="46.55043" lon="5.17017">
        <ele>190</ele>
        <time>2021-12-06T12:16:19Z</time>
      </trkpt>
      <trkpt lat="46.55045" lon="5.1701">
        <ele>190.4</ele>
        <time>2021-12-06T12:16:20Z</time>
      </trkpt>
      <trkpt lat="46.55049" lon="5.16995">
        <ele>191</ele>
        <time>2021-12-06T12:16:22Z</time>
      </trkpt>
      <trkpt lat="46.5505" lon="5.16987">
        <ele>191.4</ele>
        <time>2021-12-06T12:16:23Z</time>
      </trkpt>
      <trkpt lat="46.5506" lon="5.16937">
        <ele>192.4</ele>
        <time>2021-12-06T12:16:29Z</time>
      </trkpt>
      <trkpt lat="46.55062" lon="5.16928">
        <ele>192.4</ele>
        <time>2021-12-06T12:16:30Z</time>
      </trkpt>
      <trkpt lat="46.55066" lon="5.16921">
        <ele>192.4</ele>
        <time>2021-12-06T12:16:31Z</time>
      </trkpt>
      <trkpt lat="46.5507" lon="5.16914">
        <ele>192.6</ele>
        <time>2021-12-06T12:16:32Z</time>
      </trkpt>
      <trkpt lat="46.55075" lon="5.16909">
        <ele>192.6</ele>
        <time>2021-12-06T12:16:33Z</time>
      </trkpt>
      <trkpt lat="46.55081" lon="5.16904">
        <ele>192.6</ele>
        <time>2021-12-06T12:16:34Z</time>
      </trkpt>
      <trkpt lat="46.551" lon="5.16895">
        <ele>192.4</ele>
        <time>2021-12-06T12:16:37Z</time>
      </trkpt>
      <trkpt lat="46.55159" lon="5.16873">
        <ele>192</ele>
        <time>2021-12-06T12:16:46Z</time>
      </trkpt>
      <trkpt lat="46.55165" lon="5.1687">
        <ele>192</ele>
        <time>2021-12-06T12:16:47Z</time>
      </trkpt>
      <trkpt lat="46.55207" lon="5.16842">
        <ele>192</ele>
        <time>2021-12-06T12:16:54Z</time>
      </trkpt>
      <trkpt lat="46.55249" lon="5.1681">
        <ele>192</ele>
        <time>2021-12-06T12:17:01Z</time>
      </trkpt>
      <trkpt lat="46.55299" lon="5.16779">
        <ele>192</ele>
        <time>2021-12-06T12:17:09Z</time>
      </trkpt>
      <trkpt lat="46.55339" lon="5.16745">
        <ele>192</ele>
        <time>2021-12-06T12:17:16Z</time>
      </trkpt>
      <trkpt lat="46.55385" lon="5.16696">
        <ele>191.8</ele>
        <time>2021-12-06T12:17:25Z</time>
      </trkpt>
      <trkpt lat="46.55426" lon="5.16646">
        <ele>191.8</ele>
        <time>2021-12-06T12:17:33Z</time>
      </trkpt>
      <trkpt lat="46.55438" lon="5.16621">
        <ele>191.6</ele>
        <time>2021-12-06T12:17:36Z</time>
      </trkpt>
      <trkpt lat="46.55443" lon="5.16603">
        <ele>191.6</ele>
        <time>2021-12-06T12:17:38Z</time>
      </trkpt>
      <trkpt lat="46.55455" lon="5.16559">
        <ele>191.8</ele>
        <time>2021-12-06T12:17:43Z</time>
      </trkpt>
      <trkpt lat="46.55461" lon="5.16545">
        <ele>192</ele>
        <time>2021-12-06T12:17:45Z</time>
      </trkpt>
      <trkpt lat="46.55469" lon="5.16534">
        <ele>192</ele>
        <time>2021-12-06T12:17:47Z</time>
      </trkpt>
      <trkpt lat="46.55478" lon="5.16527">
        <ele>192.6</ele>
        <time>2021-12-06T12:17:49Z</time>
      </trkpt>
      <trkpt lat="46.55483" lon="5.16522">
        <ele>192.8</ele>
        <time>2021-12-06T12:17:50Z</time>
      </trkpt>
      <trkpt lat="46.55492" lon="5.1651">
        <ele>193.6</ele>
        <time>2021-12-06T12:17:53Z</time>
      </trkpt>
      <trkpt lat="46.55495" lon="5.16505">
        <ele>194</ele>
        <time>2021-12-06T12:17:54Z</time>
      </trkpt>
      <trkpt lat="46.55497" lon="5.16499">
        <ele>194</ele>
        <time>2021-12-06T12:17:55Z</time>
      </trkpt>
      <trkpt lat="46.55501" lon="5.16488">
        <ele>194.8</ele>
        <time>2021-12-06T12:17:57Z</time>
      </trkpt>
      <trkpt lat="46.55505" lon="5.16473">
        <ele>195.6</ele>
        <time>2021-12-06T12:18:00Z</time>
      </trkpt>
      <trkpt lat="46.55506" lon="5.16467">
        <ele>196.2</ele>
        <time>2021-12-06T12:18:01Z</time>
      </trkpt>
      <trkpt lat="46.55511" lon="5.16447">
        <ele>197.4</ele>
        <time>2021-12-06T12:18:05Z</time>
      </trkpt>
      <trkpt lat="46.55523" lon="5.16431">
        <ele>198.4</ele>
        <time>2021-12-06T12:18:09Z</time>
      </trkpt>
      <trkpt lat="46.55544" lon="5.1642">
        <ele>199.6</ele>
        <time>2021-12-06T12:18:14Z</time>
      </trkpt>
      <trkpt lat="46.55553" lon="5.16415">
        <ele>200</ele>
        <time>2021-12-06T12:18:16Z</time>
      </trkpt>
      <trkpt lat="46.55557" lon="5.16413">
        <ele>200.2</ele>
        <time>2021-12-06T12:18:17Z</time>
      </trkpt>
      <trkpt lat="46.55563" lon="5.16403">
        <ele>200.8</ele>
        <time>2021-12-06T12:18:19Z</time>
      </trkpt>
      <trkpt lat="46.55565" lon="5.16382">
        <ele>201.2</ele>
        <time>2021-12-06T12:18:22Z</time>
      </trkpt>
      <trkpt lat="46.55566" lon="5.16376">
        <ele>201.4</ele>
        <time>2021-12-06T12:18:23Z</time>
      </trkpt>
      <trkpt lat="46.55571" lon="5.16354">
        <ele>201.8</ele>
        <time>2021-12-06T12:18:26Z</time>
      </trkpt>
      <trkpt lat="46.55575" lon="5.16327">
        <ele>201.8</ele>
        <time>2021-12-06T12:18:29Z</time>
      </trkpt>
      <trkpt lat="46.55586" lon="5.16275">
        <ele>201</ele>
        <time>2021-12-06T12:18:34Z</time>
      </trkpt>
      <trkpt lat="46.55588" lon="5.16264">
        <ele>200.4</ele>
        <time>2021-12-06T12:18:35Z</time>
      </trkpt>
      <trkpt lat="46.55593" lon="5.16241">
        <ele>199.2</ele>
        <time>2021-12-06T12:18:37Z</time>
      </trkpt>
      <trkpt lat="46.55598" lon="5.16204">
        <ele>198.2</ele>
        <time>2021-12-06T12:18:40Z</time>
      </trkpt>
      <trkpt lat="46.55601" lon="5.16164">
        <ele>197</ele>
        <time>2021-12-06T12:18:43Z</time>
      </trkpt>
      <trkpt lat="46.55602" lon="5.16137">
        <ele>196</ele>
        <time>2021-12-06T12:18:45Z</time>
      </trkpt>
      <trkpt lat="46.55602" lon="5.16109">
        <ele>194.8</ele>
        <time>2021-12-06T12:18:47Z</time>
      </trkpt>
      <trkpt lat="46.55601" lon="5.16067">
        <ele>193.4</ele>
        <time>2021-12-06T12:18:50Z</time>
      </trkpt>
      <trkpt lat="46.55599" lon="5.16054">
        <ele>193</ele>
        <time>2021-12-06T12:18:51Z</time>
      </trkpt>
      <trkpt lat="46.55596" lon="5.16029">
        <ele>192</ele>
        <time>2021-12-06T12:18:53Z</time>
      </trkpt>
      <trkpt lat="46.55588" lon="5.1598">
        <ele>191.6</ele>
        <time>2021-12-06T12:18:57Z</time>
      </trkpt>
      <trkpt lat="46.55571" lon="5.15926">
        <ele>191.6</ele>
        <time>2021-12-06T12:19:02Z</time>
      </trkpt>
      <trkpt lat="46.55557" lon="5.15866">
        <ele>192</ele>
        <time>2021-12-06T12:19:08Z</time>
      </trkpt>
      <trkpt lat="46.55559" lon="5.15821">
        <ele>193</ele>
        <time>2021-12-06T12:19:13Z</time>
      </trkpt>
      <trkpt lat="46.55562" lon="5.15805">
        <ele>193.4</ele>
        <time>2021-12-06T12:19:15Z</time>
      </trkpt>
      <trkpt lat="46.55566" lon="5.15783">
        <ele>194.4</ele>
        <time>2021-12-06T12:19:18Z</time>
      </trkpt>
      <trkpt lat="46.55569" lon="5.15769">
        <ele>195</ele>
        <time>2021-12-06T12:19:20Z</time>
      </trkpt>
      <trkpt lat="46.55576" lon="5.15742">
        <ele>195.6</ele>
        <time>2021-12-06T12:19:24Z</time>
      </trkpt>
      <trkpt lat="46.55578" lon="5.15729">
        <ele>196.2</ele>
        <time>2021-12-06T12:19:26Z</time>
      </trkpt>
      <trkpt lat="46.55579" lon="5.15723">
        <ele>196.8</ele>
        <time>2021-12-06T12:19:27Z</time>
      </trkpt>
      <trkpt lat="46.55583" lon="5.15698">
        <ele>198</ele>
        <time>2021-12-06T12:19:31Z</time>
      </trkpt>
      <trkpt lat="46.55585" lon="5.15692">
        <ele>198.2</ele>
        <time>2021-12-06T12:19:32Z</time>
      </trkpt>
      <trkpt lat="46.55587" lon="5.15681">
        <ele>198.8</ele>
        <time>2021-12-06T12:19:34Z</time>
      </trkpt>
      <trkpt lat="46.55589" lon="5.15675">
        <ele>199.2</ele>
        <time>2021-12-06T12:19:35Z</time>
      </trkpt>
      <trkpt lat="46.55594" lon="5.15656">
        <ele>200.2</ele>
        <time>2021-12-06T12:19:38Z</time>
      </trkpt>
      <trkpt lat="46.55599" lon="5.15637">
        <ele>201.2</ele>
        <time>2021-12-06T12:19:41Z</time>
      </trkpt>
      <trkpt lat="46.55602" lon="5.15624">
        <ele>201.4</ele>
        <time>2021-12-06T12:19:43Z</time>
      </trkpt>
      <trkpt lat="46.55608" lon="5.15604">
        <ele>202.6</ele>
        <time>2021-12-06T12:19:46Z</time>
      </trkpt>
      <trkpt lat="46.55611" lon="5.15593">
        <ele>202.6</ele>
        <time>2021-12-06T12:19:48Z</time>
      </trkpt>
      <trkpt lat="46.5562" lon="5.15563">
        <ele>203.4</ele>
        <time>2021-12-06T12:19:52Z</time>
      </trkpt>
      <trkpt lat="46.55626" lon="5.15543">
        <ele>204</ele>
        <time>2021-12-06T12:19:55Z</time>
      </trkpt>
      <trkpt lat="46.55637" lon="5.15505">
        <ele>204.6</ele>
        <time>2021-12-06T12:20:00Z</time>
      </trkpt>
      <trkpt lat="46.55644" lon="5.15482">
        <ele>204.6</ele>
        <time>2021-12-06T12:20:03Z</time>
      </trkpt>
      <trkpt lat="46.55665" lon="5.15414">
        <ele>204.6</ele>
        <time>2021-12-06T12:20:12Z</time>
      </trkpt>
      <trkpt lat="46.55683" lon="5.15357">
        <ele>204.6</ele>
        <time>2021-12-06T12:20:19Z</time>
      </trkpt>
      <trkpt lat="46.55688" lon="5.15337">
        <ele>204.4</ele>
        <time>2021-12-06T12:20:21Z</time>
      </trkpt>
      <trkpt lat="46.5569" lon="5.15315">
        <ele>204</ele>
        <time>2021-12-06T12:20:23Z</time>
      </trkpt>
      <trkpt lat="46.55692" lon="5.15294">
        <ele>203.4</ele>
        <time>2021-12-06T12:20:25Z</time>
      </trkpt>
      <trkpt lat="46.55692" lon="5.1528">
        <ele>203.2</ele>
        <time>2021-12-06T12:20:26Z</time>
      </trkpt>
      <trkpt lat="46.55694" lon="5.15246">
        <ele>202</ele>
        <time>2021-12-06T12:20:29Z</time>
      </trkpt>
      <trkpt lat="46.55695" lon="5.15218">
        <ele>201.2</ele>
        <time>2021-12-06T12:20:31Z</time>
      </trkpt>
      <trkpt lat="46.55698" lon="5.15181">
        <ele>199.8</ele>
        <time>2021-12-06T12:20:34Z</time>
      </trkpt>
      <trkpt lat="46.557" lon="5.15167">
        <ele>199.4</ele>
        <time>2021-12-06T12:20:35Z</time>
      </trkpt>
      <trkpt lat="46.55706" lon="5.15138">
        <ele>198.6</ele>
        <time>2021-12-06T12:20:37Z</time>
      </trkpt>
      <trkpt lat="46.55711" lon="5.15114">
        <ele>197.4</ele>
        <time>2021-12-06T12:20:39Z</time>
      </trkpt>
      <trkpt lat="46.55715" lon="5.15102">
        <ele>196.8</ele>
        <time>2021-12-06T12:20:40Z</time>
      </trkpt>
      <trkpt lat="46.55723" lon="5.15075">
        <ele>196.2</ele>
        <time>2021-12-06T12:20:42Z</time>
      </trkpt>
      <trkpt lat="46.55739" lon="5.15032">
        <ele>195.6</ele>
        <time>2021-12-06T12:20:46Z</time>
      </trkpt>
      <trkpt lat="46.55762" lon="5.14979">
        <ele>196</ele>
        <time>2021-12-06T12:20:52Z</time>
      </trkpt>
      <trkpt lat="46.55774" lon="5.14948">
        <ele>197.2</ele>
        <time>2021-12-06T12:20:56Z</time>
      </trkpt>
      <trkpt lat="46.55779" lon="5.14936">
        <ele>198.2</ele>
        <time>2021-12-06T12:20:58Z</time>
      </trkpt>
      <trkpt lat="46.55781" lon="5.1493">
        <ele>198.2</ele>
        <time>2021-12-06T12:20:59Z</time>
      </trkpt>
      <trkpt lat="46.55792" lon="5.14903">
        <ele>199.8</ele>
        <time>2021-12-06T12:21:03Z</time>
      </trkpt>
      <trkpt lat="46.55796" lon="5.14889">
        <ele>200.4</ele>
        <time>2021-12-06T12:21:05Z</time>
      </trkpt>
      <trkpt lat="46.55803" lon="5.14868">
        <ele>201</ele>
        <time>2021-12-06T12:21:08Z</time>
      </trkpt>
      <trkpt lat="46.5581" lon="5.1484">
        <ele>201.8</ele>
        <time>2021-12-06T12:21:12Z</time>
      </trkpt>
      <trkpt lat="46.55813" lon="5.14826">
        <ele>202.4</ele>
        <time>2021-12-06T12:21:14Z</time>
      </trkpt>
      <trkpt lat="46.55823" lon="5.1479">
        <ele>203.4</ele>
        <time>2021-12-06T12:21:19Z</time>
      </trkpt>
      <trkpt lat="46.55845" lon="5.14723">
        <ele>204.4</ele>
        <time>2021-12-06T12:21:28Z</time>
      </trkpt>
      <trkpt lat="46.5585" lon="5.14707">
        <ele>204.4</ele>
        <time>2021-12-06T12:21:30Z</time>
      </trkpt>
      <trkpt lat="46.55871" lon="5.14642">
        <ele>204.6</ele>
        <time>2021-12-06T12:21:38Z</time>
      </trkpt>
      <trkpt lat="46.55894" lon="5.14563">
        <ele>204.6</ele>
        <time>2021-12-06T12:21:47Z</time>
      </trkpt>
      <trkpt lat="46.55918" lon="5.14485">
        <ele>205</ele>
        <time>2021-12-06T12:21:56Z</time>
      </trkpt>
      <trkpt lat="46.55926" lon="5.14458">
        <ele>205</ele>
        <time>2021-12-06T12:21:59Z</time>
      </trkpt>
      <trkpt lat="46.55949" lon="5.14387">
        <ele>205</ele>
        <time>2021-12-06T12:22:07Z</time>
      </trkpt>
      <trkpt lat="46.55955" lon="5.14369">
        <ele>205</ele>
        <time>2021-12-06T12:22:09Z</time>
      </trkpt>
      <trkpt lat="46.55978" lon="5.14296">
        <ele>205</ele>
        <time>2021-12-06T12:22:17Z</time>
      </trkpt>
      <trkpt lat="46.55989" lon="5.1426">
        <ele>205</ele>
        <time>2021-12-06T12:22:21Z</time>
      </trkpt>
      <trkpt lat="46.55994" lon="5.14241">
        <ele>205</ele>
        <time>2021-12-06T12:22:23Z</time>
      </trkpt>
      <trkpt lat="46.55996" lon="5.14222">
        <ele>205</ele>
        <time>2021-12-06T12:22:25Z</time>
      </trkpt>
      <trkpt lat="46.55996" lon="5.14212">
        <ele>205</ele>
        <time>2021-12-06T12:22:26Z</time>
      </trkpt>
      <trkpt lat="46.55992" lon="5.14154">
        <ele>204.8</ele>
        <time>2021-12-06T12:22:32Z</time>
      </trkpt>
      <trkpt lat="46.55994" lon="5.14086">
        <ele>204.8</ele>
        <time>2021-12-06T12:22:39Z</time>
      </trkpt>
      <trkpt lat="46.56002" lon="5.14018">
        <ele>204.8</ele>
        <time>2021-12-06T12:22:46Z</time>
      </trkpt>
      <trkpt lat="46.56013" lon="5.13937">
        <ele>204.4</ele>
        <time>2021-12-06T12:22:54Z</time>
      </trkpt>
      <trkpt lat="46.56014" lon="5.13926">
        <ele>204.4</ele>
        <time>2021-12-06T12:22:55Z</time>
      </trkpt>
      <trkpt lat="46.56025" lon="5.13842">
        <ele>204</ele>
        <time>2021-12-06T12:23:03Z</time>
      </trkpt>
      <trkpt lat="46.56025" lon="5.13776">
        <ele>203.8</ele>
        <time>2021-12-06T12:23:09Z</time>
      </trkpt>
      <trkpt lat="46.56022" lon="5.13743">
        <ele>203.4</ele>
        <time>2021-12-06T12:23:12Z</time>
      </trkpt>
      <trkpt lat="46.56016" lon="5.13688">
        <ele>203</ele>
        <time>2021-12-06T12:23:17Z</time>
      </trkpt>
      <trkpt lat="46.56009" lon="5.13624">
        <ele>202.6</ele>
        <time>2021-12-06T12:23:23Z</time>
      </trkpt>
      <trkpt lat="46.56" lon="5.13551">
        <ele>202.2</ele>
        <time>2021-12-06T12:23:30Z</time>
      </trkpt>
      <trkpt lat="46.55997" lon="5.1352">
        <ele>202.2</ele>
        <time>2021-12-06T12:23:33Z</time>
      </trkpt>
      <trkpt lat="46.55987" lon="5.13436">
        <ele>202</ele>
        <time>2021-12-06T12:23:41Z</time>
      </trkpt>
      <trkpt lat="46.55985" lon="5.13415">
        <ele>202</ele>
        <time>2021-12-06T12:23:43Z</time>
      </trkpt>
      <trkpt lat="46.55974" lon="5.13327">
        <ele>201.2</ele>
        <time>2021-12-06T12:23:51Z</time>
      </trkpt>
      <trkpt lat="46.55966" lon="5.13268">
        <ele>200</ele>
        <time>2021-12-06T12:23:56Z</time>
      </trkpt>
      <trkpt lat="46.55963" lon="5.13244">
        <ele>199.2</ele>
        <time>2021-12-06T12:23:58Z</time>
      </trkpt>
      <trkpt lat="46.55962" lon="5.13232">
        <ele>198.8</ele>
        <time>2021-12-06T12:23:59Z</time>
      </trkpt>
      <trkpt lat="46.55955" lon="5.13177">
        <ele>198</ele>
        <time>2021-12-06T12:24:04Z</time>
      </trkpt>
      <trkpt lat="46.55949" lon="5.13117">
        <ele>199</ele>
        <time>2021-12-06T12:24:11Z</time>
      </trkpt>
      <trkpt lat="46.55947" lon="5.13101">
        <ele>199.6</ele>
        <time>2021-12-06T12:24:13Z</time>
      </trkpt>
      <trkpt lat="46.55945" lon="5.13084">
        <ele>200.2</ele>
        <time>2021-12-06T12:24:15Z</time>
      </trkpt>
      <trkpt lat="46.55944" lon="5.13076">
        <ele>200.6</ele>
        <time>2021-12-06T12:24:16Z</time>
      </trkpt>
      <trkpt lat="46.5594" lon="5.13043">
        <ele>201.4</ele>
        <time>2021-12-06T12:24:20Z</time>
      </trkpt>
      <trkpt lat="46.55935" lon="5.13003">
        <ele>202</ele>
        <time>2021-12-06T12:24:25Z</time>
      </trkpt>
      <trkpt lat="46.55931" lon="5.1297">
        <ele>202.4</ele>
        <time>2021-12-06T12:24:29Z</time>
      </trkpt>
      <trkpt lat="46.55924" lon="5.12927">
        <ele>202.6</ele>
        <time>2021-12-06T12:24:34Z</time>
      </trkpt>
      <trkpt lat="46.55911" lon="5.12853">
        <ele>202.6</ele>
        <time>2021-12-06T12:24:42Z</time>
      </trkpt>
      <trkpt lat="46.55897" lon="5.12768">
        <ele>202.6</ele>
        <time>2021-12-06T12:24:51Z</time>
      </trkpt>
      <trkpt lat="46.55891" lon="5.12741">
        <ele>202.4</ele>
        <time>2021-12-06T12:24:54Z</time>
      </trkpt>
      <trkpt lat="46.55878" lon="5.12668">
        <ele>202.4</ele>
        <time>2021-12-06T12:25:02Z</time>
      </trkpt>
      <trkpt lat="46.55863" lon="5.12585">
        <ele>202.4</ele>
        <time>2021-12-06T12:25:11Z</time>
      </trkpt>
      <trkpt lat="46.55861" lon="5.12576">
        <ele>202.4</ele>
        <time>2021-12-06T12:25:12Z</time>
      </trkpt>
      <trkpt lat="46.55846" lon="5.12493">
        <ele>202</ele>
        <time>2021-12-06T12:25:21Z</time>
      </trkpt>
      <trkpt lat="46.55842" lon="5.12475">
        <ele>202</ele>
        <time>2021-12-06T12:25:23Z</time>
      </trkpt>
      <trkpt lat="46.55821" lon="5.12394">
        <ele>202.4</ele>
        <time>2021-12-06T12:25:32Z</time>
      </trkpt>
      <trkpt lat="46.55801" lon="5.12319">
        <ele>202.2</ele>
        <time>2021-12-06T12:25:40Z</time>
      </trkpt>
      <trkpt lat="46.55796" lon="5.12301">
        <ele>202.2</ele>
        <time>2021-12-06T12:25:42Z</time>
      </trkpt>
      <trkpt lat="46.55775" lon="5.12227">
        <ele>202.2</ele>
        <time>2021-12-06T12:25:50Z</time>
      </trkpt>
      <trkpt lat="46.55767" lon="5.122">
        <ele>202.4</ele>
        <time>2021-12-06T12:25:53Z</time>
      </trkpt>
      <trkpt lat="46.55745" lon="5.12121">
        <ele>202.4</ele>
        <time>2021-12-06T12:26:02Z</time>
      </trkpt>
      <trkpt lat="46.5574" lon="5.12103">
        <ele>202.6</ele>
        <time>2021-12-06T12:26:04Z</time>
      </trkpt>
      <trkpt lat="46.55718" lon="5.12023">
        <ele>202.4</ele>
        <time>2021-12-06T12:26:13Z</time>
      </trkpt>
      <trkpt lat="46.55712" lon="5.12006">
        <ele>202</ele>
        <time>2021-12-06T12:26:15Z</time>
      </trkpt>
      <trkpt lat="46.55708" lon="5.11998">
        <ele>202</ele>
        <time>2021-12-06T12:26:16Z</time>
      </trkpt>
      <trkpt lat="46.55689" lon="5.1197">
        <ele>202</ele>
        <time>2021-12-06T12:26:20Z</time>
      </trkpt>
      <trkpt lat="46.55643" lon="5.11912">
        <ele>201.4</ele>
        <time>2021-12-06T12:26:29Z</time>
      </trkpt>
      <trkpt lat="46.55638" lon="5.11905">
        <ele>201.4</ele>
        <time>2021-12-06T12:26:30Z</time>
      </trkpt>
      <trkpt lat="46.55632" lon="5.11898">
        <ele>201.2</ele>
        <time>2021-12-06T12:26:31Z</time>
      </trkpt>
      <trkpt lat="46.55598" lon="5.11852">
        <ele>199.8</ele>
        <time>2021-12-06T12:26:37Z</time>
      </trkpt>
      <trkpt lat="46.5559" lon="5.11831">
        <ele>198.8</ele>
        <time>2021-12-06T12:26:39Z</time>
      </trkpt>
      <trkpt lat="46.55586" lon="5.11819">
        <ele>198.6</ele>
        <time>2021-12-06T12:26:40Z</time>
      </trkpt>
      <trkpt lat="46.55584" lon="5.11807">
        <ele>198.2</ele>
        <time>2021-12-06T12:26:41Z</time>
      </trkpt>
      <trkpt lat="46.55578" lon="5.11782">
        <ele>197.4</ele>
        <time>2021-12-06T12:26:43Z</time>
      </trkpt>
      <trkpt lat="46.55573" lon="5.11757">
        <ele>196.2</ele>
        <time>2021-12-06T12:26:46Z</time>
      </trkpt>
      <trkpt lat="46.55565" lon="5.11719">
        <ele>194.8</ele>
        <time>2021-12-06T12:26:49Z</time>
      </trkpt>
      <trkpt lat="46.55562" lon="5.11706">
        <ele>194.4</ele>
        <time>2021-12-06T12:26:50Z</time>
      </trkpt>
      <trkpt lat="46.55558" lon="5.11682">
        <ele>193.6</ele>
        <time>2021-12-06T12:26:52Z</time>
      </trkpt>
      <trkpt lat="46.55548" lon="5.11639">
        <ele>192.4</ele>
        <time>2021-12-06T12:26:55Z</time>
      </trkpt>
      <trkpt lat="46.55539" lon="5.11601">
        <ele>191</ele>
        <time>2021-12-06T12:26:58Z</time>
      </trkpt>
      <trkpt lat="46.55537" lon="5.11588">
        <ele>190.4</ele>
        <time>2021-12-06T12:26:59Z</time>
      </trkpt>
      <trkpt lat="46.55533" lon="5.11562">
        <ele>189.8</ele>
        <time>2021-12-06T12:27:01Z</time>
      </trkpt>
      <trkpt lat="46.5553" lon="5.11536">
        <ele>189</ele>
        <time>2021-12-06T12:27:03Z</time>
      </trkpt>
      <trkpt lat="46.55531" lon="5.11523">
        <ele>189</ele>
        <time>2021-12-06T12:27:04Z</time>
      </trkpt>
      <trkpt lat="46.55532" lon="5.1151">
        <ele>188.4</ele>
        <time>2021-12-06T12:27:05Z</time>
      </trkpt>
      <trkpt lat="46.55537" lon="5.11486">
        <ele>188.4</ele>
        <time>2021-12-06T12:27:07Z</time>
      </trkpt>
      <trkpt lat="46.5554" lon="5.11476">
        <ele>188.4</ele>
        <time>2021-12-06T12:27:08Z</time>
      </trkpt>
      <trkpt lat="46.55561" lon="5.11413">
        <ele>187.8</ele>
        <time>2021-12-06T12:27:14Z</time>
      </trkpt>
      <trkpt lat="46.55571" lon="5.11382">
        <ele>187.6</ele>
        <time>2021-12-06T12:27:17Z</time>
      </trkpt>
      <trkpt lat="46.55582" lon="5.11349">
        <ele>187.4</ele>
        <time>2021-12-06T12:27:20Z</time>
      </trkpt>
      <trkpt lat="46.55594" lon="5.11308">
        <ele>186.6</ele>
        <time>2021-12-06T12:27:24Z</time>
      </trkpt>
      <trkpt lat="46.55596" lon="5.11302">
        <ele>185.8</ele>
        <time>2021-12-06T12:27:25Z</time>
      </trkpt>
      <trkpt lat="46.55597" lon="5.11298">
        <ele>185.2</ele>
        <time>2021-12-06T12:27:26Z</time>
      </trkpt>
      <trkpt lat="46.55598" lon="5.11293">
        <ele>184.8</ele>
        <time>2021-12-06T12:27:28Z</time>
      </trkpt>
      <trkpt lat="46.556" lon="5.1129">
        <ele>184.6</ele>
        <time>2021-12-06T12:27:30Z</time>
      </trkpt>
      <trkpt lat="46.556" lon="5.11289">
        <ele>184.6</ele>
        <time>2021-12-06T12:27:32Z</time>
      </trkpt>
      <trkpt lat="46.55601" lon="5.11283">
        <ele>184.4</ele>
        <time>2021-12-06T12:27:38Z</time>
      </trkpt>
      <trkpt lat="46.556" lon="5.11276">
        <ele>184.4</ele>
        <time>2021-12-06T12:27:40Z</time>
      </trkpt>
      <trkpt lat="46.55596" lon="5.11264">
        <ele>184.2</ele>
        <time>2021-12-06T12:27:42Z</time>
      </trkpt>
      <trkpt lat="46.55591" lon="5.1125">
        <ele>184</ele>
        <time>2021-12-06T12:27:44Z</time>
      </trkpt>
      <trkpt lat="46.55577" lon="5.11204">
        <ele>183</ele>
        <time>2021-12-06T12:27:49Z</time>
      </trkpt>
      <trkpt lat="46.55565" lon="5.11139">
        <ele>181.8</ele>
        <time>2021-12-06T12:27:55Z</time>
      </trkpt>
      <trkpt lat="46.55552" lon="5.11082">
        <ele>181.4</ele>
        <time>2021-12-06T12:28:01Z</time>
      </trkpt>
      <trkpt lat="46.55534" lon="5.11031">
        <ele>181.6</ele>
        <time>2021-12-06T12:28:07Z</time>
      </trkpt>
      <trkpt lat="46.55524" lon="5.11004">
        <ele>182.6</ele>
        <time>2021-12-06T12:28:11Z</time>
      </trkpt>
      <trkpt lat="46.55519" lon="5.1099">
        <ele>182.8</ele>
        <time>2021-12-06T12:28:13Z</time>
      </trkpt>
      <trkpt lat="46.5551" lon="5.10965">
        <ele>184</ele>
        <time>2021-12-06T12:28:17Z</time>
      </trkpt>
      <trkpt lat="46.55504" lon="5.10948">
        <ele>185</ele>
        <time>2021-12-06T12:28:20Z</time>
      </trkpt>
      <trkpt lat="46.55502" lon="5.10942">
        <ele>185.2</ele>
        <time>2021-12-06T12:28:21Z</time>
      </trkpt>
      <trkpt lat="46.55494" lon="5.10921">
        <ele>186.2</ele>
        <time>2021-12-06T12:28:25Z</time>
      </trkpt>
      <trkpt lat="46.55487" lon="5.10906">
        <ele>187.4</ele>
        <time>2021-12-06T12:28:28Z</time>
      </trkpt>
      <trkpt lat="46.5548" lon="5.10892">
        <ele>188.8</ele>
        <time>2021-12-06T12:28:31Z</time>
      </trkpt>
      <trkpt lat="46.55471" lon="5.10872">
        <ele>190</ele>
        <time>2021-12-06T12:28:35Z</time>
      </trkpt>
      <trkpt lat="46.55467" lon="5.10864">
        <ele>190.6</ele>
        <time>2021-12-06T12:28:37Z</time>
      </trkpt>
      <trkpt lat="46.55464" lon="5.10859">
        <ele>191.2</ele>
        <time>2021-12-06T12:28:38Z</time>
      </trkpt>
      <trkpt lat="46.55455" lon="5.1084">
        <ele>192.2</ele>
        <time>2021-12-06T12:28:42Z</time>
      </trkpt>
      <trkpt lat="46.55448" lon="5.10826">
        <ele>193.2</ele>
        <time>2021-12-06T12:28:45Z</time>
      </trkpt>
      <trkpt lat="46.55431" lon="5.10807">
        <ele>194.6</ele>
        <time>2021-12-06T12:28:51Z</time>
      </trkpt>
      <trkpt lat="46.55418" lon="5.10818">
        <ele>195.8</ele>
        <time>2021-12-06T12:28:56Z</time>
      </trkpt>
      <trkpt lat="46.55415" lon="5.1082">
        <ele>195.8</ele>
        <time>2021-12-06T12:28:57Z</time>
      </trkpt>
      <trkpt lat="46.55391" lon="5.10834">
        <ele>196.4</ele>
        <time>2021-12-06T12:29:04Z</time>
      </trkpt>
      <trkpt lat="46.5536" lon="5.10845">
        <ele>196.4</ele>
        <time>2021-12-06T12:29:10Z</time>
      </trkpt>
      <trkpt lat="46.55319" lon="5.10852">
        <ele>196.2</ele>
        <time>2021-12-06T12:29:18Z</time>
      </trkpt>
      <trkpt lat="46.55261" lon="5.10867">
        <ele>196.8</ele>
        <time>2021-12-06T12:29:29Z</time>
      </trkpt>
      <trkpt lat="46.55201" lon="5.1088">
        <ele>196.4</ele>
        <time>2021-12-06T12:29:39Z</time>
      </trkpt>
      <trkpt lat="46.55149" lon="5.10886">
        <ele>195.6</ele>
        <time>2021-12-06T12:29:47Z</time>
      </trkpt>
      <trkpt lat="46.55116" lon="5.10884">
        <ele>195.2</ele>
        <time>2021-12-06T12:29:52Z</time>
      </trkpt>
      <trkpt lat="46.55109" lon="5.10886">
        <ele>195.2</ele>
        <time>2021-12-06T12:29:53Z</time>
      </trkpt>
      <trkpt lat="46.55074" lon="5.10894">
        <ele>194.8</ele>
        <time>2021-12-06T12:29:58Z</time>
      </trkpt>
      <trkpt lat="46.5506" lon="5.10894">
        <ele>194.6</ele>
        <time>2021-12-06T12:30:00Z</time>
      </trkpt>
      <trkpt lat="46.55052" lon="5.10892">
        <ele>194.4</ele>
        <time>2021-12-06T12:30:01Z</time>
      </trkpt>
      <trkpt lat="46.55038" lon="5.10883">
        <ele>194</ele>
        <time>2021-12-06T12:30:03Z</time>
      </trkpt>
      <trkpt lat="46.55032" lon="5.10877">
        <ele>193.6</ele>
        <time>2021-12-06T12:30:04Z</time>
      </trkpt>
      <trkpt lat="46.55026" lon="5.10869">
        <ele>193.2</ele>
        <time>2021-12-06T12:30:05Z</time>
      </trkpt>
      <trkpt lat="46.55017" lon="5.10853">
        <ele>192.8</ele>
        <time>2021-12-06T12:30:07Z</time>
      </trkpt>
      <trkpt lat="46.54987" lon="5.1081">
        <ele>192.4</ele>
        <time>2021-12-06T12:30:13Z</time>
      </trkpt>
      <trkpt lat="46.54948" lon="5.10773">
        <ele>192.4</ele>
        <time>2021-12-06T12:30:20Z</time>
      </trkpt>
      <trkpt lat="46.54923" lon="5.10741">
        <ele>192.6</ele>
        <time>2021-12-06T12:30:25Z</time>
      </trkpt>
      <trkpt lat="46.54919" lon="5.10733">
        <ele>192.6</ele>
        <time>2021-12-06T12:30:26Z</time>
      </trkpt>
      <trkpt lat="46.54916" lon="5.10725">
        <ele>192.6</ele>
        <time>2021-12-06T12:30:27Z</time>
      </trkpt>
      <trkpt lat="46.54911" lon="5.10697">
        <ele>192.6</ele>
        <time>2021-12-06T12:30:30Z</time>
      </trkpt>
      <trkpt lat="46.54907" lon="5.10679">
        <ele>192.8</ele>
        <time>2021-12-06T12:30:32Z</time>
      </trkpt>
      <trkpt lat="46.54899" lon="5.10655">
        <ele>192.8</ele>
        <time>2021-12-06T12:30:35Z</time>
      </trkpt>
      <trkpt lat="46.54892" lon="5.1064">
        <ele>193.2</ele>
        <time>2021-12-06T12:30:37Z</time>
      </trkpt>
      <trkpt lat="46.54878" lon="5.10622">
        <ele>193.6</ele>
        <time>2021-12-06T12:30:40Z</time>
      </trkpt>
      <trkpt lat="46.54838" lon="5.10579">
        <ele>194.2</ele>
        <time>2021-12-06T12:30:48Z</time>
      </trkpt>
      <trkpt lat="46.54794" lon="5.10533">
        <ele>194.6</ele>
        <time>2021-12-06T12:30:57Z</time>
      </trkpt>
      <trkpt lat="46.54789" lon="5.10527">
        <ele>194.6</ele>
        <time>2021-12-06T12:30:58Z</time>
      </trkpt>
      <trkpt lat="46.54779" lon="5.10518">
        <ele>194.6</ele>
        <time>2021-12-06T12:31:00Z</time>
      </trkpt>
      <trkpt lat="46.54752" lon="5.10483">
        <ele>194.8</ele>
        <time>2021-12-06T12:31:06Z</time>
      </trkpt>
      <trkpt lat="46.54732" lon="5.10443">
        <ele>195.4</ele>
        <time>2021-12-06T12:31:12Z</time>
      </trkpt>
      <trkpt lat="46.54725" lon="5.1043">
        <ele>195.8</ele>
        <time>2021-12-06T12:31:14Z</time>
      </trkpt>
      <trkpt lat="46.54703" lon="5.10381">
        <ele>196.4</ele>
        <time>2021-12-06T12:31:21Z</time>
      </trkpt>
      <trkpt lat="46.54695" lon="5.10368">
        <ele>196.6</ele>
        <time>2021-12-06T12:31:23Z</time>
      </trkpt>
      <trkpt lat="46.54686" lon="5.10357">
        <ele>196.8</ele>
        <time>2021-12-06T12:31:25Z</time>
      </trkpt>
      <trkpt lat="46.54681" lon="5.10353">
        <ele>196.8</ele>
        <time>2021-12-06T12:31:26Z</time>
      </trkpt>
      <trkpt lat="46.54676" lon="5.1035">
        <ele>196.8</ele>
        <time>2021-12-06T12:31:27Z</time>
      </trkpt>
      <trkpt lat="46.54659" lon="5.10342">
        <ele>196.8</ele>
        <time>2021-12-06T12:31:30Z</time>
      </trkpt>
      <trkpt lat="46.54654" lon="5.10341">
        <ele>196.8</ele>
        <time>2021-12-06T12:31:31Z</time>
      </trkpt>
      <trkpt lat="46.54618" lon="5.10317">
        <ele>197.4</ele>
        <time>2021-12-06T12:31:38Z</time>
      </trkpt>
      <trkpt lat="46.54584" lon="5.10274">
        <ele>197.8</ele>
        <time>2021-12-06T12:31:46Z</time>
      </trkpt>
      <trkpt lat="46.54575" lon="5.10262">
        <ele>197.8</ele>
        <time>2021-12-06T12:31:48Z</time>
      </trkpt>
      <trkpt lat="46.54558" lon="5.10229">
        <ele>197.8</ele>
        <time>2021-12-06T12:31:53Z</time>
      </trkpt>
      <trkpt lat="46.54531" lon="5.10174">
        <ele>197.8</ele>
        <time>2021-12-06T12:32:01Z</time>
      </trkpt>
      <trkpt lat="46.54518" lon="5.10155">
        <ele>197.8</ele>
        <time>2021-12-06T12:32:04Z</time>
      </trkpt>
      <trkpt lat="46.54503" lon="5.10138">
        <ele>197.8</ele>
        <time>2021-12-06T12:32:07Z</time>
      </trkpt>
      <trkpt lat="46.54457" lon="5.1009">
        <ele>197.6</ele>
        <time>2021-12-06T12:32:16Z</time>
      </trkpt>
      <trkpt lat="46.54452" lon="5.10085">
        <ele>197.6</ele>
        <time>2021-12-06T12:32:17Z</time>
      </trkpt>
      <trkpt lat="46.54422" lon="5.10071">
        <ele>197.4</ele>
        <time>2021-12-06T12:32:22Z</time>
      </trkpt>
      <trkpt lat="46.54377" lon="5.10063">
        <ele>197</ele>
        <time>2021-12-06T12:32:29Z</time>
      </trkpt>
      <trkpt lat="46.5432" lon="5.10049">
        <ele>197</ele>
        <time>2021-12-06T12:32:38Z</time>
      </trkpt>
      <trkpt lat="46.54291" lon="5.10029">
        <ele>197.4</ele>
        <time>2021-12-06T12:32:43Z</time>
      </trkpt>
      <trkpt lat="46.54257" lon="5.09995">
        <ele>197.6</ele>
        <time>2021-12-06T12:32:50Z</time>
      </trkpt>
      <trkpt lat="46.54205" lon="5.09957">
        <ele>198.6</ele>
        <time>2021-12-06T12:33:00Z</time>
      </trkpt>
      <trkpt lat="46.54185" lon="5.0994">
        <ele>199</ele>
        <time>2021-12-06T12:33:04Z</time>
      </trkpt>
      <trkpt lat="46.54165" lon="5.09922">
        <ele>199</ele>
        <time>2021-12-06T12:33:08Z</time>
      </trkpt>
      <trkpt lat="46.54119" lon="5.09881">
        <ele>199.4</ele>
        <time>2021-12-06T12:33:17Z</time>
      </trkpt>
      <trkpt lat="46.54103" lon="5.09868">
        <ele>199.4</ele>
        <time>2021-12-06T12:33:20Z</time>
      </trkpt>
      <trkpt lat="46.54064" lon="5.09851">
        <ele>199.8</ele>
        <time>2021-12-06T12:33:27Z</time>
      </trkpt>
      <trkpt lat="46.54058" lon="5.09848">
        <ele>200</ele>
        <time>2021-12-06T12:33:28Z</time>
      </trkpt>
      <trkpt lat="46.54037" lon="5.09833">
        <ele>200.2</ele>
        <time>2021-12-06T12:33:32Z</time>
      </trkpt>
      <trkpt lat="46.54032" lon="5.09828">
        <ele>200.2</ele>
        <time>2021-12-06T12:33:33Z</time>
      </trkpt>
      <trkpt lat="46.54023" lon="5.09816">
        <ele>200.6</ele>
        <time>2021-12-06T12:33:35Z</time>
      </trkpt>
      <trkpt lat="46.54011" lon="5.09796">
        <ele>200.8</ele>
        <time>2021-12-06T12:33:38Z</time>
      </trkpt>
      <trkpt lat="46.53989" lon="5.0974">
        <ele>200.8</ele>
        <time>2021-12-06T12:33:45Z</time>
      </trkpt>
      <trkpt lat="46.53961" lon="5.09666">
        <ele>200.8</ele>
        <time>2021-12-06T12:33:54Z</time>
      </trkpt>
      <trkpt lat="46.53951" lon="5.09642">
        <ele>200.8</ele>
        <time>2021-12-06T12:33:57Z</time>
      </trkpt>
      <trkpt lat="46.53922" lon="5.09579">
        <ele>200.8</ele>
        <time>2021-12-06T12:34:05Z</time>
      </trkpt>
      <trkpt lat="46.53892" lon="5.09519">
        <ele>200.2</ele>
        <time>2021-12-06T12:34:12Z</time>
      </trkpt>
      <trkpt lat="46.53871" lon="5.09478">
        <ele>198.8</ele>
        <time>2021-12-06T12:34:16Z</time>
      </trkpt>
      <trkpt lat="46.53861" lon="5.09456">
        <ele>197.6</ele>
        <time>2021-12-06T12:34:18Z</time>
      </trkpt>
      <trkpt lat="46.5385" lon="5.09433">
        <ele>196.4</ele>
        <time>2021-12-06T12:34:20Z</time>
      </trkpt>
      <trkpt lat="46.53839" lon="5.0941">
        <ele>195.4</ele>
        <time>2021-12-06T12:34:22Z</time>
      </trkpt>
      <trkpt lat="46.53828" lon="5.09388">
        <ele>194.2</ele>
        <time>2021-12-06T12:34:24Z</time>
      </trkpt>
      <trkpt lat="46.53818" lon="5.09367">
        <ele>193.6</ele>
        <time>2021-12-06T12:34:26Z</time>
      </trkpt>
      <trkpt lat="46.53796" lon="5.09323">
        <ele>193.6</ele>
        <time>2021-12-06T12:34:31Z</time>
      </trkpt>
      <trkpt lat="46.53768" lon="5.09293">
        <ele>194.4</ele>
        <time>2021-12-06T12:34:36Z</time>
      </trkpt>
      <trkpt lat="46.53719" lon="5.09267">
        <ele>194.8</ele>
        <time>2021-12-06T12:34:43Z</time>
      </trkpt>
      <trkpt lat="46.53667" lon="5.09241">
        <ele>194.4</ele>
        <time>2021-12-06T12:34:50Z</time>
      </trkpt>
      <trkpt lat="46.53654" lon="5.09228">
        <ele>194</ele>
        <time>2021-12-06T12:34:52Z</time>
      </trkpt>
      <trkpt lat="46.53643" lon="5.09212">
        <ele>194</ele>
        <time>2021-12-06T12:34:54Z</time>
      </trkpt>
      <trkpt lat="46.53628" lon="5.09181">
        <ele>194</ele>
        <time>2021-12-06T12:34:58Z</time>
      </trkpt>
      <trkpt lat="46.53611" lon="5.09151">
        <ele>195</ele>
        <time>2021-12-06T12:35:03Z</time>
      </trkpt>
      <trkpt lat="46.53608" lon="5.09147">
        <ele>195.6</ele>
        <time>2021-12-06T12:35:04Z</time>
      </trkpt>
      <trkpt lat="46.53593" lon="5.09133">
        <ele>196.6</ele>
        <time>2021-12-06T12:35:08Z</time>
      </trkpt>
      <trkpt lat="46.5358" lon="5.09127">
        <ele>197.6</ele>
        <time>2021-12-06T12:35:11Z</time>
      </trkpt>
      <trkpt lat="46.53567" lon="5.09123">
        <ele>198.4</ele>
        <time>2021-12-06T12:35:14Z</time>
      </trkpt>
      <trkpt lat="46.53563" lon="5.09121">
        <ele>199</ele>
        <time>2021-12-06T12:35:15Z</time>
      </trkpt>
      <trkpt lat="46.53547" lon="5.09115">
        <ele>200</ele>
        <time>2021-12-06T12:35:19Z</time>
      </trkpt>
      <trkpt lat="46.53531" lon="5.0911">
        <ele>200.6</ele>
        <time>2021-12-06T12:35:22Z</time>
      </trkpt>
      <trkpt lat="46.5352" lon="5.09105">
        <ele>200.8</ele>
        <time>2021-12-06T12:35:24Z</time>
      </trkpt>
      <trkpt lat="46.53504" lon="5.091">
        <ele>201</ele>
        <time>2021-12-06T12:35:27Z</time>
      </trkpt>
      <trkpt lat="46.53485" lon="5.09094">
        <ele>202</ele>
        <time>2021-12-06T12:35:31Z</time>
      </trkpt>
      <trkpt lat="46.53475" lon="5.0909">
        <ele>202</ele>
        <time>2021-12-06T12:35:33Z</time>
      </trkpt>
      <trkpt lat="46.5347" lon="5.09089">
        <ele>202</ele>
        <time>2021-12-06T12:35:34Z</time>
      </trkpt>
      <trkpt lat="46.53466" lon="5.09087">
        <ele>202.6</ele>
        <time>2021-12-06T12:35:35Z</time>
      </trkpt>
      <trkpt lat="46.53451" lon="5.09082">
        <ele>203.2</ele>
        <time>2021-12-06T12:35:38Z</time>
      </trkpt>
      <trkpt lat="46.53441" lon="5.09078">
        <ele>203.4</ele>
        <time>2021-12-06T12:35:40Z</time>
      </trkpt>
      <trkpt lat="46.53405" lon="5.09065">
        <ele>203.8</ele>
        <time>2021-12-06T12:35:47Z</time>
      </trkpt>
      <trkpt lat="46.53351" lon="5.09041">
        <ele>203.8</ele>
        <time>2021-12-06T12:35:57Z</time>
      </trkpt>
      <trkpt lat="46.53308" lon="5.0902">
        <ele>203.2</ele>
        <time>2021-12-06T12:36:04Z</time>
      </trkpt>
      <trkpt lat="46.53289" lon="5.09008">
        <ele>202.6</ele>
        <time>2021-12-06T12:36:07Z</time>
      </trkpt>
      <trkpt lat="46.53279" lon="5.08994">
        <ele>202.6</ele>
        <time>2021-12-06T12:36:09Z</time>
      </trkpt>
      <trkpt lat="46.53271" lon="5.08978">
        <ele>202.2</ele>
        <time>2021-12-06T12:36:11Z</time>
      </trkpt>
      <trkpt lat="46.53268" lon="5.08968">
        <ele>202</ele>
        <time>2021-12-06T12:36:12Z</time>
      </trkpt>
      <trkpt lat="46.53266" lon="5.08959">
        <ele>202</ele>
        <time>2021-12-06T12:36:13Z</time>
      </trkpt>
      <trkpt lat="46.53259" lon="5.08908">
        <ele>201</ele>
        <time>2021-12-06T12:36:18Z</time>
      </trkpt>
      <trkpt lat="46.53257" lon="5.08888">
        <ele>200.8</ele>
        <time>2021-12-06T12:36:20Z</time>
      </trkpt>
      <trkpt lat="46.53253" lon="5.08839">
        <ele>200.8</ele>
        <time>2021-12-06T12:36:25Z</time>
      </trkpt>
      <trkpt lat="46.5325" lon="5.0881">
        <ele>200.6</ele>
        <time>2021-12-06T12:36:28Z</time>
      </trkpt>
      <trkpt lat="46.53244" lon="5.08749">
        <ele>199.8</ele>
        <time>2021-12-06T12:36:34Z</time>
      </trkpt>
      <trkpt lat="46.53242" lon="5.0872">
        <ele>199.6</ele>
        <time>2021-12-06T12:36:37Z</time>
      </trkpt>
      <trkpt lat="46.53239" lon="5.08693">
        <ele>199.6</ele>
        <time>2021-12-06T12:36:40Z</time>
      </trkpt>
      <trkpt lat="46.53238" lon="5.08677">
        <ele>199.6</ele>
        <time>2021-12-06T12:36:42Z</time>
      </trkpt>
      <trkpt lat="46.5323" lon="5.08633">
        <ele>200.8</ele>
        <time>2021-12-06T12:36:48Z</time>
      </trkpt>
      <trkpt lat="46.53227" lon="5.08627">
        <ele>201</ele>
        <time>2021-12-06T12:36:49Z</time>
      </trkpt>
      <trkpt lat="46.53216" lon="5.08605">
        <ele>202</ele>
        <time>2021-12-06T12:36:53Z</time>
      </trkpt>
      <trkpt lat="46.53212" lon="5.086">
        <ele>202.2</ele>
        <time>2021-12-06T12:36:54Z</time>
      </trkpt>
      <trkpt lat="46.53209" lon="5.08595">
        <ele>202.4</ele>
        <time>2021-12-06T12:36:55Z</time>
      </trkpt>
      <trkpt lat="46.53192" lon="5.08577">
        <ele>203.2</ele>
        <time>2021-12-06T12:36:59Z</time>
      </trkpt>
      <trkpt lat="46.53188" lon="5.08573">
        <ele>203.4</ele>
        <time>2021-12-06T12:37:00Z</time>
      </trkpt>
      <trkpt lat="46.53162" lon="5.08553">
        <ele>203.6</ele>
        <time>2021-12-06T12:37:05Z</time>
      </trkpt>
      <trkpt lat="46.53141" lon="5.08538">
        <ele>204</ele>
        <time>2021-12-06T12:37:09Z</time>
      </trkpt>
      <trkpt lat="46.5313" lon="5.08532">
        <ele>204.2</ele>
        <time>2021-12-06T12:37:11Z</time>
      </trkpt>
      <trkpt lat="46.53075" lon="5.08504">
        <ele>205</ele>
        <time>2021-12-06T12:37:21Z</time>
      </trkpt>
      <trkpt lat="46.53065" lon="5.08499">
        <ele>205.2</ele>
        <time>2021-12-06T12:37:23Z</time>
      </trkpt>
      <trkpt lat="46.53055" lon="5.08493">
        <ele>205.2</ele>
        <time>2021-12-06T12:37:25Z</time>
      </trkpt>
      <trkpt lat="46.53049" lon="5.0849">
        <ele>205.2</ele>
        <time>2021-12-06T12:37:26Z</time>
      </trkpt>
      <trkpt lat="46.53044" lon="5.08488">
        <ele>205.2</ele>
        <time>2021-12-06T12:37:27Z</time>
      </trkpt>
      <trkpt lat="46.52988" lon="5.08457">
        <ele>205.4</ele>
        <time>2021-12-06T12:37:37Z</time>
      </trkpt>
      <trkpt lat="46.52939" lon="5.0843">
        <ele>205</ele>
        <time>2021-12-06T12:37:45Z</time>
      </trkpt>
      <trkpt lat="46.52921" lon="5.08414">
        <ele>204.6</ele>
        <time>2021-12-06T12:37:48Z</time>
      </trkpt>
      <trkpt lat="46.52911" lon="5.08401">
        <ele>204.6</ele>
        <time>2021-12-06T12:37:50Z</time>
      </trkpt>
      <trkpt lat="46.52903" lon="5.08387">
        <ele>204.4</ele>
        <time>2021-12-06T12:37:52Z</time>
      </trkpt>
      <trkpt lat="46.52898" lon="5.08373">
        <ele>204.4</ele>
        <time>2021-12-06T12:37:54Z</time>
      </trkpt>
      <trkpt lat="46.52895" lon="5.08366">
        <ele>204.4</ele>
        <time>2021-12-06T12:37:55Z</time>
      </trkpt>
      <trkpt lat="46.52884" lon="5.08328">
        <ele>205</ele>
        <time>2021-12-06T12:38:00Z</time>
      </trkpt>
      <trkpt lat="46.52879" lon="5.08313">
        <ele>205.2</ele>
        <time>2021-12-06T12:38:02Z</time>
      </trkpt>
      <trkpt lat="46.52877" lon="5.08305">
        <ele>205.4</ele>
        <time>2021-12-06T12:38:03Z</time>
      </trkpt>
      <trkpt lat="46.52867" lon="5.08269">
        <ele>206.2</ele>
        <time>2021-12-06T12:38:08Z</time>
      </trkpt>
      <trkpt lat="46.52864" lon="5.08261">
        <ele>206.4</ele>
        <time>2021-12-06T12:38:09Z</time>
      </trkpt>
      <trkpt lat="46.52849" lon="5.0821">
        <ele>207</ele>
        <time>2021-12-06T12:38:16Z</time>
      </trkpt>
      <trkpt lat="46.52832" lon="5.08167">
        <ele>207.2</ele>
        <time>2021-12-06T12:38:22Z</time>
      </trkpt>
      <trkpt lat="46.52829" lon="5.0816">
        <ele>207.4</ele>
        <time>2021-12-06T12:38:23Z</time>
      </trkpt>
      <trkpt lat="46.52825" lon="5.08154">
        <ele>207.4</ele>
        <time>2021-12-06T12:38:24Z</time>
      </trkpt>
      <trkpt lat="46.52804" lon="5.08116">
        <ele>207</ele>
        <time>2021-12-06T12:38:29Z</time>
      </trkpt>
      <trkpt lat="46.52787" lon="5.08088">
        <ele>206.2</ele>
        <time>2021-12-06T12:38:32Z</time>
      </trkpt>
      <trkpt lat="46.52771" lon="5.0806">
        <ele>205.4</ele>
        <time>2021-12-06T12:38:35Z</time>
      </trkpt>
      <trkpt lat="46.52766" lon="5.0805">
        <ele>205.2</ele>
        <time>2021-12-06T12:38:36Z</time>
      </trkpt>
      <trkpt lat="46.52746" lon="5.08024">
        <ele>203.2</ele>
        <time>2021-12-06T12:38:39Z</time>
      </trkpt>
      <trkpt lat="46.52739" lon="5.08017">
        <ele>202.8</ele>
        <time>2021-12-06T12:38:40Z</time>
      </trkpt>
      <trkpt lat="46.52723" lon="5.08006">
        <ele>202.2</ele>
        <time>2021-12-06T12:38:42Z</time>
      </trkpt>
      <trkpt lat="46.52714" lon="5.08003">
        <ele>201.8</ele>
        <time>2021-12-06T12:38:43Z</time>
      </trkpt>
      <trkpt lat="46.52706" lon="5.08">
        <ele>201.6</ele>
        <time>2021-12-06T12:38:44Z</time>
      </trkpt>
      <trkpt lat="46.52676" lon="5.07992">
        <ele>201</ele>
        <time>2021-12-06T12:38:48Z</time>
      </trkpt>
      <trkpt lat="46.52646" lon="5.07985">
        <ele>201.4</ele>
        <time>2021-12-06T12:38:53Z</time>
      </trkpt>
      <trkpt lat="46.52641" lon="5.07984">
        <ele>201.8</ele>
        <time>2021-12-06T12:38:54Z</time>
      </trkpt>
      <trkpt lat="46.52627" lon="5.07978">
        <ele>203</ele>
        <time>2021-12-06T12:38:57Z</time>
      </trkpt>
      <trkpt lat="46.52602" lon="5.07971">
        <ele>204.2</ele>
        <time>2021-12-06T12:39:03Z</time>
      </trkpt>
      <trkpt lat="46.52588" lon="5.07968">
        <ele>205.4</ele>
        <time>2021-12-06T12:39:06Z</time>
      </trkpt>
      <trkpt lat="46.52579" lon="5.07965">
        <ele>206.2</ele>
        <time>2021-12-06T12:39:08Z</time>
      </trkpt>
      <trkpt lat="46.52575" lon="5.07963">
        <ele>206.4</ele>
        <time>2021-12-06T12:39:09Z</time>
      </trkpt>
      <trkpt lat="46.52559" lon="5.07957">
        <ele>207</ele>
        <time>2021-12-06T12:39:12Z</time>
      </trkpt>
      <trkpt lat="46.52549" lon="5.07951">
        <ele>207.2</ele>
        <time>2021-12-06T12:39:14Z</time>
      </trkpt>
      <trkpt lat="46.52534" lon="5.07941">
        <ele>207.6</ele>
        <time>2021-12-06T12:39:17Z</time>
      </trkpt>
      <trkpt lat="46.52516" lon="5.07928">
        <ele>208</ele>
        <time>2021-12-06T12:39:21Z</time>
      </trkpt>
      <trkpt lat="46.52487" lon="5.07907">
        <ele>208.6</ele>
        <time>2021-12-06T12:39:27Z</time>
      </trkpt>
      <trkpt lat="46.52459" lon="5.07887">
        <ele>209</ele>
        <time>2021-12-06T12:39:33Z</time>
      </trkpt>
      <trkpt lat="46.5243" lon="5.07866">
        <ele>209.6</ele>
        <time>2021-12-06T12:39:39Z</time>
      </trkpt>
      <trkpt lat="46.52415" lon="5.07856">
        <ele>209.8</ele>
        <time>2021-12-06T12:39:42Z</time>
      </trkpt>
      <trkpt lat="46.52364" lon="5.07818">
        <ele>210.2</ele>
        <time>2021-12-06T12:39:52Z</time>
      </trkpt>
      <trkpt lat="46.5236" lon="5.07813">
        <ele>210.4</ele>
        <time>2021-12-06T12:39:53Z</time>
      </trkpt>
      <trkpt lat="46.52314" lon="5.0777">
        <ele>210.4</ele>
        <time>2021-12-06T12:40:02Z</time>
      </trkpt>
      <trkpt lat="46.52291" lon="5.07751">
        <ele>210.2</ele>
        <time>2021-12-06T12:40:06Z</time>
      </trkpt>
      <trkpt lat="46.52278" lon="5.07745">
        <ele>210</ele>
        <time>2021-12-06T12:40:08Z</time>
      </trkpt>
      <trkpt lat="46.52233" lon="5.07736">
        <ele>209.4</ele>
        <time>2021-12-06T12:40:15Z</time>
      </trkpt>
      <trkpt lat="46.52188" lon="5.07725">
        <ele>209.6</ele>
        <time>2021-12-06T12:40:22Z</time>
      </trkpt>
      <trkpt lat="46.52146" lon="5.07698">
        <ele>209.6</ele>
        <time>2021-12-06T12:40:29Z</time>
      </trkpt>
      <trkpt lat="46.52093" lon="5.07662">
        <ele>209.4</ele>
        <time>2021-12-06T12:40:38Z</time>
      </trkpt>
      <trkpt lat="46.52039" lon="5.07635">
        <ele>209.8</ele>
        <time>2021-12-06T12:40:47Z</time>
      </trkpt>
      <trkpt lat="46.52032" lon="5.07632">
        <ele>210</ele>
        <time>2021-12-06T12:40:48Z</time>
      </trkpt>
      <trkpt lat="46.51981" lon="5.07603">
        <ele>209.4</ele>
        <time>2021-12-06T12:40:56Z</time>
      </trkpt>
      <trkpt lat="46.5195" lon="5.07587">
        <ele>209.4</ele>
        <time>2021-12-06T12:41:01Z</time>
      </trkpt>
      <trkpt lat="46.51937" lon="5.07586">
        <ele>209.4</ele>
        <time>2021-12-06T12:41:03Z</time>
      </trkpt>
      <trkpt lat="46.51925" lon="5.07589">
        <ele>209.6</ele>
        <time>2021-12-06T12:41:05Z</time>
      </trkpt>
      <trkpt lat="46.51914" lon="5.07596">
        <ele>210</ele>
        <time>2021-12-06T12:41:07Z</time>
      </trkpt>
      <trkpt lat="46.51872" lon="5.07627">
        <ele>210.6</ele>
        <time>2021-12-06T12:41:14Z</time>
      </trkpt>
      <trkpt lat="46.51835" lon="5.07651">
        <ele>210.6</ele>
        <time>2021-12-06T12:41:20Z</time>
      </trkpt>
      <trkpt lat="46.51822" lon="5.07654">
        <ele>210.6</ele>
        <time>2021-12-06T12:41:22Z</time>
      </trkpt>
      <trkpt lat="46.51783" lon="5.07651">
        <ele>210.4</ele>
        <time>2021-12-06T12:41:28Z</time>
      </trkpt>
      <trkpt lat="46.51727" lon="5.07636">
        <ele>210.6</ele>
        <time>2021-12-06T12:41:37Z</time>
      </trkpt>
      <trkpt lat="46.51678" lon="5.07617">
        <ele>210.8</ele>
        <time>2021-12-06T12:41:45Z</time>
      </trkpt>
      <trkpt lat="46.51666" lon="5.07611">
        <ele>210.8</ele>
        <time>2021-12-06T12:41:47Z</time>
      </trkpt>
      <trkpt lat="46.51614" lon="5.07586">
        <ele>210.6</ele>
        <time>2021-12-06T12:41:55Z</time>
      </trkpt>
      <trkpt lat="46.51608" lon="5.07582">
        <ele>210.6</ele>
        <time>2021-12-06T12:41:56Z</time>
      </trkpt>
      <trkpt lat="46.51566" lon="5.07554">
        <ele>210.4</ele>
        <time>2021-12-06T12:42:03Z</time>
      </trkpt>
      <trkpt lat="46.51561" lon="5.07548">
        <ele>210.4</ele>
        <time>2021-12-06T12:42:04Z</time>
      </trkpt>
      <trkpt lat="46.51549" lon="5.07526">
        <ele>210.4</ele>
        <time>2021-12-06T12:42:07Z</time>
      </trkpt>
      <trkpt lat="46.51517" lon="5.07479">
        <ele>210.6</ele>
        <time>2021-12-06T12:42:14Z</time>
      </trkpt>
      <trkpt lat="46.51511" lon="5.07474">
        <ele>210.6</ele>
        <time>2021-12-06T12:42:15Z</time>
      </trkpt>
      <trkpt lat="46.51465" lon="5.07446">
        <ele>210.6</ele>
        <time>2021-12-06T12:42:23Z</time>
      </trkpt>
      <trkpt lat="46.5141" lon="5.07428">
        <ele>210.4</ele>
        <time>2021-12-06T12:42:31Z</time>
      </trkpt>
      <trkpt lat="46.51382" lon="5.0742">
        <ele>209.8</ele>
        <time>2021-12-06T12:42:35Z</time>
      </trkpt>
      <trkpt lat="46.51353" lon="5.07417">
        <ele>209.2</ele>
        <time>2021-12-06T12:42:39Z</time>
      </trkpt>
      <trkpt lat="46.51338" lon="5.07418">
        <ele>208.8</ele>
        <time>2021-12-06T12:42:41Z</time>
      </trkpt>
      <trkpt lat="46.51293" lon="5.0742">
        <ele>207.4</ele>
        <time>2021-12-06T12:42:47Z</time>
      </trkpt>
      <trkpt lat="46.51279" lon="5.07421">
        <ele>207.2</ele>
        <time>2021-12-06T12:42:49Z</time>
      </trkpt>
      <trkpt lat="46.51235" lon="5.07414">
        <ele>207</ele>
        <time>2021-12-06T12:42:55Z</time>
      </trkpt>
      <trkpt lat="46.51228" lon="5.07411">
        <ele>207</ele>
        <time>2021-12-06T12:42:56Z</time>
      </trkpt>
      <trkpt lat="46.51203" lon="5.07392">
        <ele>206.8</ele>
        <time>2021-12-06T12:43:00Z</time>
      </trkpt>
      <trkpt lat="46.51178" lon="5.0737">
        <ele>206.4</ele>
        <time>2021-12-06T12:43:04Z</time>
      </trkpt>
      <trkpt lat="46.51151" lon="5.07354">
        <ele>206</ele>
        <time>2021-12-06T12:43:08Z</time>
      </trkpt>
      <trkpt lat="46.51115" lon="5.07349">
        <ele>205.4</ele>
        <time>2021-12-06T12:43:13Z</time>
      </trkpt>
      <trkpt lat="46.51088" lon="5.07339">
        <ele>205</ele>
        <time>2021-12-06T12:43:17Z</time>
      </trkpt>
      <trkpt lat="46.51081" lon="5.07335">
        <ele>205</ele>
        <time>2021-12-06T12:43:18Z</time>
      </trkpt>
      <trkpt lat="46.51075" lon="5.0733">
        <ele>205</ele>
        <time>2021-12-06T12:43:19Z</time>
      </trkpt>
      <trkpt lat="46.51064" lon="5.07316">
        <ele>204.8</ele>
        <time>2021-12-06T12:43:21Z</time>
      </trkpt>
      <trkpt lat="46.5106" lon="5.07309">
        <ele>204.8</ele>
        <time>2021-12-06T12:43:22Z</time>
      </trkpt>
      <trkpt lat="46.51035" lon="5.07253">
        <ele>204.4</ele>
        <time>2021-12-06T12:43:28Z</time>
      </trkpt>
      <trkpt lat="46.51016" lon="5.07211">
        <ele>203</ele>
        <time>2021-12-06T12:43:32Z</time>
      </trkpt>
      <trkpt lat="46.51011" lon="5.07201">
        <ele>202.8</ele>
        <time>2021-12-06T12:43:33Z</time>
      </trkpt>
      <trkpt lat="46.50996" lon="5.07169">
        <ele>201.4</ele>
        <time>2021-12-06T12:43:36Z</time>
      </trkpt>
      <trkpt lat="46.50979" lon="5.07141">
        <ele>200.4</ele>
        <time>2021-12-06T12:43:39Z</time>
      </trkpt>
      <trkpt lat="46.50954" lon="5.071">
        <ele>200.2</ele>
        <time>2021-12-06T12:43:44Z</time>
      </trkpt>
      <trkpt lat="46.50928" lon="5.07061">
        <ele>201</ele>
        <time>2021-12-06T12:43:50Z</time>
      </trkpt>
      <trkpt lat="46.50912" lon="5.07041">
        <ele>201.8</ele>
        <time>2021-12-06T12:43:54Z</time>
      </trkpt>
      <trkpt lat="46.50903" lon="5.07032">
        <ele>202.6</ele>
        <time>2021-12-06T12:43:56Z</time>
      </trkpt>
      <trkpt lat="46.50899" lon="5.07027">
        <ele>203</ele>
        <time>2021-12-06T12:43:57Z</time>
      </trkpt>
      <trkpt lat="46.50876" lon="5.07008">
        <ele>204</ele>
        <time>2021-12-06T12:44:02Z</time>
      </trkpt>
      <trkpt lat="46.50861" lon="5.06997">
        <ele>204.6</ele>
        <time>2021-12-06T12:44:05Z</time>
      </trkpt>
      <trkpt lat="46.50847" lon="5.06987">
        <ele>205</ele>
        <time>2021-12-06T12:44:08Z</time>
      </trkpt>
      <trkpt lat="46.50822" lon="5.06964">
        <ele>206</ele>
        <time>2021-12-06T12:44:14Z</time>
      </trkpt>
      <trkpt lat="46.50819" lon="5.0696">
        <ele>206.2</ele>
        <time>2021-12-06T12:44:15Z</time>
      </trkpt>
      <trkpt lat="46.5079" lon="5.06928">
        <ele>207.4</ele>
        <time>2021-12-06T12:44:22Z</time>
      </trkpt>
      <trkpt lat="46.50786" lon="5.06924">
        <ele>207.6</ele>
        <time>2021-12-06T12:44:23Z</time>
      </trkpt>
      <trkpt lat="46.50749" lon="5.06892">
        <ele>208.2</ele>
        <time>2021-12-06T12:44:31Z</time>
      </trkpt>
      <trkpt lat="46.50744" lon="5.06888">
        <ele>208.4</ele>
        <time>2021-12-06T12:44:32Z</time>
      </trkpt>
      <trkpt lat="46.507" lon="5.06858">
        <ele>209</ele>
        <time>2021-12-06T12:44:41Z</time>
      </trkpt>
      <trkpt lat="46.5067" lon="5.06843">
        <ele>209.4</ele>
        <time>2021-12-06T12:44:47Z</time>
      </trkpt>
      <trkpt lat="46.50643" lon="5.06835">
        <ele>209.6</ele>
        <time>2021-12-06T12:44:52Z</time>
      </trkpt>
      <trkpt lat="46.50623" lon="5.0683">
        <ele>209.8</ele>
        <time>2021-12-06T12:44:56Z</time>
      </trkpt>
      <trkpt lat="46.50612" lon="5.06832">
        <ele>210.2</ele>
        <time>2021-12-06T12:44:58Z</time>
      </trkpt>
      <trkpt lat="46.50607" lon="5.06835">
        <ele>210.2</ele>
        <time>2021-12-06T12:44:59Z</time>
      </trkpt>
      <trkpt lat="46.50578" lon="5.06855">
        <ele>210.2</ele>
        <time>2021-12-06T12:45:04Z</time>
      </trkpt>
      <trkpt lat="46.50557" lon="5.06862">
        <ele>209.6</ele>
        <time>2021-12-06T12:45:07Z</time>
      </trkpt>
      <trkpt lat="46.50544" lon="5.06863">
        <ele>209.2</ele>
        <time>2021-12-06T12:45:09Z</time>
      </trkpt>
      <trkpt lat="46.50511" lon="5.06866">
        <ele>208.4</ele>
        <time>2021-12-06T12:45:14Z</time>
      </trkpt>
      <trkpt lat="46.50484" lon="5.0687">
        <ele>208</ele>
        <time>2021-12-06T12:45:18Z</time>
      </trkpt>
      <trkpt lat="46.50436" lon="5.06886">
        <ele>207</ele>
        <time>2021-12-06T12:45:25Z</time>
      </trkpt>
      <trkpt lat="46.50392" lon="5.06906">
        <ele>206.6</ele>
        <time>2021-12-06T12:45:32Z</time>
      </trkpt>
      <trkpt lat="46.50366" lon="5.06937">
        <ele>206.4</ele>
        <time>2021-12-06T12:45:37Z</time>
      </trkpt>
      <trkpt lat="46.50361" lon="5.06942">
        <ele>206.4</ele>
        <time>2021-12-06T12:45:38Z</time>
      </trkpt>
      <trkpt lat="46.50342" lon="5.06953">
        <ele>206.2</ele>
        <time>2021-12-06T12:45:41Z</time>
      </trkpt>
      <trkpt lat="46.50336" lon="5.06955">
        <ele>206</ele>
        <time>2021-12-06T12:45:42Z</time>
      </trkpt>
      <trkpt lat="46.50312" lon="5.06963">
        <ele>206</ele>
        <time>2021-12-06T12:45:46Z</time>
      </trkpt>
      <trkpt lat="46.50298" lon="5.0697">
        <ele>207</ele>
        <time>2021-12-06T12:45:50Z</time>
      </trkpt>
      <trkpt lat="46.50295" lon="5.06971">
        <ele>207.2</ele>
        <time>2021-12-06T12:45:51Z</time>
      </trkpt>
      <trkpt lat="46.50282" lon="5.0697">
        <ele>207.8</ele>
        <time>2021-12-06T12:45:55Z</time>
      </trkpt>
      <trkpt lat="46.50278" lon="5.06969">
        <ele>208.2</ele>
        <time>2021-12-06T12:45:56Z</time>
      </trkpt>
      <trkpt lat="46.50269" lon="5.06968">
        <ele>208.8</ele>
        <time>2021-12-06T12:45:58Z</time>
      </trkpt>
      <trkpt lat="46.50259" lon="5.06967">
        <ele>209</ele>
        <time>2021-12-06T12:46:00Z</time>
      </trkpt>
      <trkpt lat="46.50243" lon="5.06965">
        <ele>209</ele>
        <time>2021-12-06T12:46:03Z</time>
      </trkpt>
      <trkpt lat="46.50235" lon="5.06961">
        <ele>209.2</ele>
        <time>2021-12-06T12:46:05Z</time>
      </trkpt>
      <trkpt lat="46.5023" lon="5.06959">
        <ele>209.4</ele>
        <time>2021-12-06T12:46:06Z</time>
      </trkpt>
      <trkpt lat="46.50222" lon="5.06963">
        <ele>209.8</ele>
        <time>2021-12-06T12:46:08Z</time>
      </trkpt>
      <trkpt lat="46.50219" lon="5.06967">
        <ele>210</ele>
        <time>2021-12-06T12:46:09Z</time>
      </trkpt>
      <trkpt lat="46.50202" lon="5.07002">
        <ele>210.2</ele>
        <time>2021-12-06T12:46:14Z</time>
      </trkpt>
      <trkpt lat="46.5018" lon="5.07043">
        <ele>209.4</ele>
        <time>2021-12-06T12:46:19Z</time>
      </trkpt>
      <trkpt lat="46.50164" lon="5.07084">
        <ele>208</ele>
        <time>2021-12-06T12:46:23Z</time>
      </trkpt>
      <trkpt lat="46.50156" lon="5.07105">
        <ele>207.6</ele>
        <time>2021-12-06T12:46:25Z</time>
      </trkpt>
      <trkpt lat="46.50152" lon="5.07116">
        <ele>207</ele>
        <time>2021-12-06T12:46:26Z</time>
      </trkpt>
      <trkpt lat="46.50137" lon="5.07162">
        <ele>205.6</ele>
        <time>2021-12-06T12:46:30Z</time>
      </trkpt>
      <trkpt lat="46.50133" lon="5.07173">
        <ele>205.4</ele>
        <time>2021-12-06T12:46:31Z</time>
      </trkpt>
      <trkpt lat="46.50125" lon="5.07197">
        <ele>204.4</ele>
        <time>2021-12-06T12:46:33Z</time>
      </trkpt>
      <trkpt lat="46.50113" lon="5.07232">
        <ele>203.2</ele>
        <time>2021-12-06T12:46:36Z</time>
      </trkpt>
      <trkpt lat="46.50103" lon="5.07268">
        <ele>202.2</ele>
        <time>2021-12-06T12:46:39Z</time>
      </trkpt>
      <trkpt lat="46.50099" lon="5.0728">
        <ele>202</ele>
        <time>2021-12-06T12:46:40Z</time>
      </trkpt>
      <trkpt lat="46.50087" lon="5.07316">
        <ele>201</ele>
        <time>2021-12-06T12:46:43Z</time>
      </trkpt>
      <trkpt lat="46.5008" lon="5.07341">
        <ele>200.2</ele>
        <time>2021-12-06T12:46:45Z</time>
      </trkpt>
      <trkpt lat="46.50076" lon="5.07354">
        <ele>199.4</ele>
        <time>2021-12-06T12:46:46Z</time>
      </trkpt>
      <trkpt lat="46.50065" lon="5.07393">
        <ele>198.2</ele>
        <time>2021-12-06T12:46:49Z</time>
      </trkpt>
      <trkpt lat="46.50058" lon="5.07419">
        <ele>196.8</ele>
        <time>2021-12-06T12:46:51Z</time>
      </trkpt>
      <trkpt lat="46.50055" lon="5.07433">
        <ele>196.6</ele>
        <time>2021-12-06T12:46:52Z</time>
      </trkpt>
      <trkpt lat="46.5005" lon="5.0746">
        <ele>195.8</ele>
        <time>2021-12-06T12:46:54Z</time>
      </trkpt>
      <trkpt lat="46.50046" lon="5.075">
        <ele>194.8</ele>
        <time>2021-12-06T12:46:57Z</time>
      </trkpt>
      <trkpt lat="46.50045" lon="5.07513">
        <ele>194.6</ele>
        <time>2021-12-06T12:46:58Z</time>
      </trkpt>
      <trkpt lat="46.5004" lon="5.07563">
        <ele>194</ele>
        <time>2021-12-06T12:47:02Z</time>
      </trkpt>
      <trkpt lat="46.50033" lon="5.07629">
        <ele>193.6</ele>
        <time>2021-12-06T12:47:08Z</time>
      </trkpt>
      <trkpt lat="46.5002" lon="5.07686">
        <ele>194.2</ele>
        <time>2021-12-06T12:47:14Z</time>
      </trkpt>
      <trkpt lat="46.5" lon="5.07753">
        <ele>195.2</ele>
        <time>2021-12-06T12:47:22Z</time>
      </trkpt>
      <trkpt lat="46.49998" lon="5.07769">
        <ele>195.6</ele>
        <time>2021-12-06T12:47:24Z</time>
      </trkpt>
      <trkpt lat="46.49994" lon="5.07811">
        <ele>197</ele>
        <time>2021-12-06T12:47:29Z</time>
      </trkpt>
      <trkpt lat="46.49993" lon="5.07865">
        <ele>197.8</ele>
        <time>2021-12-06T12:47:36Z</time>
      </trkpt>
      <trkpt lat="46.49993" lon="5.07879">
        <ele>198.6</ele>
        <time>2021-12-06T12:47:38Z</time>
      </trkpt>
      <trkpt lat="46.49994" lon="5.07893">
        <ele>199.2</ele>
        <time>2021-12-06T12:47:40Z</time>
      </trkpt>
      <trkpt lat="46.49995" lon="5.07906">
        <ele>200</ele>
        <time>2021-12-06T12:47:42Z</time>
      </trkpt>
      <trkpt lat="46.49996" lon="5.07913">
        <ele>200.4</ele>
        <time>2021-12-06T12:47:43Z</time>
      </trkpt>
      <trkpt lat="46.49998" lon="5.07939">
        <ele>201.2</ele>
        <time>2021-12-06T12:47:47Z</time>
      </trkpt>
      <trkpt lat="46.49999" lon="5.0796">
        <ele>201.8</ele>
        <time>2021-12-06T12:47:50Z</time>
      </trkpt>
      <trkpt lat="46.5" lon="5.07981">
        <ele>202.2</ele>
        <time>2021-12-06T12:47:53Z</time>
      </trkpt>
      <trkpt lat="46.5" lon="5.08002">
        <ele>202.6</ele>
        <time>2021-12-06T12:47:56Z</time>
      </trkpt>
      <trkpt lat="46.5" lon="5.08023">
        <ele>203</ele>
        <time>2021-12-06T12:47:59Z</time>
      </trkpt>
      <trkpt lat="46.49999" lon="5.08036">
        <ele>203.2</ele>
        <time>2021-12-06T12:48:01Z</time>
      </trkpt>
      <trkpt lat="46.5" lon="5.08069">
        <ele>203.8</ele>
        <time>2021-12-06T12:48:06Z</time>
      </trkpt>
      <trkpt lat="46.5" lon="5.08088">
        <ele>204.6</ele>
        <time>2021-12-06T12:48:09Z</time>
      </trkpt>
      <trkpt lat="46.50001" lon="5.08127">
        <ele>205.6</ele>
        <time>2021-12-06T12:48:15Z</time>
      </trkpt>
      <trkpt lat="46.50001" lon="5.08134">
        <ele>205.6</ele>
        <time>2021-12-06T12:48:16Z</time>
      </trkpt>
      <trkpt lat="46.50002" lon="5.0816">
        <ele>206</ele>
        <time>2021-12-06T12:48:20Z</time>
      </trkpt>
      <trkpt lat="46.50004" lon="5.08193">
        <ele>207</ele>
        <time>2021-12-06T12:48:25Z</time>
      </trkpt>
      <trkpt lat="46.50005" lon="5.08219">
        <ele>207.6</ele>
        <time>2021-12-06T12:48:29Z</time>
      </trkpt>
      <trkpt lat="46.50007" lon="5.08238">
        <ele>208.2</ele>
        <time>2021-12-06T12:48:32Z</time>
      </trkpt>
      <trkpt lat="46.50007" lon="5.08245">
        <ele>208.2</ele>
        <time>2021-12-06T12:48:33Z</time>
      </trkpt>
      <trkpt lat="46.50011" lon="5.08278">
        <ele>208.8</ele>
        <time>2021-12-06T12:48:38Z</time>
      </trkpt>
      <trkpt lat="46.50017" lon="5.0832">
        <ele>208.8</ele>
        <time>2021-12-06T12:48:43Z</time>
      </trkpt>
      <trkpt lat="46.50032" lon="5.08376">
        <ele>207.6</ele>
        <time>2021-12-06T12:48:49Z</time>
      </trkpt>
      <trkpt lat="46.50042" lon="5.08404">
        <ele>207</ele>
        <time>2021-12-06T12:48:52Z</time>
      </trkpt>
      <trkpt lat="46.50057" lon="5.08449">
        <ele>205.8</ele>
        <time>2021-12-06T12:48:57Z</time>
      </trkpt>
      <trkpt lat="46.50081" lon="5.08518">
        <ele>204.8</ele>
        <time>2021-12-06T12:49:04Z</time>
      </trkpt>
      <trkpt lat="46.50084" lon="5.08529">
        <ele>204.8</ele>
        <time>2021-12-06T12:49:05Z</time>
      </trkpt>
      <trkpt lat="46.50096" lon="5.08566">
        <ele>203.8</ele>
        <time>2021-12-06T12:49:08Z</time>
      </trkpt>
      <trkpt lat="46.50105" lon="5.08592">
        <ele>202.6</ele>
        <time>2021-12-06T12:49:10Z</time>
      </trkpt>
      <trkpt lat="46.50109" lon="5.08606">
        <ele>201.6</ele>
        <time>2021-12-06T12:49:11Z</time>
      </trkpt>
      <trkpt lat="46.50113" lon="5.0862">
        <ele>201.4</ele>
        <time>2021-12-06T12:49:12Z</time>
      </trkpt>
      <trkpt lat="46.50117" lon="5.08635">
        <ele>200.2</ele>
        <time>2021-12-06T12:49:13Z</time>
      </trkpt>
      <trkpt lat="46.50124" lon="5.08665">
        <ele>198.8</ele>
        <time>2021-12-06T12:49:15Z</time>
      </trkpt>
      <trkpt lat="46.5013" lon="5.08695">
        <ele>197.2</ele>
        <time>2021-12-06T12:49:17Z</time>
      </trkpt>
      <trkpt lat="46.50134" lon="5.08724">
        <ele>196.2</ele>
        <time>2021-12-06T12:49:19Z</time>
      </trkpt>
      <trkpt lat="46.50136" lon="5.08738">
        <ele>194.8</ele>
        <time>2021-12-06T12:49:20Z</time>
      </trkpt>
      <trkpt lat="46.50141" lon="5.0878">
        <ele>193.6</ele>
        <time>2021-12-06T12:49:23Z</time>
      </trkpt>
      <trkpt lat="46.5015" lon="5.08859">
        <ele>192.4</ele>
        <time>2021-12-06T12:49:29Z</time>
      </trkpt>
      <trkpt lat="46.50151" lon="5.08872">
        <ele>192.4</ele>
        <time>2021-12-06T12:49:30Z</time>
      </trkpt>
      <trkpt lat="46.50151" lon="5.08933">
        <ele>192.4</ele>
        <time>2021-12-06T12:49:35Z</time>
      </trkpt>
      <trkpt lat="46.50141" lon="5.08999">
        <ele>192.4</ele>
        <time>2021-12-06T12:49:41Z</time>
      </trkpt>
      <trkpt lat="46.50134" lon="5.09047">
        <ele>193</ele>
        <time>2021-12-06T12:49:46Z</time>
      </trkpt>
      <trkpt lat="46.50129" lon="5.09071">
        <ele>194</ele>
        <time>2021-12-06T12:49:49Z</time>
      </trkpt>
      <trkpt lat="46.50123" lon="5.09102">
        <ele>195.2</ele>
        <time>2021-12-06T12:49:53Z</time>
      </trkpt>
      <trkpt lat="46.50119" lon="5.09123">
        <ele>196.6</ele>
        <time>2021-12-06T12:49:56Z</time>
      </trkpt>
      <trkpt lat="46.50113" lon="5.09143">
        <ele>197.6</ele>
        <time>2021-12-06T12:49:59Z</time>
      </trkpt>
      <trkpt lat="46.50111" lon="5.09149">
        <ele>198.2</ele>
        <time>2021-12-06T12:50:00Z</time>
      </trkpt>
      <trkpt lat="46.50108" lon="5.09162">
        <ele>199</ele>
        <time>2021-12-06T12:50:02Z</time>
      </trkpt>
      <trkpt lat="46.50103" lon="5.09181">
        <ele>200</ele>
        <time>2021-12-06T12:50:05Z</time>
      </trkpt>
      <trkpt lat="46.501" lon="5.09195">
        <ele>200.8</ele>
        <time>2021-12-06T12:50:07Z</time>
      </trkpt>
      <trkpt lat="46.50098" lon="5.09208">
        <ele>201.2</ele>
        <time>2021-12-06T12:50:09Z</time>
      </trkpt>
      <trkpt lat="46.50095" lon="5.09235">
        <ele>202.4</ele>
        <time>2021-12-06T12:50:13Z</time>
      </trkpt>
      <trkpt lat="46.50094" lon="5.0925">
        <ele>203</ele>
        <time>2021-12-06T12:50:15Z</time>
      </trkpt>
      <trkpt lat="46.50091" lon="5.09264">
        <ele>203.4</ele>
        <time>2021-12-06T12:50:17Z</time>
      </trkpt>
      <trkpt lat="46.5008" lon="5.09324">
        <ele>204</ele>
        <time>2021-12-06T12:50:25Z</time>
      </trkpt>
      <trkpt lat="46.50066" lon="5.09372">
        <ele>203.4</ele>
        <time>2021-12-06T12:50:31Z</time>
      </trkpt>
      <trkpt lat="46.50049" lon="5.09415">
        <ele>202</ele>
        <time>2021-12-06T12:50:36Z</time>
      </trkpt>
      <trkpt lat="46.50037" lon="5.09448">
        <ele>201</ele>
        <time>2021-12-06T12:50:39Z</time>
      </trkpt>
      <trkpt lat="46.50031" lon="5.09472">
        <ele>200.2</ele>
        <time>2021-12-06T12:50:41Z</time>
      </trkpt>
      <trkpt lat="46.50028" lon="5.09485">
        <ele>199.8</ele>
        <time>2021-12-06T12:50:42Z</time>
      </trkpt>
      <trkpt lat="46.50023" lon="5.09512">
        <ele>198.8</ele>
        <time>2021-12-06T12:50:44Z</time>
      </trkpt>
      <trkpt lat="46.50017" lon="5.09541">
        <ele>197.2</ele>
        <time>2021-12-06T12:50:46Z</time>
      </trkpt>
      <trkpt lat="46.50015" lon="5.09556">
        <ele>196.6</ele>
        <time>2021-12-06T12:50:47Z</time>
      </trkpt>
      <trkpt lat="46.50012" lon="5.09571">
        <ele>195</ele>
        <time>2021-12-06T12:50:48Z</time>
      </trkpt>
      <trkpt lat="46.50006" lon="5.09601">
        <ele>193.2</ele>
        <time>2021-12-06T12:50:50Z</time>
      </trkpt>
      <trkpt lat="46.49998" lon="5.09629">
        <ele>191.8</ele>
        <time>2021-12-06T12:50:52Z</time>
      </trkpt>
      <trkpt lat="46.49991" lon="5.09654">
        <ele>190.6</ele>
        <time>2021-12-06T12:50:54Z</time>
      </trkpt>
      <trkpt lat="46.49979" lon="5.09696">
        <ele>189.4</ele>
        <time>2021-12-06T12:50:57Z</time>
      </trkpt>
      <trkpt lat="46.49975" lon="5.09708">
        <ele>189.2</ele>
        <time>2021-12-06T12:50:58Z</time>
      </trkpt>
      <trkpt lat="46.49962" lon="5.09758">
        <ele>188.4</ele>
        <time>2021-12-06T12:51:02Z</time>
      </trkpt>
      <trkpt lat="46.49957" lon="5.0978">
        <ele>188.2</ele>
        <time>2021-12-06T12:51:04Z</time>
      </trkpt>
      <trkpt lat="46.49948" lon="5.09852">
        <ele>188.2</ele>
        <time>2021-12-06T12:51:10Z</time>
      </trkpt>
      <trkpt lat="46.49945" lon="5.09908">
        <ele>188.4</ele>
        <time>2021-12-06T12:51:15Z</time>
      </trkpt>
      <trkpt lat="46.49943" lon="5.09965">
        <ele>189.4</ele>
        <time>2021-12-06T12:51:21Z</time>
      </trkpt>
      <trkpt lat="46.4994" lon="5.10007">
        <ele>190.8</ele>
        <time>2021-12-06T12:51:26Z</time>
      </trkpt>
      <trkpt lat="46.49939" lon="5.10015">
        <ele>191.2</ele>
        <time>2021-12-06T12:51:27Z</time>
      </trkpt>
      <trkpt lat="46.49936" lon="5.10031">
        <ele>192</ele>
        <time>2021-12-06T12:51:29Z</time>
      </trkpt>
      <trkpt lat="46.49931" lon="5.10063">
        <ele>193.2</ele>
        <time>2021-12-06T12:51:33Z</time>
      </trkpt>
      <trkpt lat="46.4993" lon="5.10075">
        <ele>193.2</ele>
        <time>2021-12-06T12:51:34Z</time>
      </trkpt>
      <trkpt lat="46.49921" lon="5.10122">
        <ele>193</ele>
        <time>2021-12-06T12:51:39Z</time>
      </trkpt>
      <trkpt lat="46.49912" lon="5.1019">
        <ele>192.4</ele>
        <time>2021-12-06T12:51:46Z</time>
      </trkpt>
      <trkpt lat="46.49915" lon="5.10257">
        <ele>192.2</ele>
        <time>2021-12-06T12:51:53Z</time>
      </trkpt>
      <trkpt lat="46.49915" lon="5.10325">
        <ele>193.4</ele>
        <time>2021-12-06T12:52:01Z</time>
      </trkpt>
      <trkpt lat="46.49909" lon="5.10369">
        <ele>194.2</ele>
        <time>2021-12-06T12:52:07Z</time>
      </trkpt>
      <trkpt lat="46.49908" lon="5.10376">
        <ele>194.2</ele>
        <time>2021-12-06T12:52:08Z</time>
      </trkpt>
      <trkpt lat="46.49903" lon="5.10411">
        <ele>195.4</ele>
        <time>2021-12-06T12:52:13Z</time>
      </trkpt>
      <trkpt lat="46.49901" lon="5.1043">
        <ele>196</ele>
        <time>2021-12-06T12:52:16Z</time>
      </trkpt>
      <trkpt lat="46.49899" lon="5.10442">
        <ele>196.2</ele>
        <time>2021-12-06T12:52:18Z</time>
      </trkpt>
      <trkpt lat="46.49896" lon="5.10466">
        <ele>197.4</ele>
        <time>2021-12-06T12:52:22Z</time>
      </trkpt>
      <trkpt lat="46.49895" lon="5.10472">
        <ele>197.6</ele>
        <time>2021-12-06T12:52:23Z</time>
      </trkpt>
      <trkpt lat="46.49892" lon="5.10495">
        <ele>198.8</ele>
        <time>2021-12-06T12:52:27Z</time>
      </trkpt>
      <trkpt lat="46.49889" lon="5.10509">
        <ele>200</ele>
        <time>2021-12-06T12:52:30Z</time>
      </trkpt>
      <trkpt lat="46.49886" lon="5.10525">
        <ele>200.8</ele>
        <time>2021-12-06T12:52:33Z</time>
      </trkpt>
      <trkpt lat="46.49884" lon="5.10545">
        <ele>202.2</ele>
        <time>2021-12-06T12:52:37Z</time>
      </trkpt>
      <trkpt lat="46.49895" lon="5.10558">
        <ele>203.2</ele>
        <time>2021-12-06T12:52:41Z</time>
      </trkpt>
      <trkpt lat="46.49903" lon="5.10561">
        <ele>204.6</ele>
        <time>2021-12-06T12:52:45Z</time>
      </trkpt>
      <trkpt lat="46.4991" lon="5.10563">
        <ele>205.8</ele>
        <time>2021-12-06T12:52:51Z</time>
      </trkpt>
      <trkpt lat="46.49909" lon="5.10563">
        <ele>205.6</ele>
        <time>2021-12-06T12:52:53Z</time>
      </trkpt>
      <trkpt lat="46.49907" lon="5.10561">
        <ele>206.6</ele>
        <time>2021-12-06T12:56:48Z</time>
      </trkpt>
      <trkpt lat="46.49901" lon="5.10558">
        <ele>206.6</ele>
        <time>2021-12-06T12:56:50Z</time>
      </trkpt>
      <trkpt lat="46.49885" lon="5.10555">
        <ele>206.6</ele>
        <time>2021-12-06T12:56:54Z</time>
      </trkpt>
      <trkpt lat="46.49874" lon="5.10571">
        <ele>206.2</ele>
        <time>2021-12-06T12:56:58Z</time>
      </trkpt>
      <trkpt lat="46.49861" lon="5.1061">
        <ele>206.4</ele>
        <time>2021-12-06T12:57:06Z</time>
      </trkpt>
      <trkpt lat="46.49857" lon="5.1062">
        <ele>207</ele>
        <time>2021-12-06T12:57:08Z</time>
      </trkpt>
      <trkpt lat="46.49846" lon="5.10653">
        <ele>208</ele>
        <time>2021-12-06T12:57:14Z</time>
      </trkpt>
      <trkpt lat="46.49844" lon="5.10659">
        <ele>208.4</ele>
        <time>2021-12-06T12:57:15Z</time>
      </trkpt>
      <trkpt lat="46.49835" lon="5.10681">
        <ele>209.2</ele>
        <time>2021-12-06T12:57:19Z</time>
      </trkpt>
      <trkpt lat="46.49826" lon="5.10705">
        <ele>209.4</ele>
        <time>2021-12-06T12:57:23Z</time>
      </trkpt>
      <trkpt lat="46.49813" lon="5.10741">
        <ele>210</ele>
        <time>2021-12-06T12:57:29Z</time>
      </trkpt>
      <trkpt lat="46.49808" lon="5.10753">
        <ele>210.4</ele>
        <time>2021-12-06T12:57:31Z</time>
      </trkpt>
      <trkpt lat="46.49797" lon="5.10784">
        <ele>211</ele>
        <time>2021-12-06T12:57:36Z</time>
      </trkpt>
      <trkpt lat="46.49776" lon="5.1084">
        <ele>211</ele>
        <time>2021-12-06T12:57:44Z</time>
      </trkpt>
      <trkpt lat="46.49754" lon="5.10899">
        <ele>210.2</ele>
        <time>2021-12-06T12:57:51Z</time>
      </trkpt>
      <trkpt lat="46.49743" lon="5.10928">
        <ele>209.4</ele>
        <time>2021-12-06T12:57:54Z</time>
      </trkpt>
      <trkpt lat="46.49722" lon="5.10983">
        <ele>208.4</ele>
        <time>2021-12-06T12:58:00Z</time>
      </trkpt>
      <trkpt lat="46.49714" lon="5.11002">
        <ele>208.2</ele>
        <time>2021-12-06T12:58:02Z</time>
      </trkpt>
      <trkpt lat="46.49694" lon="5.11066">
        <ele>206.8</ele>
        <time>2021-12-06T12:58:08Z</time>
      </trkpt>
      <trkpt lat="46.49691" lon="5.11076">
        <ele>206.6</ele>
        <time>2021-12-06T12:58:09Z</time>
      </trkpt>
      <trkpt lat="46.4968" lon="5.11112">
        <ele>205.6</ele>
        <time>2021-12-06T12:58:12Z</time>
      </trkpt>
      <trkpt lat="46.49674" lon="5.11127">
        <ele>205.4</ele>
        <time>2021-12-06T12:58:13Z</time>
      </trkpt>
      <trkpt lat="46.49669" lon="5.11139">
        <ele>204.8</ele>
        <time>2021-12-06T12:58:14Z</time>
      </trkpt>
      <trkpt lat="46.49664" lon="5.11148">
        <ele>204.6</ele>
        <time>2021-12-06T12:58:15Z</time>
      </trkpt>
      <trkpt lat="46.49652" lon="5.1117">
        <ele>203</ele>
        <time>2021-12-06T12:58:17Z</time>
      </trkpt>
      <trkpt lat="46.49639" lon="5.11195">
        <ele>201.6</ele>
        <time>2021-12-06T12:58:19Z</time>
      </trkpt>
      <trkpt lat="46.49628" lon="5.11215">
        <ele>201</ele>
        <time>2021-12-06T12:58:21Z</time>
      </trkpt>
      <trkpt lat="46.49614" lon="5.1124">
        <ele>200</ele>
        <time>2021-12-06T12:58:23Z</time>
      </trkpt>
      <trkpt lat="46.49598" lon="5.11271">
        <ele>198.6</ele>
        <time>2021-12-06T12:58:26Z</time>
      </trkpt>
      <trkpt lat="46.49575" lon="5.11314">
        <ele>197.6</ele>
        <time>2021-12-06T12:58:30Z</time>
      </trkpt>
      <trkpt lat="46.49537" lon="5.11385">
        <ele>196.6</ele>
        <time>2021-12-06T12:58:37Z</time>
      </trkpt>
      <trkpt lat="46.49532" lon="5.11394">
        <ele>196.4</ele>
        <time>2021-12-06T12:58:38Z</time>
      </trkpt>
      <trkpt lat="46.495" lon="5.11455">
        <ele>195.4</ele>
        <time>2021-12-06T12:58:44Z</time>
      </trkpt>
      <trkpt lat="46.49497" lon="5.11463">
        <ele>195.2</ele>
        <time>2021-12-06T12:58:45Z</time>
      </trkpt>
      <trkpt lat="46.49491" lon="5.11486">
        <ele>195</ele>
        <time>2021-12-06T12:58:47Z</time>
      </trkpt>
      <trkpt lat="46.4949" lon="5.115">
        <ele>194.8</ele>
        <time>2021-12-06T12:58:48Z</time>
      </trkpt>
      <trkpt lat="46.49491" lon="5.1151">
        <ele>194.6</ele>
        <time>2021-12-06T12:58:49Z</time>
      </trkpt>
      <trkpt lat="46.49495" lon="5.1156">
        <ele>194.4</ele>
        <time>2021-12-06T12:58:53Z</time>
      </trkpt>
      <trkpt lat="46.49495" lon="5.11572">
        <ele>194.4</ele>
        <time>2021-12-06T12:58:54Z</time>
      </trkpt>
      <trkpt lat="46.49492" lon="5.11593">
        <ele>194.4</ele>
        <time>2021-12-06T12:58:56Z</time>
      </trkpt>
      <trkpt lat="46.4949" lon="5.11604">
        <ele>194.4</ele>
        <time>2021-12-06T12:58:57Z</time>
      </trkpt>
      <trkpt lat="46.49486" lon="5.11617">
        <ele>194.4</ele>
        <time>2021-12-06T12:58:58Z</time>
      </trkpt>
      <trkpt lat="46.49475" lon="5.11643">
        <ele>194.4</ele>
        <time>2021-12-06T12:59:01Z</time>
      </trkpt>
      <trkpt lat="46.49455" lon="5.1167">
        <ele>194.6</ele>
        <time>2021-12-06T12:59:05Z</time>
      </trkpt>
      <trkpt lat="46.49434" lon="5.11687">
        <ele>195.4</ele>
        <time>2021-12-06T12:59:09Z</time>
      </trkpt>
      <trkpt lat="46.49426" lon="5.11693">
        <ele>196</ele>
        <time>2021-12-06T12:59:11Z</time>
      </trkpt>
      <trkpt lat="46.49407" lon="5.11708">
        <ele>196.8</ele>
        <time>2021-12-06T12:59:15Z</time>
      </trkpt>
      <trkpt lat="46.49393" lon="5.11717">
        <ele>197.8</ele>
        <time>2021-12-06T12:59:18Z</time>
      </trkpt>
      <trkpt lat="46.49376" lon="5.11729">
        <ele>199</ele>
        <time>2021-12-06T12:59:22Z</time>
      </trkpt>
      <trkpt lat="46.49364" lon="5.11738">
        <ele>199.6</ele>
        <time>2021-12-06T12:59:25Z</time>
      </trkpt>
      <trkpt lat="46.49356" lon="5.11745">
        <ele>200</ele>
        <time>2021-12-06T12:59:27Z</time>
      </trkpt>
      <trkpt lat="46.49343" lon="5.11755">
        <ele>200.6</ele>
        <time>2021-12-06T12:59:30Z</time>
      </trkpt>
      <trkpt lat="46.49335" lon="5.11761">
        <ele>201.2</ele>
        <time>2021-12-06T12:59:32Z</time>
      </trkpt>
      <trkpt lat="46.49326" lon="5.11767">
        <ele>202.2</ele>
        <time>2021-12-06T12:59:34Z</time>
      </trkpt>
      <trkpt lat="46.49321" lon="5.11771">
        <ele>202.4</ele>
        <time>2021-12-06T12:59:35Z</time>
      </trkpt>
      <trkpt lat="46.49289" lon="5.11794">
        <ele>203.4</ele>
        <time>2021-12-06T12:59:42Z</time>
      </trkpt>
      <trkpt lat="46.49271" lon="5.11808">
        <ele>204.2</ele>
        <time>2021-12-06T12:59:46Z</time>
      </trkpt>
      <trkpt lat="46.49267" lon="5.11811">
        <ele>204.4</ele>
        <time>2021-12-06T12:59:47Z</time>
      </trkpt>
      <trkpt lat="46.49235" lon="5.11837">
        <ele>205.4</ele>
        <time>2021-12-06T12:59:54Z</time>
      </trkpt>
      <trkpt lat="46.49223" lon="5.1185">
        <ele>205.8</ele>
        <time>2021-12-06T12:59:57Z</time>
      </trkpt>
      <trkpt lat="46.49198" lon="5.1188">
        <ele>206.6</ele>
        <time>2021-12-06T13:00:03Z</time>
      </trkpt>
      <trkpt lat="46.49187" lon="5.11894">
        <ele>206.8</ele>
        <time>2021-12-06T13:00:06Z</time>
      </trkpt>
      <trkpt lat="46.49182" lon="5.11897">
        <ele>206.8</ele>
        <time>2021-12-06T13:00:07Z</time>
      </trkpt>
      <trkpt lat="46.49178" lon="5.11897">
        <ele>206.8</ele>
        <time>2021-12-06T13:00:08Z</time>
      </trkpt>
      <trkpt lat="46.4917" lon="5.1189">
        <ele>206.8</ele>
        <time>2021-12-06T13:00:10Z</time>
      </trkpt>
      <trkpt lat="46.49166" lon="5.11876">
        <ele>206.8</ele>
        <time>2021-12-06T13:00:12Z</time>
      </trkpt>
      <trkpt lat="46.49164" lon="5.11867">
        <ele>206.8</ele>
        <time>2021-12-06T13:00:13Z</time>
      </trkpt>
      <trkpt lat="46.49154" lon="5.11814">
        <ele>206.2</ele>
        <time>2021-12-06T13:00:19Z</time>
      </trkpt>
      <trkpt lat="46.49145" lon="5.11788">
        <ele>206</ele>
        <time>2021-12-06T13:00:22Z</time>
      </trkpt>
      <trkpt lat="46.49135" lon="5.11773">
        <ele>206</ele>
        <time>2021-12-06T13:00:24Z</time>
      </trkpt>
      <trkpt lat="46.49122" lon="5.11768">
        <ele>205.8</ele>
        <time>2021-12-06T13:00:26Z</time>
      </trkpt>
      <trkpt lat="46.49115" lon="5.11769">
        <ele>205.8</ele>
        <time>2021-12-06T13:00:27Z</time>
      </trkpt>
      <trkpt lat="46.49107" lon="5.11774">
        <ele>205.8</ele>
        <time>2021-12-06T13:00:28Z</time>
      </trkpt>
      <trkpt lat="46.49093" lon="5.11786">
        <ele>205.6</ele>
        <time>2021-12-06T13:00:30Z</time>
      </trkpt>
      <trkpt lat="46.49087" lon="5.11792">
        <ele>205.2</ele>
        <time>2021-12-06T13:00:31Z</time>
      </trkpt>
      <trkpt lat="46.49073" lon="5.11804">
        <ele>204</ele>
        <time>2021-12-06T13:00:33Z</time>
      </trkpt>
      <trkpt lat="46.49045" lon="5.11827">
        <ele>203.2</ele>
        <time>2021-12-06T13:00:37Z</time>
      </trkpt>
      <trkpt lat="46.49037" lon="5.1183">
        <ele>202.8</ele>
        <time>2021-12-06T13:00:38Z</time>
      </trkpt>
      <trkpt lat="46.4903" lon="5.11832">
        <ele>202.6</ele>
        <time>2021-12-06T13:00:39Z</time>
      </trkpt>
      <trkpt lat="46.49022" lon="5.11832">
        <ele>202.4</ele>
        <time>2021-12-06T13:00:40Z</time>
      </trkpt>
      <trkpt lat="46.49015" lon="5.11831">
        <ele>202.4</ele>
        <time>2021-12-06T13:00:41Z</time>
      </trkpt>
      <trkpt lat="46.49001" lon="5.11824">
        <ele>202.2</ele>
        <time>2021-12-06T13:00:43Z</time>
      </trkpt>
      <trkpt lat="46.48967" lon="5.11799">
        <ele>201.8</ele>
        <time>2021-12-06T13:00:48Z</time>
      </trkpt>
      <trkpt lat="46.48961" lon="5.11793">
        <ele>201.8</ele>
        <time>2021-12-06T13:00:49Z</time>
      </trkpt>
      <trkpt lat="46.48914" lon="5.11744">
        <ele>201.8</ele>
        <time>2021-12-06T13:00:57Z</time>
      </trkpt>
      <trkpt lat="46.48908" lon="5.11738">
        <ele>201.8</ele>
        <time>2021-12-06T13:00:58Z</time>
      </trkpt>
      <trkpt lat="46.48867" lon="5.11699">
        <ele>202</ele>
        <time>2021-12-06T13:01:05Z</time>
      </trkpt>
      <trkpt lat="46.48828" lon="5.11657">
        <ele>201</ele>
        <time>2021-12-06T13:01:11Z</time>
      </trkpt>
      <trkpt lat="46.48821" lon="5.1165">
        <ele>200.8</ele>
        <time>2021-12-06T13:01:12Z</time>
      </trkpt>
      <trkpt lat="46.48801" lon="5.11626">
        <ele>199.8</ele>
        <time>2021-12-06T13:01:15Z</time>
      </trkpt>
      <trkpt lat="46.48789" lon="5.11607">
        <ele>199.2</ele>
        <time>2021-12-06T13:01:17Z</time>
      </trkpt>
      <trkpt lat="46.48784" lon="5.11597">
        <ele>198.8</ele>
        <time>2021-12-06T13:01:18Z</time>
      </trkpt>
      <trkpt lat="46.4878" lon="5.11585">
        <ele>198.4</ele>
        <time>2021-12-06T13:01:19Z</time>
      </trkpt>
      <trkpt lat="46.48777" lon="5.11574">
        <ele>198</ele>
        <time>2021-12-06T13:01:20Z</time>
      </trkpt>
      <trkpt lat="46.48774" lon="5.11549">
        <ele>197.4</ele>
        <time>2021-12-06T13:01:22Z</time>
      </trkpt>
      <trkpt lat="46.48771" lon="5.11525">
        <ele>197.2</ele>
        <time>2021-12-06T13:01:24Z</time>
      </trkpt>
      <trkpt lat="46.48769" lon="5.11514">
        <ele>197.2</ele>
        <time>2021-12-06T13:01:25Z</time>
      </trkpt>
      <trkpt lat="46.48764" lon="5.11504">
        <ele>197.2</ele>
        <time>2021-12-06T13:01:26Z</time>
      </trkpt>
      <trkpt lat="46.48758" lon="5.11496">
        <ele>196.6</ele>
        <time>2021-12-06T13:01:27Z</time>
      </trkpt>
      <trkpt lat="46.48751" lon="5.11491">
        <ele>196.6</ele>
        <time>2021-12-06T13:01:28Z</time>
      </trkpt>
      <trkpt lat="46.48729" lon="5.11479">
        <ele>196.4</ele>
        <time>2021-12-06T13:01:31Z</time>
      </trkpt>
      <trkpt lat="46.48708" lon="5.11469">
        <ele>196.4</ele>
        <time>2021-12-06T13:01:34Z</time>
      </trkpt>
      <trkpt lat="46.48689" lon="5.11462">
        <ele>196.4</ele>
        <time>2021-12-06T13:01:37Z</time>
      </trkpt>
      <trkpt lat="46.48655" lon="5.11451">
        <ele>198</ele>
        <time>2021-12-06T13:01:43Z</time>
      </trkpt>
      <trkpt lat="46.48649" lon="5.1145">
        <ele>198.2</ele>
        <time>2021-12-06T13:01:44Z</time>
      </trkpt>
      <trkpt lat="46.48628" lon="5.11441">
        <ele>199</ele>
        <time>2021-12-06T13:01:48Z</time>
      </trkpt>
      <trkpt lat="46.48607" lon="5.1143">
        <ele>199.8</ele>
        <time>2021-12-06T13:01:52Z</time>
      </trkpt>
      <trkpt lat="46.48597" lon="5.11425">
        <ele>200.2</ele>
        <time>2021-12-06T13:01:54Z</time>
      </trkpt>
      <trkpt lat="46.48575" lon="5.11416">
        <ele>201.2</ele>
        <time>2021-12-06T13:01:58Z</time>
      </trkpt>
      <trkpt lat="46.48555" lon="5.11407">
        <ele>201.8</ele>
        <time>2021-12-06T13:02:02Z</time>
      </trkpt>
      <trkpt lat="46.48544" lon="5.11402">
        <ele>202.2</ele>
        <time>2021-12-06T13:02:04Z</time>
      </trkpt>
      <trkpt lat="46.48514" lon="5.11388">
        <ele>203</ele>
        <time>2021-12-06T13:02:09Z</time>
      </trkpt>
      <trkpt lat="46.48471" lon="5.11363">
        <ele>203.2</ele>
        <time>2021-12-06T13:02:16Z</time>
      </trkpt>
      <trkpt lat="46.48418" lon="5.11334">
        <ele>202.4</ele>
        <time>2021-12-06T13:02:24Z</time>
      </trkpt>
      <trkpt lat="46.48412" lon="5.11331">
        <ele>202.4</ele>
        <time>2021-12-06T13:02:25Z</time>
      </trkpt>
      <trkpt lat="46.48369" lon="5.11297">
        <ele>201.8</ele>
        <time>2021-12-06T13:02:32Z</time>
      </trkpt>
      <trkpt lat="46.48324" lon="5.11255">
        <ele>202</ele>
        <time>2021-12-06T13:02:40Z</time>
      </trkpt>
      <trkpt lat="46.48285" lon="5.11209">
        <ele>202.4</ele>
        <time>2021-12-06T13:02:48Z</time>
      </trkpt>
      <trkpt lat="46.48249" lon="5.11174">
        <ele>202.8</ele>
        <time>2021-12-06T13:02:55Z</time>
      </trkpt>
      <trkpt lat="46.48223" lon="5.11156">
        <ele>203.4</ele>
        <time>2021-12-06T13:03:00Z</time>
      </trkpt>
      <trkpt lat="46.48217" lon="5.11153">
        <ele>203.6</ele>
        <time>2021-12-06T13:03:01Z</time>
      </trkpt>
      <trkpt lat="46.48181" lon="5.11143">
        <ele>204</ele>
        <time>2021-12-06T13:03:07Z</time>
      </trkpt>
      <trkpt lat="46.48157" lon="5.11136">
        <ele>204.4</ele>
        <time>2021-12-06T13:03:11Z</time>
      </trkpt>
      <trkpt lat="46.4813" lon="5.11122">
        <ele>204.8</ele>
        <time>2021-12-06T13:03:16Z</time>
      </trkpt>
      <trkpt lat="46.48094" lon="5.11091">
        <ele>205.2</ele>
        <time>2021-12-06T13:03:23Z</time>
      </trkpt>
      <trkpt lat="46.48065" lon="5.11045">
        <ele>205.6</ele>
        <time>2021-12-06T13:03:30Z</time>
      </trkpt>
      <trkpt lat="46.48031" lon="5.10988">
        <ele>206.2</ele>
        <time>2021-12-06T13:03:39Z</time>
      </trkpt>
      <trkpt lat="46.48027" lon="5.10983">
        <ele>206.4</ele>
        <time>2021-12-06T13:03:40Z</time>
      </trkpt>
      <trkpt lat="46.48011" lon="5.10973">
        <ele>206.6</ele>
        <time>2021-12-06T13:03:43Z</time>
      </trkpt>
      <trkpt lat="46.47973" lon="5.10952">
        <ele>207.4</ele>
        <time>2021-12-06T13:03:50Z</time>
      </trkpt>
      <trkpt lat="46.47938" lon="5.10938">
        <ele>207.8</ele>
        <time>2021-12-06T13:03:56Z</time>
      </trkpt>
      <trkpt lat="46.47932" lon="5.10937">
        <ele>208</ele>
        <time>2021-12-06T13:03:57Z</time>
      </trkpt>
      <trkpt lat="46.4789" lon="5.10937">
        <ele>208.4</ele>
        <time>2021-12-06T13:04:04Z</time>
      </trkpt>
      <trkpt lat="46.47843" lon="5.10942">
        <ele>208.8</ele>
        <time>2021-12-06T13:04:12Z</time>
      </trkpt>
      <trkpt lat="46.47831" lon="5.10943">
        <ele>209</ele>
        <time>2021-12-06T13:04:14Z</time>
      </trkpt>
      <trkpt lat="46.47785" lon="5.10942">
        <ele>209.4</ele>
        <time>2021-12-06T13:04:22Z</time>
      </trkpt>
      <trkpt lat="46.47727" lon="5.10939">
        <ele>209.4</ele>
        <time>2021-12-06T13:04:32Z</time>
      </trkpt>
      <trkpt lat="46.47691" lon="5.10933">
        <ele>209.8</ele>
        <time>2021-12-06T13:04:38Z</time>
      </trkpt>
      <trkpt lat="46.47686" lon="5.10929">
        <ele>209.8</ele>
        <time>2021-12-06T13:04:39Z</time>
      </trkpt>
      <trkpt lat="46.47681" lon="5.10925">
        <ele>210</ele>
        <time>2021-12-06T13:04:40Z</time>
      </trkpt>
      <trkpt lat="46.47673" lon="5.10915">
        <ele>210</ele>
        <time>2021-12-06T13:04:42Z</time>
      </trkpt>
      <trkpt lat="46.47669" lon="5.10907">
        <ele>210</ele>
        <time>2021-12-06T13:04:43Z</time>
      </trkpt>
      <trkpt lat="46.4766" lon="5.1088">
        <ele>210.4</ele>
        <time>2021-12-06T13:04:47Z</time>
      </trkpt>
      <trkpt lat="46.47652" lon="5.10866">
        <ele>210.4</ele>
        <time>2021-12-06T13:04:49Z</time>
      </trkpt>
      <trkpt lat="46.47645" lon="5.10853">
        <ele>210.6</ele>
        <time>2021-12-06T13:04:51Z</time>
      </trkpt>
      <trkpt lat="46.47627" lon="5.10833">
        <ele>210.8</ele>
        <time>2021-12-06T13:04:55Z</time>
      </trkpt>
      <trkpt lat="46.47595" lon="5.108">
        <ele>211.6</ele>
        <time>2021-12-06T13:05:02Z</time>
      </trkpt>
      <trkpt lat="46.4757" lon="5.10782">
        <ele>212</ele>
        <time>2021-12-06T13:05:07Z</time>
      </trkpt>
      <trkpt lat="46.47553" lon="5.10774">
        <ele>212</ele>
        <time>2021-12-06T13:05:10Z</time>
      </trkpt>
      <trkpt lat="46.47498" lon="5.10749">
        <ele>211.4</ele>
        <time>2021-12-06T13:05:19Z</time>
      </trkpt>
      <trkpt lat="46.47463" lon="5.10721">
        <ele>211</ele>
        <time>2021-12-06T13:05:25Z</time>
      </trkpt>
      <trkpt lat="46.47459" lon="5.10714">
        <ele>210.8</ele>
        <time>2021-12-06T13:05:26Z</time>
      </trkpt>
      <trkpt lat="46.47443" lon="5.10687">
        <ele>210.8</ele>
        <time>2021-12-06T13:05:30Z</time>
      </trkpt>
      <trkpt lat="46.47439" lon="5.10679">
        <ele>210.8</ele>
        <time>2021-12-06T13:05:31Z</time>
      </trkpt>
      <trkpt lat="46.47422" lon="5.10657">
        <ele>211</ele>
        <time>2021-12-06T13:05:35Z</time>
      </trkpt>
      <trkpt lat="46.47405" lon="5.10644">
        <ele>211.2</ele>
        <time>2021-12-06T13:05:38Z</time>
      </trkpt>
      <trkpt lat="46.47392" lon="5.10639">
        <ele>211.2</ele>
        <time>2021-12-06T13:05:40Z</time>
      </trkpt>
      <trkpt lat="46.47355" lon="5.10638">
        <ele>210.6</ele>
        <time>2021-12-06T13:05:45Z</time>
      </trkpt>
      <trkpt lat="46.47331" lon="5.10634">
        <ele>209.8</ele>
        <time>2021-12-06T13:05:48Z</time>
      </trkpt>
      <trkpt lat="46.47308" lon="5.10629">
        <ele>209.4</ele>
        <time>2021-12-06T13:05:51Z</time>
      </trkpt>
      <trkpt lat="46.47271" lon="5.10616">
        <ele>208.6</ele>
        <time>2021-12-06T13:05:56Z</time>
      </trkpt>
      <trkpt lat="46.47249" lon="5.10606">
        <ele>208.4</ele>
        <time>2021-12-06T13:05:59Z</time>
      </trkpt>
      <trkpt lat="46.47197" lon="5.1058">
        <ele>208.4</ele>
        <time>2021-12-06T13:06:07Z</time>
      </trkpt>
      <trkpt lat="46.47149" lon="5.10555">
        <ele>209.4</ele>
        <time>2021-12-06T13:06:15Z</time>
      </trkpt>
      <trkpt lat="46.47097" lon="5.10528">
        <ele>209.8</ele>
        <time>2021-12-06T13:06:24Z</time>
      </trkpt>
      <trkpt lat="46.4706" lon="5.1051">
        <ele>209.8</ele>
        <time>2021-12-06T13:06:30Z</time>
      </trkpt>
      <trkpt lat="46.47048" lon="5.10503">
        <ele>210</ele>
        <time>2021-12-06T13:06:32Z</time>
      </trkpt>
      <trkpt lat="46.46995" lon="5.10467">
        <ele>210.4</ele>
        <time>2021-12-06T13:06:41Z</time>
      </trkpt>
      <trkpt lat="46.46948" lon="5.10441">
        <ele>210.8</ele>
        <time>2021-12-06T13:06:49Z</time>
      </trkpt>
      <trkpt lat="46.469" lon="5.10415">
        <ele>210.8</ele>
        <time>2021-12-06T13:06:57Z</time>
      </trkpt>
      <trkpt lat="46.46889" lon="5.10408">
        <ele>211</ele>
        <time>2021-12-06T13:06:59Z</time>
      </trkpt>
      <trkpt lat="46.46857" lon="5.10388">
        <ele>211.6</ele>
        <time>2021-12-06T13:07:05Z</time>
      </trkpt>
      <trkpt lat="46.46829" lon="5.10378">
        <ele>212</ele>
        <time>2021-12-06T13:07:10Z</time>
      </trkpt>
      <trkpt lat="46.46806" lon="5.1037">
        <ele>212</ele>
        <time>2021-12-06T13:07:14Z</time>
      </trkpt>
      <trkpt lat="46.46748" lon="5.10352">
        <ele>212.4</ele>
        <time>2021-12-06T13:07:24Z</time>
      </trkpt>
      <trkpt lat="46.46742" lon="5.10351">
        <ele>212.4</ele>
        <time>2021-12-06T13:07:25Z</time>
      </trkpt>
      <trkpt lat="46.46698" lon="5.10342">
        <ele>212.8</ele>
        <time>2021-12-06T13:07:33Z</time>
      </trkpt>
      <trkpt lat="46.46664" lon="5.10341">
        <ele>213</ele>
        <time>2021-12-06T13:07:40Z</time>
      </trkpt>
      <trkpt lat="46.46655" lon="5.10343">
        <ele>213.2</ele>
        <time>2021-12-06T13:07:43Z</time>
      </trkpt>
      <trkpt lat="46.46651" lon="5.10343">
        <ele>213.4</ele>
        <time>2021-12-06T13:07:45Z</time>
      </trkpt>
      <trkpt lat="46.46651" lon="5.10344">
        <ele>213.4</ele>
        <time>2021-12-06T13:07:47Z</time>
      </trkpt>
      <trkpt lat="46.46647" lon="5.10347">
        <ele>213.4</ele>
        <time>2021-12-06T13:07:59Z</time>
      </trkpt>
      <trkpt lat="46.46647" lon="5.10356">
        <ele>213.4</ele>
        <time>2021-12-06T13:08:01Z</time>
      </trkpt>
      <trkpt lat="46.46651" lon="5.10383">
        <ele>213.4</ele>
        <time>2021-12-06T13:08:05Z</time>
      </trkpt>
      <trkpt lat="46.46659" lon="5.10435">
        <ele>213.6</ele>
        <time>2021-12-06T13:08:11Z</time>
      </trkpt>
      <trkpt lat="46.46666" lon="5.10491">
        <ele>214.2</ele>
        <time>2021-12-06T13:08:17Z</time>
      </trkpt>
      <trkpt lat="46.46667" lon="5.105">
        <ele>214.2</ele>
        <time>2021-12-06T13:08:18Z</time>
      </trkpt>
      <trkpt lat="46.46675" lon="5.10567">
        <ele>215.2</ele>
        <time>2021-12-06T13:08:25Z</time>
      </trkpt>
      <trkpt lat="46.4668" lon="5.10607">
        <ele>215.6</ele>
        <time>2021-12-06T13:08:29Z</time>
      </trkpt>
      <trkpt lat="46.4669" lon="5.10686">
        <ele>215.8</ele>
        <time>2021-12-06T13:08:37Z</time>
      </trkpt>
      <trkpt lat="46.46692" lon="5.10709">
        <ele>215.8</ele>
        <time>2021-12-06T13:08:39Z</time>
      </trkpt>
      <trkpt lat="46.46703" lon="5.10789">
        <ele>215.4</ele>
        <time>2021-12-06T13:08:46Z</time>
      </trkpt>
      <trkpt lat="46.46712" lon="5.1086">
        <ele>214.2</ele>
        <time>2021-12-06T13:08:52Z</time>
      </trkpt>
      <trkpt lat="46.46715" lon="5.10886">
        <ele>213.8</ele>
        <time>2021-12-06T13:08:54Z</time>
      </trkpt>
      <trkpt lat="46.46722" lon="5.10943">
        <ele>213.2</ele>
        <time>2021-12-06T13:08:59Z</time>
      </trkpt>
      <trkpt lat="46.4673" lon="5.11008">
        <ele>213.2</ele>
        <time>2021-12-06T13:09:05Z</time>
      </trkpt>
      <trkpt lat="46.4674" lon="5.1109">
        <ele>213.4</ele>
        <time>2021-12-06T13:09:13Z</time>
      </trkpt>
      <trkpt lat="46.46743" lon="5.1111">
        <ele>213.4</ele>
        <time>2021-12-06T13:09:15Z</time>
      </trkpt>
      <trkpt lat="46.46756" lon="5.11188">
        <ele>214.4</ele>
        <time>2021-12-06T13:09:23Z</time>
      </trkpt>
      <trkpt lat="46.4676" lon="5.11208">
        <ele>214.6</ele>
        <time>2021-12-06T13:09:25Z</time>
      </trkpt>
      <trkpt lat="46.46772" lon="5.11274">
        <ele>214.8</ele>
        <time>2021-12-06T13:09:31Z</time>
      </trkpt>
      <trkpt lat="46.46783" lon="5.11335">
        <ele>213</ele>
        <time>2021-12-06T13:09:36Z</time>
      </trkpt>
      <trkpt lat="46.46792" lon="5.11382">
        <ele>212</ele>
        <time>2021-12-06T13:09:40Z</time>
      </trkpt>
      <trkpt lat="46.46794" lon="5.11394">
        <ele>211.8</ele>
        <time>2021-12-06T13:09:41Z</time>
      </trkpt>
      <trkpt lat="46.46806" lon="5.1146">
        <ele>211.2</ele>
        <time>2021-12-06T13:09:47Z</time>
      </trkpt>
      <trkpt lat="46.46819" lon="5.1153">
        <ele>211.6</ele>
        <time>2021-12-06T13:09:54Z</time>
      </trkpt>
      <trkpt lat="46.46832" lon="5.11605">
        <ele>213</ele>
        <time>2021-12-06T13:10:02Z</time>
      </trkpt>
      <trkpt lat="46.46845" lon="5.11684">
        <ele>213.8</ele>
        <time>2021-12-06T13:10:10Z</time>
      </trkpt>
      <trkpt lat="46.46846" lon="5.11692">
        <ele>213.8</ele>
        <time>2021-12-06T13:10:11Z</time>
      </trkpt>
      <trkpt lat="46.46861" lon="5.11774">
        <ele>213.8</ele>
        <time>2021-12-06T13:10:19Z</time>
      </trkpt>
      <trkpt lat="46.46876" lon="5.11856">
        <ele>213.6</ele>
        <time>2021-12-06T13:10:27Z</time>
      </trkpt>
      <trkpt lat="46.46887" lon="5.11926">
        <ele>212.6</ele>
        <time>2021-12-06T13:10:33Z</time>
      </trkpt>
      <trkpt lat="46.46885" lon="5.1195">
        <ele>211.8</ele>
        <time>2021-12-06T13:10:35Z</time>
      </trkpt>
      <trkpt lat="46.46882" lon="5.11962">
        <ele>211.2</ele>
        <time>2021-12-06T13:10:36Z</time>
      </trkpt>
      <trkpt lat="46.46878" lon="5.11973">
        <ele>211</ele>
        <time>2021-12-06T13:10:37Z</time>
      </trkpt>
      <trkpt lat="46.46872" lon="5.11983">
        <ele>210.8</ele>
        <time>2021-12-06T13:10:38Z</time>
      </trkpt>
      <trkpt lat="46.46868" lon="5.11994">
        <ele>210.6</ele>
        <time>2021-12-06T13:10:39Z</time>
      </trkpt>
      <trkpt lat="46.46857" lon="5.12031">
        <ele>209.2</ele>
        <time>2021-12-06T13:10:42Z</time>
      </trkpt>
      <trkpt lat="46.46853" lon="5.12044">
        <ele>209</ele>
        <time>2021-12-06T13:10:43Z</time>
      </trkpt>
      <trkpt lat="46.46843" lon="5.12071">
        <ele>208</ele>
        <time>2021-12-06T13:10:45Z</time>
      </trkpt>
      <trkpt lat="46.46834" lon="5.12095">
        <ele>206.6</ele>
        <time>2021-12-06T13:10:47Z</time>
      </trkpt>
      <trkpt lat="46.46824" lon="5.12125">
        <ele>205.4</ele>
        <time>2021-12-06T13:10:49Z</time>
      </trkpt>
      <trkpt lat="46.4682" lon="5.12138">
        <ele>205</ele>
        <time>2021-12-06T13:10:50Z</time>
      </trkpt>
      <trkpt lat="46.46816" lon="5.12149">
        <ele>204.2</ele>
        <time>2021-12-06T13:10:51Z</time>
      </trkpt>
      <trkpt lat="46.46802" lon="5.12189">
        <ele>202.6</ele>
        <time>2021-12-06T13:10:54Z</time>
      </trkpt>
      <trkpt lat="46.46784" lon="5.12243">
        <ele>201.6</ele>
        <time>2021-12-06T13:10:58Z</time>
      </trkpt>
      <trkpt lat="46.46775" lon="5.12267">
        <ele>201</ele>
        <time>2021-12-06T13:11:00Z</time>
      </trkpt>
      <trkpt lat="46.46767" lon="5.12291">
        <ele>200.4</ele>
        <time>2021-12-06T13:11:02Z</time>
      </trkpt>
      <trkpt lat="46.46747" lon="5.12349">
        <ele>199.8</ele>
        <time>2021-12-06T13:11:07Z</time>
      </trkpt>
      <trkpt lat="46.46722" lon="5.12424">
        <ele>199.6</ele>
        <time>2021-12-06T13:11:14Z</time>
      </trkpt>
      <trkpt lat="46.46718" lon="5.12434">
        <ele>199.6</ele>
        <time>2021-12-06T13:11:15Z</time>
      </trkpt>
      <trkpt lat="46.46692" lon="5.12512">
        <ele>199.8</ele>
        <time>2021-12-06T13:11:23Z</time>
      </trkpt>
      <trkpt lat="46.46688" lon="5.12524">
        <ele>199.8</ele>
        <time>2021-12-06T13:11:24Z</time>
      </trkpt>
      <trkpt lat="46.46662" lon="5.12599">
        <ele>199.8</ele>
        <time>2021-12-06T13:11:32Z</time>
      </trkpt>
      <trkpt lat="46.4666" lon="5.12606">
        <ele>199.8</ele>
        <time>2021-12-06T13:11:33Z</time>
      </trkpt>
      <trkpt lat="46.46634" lon="5.1268">
        <ele>201</ele>
        <time>2021-12-06T13:11:41Z</time>
      </trkpt>
      <trkpt lat="46.46631" lon="5.12688">
        <ele>201</ele>
        <time>2021-12-06T13:11:42Z</time>
      </trkpt>
      <trkpt lat="46.46605" lon="5.12762">
        <ele>200.4</ele>
        <time>2021-12-06T13:11:50Z</time>
      </trkpt>
      <trkpt lat="46.46594" lon="5.12792">
        <ele>200.2</ele>
        <time>2021-12-06T13:11:53Z</time>
      </trkpt>
      <trkpt lat="46.46567" lon="5.12868">
        <ele>199.6</ele>
        <time>2021-12-06T13:12:01Z</time>
      </trkpt>
      <trkpt lat="46.46564" lon="5.12876">
        <ele>199.6</ele>
        <time>2021-12-06T13:12:02Z</time>
      </trkpt>
      <trkpt lat="46.4655" lon="5.12916">
        <ele>200</ele>
        <time>2021-12-06T13:12:07Z</time>
      </trkpt>
      <trkpt lat="46.46535" lon="5.12957">
        <ele>201.6</ele>
        <time>2021-12-06T13:12:13Z</time>
      </trkpt>
      <trkpt lat="46.46532" lon="5.12963">
        <ele>201.8</ele>
        <time>2021-12-06T13:12:14Z</time>
      </trkpt>
      <trkpt lat="46.46525" lon="5.12982">
        <ele>202.8</ele>
        <time>2021-12-06T13:12:17Z</time>
      </trkpt>
      <trkpt lat="46.46515" lon="5.13007">
        <ele>203.8</ele>
        <time>2021-12-06T13:12:21Z</time>
      </trkpt>
      <trkpt lat="46.46513" lon="5.13013">
        <ele>204.2</ele>
        <time>2021-12-06T13:12:22Z</time>
      </trkpt>
      <trkpt lat="46.46511" lon="5.1302">
        <ele>204.2</ele>
        <time>2021-12-06T13:12:23Z</time>
      </trkpt>
      <trkpt lat="46.46505" lon="5.13051">
        <ele>204.8</ele>
        <time>2021-12-06T13:12:27Z</time>
      </trkpt>
      <trkpt lat="46.46501" lon="5.13106">
        <ele>205</ele>
        <time>2021-12-06T13:12:33Z</time>
      </trkpt>
      <trkpt lat="46.46498" lon="5.13168">
        <ele>204</ele>
        <time>2021-12-06T13:12:39Z</time>
      </trkpt>
      <trkpt lat="46.46497" lon="5.13205">
        <ele>202.2</ele>
        <time>2021-12-06T13:12:42Z</time>
      </trkpt>
      <trkpt lat="46.46496" lon="5.13242">
        <ele>200.8</ele>
        <time>2021-12-06T13:12:45Z</time>
      </trkpt>
      <trkpt lat="46.46494" lon="5.13294">
        <ele>199.4</ele>
        <time>2021-12-06T13:12:49Z</time>
      </trkpt>
      <trkpt lat="46.46493" lon="5.13333">
        <ele>198.6</ele>
        <time>2021-12-06T13:12:52Z</time>
      </trkpt>
      <trkpt lat="46.46493" lon="5.13345">
        <ele>198.2</ele>
        <time>2021-12-06T13:12:53Z</time>
      </trkpt>
      <trkpt lat="46.46491" lon="5.13421">
        <ele>198</ele>
        <time>2021-12-06T13:13:00Z</time>
      </trkpt>
      <trkpt lat="46.46488" lon="5.13507">
        <ele>198.4</ele>
        <time>2021-12-06T13:13:08Z</time>
      </trkpt>
      <trkpt lat="46.46488" lon="5.13515">
        <ele>198.6</ele>
        <time>2021-12-06T13:13:09Z</time>
      </trkpt>
      <trkpt lat="46.46484" lon="5.1357">
        <ele>199</ele>
        <time>2021-12-06T13:13:15Z</time>
      </trkpt>
      <trkpt lat="46.46483" lon="5.13586">
        <ele>199.4</ele>
        <time>2021-12-06T13:13:17Z</time>
      </trkpt>
      <trkpt lat="46.46479" lon="5.13616">
        <ele>200.4</ele>
        <time>2021-12-06T13:13:21Z</time>
      </trkpt>
      <trkpt lat="46.46477" lon="5.13631">
        <ele>201</ele>
        <time>2021-12-06T13:13:23Z</time>
      </trkpt>
      <trkpt lat="46.46475" lon="5.13644">
        <ele>201.6</ele>
        <time>2021-12-06T13:13:25Z</time>
      </trkpt>
      <trkpt lat="46.46471" lon="5.13671">
        <ele>202.6</ele>
        <time>2021-12-06T13:13:29Z</time>
      </trkpt>
      <trkpt lat="46.4647" lon="5.13685">
        <ele>203.4</ele>
        <time>2021-12-06T13:13:31Z</time>
      </trkpt>
      <trkpt lat="46.46469" lon="5.13691">
        <ele>203.8</ele>
        <time>2021-12-06T13:13:32Z</time>
      </trkpt>
      <trkpt lat="46.46464" lon="5.13726">
        <ele>204.8</ele>
        <time>2021-12-06T13:13:37Z</time>
      </trkpt>
      <trkpt lat="46.46459" lon="5.13754">
        <ele>205.6</ele>
        <time>2021-12-06T13:13:41Z</time>
      </trkpt>
      <trkpt lat="46.46456" lon="5.13767">
        <ele>206</ele>
        <time>2021-12-06T13:13:43Z</time>
      </trkpt>
      <trkpt lat="46.46447" lon="5.13827">
        <ele>206.8</ele>
        <time>2021-12-06T13:13:51Z</time>
      </trkpt>
      <trkpt lat="46.46439" lon="5.13871">
        <ele>206.8</ele>
        <time>2021-12-06T13:13:56Z</time>
      </trkpt>
      <trkpt lat="46.46428" lon="5.13934">
        <ele>206</ele>
        <time>2021-12-06T13:14:02Z</time>
      </trkpt>
      <trkpt lat="46.46422" lon="5.13967">
        <ele>204.6</ele>
        <time>2021-12-06T13:14:05Z</time>
      </trkpt>
      <trkpt lat="46.46415" lon="5.14009">
        <ele>203.6</ele>
        <time>2021-12-06T13:14:08Z</time>
      </trkpt>
      <trkpt lat="46.4641" lon="5.14033">
        <ele>202.6</ele>
        <time>2021-12-06T13:14:10Z</time>
      </trkpt>
      <trkpt lat="46.46406" lon="5.14061">
        <ele>201.2</ele>
        <time>2021-12-06T13:14:12Z</time>
      </trkpt>
      <trkpt lat="46.46399" lon="5.141">
        <ele>200.2</ele>
        <time>2021-12-06T13:14:15Z</time>
      </trkpt>
      <trkpt lat="46.46396" lon="5.14112">
        <ele>199.8</ele>
        <time>2021-12-06T13:14:16Z</time>
      </trkpt>
      <trkpt lat="46.46387" lon="5.14148">
        <ele>199</ele>
        <time>2021-12-06T13:14:19Z</time>
      </trkpt>
      <trkpt lat="46.46376" lon="5.1418">
        <ele>198.6</ele>
        <time>2021-12-06T13:14:22Z</time>
      </trkpt>
      <trkpt lat="46.46356" lon="5.14226">
        <ele>198.8</ele>
        <time>2021-12-06T13:14:27Z</time>
      </trkpt>
      <trkpt lat="46.46339" lon="5.14264">
        <ele>200</ele>
        <time>2021-12-06T13:14:32Z</time>
      </trkpt>
      <trkpt lat="46.46335" lon="5.14271">
        <ele>200.4</ele>
        <time>2021-12-06T13:14:33Z</time>
      </trkpt>
      <trkpt lat="46.46323" lon="5.14297">
        <ele>201.4</ele>
        <time>2021-12-06T13:14:37Z</time>
      </trkpt>
      <trkpt lat="46.46315" lon="5.14316">
        <ele>202.2</ele>
        <time>2021-12-06T13:14:40Z</time>
      </trkpt>
      <trkpt lat="46.46309" lon="5.14329">
        <ele>202.6</ele>
        <time>2021-12-06T13:14:42Z</time>
      </trkpt>
      <trkpt lat="46.46293" lon="5.1436">
        <ele>203.8</ele>
        <time>2021-12-06T13:14:47Z</time>
      </trkpt>
      <trkpt lat="46.46284" lon="5.14378">
        <ele>204.6</ele>
        <time>2021-12-06T13:14:50Z</time>
      </trkpt>
      <trkpt lat="46.46281" lon="5.14385">
        <ele>205.2</ele>
        <time>2021-12-06T13:14:51Z</time>
      </trkpt>
      <trkpt lat="46.46262" lon="5.14427">
        <ele>206.2</ele>
        <time>2021-12-06T13:14:58Z</time>
      </trkpt>
      <trkpt lat="46.46259" lon="5.14433">
        <ele>206.4</ele>
        <time>2021-12-06T13:14:59Z</time>
      </trkpt>
      <trkpt lat="46.46247" lon="5.14459">
        <ele>207.2</ele>
        <time>2021-12-06T13:15:03Z</time>
      </trkpt>
      <trkpt lat="46.4623" lon="5.14497">
        <ele>208</ele>
        <time>2021-12-06T13:15:09Z</time>
      </trkpt>
      <trkpt lat="46.46209" lon="5.14541">
        <ele>208.4</ele>
        <time>2021-12-06T13:15:16Z</time>
      </trkpt>
      <trkpt lat="46.46204" lon="5.14553">
        <ele>208.4</ele>
        <time>2021-12-06T13:15:18Z</time>
      </trkpt>
      <trkpt lat="46.46185" lon="5.14594">
        <ele>209.6</ele>
        <time>2021-12-06T13:15:25Z</time>
      </trkpt>
      <trkpt lat="46.46179" lon="5.14605">
        <ele>210.2</ele>
        <time>2021-12-06T13:15:27Z</time>
      </trkpt>
      <trkpt lat="46.46175" lon="5.14617">
        <ele>210.6</ele>
        <time>2021-12-06T13:15:29Z</time>
      </trkpt>
      <trkpt lat="46.46159" lon="5.1465">
        <ele>211.6</ele>
        <time>2021-12-06T13:15:35Z</time>
      </trkpt>
      <trkpt lat="46.46149" lon="5.14672">
        <ele>212.8</ele>
        <time>2021-12-06T13:15:39Z</time>
      </trkpt>
      <trkpt lat="46.46147" lon="5.14677">
        <ele>212.8</ele>
        <time>2021-12-06T13:15:40Z</time>
      </trkpt>
      <trkpt lat="46.46135" lon="5.14702">
        <ele>214</ele>
        <time>2021-12-06T13:15:45Z</time>
      </trkpt>
      <trkpt lat="46.46128" lon="5.14718">
        <ele>214.8</ele>
        <time>2021-12-06T13:15:48Z</time>
      </trkpt>
      <trkpt lat="46.46123" lon="5.14731">
        <ele>215</ele>
        <time>2021-12-06T13:15:50Z</time>
      </trkpt>
      <trkpt lat="46.46112" lon="5.14756">
        <ele>215.6</ele>
        <time>2021-12-06T13:15:54Z</time>
      </trkpt>
      <trkpt lat="46.46099" lon="5.14788">
        <ele>216</ele>
        <time>2021-12-06T13:15:59Z</time>
      </trkpt>
      <trkpt lat="46.46095" lon="5.14802">
        <ele>216.2</ele>
        <time>2021-12-06T13:16:01Z</time>
      </trkpt>
      <trkpt lat="46.46073" lon="5.14868">
        <ele>216.6</ele>
        <time>2021-12-06T13:16:10Z</time>
      </trkpt>
      <trkpt lat="46.46056" lon="5.1492">
        <ele>216.4</ele>
        <time>2021-12-06T13:16:17Z</time>
      </trkpt>
      <trkpt lat="46.46032" lon="5.14991">
        <ele>216.4</ele>
        <time>2021-12-06T13:16:26Z</time>
      </trkpt>
      <trkpt lat="46.4602" lon="5.15035">
        <ele>216.2</ele>
        <time>2021-12-06T13:16:31Z</time>
      </trkpt>
      <trkpt lat="46.46018" lon="5.15045">
        <ele>216.2</ele>
        <time>2021-12-06T13:16:32Z</time>
      </trkpt>
      <trkpt lat="46.4602" lon="5.15102">
        <ele>216</ele>
        <time>2021-12-06T13:16:38Z</time>
      </trkpt>
      <trkpt lat="46.4602" lon="5.15165">
        <ele>215.2</ele>
        <time>2021-12-06T13:16:44Z</time>
      </trkpt>
      <trkpt lat="46.46016" lon="5.15188">
        <ele>214.8</ele>
        <time>2021-12-06T13:16:46Z</time>
      </trkpt>
      <trkpt lat="46.46008" lon="5.15235">
        <ele>214</ele>
        <time>2021-12-06T13:16:50Z</time>
      </trkpt>
      <trkpt lat="46.46007" lon="5.15248">
        <ele>213.6</ele>
        <time>2021-12-06T13:16:51Z</time>
      </trkpt>
      <trkpt lat="46.45999" lon="5.15299">
        <ele>212</ele>
        <time>2021-12-06T13:16:55Z</time>
      </trkpt>
      <trkpt lat="46.45994" lon="5.15325">
        <ele>211.4</ele>
        <time>2021-12-06T13:16:57Z</time>
      </trkpt>
      <trkpt lat="46.45992" lon="5.15339">
        <ele>210.6</ele>
        <time>2021-12-06T13:16:58Z</time>
      </trkpt>
      <trkpt lat="46.45981" lon="5.15392">
        <ele>208.6</ele>
        <time>2021-12-06T13:17:02Z</time>
      </trkpt>
      <trkpt lat="46.45979" lon="5.15406">
        <ele>208.2</ele>
        <time>2021-12-06T13:17:03Z</time>
      </trkpt>
      <trkpt lat="46.45977" lon="5.15419">
        <ele>207.6</ele>
        <time>2021-12-06T13:17:04Z</time>
      </trkpt>
      <trkpt lat="46.45966" lon="5.15484">
        <ele>206.4</ele>
        <time>2021-12-06T13:17:09Z</time>
      </trkpt>
      <trkpt lat="46.4596" lon="5.1552">
        <ele>206.2</ele>
        <time>2021-12-06T13:17:12Z</time>
      </trkpt>
      <trkpt lat="46.45947" lon="5.156">
        <ele>206</ele>
        <time>2021-12-06T13:17:19Z</time>
      </trkpt>
      <trkpt lat="46.45938" lon="5.15655">
        <ele>206.6</ele>
        <time>2021-12-06T13:17:25Z</time>
      </trkpt>
      <trkpt lat="46.45934" lon="5.1567">
        <ele>207.8</ele>
        <time>2021-12-06T13:17:27Z</time>
      </trkpt>
      <trkpt lat="46.45932" lon="5.15684">
        <ele>209</ele>
        <time>2021-12-06T13:17:29Z</time>
      </trkpt>
      <trkpt lat="46.45929" lon="5.15698">
        <ele>209.4</ele>
        <time>2021-12-06T13:17:31Z</time>
      </trkpt>
      <trkpt lat="46.45927" lon="5.15712">
        <ele>210</ele>
        <time>2021-12-06T13:17:33Z</time>
      </trkpt>
      <trkpt lat="46.45923" lon="5.15732">
        <ele>211.2</ele>
        <time>2021-12-06T13:17:36Z</time>
      </trkpt>
      <trkpt lat="46.4592" lon="5.15753">
        <ele>212</ele>
        <time>2021-12-06T13:17:39Z</time>
      </trkpt>
      <trkpt lat="46.45919" lon="5.1576">
        <ele>212.4</ele>
        <time>2021-12-06T13:17:40Z</time>
      </trkpt>
      <trkpt lat="46.45914" lon="5.15792">
        <ele>213.4</ele>
        <time>2021-12-06T13:17:45Z</time>
      </trkpt>
      <trkpt lat="46.45912" lon="5.15805">
        <ele>213.8</ele>
        <time>2021-12-06T13:17:47Z</time>
      </trkpt>
      <trkpt lat="46.45909" lon="5.15826">
        <ele>214.4</ele>
        <time>2021-12-06T13:17:50Z</time>
      </trkpt>
      <trkpt lat="46.45905" lon="5.15856">
        <ele>215</ele>
        <time>2021-12-06T13:17:54Z</time>
      </trkpt>
      <trkpt lat="46.459" lon="5.15888">
        <ele>215.8</ele>
        <time>2021-12-06T13:17:58Z</time>
      </trkpt>
      <trkpt lat="46.45895" lon="5.15923">
        <ele>216.2</ele>
        <time>2021-12-06T13:18:02Z</time>
      </trkpt>
      <trkpt lat="46.45886" lon="5.15988">
        <ele>216.8</ele>
        <time>2021-12-06T13:18:10Z</time>
      </trkpt>
      <trkpt lat="46.45884" lon="5.15997">
        <ele>216.8</ele>
        <time>2021-12-06T13:18:11Z</time>
      </trkpt>
      <trkpt lat="46.45878" lon="5.16044">
        <ele>216.8</ele>
        <time>2021-12-06T13:18:17Z</time>
      </trkpt>
      <trkpt lat="46.45875" lon="5.16059">
        <ele>217</ele>
        <time>2021-12-06T13:18:19Z</time>
      </trkpt>
      <trkpt lat="46.45864" lon="5.1613">
        <ele>217.4</ele>
        <time>2021-12-06T13:18:28Z</time>
      </trkpt>
      <trkpt lat="46.45851" lon="5.16199">
        <ele>218</ele>
        <time>2021-12-06T13:18:37Z</time>
      </trkpt>
      <trkpt lat="46.45848" lon="5.16214">
        <ele>218</ele>
        <time>2021-12-06T13:18:39Z</time>
      </trkpt>
      <trkpt lat="46.45837" lon="5.16277">
        <ele>218.6</ele>
        <time>2021-12-06T13:18:47Z</time>
      </trkpt>
      <trkpt lat="46.45827" lon="5.16341">
        <ele>218.8</ele>
        <time>2021-12-06T13:18:55Z</time>
      </trkpt>
      <trkpt lat="46.45813" lon="5.16416">
        <ele>218.2</ele>
        <time>2021-12-06T13:19:04Z</time>
      </trkpt>
      <trkpt lat="46.45811" lon="5.16431">
        <ele>218.2</ele>
        <time>2021-12-06T13:19:06Z</time>
      </trkpt>
      <trkpt lat="46.458" lon="5.16488">
        <ele>218.4</ele>
        <time>2021-12-06T13:19:13Z</time>
      </trkpt>
      <trkpt lat="46.45789" lon="5.16547">
        <ele>219</ele>
        <time>2021-12-06T13:19:20Z</time>
      </trkpt>
      <trkpt lat="46.45788" lon="5.16553">
        <ele>219.2</ele>
        <time>2021-12-06T13:19:21Z</time>
      </trkpt>
      <trkpt lat="46.45774" lon="5.16618">
        <ele>219.6</ele>
        <time>2021-12-06T13:19:29Z</time>
      </trkpt>
      <trkpt lat="46.45758" lon="5.16687">
        <ele>219.8</ele>
        <time>2021-12-06T13:19:37Z</time>
      </trkpt>
      <trkpt lat="46.45744" lon="5.16755">
        <ele>220</ele>
        <time>2021-12-06T13:19:45Z</time>
      </trkpt>
      <trkpt lat="46.45727" lon="5.16837">
        <ele>218.6</ele>
        <time>2021-12-06T13:19:54Z</time>
      </trkpt>
      <trkpt lat="46.45724" lon="5.16846">
        <ele>218.6</ele>
        <time>2021-12-06T13:19:55Z</time>
      </trkpt>
      <trkpt lat="46.45716" lon="5.16884">
        <ele>218</ele>
        <time>2021-12-06T13:19:59Z</time>
      </trkpt>
      <trkpt lat="46.45712" lon="5.16904">
        <ele>217.8</ele>
        <time>2021-12-06T13:20:01Z</time>
      </trkpt>
      <trkpt lat="46.45708" lon="5.16923">
        <ele>217.2</ele>
        <time>2021-12-06T13:20:03Z</time>
      </trkpt>
      <trkpt lat="46.45708" lon="5.16933">
        <ele>216.8</ele>
        <time>2021-12-06T13:20:04Z</time>
      </trkpt>
      <trkpt lat="46.45708" lon="5.16939">
        <ele>216.4</ele>
        <time>2021-12-06T13:20:05Z</time>
      </trkpt>
      <trkpt lat="46.45713" lon="5.1695">
        <ele>216</ele>
        <time>2021-12-06T13:20:07Z</time>
      </trkpt>
      <trkpt lat="46.45719" lon="5.16955">
        <ele>215.8</ele>
        <time>2021-12-06T13:20:08Z</time>
      </trkpt>
      <trkpt lat="46.45735" lon="5.16961">
        <ele>215.6</ele>
        <time>2021-12-06T13:20:11Z</time>
      </trkpt>
      <trkpt lat="46.45746" lon="5.16971">
        <ele>215.6</ele>
        <time>2021-12-06T13:20:13Z</time>
      </trkpt>
      <trkpt lat="46.45754" lon="5.16982">
        <ele>215.6</ele>
        <time>2021-12-06T13:20:15Z</time>
      </trkpt>
      <trkpt lat="46.45762" lon="5.16998">
        <ele>215.8</ele>
        <time>2021-12-06T13:20:17Z</time>
      </trkpt>
      <trkpt lat="46.45765" lon="5.17006">
        <ele>215.8</ele>
        <time>2021-12-06T13:20:18Z</time>
      </trkpt>
      <trkpt lat="46.4577" lon="5.1702">
        <ele>216.2</ele>
        <time>2021-12-06T13:20:20Z</time>
      </trkpt>
      <trkpt lat="46.45779" lon="5.17053">
        <ele>216.8</ele>
        <time>2021-12-06T13:20:24Z</time>
      </trkpt>
      <trkpt lat="46.45781" lon="5.17059">
        <ele>217.2</ele>
        <time>2021-12-06T13:20:25Z</time>
      </trkpt>
      <trkpt lat="46.45798" lon="5.17104">
        <ele>217.6</ele>
        <time>2021-12-06T13:20:31Z</time>
      </trkpt>
      <trkpt lat="46.45802" lon="5.17111">
        <ele>217.6</ele>
        <time>2021-12-06T13:20:32Z</time>
      </trkpt>
      <trkpt lat="46.45831" lon="5.17152">
        <ele>217.6</ele>
        <time>2021-12-06T13:20:38Z</time>
      </trkpt>
      <trkpt lat="46.45835" lon="5.1716">
        <ele>217.4</ele>
        <time>2021-12-06T13:20:39Z</time>
      </trkpt>
      <trkpt lat="46.45851" lon="5.17199">
        <ele>217.2</ele>
        <time>2021-12-06T13:20:43Z</time>
      </trkpt>
      <trkpt lat="46.4588" lon="5.17251">
        <ele>216.2</ele>
        <time>2021-12-06T13:20:49Z</time>
      </trkpt>
      <trkpt lat="46.4589" lon="5.17267">
        <ele>215.8</ele>
        <time>2021-12-06T13:20:51Z</time>
      </trkpt>
      <trkpt lat="46.45928" lon="5.17317">
        <ele>215.6</ele>
        <time>2021-12-06T13:20:58Z</time>
      </trkpt>
      <trkpt lat="46.45954" lon="5.17369">
        <ele>215.6</ele>
        <time>2021-12-06T13:21:04Z</time>
      </trkpt>
      <trkpt lat="46.45971" lon="5.17432">
        <ele>214.8</ele>
        <time>2021-12-06T13:21:10Z</time>
      </trkpt>
      <trkpt lat="46.45984" lon="5.17476">
        <ele>213.8</ele>
        <time>2021-12-06T13:21:14Z</time>
      </trkpt>
      <trkpt lat="46.45993" lon="5.17494">
        <ele>213.8</ele>
        <time>2021-12-06T13:21:16Z</time>
      </trkpt>
      <trkpt lat="46.45998" lon="5.17502">
        <ele>213.8</ele>
        <time>2021-12-06T13:21:17Z</time>
      </trkpt>
      <trkpt lat="46.46017" lon="5.17547">
        <ele>213.6</ele>
        <time>2021-12-06T13:21:22Z</time>
      </trkpt>
      <trkpt lat="46.4604" lon="5.1762">
        <ele>214.6</ele>
        <time>2021-12-06T13:21:30Z</time>
      </trkpt>
      <trkpt lat="46.46043" lon="5.17629">
        <ele>214.8</ele>
        <time>2021-12-06T13:21:31Z</time>
      </trkpt>
      <trkpt lat="46.46046" lon="5.17649">
        <ele>214.8</ele>
        <time>2021-12-06T13:21:33Z</time>
      </trkpt>
      <trkpt lat="46.46047" lon="5.17679">
        <ele>215</ele>
        <time>2021-12-06T13:21:36Z</time>
      </trkpt>
      <trkpt lat="46.46048" lon="5.17689">
        <ele>214.8</ele>
        <time>2021-12-06T13:21:37Z</time>
      </trkpt>
      <trkpt lat="46.46053" lon="5.17752">
        <ele>215.8</ele>
        <time>2021-12-06T13:21:44Z</time>
      </trkpt>
      <trkpt lat="46.46054" lon="5.17759">
        <ele>216.4</ele>
        <time>2021-12-06T13:21:45Z</time>
      </trkpt>
      <trkpt lat="46.46057" lon="5.17785">
        <ele>217.4</ele>
        <time>2021-12-06T13:21:48Z</time>
      </trkpt>
      <trkpt lat="46.46058" lon="5.17793">
        <ele>217.6</ele>
        <time>2021-12-06T13:21:49Z</time>
      </trkpt>
      <trkpt lat="46.46059" lon="5.17799">
        <ele>217.4</ele>
        <time>2021-12-06T13:21:50Z</time>
      </trkpt>
      <trkpt lat="46.46069" lon="5.17832">
        <ele>218.6</ele>
        <time>2021-12-06T13:21:54Z</time>
      </trkpt>
      <trkpt lat="46.46074" lon="5.17846">
        <ele>218.8</ele>
        <time>2021-12-06T13:21:56Z</time>
      </trkpt>
      <trkpt lat="46.46095" lon="5.17918">
        <ele>219.2</ele>
        <time>2021-12-06T13:22:04Z</time>
      </trkpt>
      <trkpt lat="46.46115" lon="5.17974">
        <ele>218.8</ele>
        <time>2021-12-06T13:22:10Z</time>
      </trkpt>
      <trkpt lat="46.46143" lon="5.18021">
        <ele>217.2</ele>
        <time>2021-12-06T13:22:15Z</time>
      </trkpt>
      <trkpt lat="46.46149" lon="5.1803">
        <ele>216.8</ele>
        <time>2021-12-06T13:22:16Z</time>
      </trkpt>
      <trkpt lat="46.4616" lon="5.18048">
        <ele>216.2</ele>
        <time>2021-12-06T13:22:18Z</time>
      </trkpt>
      <trkpt lat="46.4618" lon="5.18078">
        <ele>215</ele>
        <time>2021-12-06T13:22:21Z</time>
      </trkpt>
      <trkpt lat="46.46193" lon="5.18093">
        <ele>214.4</ele>
        <time>2021-12-06T13:22:23Z</time>
      </trkpt>
      <trkpt lat="46.46209" lon="5.18106">
        <ele>213.8</ele>
        <time>2021-12-06T13:22:25Z</time>
      </trkpt>
      <trkpt lat="46.46218" lon="5.18111">
        <ele>213.6</ele>
        <time>2021-12-06T13:22:26Z</time>
      </trkpt>
      <trkpt lat="46.46226" lon="5.18115">
        <ele>213.4</ele>
        <time>2021-12-06T13:22:27Z</time>
      </trkpt>
      <trkpt lat="46.46278" lon="5.18138">
        <ele>213.6</ele>
        <time>2021-12-06T13:22:34Z</time>
      </trkpt>
      <trkpt lat="46.46317" lon="5.18149">
        <ele>213.8</ele>
        <time>2021-12-06T13:22:39Z</time>
      </trkpt>
      <trkpt lat="46.46372" lon="5.1816">
        <ele>214.2</ele>
        <time>2021-12-06T13:22:46Z</time>
      </trkpt>
      <trkpt lat="46.46401" lon="5.18167">
        <ele>214.4</ele>
        <time>2021-12-06T13:22:50Z</time>
      </trkpt>
      <trkpt lat="46.46435" lon="5.1818">
        <ele>215</ele>
        <time>2021-12-06T13:22:55Z</time>
      </trkpt>
      <trkpt lat="46.46443" lon="5.18185">
        <ele>215</ele>
        <time>2021-12-06T13:22:56Z</time>
      </trkpt>
      <trkpt lat="46.46454" lon="5.18196">
        <ele>215.4</ele>
        <time>2021-12-06T13:22:58Z</time>
      </trkpt>
      <trkpt lat="46.46462" lon="5.18211">
        <ele>215.6</ele>
        <time>2021-12-06T13:23:00Z</time>
      </trkpt>
      <trkpt lat="46.46473" lon="5.18258">
        <ele>215.8</ele>
        <time>2021-12-06T13:23:05Z</time>
      </trkpt>
      <trkpt lat="46.46481" lon="5.18306">
        <ele>216</ele>
        <time>2021-12-06T13:23:10Z</time>
      </trkpt>
      <trkpt lat="46.46483" lon="5.18336">
        <ele>216.2</ele>
        <time>2021-12-06T13:23:13Z</time>
      </trkpt>
      <trkpt lat="46.46484" lon="5.18355">
        <ele>216.2</ele>
        <time>2021-12-06T13:23:15Z</time>
      </trkpt>
      <trkpt lat="46.46487" lon="5.18371">
        <ele>216.4</ele>
        <time>2021-12-06T13:23:17Z</time>
      </trkpt>
      <trkpt lat="46.46491" lon="5.18379">
        <ele>216.4</ele>
        <time>2021-12-06T13:23:18Z</time>
      </trkpt>
      <trkpt lat="46.46496" lon="5.18384">
        <ele>216.6</ele>
        <time>2021-12-06T13:23:19Z</time>
      </trkpt>
      <trkpt lat="46.46507" lon="5.18393">
        <ele>216.6</ele>
        <time>2021-12-06T13:23:21Z</time>
      </trkpt>
      <trkpt lat="46.46546" lon="5.18413">
        <ele>216.8</ele>
        <time>2021-12-06T13:23:27Z</time>
      </trkpt>
      <trkpt lat="46.46578" lon="5.18425">
        <ele>217</ele>
        <time>2021-12-06T13:23:32Z</time>
      </trkpt>
      <trkpt lat="46.46618" lon="5.18441">
        <ele>217.2</ele>
        <time>2021-12-06T13:23:38Z</time>
      </trkpt>
      <trkpt lat="46.46653" lon="5.18453">
        <ele>217</ele>
        <time>2021-12-06T13:23:43Z</time>
      </trkpt>
      <trkpt lat="46.46698" lon="5.18456">
        <ele>216.2</ele>
        <time>2021-12-06T13:23:49Z</time>
      </trkpt>
      <trkpt lat="46.46715" lon="5.18458">
        <ele>216</ele>
        <time>2021-12-06T13:23:51Z</time>
      </trkpt>
      <trkpt lat="46.46729" lon="5.18466">
        <ele>215.2</ele>
        <time>2021-12-06T13:23:53Z</time>
      </trkpt>
      <trkpt lat="46.46738" lon="5.18482">
        <ele>215</ele>
        <time>2021-12-06T13:23:55Z</time>
      </trkpt>
      <trkpt lat="46.46739" lon="5.18491">
        <ele>214.6</ele>
        <time>2021-12-06T13:23:56Z</time>
      </trkpt>
      <trkpt lat="46.46739" lon="5.18499">
        <ele>214.4</ele>
        <time>2021-12-06T13:23:57Z</time>
      </trkpt>
      <trkpt lat="46.46737" lon="5.18525">
        <ele>213.8</ele>
        <time>2021-12-06T13:24:00Z</time>
      </trkpt>
      <trkpt lat="46.46734" lon="5.18573">
        <ele>214</ele>
        <time>2021-12-06T13:24:05Z</time>
      </trkpt>
      <trkpt lat="46.46735" lon="5.18583">
        <ele>214</ele>
        <time>2021-12-06T13:24:06Z</time>
      </trkpt>
      <trkpt lat="46.46742" lon="5.18614">
        <ele>214</ele>
        <time>2021-12-06T13:24:09Z</time>
      </trkpt>
      <trkpt lat="46.4677" lon="5.18669">
        <ele>213.8</ele>
        <time>2021-12-06T13:24:16Z</time>
      </trkpt>
      <trkpt lat="46.46795" lon="5.18707">
        <ele>213.8</ele>
        <time>2021-12-06T13:24:21Z</time>
      </trkpt>
      <trkpt lat="46.46799" lon="5.18716">
        <ele>213.6</ele>
        <time>2021-12-06T13:24:22Z</time>
      </trkpt>
      <trkpt lat="46.46801" lon="5.18726">
        <ele>213.6</ele>
        <time>2021-12-06T13:24:23Z</time>
      </trkpt>
      <trkpt lat="46.46804" lon="5.18747">
        <ele>213.6</ele>
        <time>2021-12-06T13:24:25Z</time>
      </trkpt>
      <trkpt lat="46.46799" lon="5.18803">
        <ele>213.2</ele>
        <time>2021-12-06T13:24:30Z</time>
      </trkpt>
      <trkpt lat="46.46796" lon="5.18826">
        <ele>212.8</ele>
        <time>2021-12-06T13:24:32Z</time>
      </trkpt>
      <trkpt lat="46.46792" lon="5.18863">
        <ele>211.4</ele>
        <time>2021-12-06T13:24:35Z</time>
      </trkpt>
      <trkpt lat="46.46792" lon="5.18876">
        <ele>210.6</ele>
        <time>2021-12-06T13:24:36Z</time>
      </trkpt>
      <trkpt lat="46.46792" lon="5.18888">
        <ele>210.2</ele>
        <time>2021-12-06T13:24:37Z</time>
      </trkpt>
      <trkpt lat="46.46794" lon="5.18927">
        <ele>209</ele>
        <time>2021-12-06T13:24:40Z</time>
      </trkpt>
      <trkpt lat="46.46796" lon="5.1894">
        <ele>208.4</ele>
        <time>2021-12-06T13:24:41Z</time>
      </trkpt>
      <trkpt lat="46.46799" lon="5.18965">
        <ele>207.6</ele>
        <time>2021-12-06T13:24:43Z</time>
      </trkpt>
      <trkpt lat="46.46805" lon="5.19017">
        <ele>206.4</ele>
        <time>2021-12-06T13:24:46Z</time>
      </trkpt>
      <trkpt lat="46.46809" lon="5.19043">
        <ele>205.2</ele>
        <time>2021-12-06T13:24:49Z</time>
      </trkpt>
      <trkpt lat="46.46812" lon="5.19056">
        <ele>204.8</ele>
        <time>2021-12-06T13:24:50Z</time>
      </trkpt>
      <trkpt lat="46.46818" lon="5.19082">
        <ele>204.2</ele>
        <time>2021-12-06T13:24:52Z</time>
      </trkpt>
      <trkpt lat="46.4683" lon="5.19133">
        <ele>202.8</ele>
        <time>2021-12-06T13:24:56Z</time>
      </trkpt>
      <trkpt lat="46.46838" lon="5.19159">
        <ele>202.4</ele>
        <time>2021-12-06T13:24:58Z</time>
      </trkpt>
      <trkpt lat="46.46846" lon="5.19185">
        <ele>201.6</ele>
        <time>2021-12-06T13:25:00Z</time>
      </trkpt>
      <trkpt lat="46.4686" lon="5.19222">
        <ele>200.4</ele>
        <time>2021-12-06T13:25:03Z</time>
      </trkpt>
      <trkpt lat="46.46868" lon="5.19246">
        <ele>199.6</ele>
        <time>2021-12-06T13:25:05Z</time>
      </trkpt>
      <trkpt lat="46.46872" lon="5.19258">
        <ele>199.2</ele>
        <time>2021-12-06T13:25:06Z</time>
      </trkpt>
      <trkpt lat="46.46893" lon="5.19327">
        <ele>198.4</ele>
        <time>2021-12-06T13:25:12Z</time>
      </trkpt>
      <trkpt lat="46.46903" lon="5.19359">
        <ele>198.2</ele>
        <time>2021-12-06T13:25:14Z</time>
      </trkpt>
      <trkpt lat="46.46909" lon="5.19379">
        <ele>198.2</ele>
        <time>2021-12-06T13:25:17Z</time>
      </trkpt>
      <trkpt lat="46.46916" lon="5.19399">
        <ele>198.4</ele>
        <time>2021-12-06T13:25:18Z</time>
      </trkpt>
      <trkpt lat="46.46925" lon="5.19417">
        <ele>198.6</ele>
        <time>2021-12-06T13:25:20Z</time>
      </trkpt>
      <trkpt lat="46.46929" lon="5.19423">
        <ele>198.6</ele>
        <time>2021-12-06T13:25:21Z</time>
      </trkpt>
      <trkpt lat="46.46963" lon="5.19469">
        <ele>199</ele>
        <time>2021-12-06T13:25:27Z</time>
      </trkpt>
      <trkpt lat="46.46975" lon="5.19504">
        <ele>199.2</ele>
        <time>2021-12-06T13:25:32Z</time>
      </trkpt>
      <trkpt lat="46.46977" lon="5.19513">
        <ele>199.4</ele>
        <time>2021-12-06T13:25:33Z</time>
      </trkpt>
      <trkpt lat="46.46996" lon="5.19575">
        <ele>199.8</ele>
        <time>2021-12-06T13:25:40Z</time>
      </trkpt>
      <trkpt lat="46.47009" lon="5.19602">
        <ele>200</ele>
        <time>2021-12-06T13:25:42Z</time>
      </trkpt>
      <trkpt lat="46.4702" lon="5.19618">
        <ele>200</ele>
        <time>2021-12-06T13:25:44Z</time>
      </trkpt>
      <trkpt lat="46.47058" lon="5.19677">
        <ele>199.4</ele>
        <time>2021-12-06T13:25:51Z</time>
      </trkpt>
      <trkpt lat="46.47089" lon="5.19739">
        <ele>198.6</ele>
        <time>2021-12-06T13:25:58Z</time>
      </trkpt>
      <trkpt lat="46.47104" lon="5.19761">
        <ele>198.6</ele>
        <time>2021-12-06T13:26:01Z</time>
      </trkpt>
      <trkpt lat="46.47119" lon="5.19779">
        <ele>199.2</ele>
        <time>2021-12-06T13:26:04Z</time>
      </trkpt>
      <trkpt lat="46.47149" lon="5.19807">
        <ele>199.8</ele>
        <time>2021-12-06T13:26:10Z</time>
      </trkpt>
      <trkpt lat="46.47158" lon="5.19815">
        <ele>200.6</ele>
        <time>2021-12-06T13:26:12Z</time>
      </trkpt>
      <trkpt lat="46.47166" lon="5.19823">
        <ele>201.2</ele>
        <time>2021-12-06T13:26:14Z</time>
      </trkpt>
      <trkpt lat="46.47166" lon="5.19823">
        <ele>202</ele>
        <time>2021-12-06T13:26:15Z</time>
      </trkpt>
      <trkpt lat="46.47182" lon="5.19837">
        <ele>203.2</ele>
        <time>2021-12-06T13:26:19Z</time>
      </trkpt>
      <trkpt lat="46.47197" lon="5.19851">
        <ele>204</ele>
        <time>2021-12-06T13:26:22Z</time>
      </trkpt>
      <trkpt lat="46.47205" lon="5.19856">
        <ele>204.2</ele>
        <time>2021-12-06T13:26:24Z</time>
      </trkpt>
      <trkpt lat="46.47209" lon="5.19858">
        <ele>204.4</ele>
        <time>2021-12-06T13:26:25Z</time>
      </trkpt>
      <trkpt lat="46.47221" lon="5.19865">
        <ele>205.8</ele>
        <time>2021-12-06T13:26:29Z</time>
      </trkpt>
      <trkpt lat="46.47229" lon="5.1987">
        <ele>206</ele>
        <time>2021-12-06T13:26:30Z</time>
      </trkpt>
      <trkpt lat="46.47243" lon="5.19877">
        <ele>207.2</ele>
        <time>2021-12-06T13:26:34Z</time>
      </trkpt>
      <trkpt lat="46.47256" lon="5.19883">
        <ele>207.6</ele>
        <time>2021-12-06T13:26:36Z</time>
      </trkpt>
      <trkpt lat="46.47256" lon="5.19883">
        <ele>207.8</ele>
        <time>2021-12-06T13:26:37Z</time>
      </trkpt>
      <trkpt lat="46.47267" lon="5.19892">
        <ele>208.4</ele>
        <time>2021-12-06T13:26:39Z</time>
      </trkpt>
      <trkpt lat="46.47274" lon="5.19901">
        <ele>208.6</ele>
        <time>2021-12-06T13:26:41Z</time>
      </trkpt>
      <trkpt lat="46.47276" lon="5.19907">
        <ele>208.8</ele>
        <time>2021-12-06T13:26:42Z</time>
      </trkpt>
      <trkpt lat="46.47278" lon="5.19912">
        <ele>209.2</ele>
        <time>2021-12-06T13:26:43Z</time>
      </trkpt>
      <trkpt lat="46.47278" lon="5.19925">
        <ele>209.6</ele>
        <time>2021-12-06T13:26:45Z</time>
      </trkpt>
      <trkpt lat="46.47279" lon="5.19937">
        <ele>210.2</ele>
        <time>2021-12-06T13:26:47Z</time>
      </trkpt>
      <trkpt lat="46.47281" lon="5.19949">
        <ele>211</ele>
        <time>2021-12-06T13:26:49Z</time>
      </trkpt>
      <trkpt lat="46.47283" lon="5.19954">
        <ele>211.2</ele>
        <time>2021-12-06T13:26:50Z</time>
      </trkpt>
      <trkpt lat="46.47292" lon="5.19969">
        <ele>211.8</ele>
        <time>2021-12-06T13:26:53Z</time>
      </trkpt>
      <trkpt lat="46.47295" lon="5.19973">
        <ele>212</ele>
        <time>2021-12-06T13:26:54Z</time>
      </trkpt>
      <trkpt lat="46.47304" lon="5.19984">
        <ele>212.4</ele>
        <time>2021-12-06T13:26:57Z</time>
      </trkpt>
      <trkpt lat="46.47318" lon="5.19994">
        <ele>213</ele>
        <time>2021-12-06T13:27:00Z</time>
      </trkpt>
      <trkpt lat="46.47346" lon="5.20011">
        <ele>214.4</ele>
        <time>2021-12-06T13:27:07Z</time>
      </trkpt>
      <trkpt lat="46.4739" lon="5.20034">
        <ele>215</ele>
        <time>2021-12-06T13:27:16Z</time>
      </trkpt>
      <trkpt lat="46.47432" lon="5.20059">
        <ele>215</ele>
        <time>2021-12-06T13:27:23Z</time>
      </trkpt>
      <trkpt lat="46.4748" lon="5.20085">
        <ele>214.2</ele>
        <time>2021-12-06T13:27:31Z</time>
      </trkpt>
      <trkpt lat="46.4753" lon="5.20109">
        <ele>214</ele>
        <time>2021-12-06T13:27:39Z</time>
      </trkpt>
      <trkpt lat="46.47537" lon="5.20114">
        <ele>214</ele>
        <time>2021-12-06T13:27:40Z</time>
      </trkpt>
      <trkpt lat="46.47554" lon="5.20131">
        <ele>214.2</ele>
        <time>2021-12-06T13:27:44Z</time>
      </trkpt>
      <trkpt lat="46.47598" lon="5.20178">
        <ele>214.4</ele>
        <time>2021-12-06T13:27:51Z</time>
      </trkpt>
      <trkpt lat="46.47603" lon="5.20183">
        <ele>214.2</ele>
        <time>2021-12-06T13:27:52Z</time>
      </trkpt>
      <trkpt lat="46.47615" lon="5.20192">
        <ele>214.4</ele>
        <time>2021-12-06T13:27:54Z</time>
      </trkpt>
      <trkpt lat="46.47632" lon="5.20204">
        <ele>214.6</ele>
        <time>2021-12-06T13:27:57Z</time>
      </trkpt>
      <trkpt lat="46.47638" lon="5.20207">
        <ele>214.6</ele>
        <time>2021-12-06T13:27:58Z</time>
      </trkpt>
      <trkpt lat="46.47665" lon="5.20225">
        <ele>214.8</ele>
        <time>2021-12-06T13:28:03Z</time>
      </trkpt>
      <trkpt lat="46.47669" lon="5.20231">
        <ele>215</ele>
        <time>2021-12-06T13:28:04Z</time>
      </trkpt>
      <trkpt lat="46.47672" lon="5.20238">
        <ele>215.2</ele>
        <time>2021-12-06T13:28:05Z</time>
      </trkpt>
      <trkpt lat="46.47677" lon="5.20255">
        <ele>215.4</ele>
        <time>2021-12-06T13:28:07Z</time>
      </trkpt>
      <trkpt lat="46.4768" lon="5.20263">
        <ele>215.4</ele>
        <time>2021-12-06T13:28:08Z</time>
      </trkpt>
      <trkpt lat="46.47684" lon="5.20271">
        <ele>215.4</ele>
        <time>2021-12-06T13:28:09Z</time>
      </trkpt>
      <trkpt lat="46.47693" lon="5.20284">
        <ele>215.4</ele>
        <time>2021-12-06T13:28:11Z</time>
      </trkpt>
      <trkpt lat="46.47737" lon="5.20333">
        <ele>215</ele>
        <time>2021-12-06T13:28:19Z</time>
      </trkpt>
      <trkpt lat="46.47781" lon="5.20375">
        <ele>213.8</ele>
        <time>2021-12-06T13:28:26Z</time>
      </trkpt>
      <trkpt lat="46.47806" lon="5.20384">
        <ele>212.8</ele>
        <time>2021-12-06T13:28:29Z</time>
      </trkpt>
      <trkpt lat="46.47813" lon="5.20389">
        <ele>212.6</ele>
        <time>2021-12-06T13:28:30Z</time>
      </trkpt>
      <trkpt lat="46.47821" lon="5.20394">
        <ele>212</ele>
        <time>2021-12-06T13:28:31Z</time>
      </trkpt>
      <trkpt lat="46.47828" lon="5.20399">
        <ele>211.8</ele>
        <time>2021-12-06T13:28:32Z</time>
      </trkpt>
      <trkpt lat="46.47861" lon="5.20423">
        <ele>210.8</ele>
        <time>2021-12-06T13:28:37Z</time>
      </trkpt>
      <trkpt lat="46.47867" lon="5.20426">
        <ele>210.8</ele>
        <time>2021-12-06T13:28:38Z</time>
      </trkpt>
      <trkpt lat="46.47876" lon="5.20431">
        <ele>210.8</ele>
        <time>2021-12-06T13:28:40Z</time>
      </trkpt>
      <trkpt lat="46.47882" lon="5.20434">
        <ele>210.8</ele>
        <time>2021-12-06T13:28:42Z</time>
      </trkpt>
      <trkpt lat="46.47887" lon="5.20441">
        <ele>210.8</ele>
        <time>2021-12-06T13:28:44Z</time>
      </trkpt>
      <trkpt lat="46.4789" lon="5.20453">
        <ele>210.6</ele>
        <time>2021-12-06T13:28:46Z</time>
      </trkpt>
      <trkpt lat="46.47892" lon="5.20487">
        <ele>210.6</ele>
        <time>2021-12-06T13:28:51Z</time>
      </trkpt>
      <trkpt lat="46.47899" lon="5.20547">
        <ele>209.8</ele>
        <time>2021-12-06T13:28:57Z</time>
      </trkpt>
      <trkpt lat="46.47901" lon="5.20569">
        <ele>209.6</ele>
        <time>2021-12-06T13:28:58Z</time>
      </trkpt>
      <trkpt lat="46.47905" lon="5.2063">
        <ele>208.4</ele>
        <time>2021-12-06T13:29:03Z</time>
      </trkpt>
      <trkpt lat="46.47907" lon="5.20685">
        <ele>206.8</ele>
        <time>2021-12-06T13:29:07Z</time>
      </trkpt>
      <trkpt lat="46.47911" lon="5.20727">
        <ele>205.6</ele>
        <time>2021-12-06T13:29:10Z</time>
      </trkpt>
      <trkpt lat="46.47913" lon="5.20756">
        <ele>203.8</ele>
        <time>2021-12-06T13:29:12Z</time>
      </trkpt>
      <trkpt lat="46.47915" lon="5.20785">
        <ele>202.6</ele>
        <time>2021-12-06T13:29:14Z</time>
      </trkpt>
      <trkpt lat="46.47917" lon="5.20814">
        <ele>201.6</ele>
        <time>2021-12-06T13:29:16Z</time>
      </trkpt>
      <trkpt lat="46.47919" lon="5.20859">
        <ele>200.2</ele>
        <time>2021-12-06T13:29:19Z</time>
      </trkpt>
      <trkpt lat="46.47919" lon="5.20888">
        <ele>199</ele>
        <time>2021-12-06T13:29:21Z</time>
      </trkpt>
      <trkpt lat="46.47913" lon="5.2093">
        <ele>197.6</ele>
        <time>2021-12-06T13:29:24Z</time>
      </trkpt>
      <trkpt lat="46.47901" lon="5.20989">
        <ele>196.8</ele>
        <time>2021-12-06T13:29:30Z</time>
      </trkpt>
      <trkpt lat="46.47886" lon="5.21054">
        <ele>197.6</ele>
        <time>2021-12-06T13:29:35Z</time>
      </trkpt>
      <trkpt lat="46.47879" lon="5.2109">
        <ele>199.2</ele>
        <time>2021-12-06T13:29:39Z</time>
      </trkpt>
      <trkpt lat="46.47875" lon="5.21106">
        <ele>199.6</ele>
        <time>2021-12-06T13:29:41Z</time>
      </trkpt>
      <trkpt lat="46.47872" lon="5.21123">
        <ele>200.2</ele>
        <time>2021-12-06T13:29:43Z</time>
      </trkpt>
      <trkpt lat="46.47865" lon="5.21153">
        <ele>201.4</ele>
        <time>2021-12-06T13:29:47Z</time>
      </trkpt>
      <trkpt lat="46.47864" lon="5.2116">
        <ele>201.8</ele>
        <time>2021-12-06T13:29:48Z</time>
      </trkpt>
      <trkpt lat="46.47861" lon="5.21175">
        <ele>202.8</ele>
        <time>2021-12-06T13:29:50Z</time>
      </trkpt>
      <trkpt lat="46.47855" lon="5.21203">
        <ele>204</ele>
        <time>2021-12-06T13:29:54Z</time>
      </trkpt>
      <trkpt lat="46.47852" lon="5.21217">
        <ele>204.6</ele>
        <time>2021-12-06T13:29:56Z</time>
      </trkpt>
      <trkpt lat="46.4785" lon="5.21224">
        <ele>205</ele>
        <time>2021-12-06T13:29:57Z</time>
      </trkpt>
      <trkpt lat="46.47838" lon="5.21272">
        <ele>206.4</ele>
        <time>2021-12-06T13:30:04Z</time>
      </trkpt>
      <trkpt lat="46.4783" lon="5.213">
        <ele>207</ele>
        <time>2021-12-06T13:30:08Z</time>
      </trkpt>
      <trkpt lat="46.47823" lon="5.21323">
        <ele>207.4</ele>
        <time>2021-12-06T13:30:11Z</time>
      </trkpt>
      <trkpt lat="46.47811" lon="5.21366">
        <ele>207.6</ele>
        <time>2021-12-06T13:30:16Z</time>
      </trkpt>
      <trkpt lat="46.47788" lon="5.21442">
        <ele>206.6</ele>
        <time>2021-12-06T13:30:24Z</time>
      </trkpt>
      <trkpt lat="46.47785" lon="5.21452">
        <ele>206.4</ele>
        <time>2021-12-06T13:30:25Z</time>
      </trkpt>
      <trkpt lat="46.47785" lon="5.21452">
        <ele>206.2</ele>
        <time>2021-12-06T13:30:26Z</time>
      </trkpt>
      <trkpt lat="46.47764" lon="5.21523">
        <ele>205.2</ele>
        <time>2021-12-06T13:30:32Z</time>
      </trkpt>
      <trkpt lat="46.47754" lon="5.21558">
        <ele>205.2</ele>
        <time>2021-12-06T13:30:36Z</time>
      </trkpt>
      <trkpt lat="46.47737" lon="5.21614">
        <ele>206.4</ele>
        <time>2021-12-06T13:30:43Z</time>
      </trkpt>
      <trkpt lat="46.47724" lon="5.21658">
        <ele>207.6</ele>
        <time>2021-12-06T13:30:49Z</time>
      </trkpt>
      <trkpt lat="46.4772" lon="5.21671">
        <ele>208</ele>
        <time>2021-12-06T13:30:51Z</time>
      </trkpt>
      <trkpt lat="46.47715" lon="5.21694">
        <ele>208.8</ele>
        <time>2021-12-06T13:30:54Z</time>
      </trkpt>
      <trkpt lat="46.47713" lon="5.21711">
        <ele>209.4</ele>
        <time>2021-12-06T13:30:56Z</time>
      </trkpt>
      <trkpt lat="46.47713" lon="5.21719">
        <ele>209.6</ele>
        <time>2021-12-06T13:30:57Z</time>
      </trkpt>
      <trkpt lat="46.47714" lon="5.21728">
        <ele>209.8</ele>
        <time>2021-12-06T13:30:58Z</time>
      </trkpt>
      <trkpt lat="46.47718" lon="5.21785">
        <ele>210</ele>
        <time>2021-12-06T13:31:04Z</time>
      </trkpt>
      <trkpt lat="46.47726" lon="5.21882">
        <ele>208.8</ele>
        <time>2021-12-06T13:31:13Z</time>
      </trkpt>
      <trkpt lat="46.47733" lon="5.2195">
        <ele>207.8</ele>
        <time>2021-12-06T13:31:19Z</time>
      </trkpt>
      <trkpt lat="46.47733" lon="5.21962">
        <ele>207.8</ele>
        <time>2021-12-06T13:31:20Z</time>
      </trkpt>
      <trkpt lat="46.4774" lon="5.22033">
        <ele>207.6</ele>
        <time>2021-12-06T13:31:27Z</time>
      </trkpt>
      <trkpt lat="46.47747" lon="5.22119">
        <ele>208.6</ele>
        <time>2021-12-06T13:31:36Z</time>
      </trkpt>
      <trkpt lat="46.47749" lon="5.22147">
        <ele>208.8</ele>
        <time>2021-12-06T13:31:39Z</time>
      </trkpt>
      <trkpt lat="46.47755" lon="5.22204">
        <ele>209.4</ele>
        <time>2021-12-06T13:31:45Z</time>
      </trkpt>
      <trkpt lat="46.4776" lon="5.22267">
        <ele>209.8</ele>
        <time>2021-12-06T13:31:52Z</time>
      </trkpt>
      <trkpt lat="46.47761" lon="5.22275">
        <ele>209.8</ele>
        <time>2021-12-06T13:31:53Z</time>
      </trkpt>
      <trkpt lat="46.47764" lon="5.22301">
        <ele>210.2</ele>
        <time>2021-12-06T13:31:56Z</time>
      </trkpt>
      <trkpt lat="46.47767" lon="5.22308">
        <ele>210.4</ele>
        <time>2021-12-06T13:31:57Z</time>
      </trkpt>
      <trkpt lat="46.47772" lon="5.22312">
        <ele>210.4</ele>
        <time>2021-12-06T13:31:58Z</time>
      </trkpt>
      <trkpt lat="46.47778" lon="5.22314">
        <ele>210.8</ele>
        <time>2021-12-06T13:31:59Z</time>
      </trkpt>
      <trkpt lat="46.47784" lon="5.22314">
        <ele>210.8</ele>
        <time>2021-12-06T13:32:00Z</time>
      </trkpt>
      <trkpt lat="46.4779" lon="5.22313">
        <ele>210.8</ele>
        <time>2021-12-06T13:32:01Z</time>
      </trkpt>
      <trkpt lat="46.47802" lon="5.22311">
        <ele>211.2</ele>
        <time>2021-12-06T13:32:03Z</time>
      </trkpt>
      <trkpt lat="46.47849" lon="5.22305">
        <ele>211.6</ele>
        <time>2021-12-06T13:32:10Z</time>
      </trkpt>
      <trkpt lat="46.47886" lon="5.22299">
        <ele>211.8</ele>
        <time>2021-12-06T13:32:15Z</time>
      </trkpt>
      <trkpt lat="46.4791" lon="5.22296">
        <ele>211.8</ele>
        <time>2021-12-06T13:32:18Z</time>
      </trkpt>
      <trkpt lat="46.47957" lon="5.22288">
        <ele>210.8</ele>
        <time>2021-12-06T13:32:24Z</time>
      </trkpt>
      <trkpt lat="46.47965" lon="5.22288">
        <ele>210.6</ele>
        <time>2021-12-06T13:32:25Z</time>
      </trkpt>
      <trkpt lat="46.47997" lon="5.22286">
        <ele>209.8</ele>
        <time>2021-12-06T13:32:29Z</time>
      </trkpt>
      <trkpt lat="46.48028" lon="5.22285">
        <ele>209.4</ele>
        <time>2021-12-06T13:32:33Z</time>
      </trkpt>
      <trkpt lat="46.48036" lon="5.22283">
        <ele>209.4</ele>
        <time>2021-12-06T13:32:34Z</time>
      </trkpt>
      <trkpt lat="46.48051" lon="5.22277">
        <ele>209.2</ele>
        <time>2021-12-06T13:32:36Z</time>
      </trkpt>
      <trkpt lat="46.48058" lon="5.22272">
        <ele>209.2</ele>
        <time>2021-12-06T13:32:37Z</time>
      </trkpt>
      <trkpt lat="46.48064" lon="5.22267">
        <ele>209</ele>
        <time>2021-12-06T13:32:38Z</time>
      </trkpt>
      <trkpt lat="46.4809" lon="5.22242">
        <ele>209</ele>
        <time>2021-12-06T13:32:42Z</time>
      </trkpt>
      <trkpt lat="46.48105" lon="5.22232">
        <ele>209</ele>
        <time>2021-12-06T13:32:44Z</time>
      </trkpt>
      <trkpt lat="46.4812" lon="5.22227">
        <ele>209</ele>
        <time>2021-12-06T13:32:46Z</time>
      </trkpt>
      <trkpt lat="46.48145" lon="5.22222">
        <ele>208.6</ele>
        <time>2021-12-06T13:32:49Z</time>
      </trkpt>
      <trkpt lat="46.48183" lon="5.22212">
        <ele>208.4</ele>
        <time>2021-12-06T13:32:54Z</time>
      </trkpt>
      <trkpt lat="46.48214" lon="5.22205">
        <ele>208.4</ele>
        <time>2021-12-06T13:32:58Z</time>
      </trkpt>
      <trkpt lat="46.48229" lon="5.22207">
        <ele>208.4</ele>
        <time>2021-12-06T13:33:00Z</time>
      </trkpt>
      <trkpt lat="46.48283" lon="5.22221">
        <ele>208.8</ele>
        <time>2021-12-06T13:33:07Z</time>
      </trkpt>
      <trkpt lat="46.48333" lon="5.22222">
        <ele>209.4</ele>
        <time>2021-12-06T13:33:14Z</time>
      </trkpt>
      <trkpt lat="46.48348" lon="5.22224">
        <ele>209.8</ele>
        <time>2021-12-06T13:33:16Z</time>
      </trkpt>
      <trkpt lat="46.48376" lon="5.22235">
        <ele>210.4</ele>
        <time>2021-12-06T13:33:20Z</time>
      </trkpt>
      <trkpt lat="46.48415" lon="5.22264">
        <ele>210.6</ele>
        <time>2021-12-06T13:33:26Z</time>
      </trkpt>
      <trkpt lat="46.48432" lon="5.22284">
        <ele>210.8</ele>
        <time>2021-12-06T13:33:29Z</time>
      </trkpt>
      <trkpt lat="46.48453" lon="5.22312">
        <ele>211.2</ele>
        <time>2021-12-06T13:33:33Z</time>
      </trkpt>
      <trkpt lat="46.48474" lon="5.22339">
        <ele>211.8</ele>
        <time>2021-12-06T13:33:37Z</time>
      </trkpt>
      <trkpt lat="46.48492" lon="5.22357">
        <ele>212.2</ele>
        <time>2021-12-06T13:33:40Z</time>
      </trkpt>
      <trkpt lat="46.4854" lon="5.22389">
        <ele>212.4</ele>
        <time>2021-12-06T13:33:47Z</time>
      </trkpt>
      <trkpt lat="46.48593" lon="5.22432">
        <ele>212.2</ele>
        <time>2021-12-06T13:33:55Z</time>
      </trkpt>
      <trkpt lat="46.486" lon="5.22438">
        <ele>212.2</ele>
        <time>2021-12-06T13:33:56Z</time>
      </trkpt>
      <trkpt lat="46.48647" lon="5.22482">
        <ele>212.2</ele>
        <time>2021-12-06T13:34:03Z</time>
      </trkpt>
      <trkpt lat="46.48654" lon="5.2249">
        <ele>212.2</ele>
        <time>2021-12-06T13:34:04Z</time>
      </trkpt>
      <trkpt lat="46.48703" lon="5.22543">
        <ele>211.2</ele>
        <time>2021-12-06T13:34:11Z</time>
      </trkpt>
      <trkpt lat="46.4872" lon="5.22553">
        <ele>210.8</ele>
        <time>2021-12-06T13:34:13Z</time>
      </trkpt>
      <trkpt lat="46.48761" lon="5.22576">
        <ele>209.6</ele>
        <time>2021-12-06T13:34:18Z</time>
      </trkpt>
      <trkpt lat="46.48816" lon="5.22607">
        <ele>209</ele>
        <time>2021-12-06T13:34:25Z</time>
      </trkpt>
      <trkpt lat="46.48831" lon="5.22616">
        <ele>209.2</ele>
        <time>2021-12-06T13:34:27Z</time>
      </trkpt>
      <trkpt lat="46.48883" lon="5.22644">
        <ele>209.2</ele>
        <time>2021-12-06T13:34:34Z</time>
      </trkpt>
      <trkpt lat="46.48897" lon="5.22651">
        <ele>209.2</ele>
        <time>2021-12-06T13:34:36Z</time>
      </trkpt>
      <trkpt lat="46.48945" lon="5.22674">
        <ele>210</ele>
        <time>2021-12-06T13:34:43Z</time>
      </trkpt>
      <trkpt lat="46.48978" lon="5.22692">
        <ele>210.8</ele>
        <time>2021-12-06T13:34:48Z</time>
      </trkpt>
      <trkpt lat="46.49016" lon="5.22713">
        <ele>211.4</ele>
        <time>2021-12-06T13:34:54Z</time>
      </trkpt>
      <trkpt lat="46.49053" lon="5.22734">
        <ele>211.8</ele>
        <time>2021-12-06T13:35:00Z</time>
      </trkpt>
      <trkpt lat="46.49087" lon="5.22752">
        <ele>212</ele>
        <time>2021-12-06T13:35:06Z</time>
      </trkpt>
      <trkpt lat="46.49135" lon="5.22777">
        <ele>211.8</ele>
        <time>2021-12-06T13:35:12Z</time>
      </trkpt>
      <trkpt lat="46.49181" lon="5.22796">
        <ele>211.8</ele>
        <time>2021-12-06T13:35:19Z</time>
      </trkpt>
      <trkpt lat="46.49223" lon="5.22795">
        <ele>212.4</ele>
        <time>2021-12-06T13:35:25Z</time>
      </trkpt>
      <trkpt lat="46.49273" lon="5.22791">
        <ele>212</ele>
        <time>2021-12-06T13:35:31Z</time>
      </trkpt>
      <trkpt lat="46.49302" lon="5.22788">
        <ele>210.4</ele>
        <time>2021-12-06T13:35:34Z</time>
      </trkpt>
      <trkpt lat="46.49322" lon="5.22786">
        <ele>209</ele>
        <time>2021-12-06T13:35:36Z</time>
      </trkpt>
      <trkpt lat="46.49343" lon="5.22784">
        <ele>207.4</ele>
        <time>2021-12-06T13:35:38Z</time>
      </trkpt>
      <trkpt lat="46.49374" lon="5.22782">
        <ele>206.2</ele>
        <time>2021-12-06T13:35:41Z</time>
      </trkpt>
      <trkpt lat="46.49384" lon="5.22781">
        <ele>204.6</ele>
        <time>2021-12-06T13:35:43Z</time>
      </trkpt>
      <trkpt lat="46.49415" lon="5.22778">
        <ele>203.4</ele>
        <time>2021-12-06T13:35:45Z</time>
      </trkpt>
      <trkpt lat="46.49457" lon="5.22775">
        <ele>202</ele>
        <time>2021-12-06T13:35:49Z</time>
      </trkpt>
      <trkpt lat="46.49489" lon="5.22772">
        <ele>200.4</ele>
        <time>2021-12-06T13:35:52Z</time>
      </trkpt>
      <trkpt lat="46.495" lon="5.22771">
        <ele>200</ele>
        <time>2021-12-06T13:35:53Z</time>
      </trkpt>
      <trkpt lat="46.49521" lon="5.22769">
        <ele>199.2</ele>
        <time>2021-12-06T13:35:55Z</time>
      </trkpt>
      <trkpt lat="46.49542" lon="5.22768">
        <ele>198.2</ele>
        <time>2021-12-06T13:35:57Z</time>
      </trkpt>
      <trkpt lat="46.49563" lon="5.22767">
        <ele>196.8</ele>
        <time>2021-12-06T13:35:59Z</time>
      </trkpt>
      <trkpt lat="46.49593" lon="5.22765">
        <ele>195.8</ele>
        <time>2021-12-06T13:36:02Z</time>
      </trkpt>
      <trkpt lat="46.49602" lon="5.22764">
        <ele>195.6</ele>
        <time>2021-12-06T13:36:03Z</time>
      </trkpt>
      <trkpt lat="46.49635" lon="5.22762">
        <ele>195.6</ele>
        <time>2021-12-06T13:36:07Z</time>
      </trkpt>
      <trkpt lat="46.49664" lon="5.22759">
        <ele>197</ele>
        <time>2021-12-06T13:36:11Z</time>
      </trkpt>
      <trkpt lat="46.49676" lon="5.22758">
        <ele>197.6</ele>
        <time>2021-12-06T13:36:13Z</time>
      </trkpt>
      <trkpt lat="46.49683" lon="5.22757">
        <ele>198</ele>
        <time>2021-12-06T13:36:14Z</time>
      </trkpt>
      <trkpt lat="46.49701" lon="5.22755">
        <ele>199.4</ele>
        <time>2021-12-06T13:36:17Z</time>
      </trkpt>
      <trkpt lat="46.49718" lon="5.22752">
        <ele>200.6</ele>
        <time>2021-12-06T13:36:20Z</time>
      </trkpt>
      <trkpt lat="46.49724" lon="5.22752">
        <ele>201</ele>
        <time>2021-12-06T13:36:21Z</time>
      </trkpt>
      <trkpt lat="46.49746" lon="5.22749">
        <ele>202.2</ele>
        <time>2021-12-06T13:36:25Z</time>
      </trkpt>
      <trkpt lat="46.49752" lon="5.22749">
        <ele>202.8</ele>
        <time>2021-12-06T13:36:26Z</time>
      </trkpt>
      <trkpt lat="46.49757" lon="5.22747">
        <ele>202.8</ele>
        <time>2021-12-06T13:36:27Z</time>
      </trkpt>
      <trkpt lat="46.49769" lon="5.22746">
        <ele>203.2</ele>
        <time>2021-12-06T13:36:29Z</time>
      </trkpt>
      <trkpt lat="46.49809" lon="5.2274">
        <ele>204.2</ele>
        <time>2021-12-06T13:36:36Z</time>
      </trkpt>
      <trkpt lat="46.49861" lon="5.22733">
        <ele>205</ele>
        <time>2021-12-06T13:36:45Z</time>
      </trkpt>
      <trkpt lat="46.49873" lon="5.22732">
        <ele>205.4</ele>
        <time>2021-12-06T13:36:47Z</time>
      </trkpt>
      <trkpt lat="46.49903" lon="5.22728">
        <ele>206.2</ele>
        <time>2021-12-06T13:36:52Z</time>
      </trkpt>
      <trkpt lat="46.49915" lon="5.22727">
        <ele>206.4</ele>
        <time>2021-12-06T13:36:54Z</time>
      </trkpt>
      <trkpt lat="46.49955" lon="5.22723">
        <ele>207.2</ele>
        <time>2021-12-06T13:37:01Z</time>
      </trkpt>
      <trkpt lat="46.49977" lon="5.22719">
        <ele>207.4</ele>
        <time>2021-12-06T13:37:05Z</time>
      </trkpt>
      <trkpt lat="46.5001" lon="5.22713">
        <ele>208.6</ele>
        <time>2021-12-06T13:37:11Z</time>
      </trkpt>
      <trkpt lat="46.5004" lon="5.22706">
        <ele>209.8</ele>
        <time>2021-12-06T13:37:17Z</time>
      </trkpt>
      <trkpt lat="46.50055" lon="5.22703">
        <ele>210.6</ele>
        <time>2021-12-06T13:37:20Z</time>
      </trkpt>
      <trkpt lat="46.50066" lon="5.22701">
        <ele>210.8</ele>
        <time>2021-12-06T13:37:22Z</time>
      </trkpt>
      <trkpt lat="46.50088" lon="5.22701">
        <ele>211.8</ele>
        <time>2021-12-06T13:37:26Z</time>
      </trkpt>
      <trkpt lat="46.50094" lon="5.22702">
        <ele>212</ele>
        <time>2021-12-06T13:37:27Z</time>
      </trkpt>
      <trkpt lat="46.50099" lon="5.22704">
        <ele>212</ele>
        <time>2021-12-06T13:37:28Z</time>
      </trkpt>
      <trkpt lat="46.50126" lon="5.22717">
        <ele>212.6</ele>
        <time>2021-12-06T13:37:33Z</time>
      </trkpt>
      <trkpt lat="46.50137" lon="5.22723">
        <ele>212.8</ele>
        <time>2021-12-06T13:37:35Z</time>
      </trkpt>
      <trkpt lat="46.50177" lon="5.22745">
        <ele>213.2</ele>
        <time>2021-12-06T13:37:42Z</time>
      </trkpt>
      <trkpt lat="46.50208" lon="5.22753">
        <ele>213.2</ele>
        <time>2021-12-06T13:37:47Z</time>
      </trkpt>
      <trkpt lat="46.50254" lon="5.22747">
        <ele>213.4</ele>
        <time>2021-12-06T13:37:54Z</time>
      </trkpt>
      <trkpt lat="46.50309" lon="5.2274">
        <ele>213.2</ele>
        <time>2021-12-06T13:38:02Z</time>
      </trkpt>
      <trkpt lat="46.50316" lon="5.2274">
        <ele>213.2</ele>
        <time>2021-12-06T13:38:03Z</time>
      </trkpt>
      <trkpt lat="46.50373" lon="5.22747">
        <ele>212.8</ele>
        <time>2021-12-06T13:38:11Z</time>
      </trkpt>
      <trkpt lat="46.50427" lon="5.22756">
        <ele>212.2</ele>
        <time>2021-12-06T13:38:18Z</time>
      </trkpt>
      <trkpt lat="46.50434" lon="5.22757">
        <ele>212</ele>
        <time>2021-12-06T13:38:19Z</time>
      </trkpt>
      <trkpt lat="46.5045" lon="5.2276">
        <ele>211.8</ele>
        <time>2021-12-06T13:38:21Z</time>
      </trkpt>
      <trkpt lat="46.50505" lon="5.2277">
        <ele>211.2</ele>
        <time>2021-12-06T13:38:28Z</time>
      </trkpt>
      <trkpt lat="46.5053" lon="5.22777">
        <ele>211</ele>
        <time>2021-12-06T13:38:31Z</time>
      </trkpt>
      <trkpt lat="46.50567" lon="5.22796">
        <ele>210.8</ele>
        <time>2021-12-06T13:38:36Z</time>
      </trkpt>
      <trkpt lat="46.50605" lon="5.2283">
        <ele>211</ele>
        <time>2021-12-06T13:38:42Z</time>
      </trkpt>
      <trkpt lat="46.50648" lon="5.22877">
        <ele>211.2</ele>
        <time>2021-12-06T13:38:49Z</time>
      </trkpt>
      <trkpt lat="46.50654" lon="5.22885">
        <ele>211.2</ele>
        <time>2021-12-06T13:38:50Z</time>
      </trkpt>
      <trkpt lat="46.50692" lon="5.22941">
        <ele>211.2</ele>
        <time>2021-12-06T13:38:57Z</time>
      </trkpt>
      <trkpt lat="46.50702" lon="5.22957">
        <ele>211.2</ele>
        <time>2021-12-06T13:38:59Z</time>
      </trkpt>
      <trkpt lat="46.50741" lon="5.23012">
        <ele>211.4</ele>
        <time>2021-12-06T13:39:06Z</time>
      </trkpt>
      <trkpt lat="46.50763" lon="5.23044">
        <ele>211.6</ele>
        <time>2021-12-06T13:39:10Z</time>
      </trkpt>
      <trkpt lat="46.50803" lon="5.23097">
        <ele>211.2</ele>
        <time>2021-12-06T13:39:17Z</time>
      </trkpt>
      <trkpt lat="46.5081" lon="5.23105">
        <ele>211.2</ele>
        <time>2021-12-06T13:39:18Z</time>
      </trkpt>
      <trkpt lat="46.50851" lon="5.23136">
        <ele>211.2</ele>
        <time>2021-12-06T13:39:24Z</time>
      </trkpt>
      <trkpt lat="46.50895" lon="5.23155">
        <ele>211.2</ele>
        <time>2021-12-06T13:39:30Z</time>
      </trkpt>
      <trkpt lat="46.50955" lon="5.23178">
        <ele>211.4</ele>
        <time>2021-12-06T13:39:38Z</time>
      </trkpt>
      <trkpt lat="46.50969" lon="5.23187">
        <ele>211.4</ele>
        <time>2021-12-06T13:39:40Z</time>
      </trkpt>
      <trkpt lat="46.51017" lon="5.23224">
        <ele>211.2</ele>
        <time>2021-12-06T13:39:47Z</time>
      </trkpt>
      <trkpt lat="46.51025" lon="5.23231">
        <ele>211.2</ele>
        <time>2021-12-06T13:39:48Z</time>
      </trkpt>
      <trkpt lat="46.51074" lon="5.2327">
        <ele>210.8</ele>
        <time>2021-12-06T13:39:55Z</time>
      </trkpt>
      <trkpt lat="46.51082" lon="5.23278">
        <ele>210.8</ele>
        <time>2021-12-06T13:39:56Z</time>
      </trkpt>
      <trkpt lat="46.51088" lon="5.23284">
        <ele>210.8</ele>
        <time>2021-12-06T13:39:57Z</time>
      </trkpt>
      <trkpt lat="46.51123" lon="5.23326">
        <ele>210.4</ele>
        <time>2021-12-06T13:40:02Z</time>
      </trkpt>
      <trkpt lat="46.5117" lon="5.23384">
        <ele>209.8</ele>
        <time>2021-12-06T13:40:09Z</time>
      </trkpt>
      <trkpt lat="46.51189" lon="5.23409">
        <ele>209.4</ele>
        <time>2021-12-06T13:40:12Z</time>
      </trkpt>
      <trkpt lat="46.51234" lon="5.23465">
        <ele>209.2</ele>
        <time>2021-12-06T13:40:19Z</time>
      </trkpt>
      <trkpt lat="46.51258" lon="5.23496">
        <ele>209.4</ele>
        <time>2021-12-06T13:40:23Z</time>
      </trkpt>
      <trkpt lat="46.51298" lon="5.23546">
        <ele>209.8</ele>
        <time>2021-12-06T13:40:30Z</time>
      </trkpt>
      <trkpt lat="46.51334" lon="5.23592">
        <ele>209.8</ele>
        <time>2021-12-06T13:40:36Z</time>
      </trkpt>
      <trkpt lat="46.51377" lon="5.23641">
        <ele>210</ele>
        <time>2021-12-06T13:40:43Z</time>
      </trkpt>
      <trkpt lat="46.51383" lon="5.23647">
        <ele>210</ele>
        <time>2021-12-06T13:40:44Z</time>
      </trkpt>
      <trkpt lat="46.5142" lon="5.23665">
        <ele>210</ele>
        <time>2021-12-06T13:40:49Z</time>
      </trkpt>
      <trkpt lat="46.51474" lon="5.23683">
        <ele>210</ele>
        <time>2021-12-06T13:40:56Z</time>
      </trkpt>
      <trkpt lat="46.51482" lon="5.23686">
        <ele>209.8</ele>
        <time>2021-12-06T13:40:57Z</time>
      </trkpt>
      <trkpt lat="46.51536" lon="5.23704">
        <ele>209.6</ele>
        <time>2021-12-06T13:41:04Z</time>
      </trkpt>
      <trkpt lat="46.51574" lon="5.23717">
        <ele>209.2</ele>
        <time>2021-12-06T13:41:09Z</time>
      </trkpt>
      <trkpt lat="46.51628" lon="5.23733">
        <ele>209</ele>
        <time>2021-12-06T13:41:16Z</time>
      </trkpt>
      <trkpt lat="46.51635" lon="5.23734">
        <ele>209</ele>
        <time>2021-12-06T13:41:17Z</time>
      </trkpt>
      <trkpt lat="46.51674" lon="5.23736">
        <ele>208.8</ele>
        <time>2021-12-06T13:41:22Z</time>
      </trkpt>
      <trkpt lat="46.51682" lon="5.23735">
        <ele>208.6</ele>
        <time>2021-12-06T13:41:23Z</time>
      </trkpt>
      <trkpt lat="46.51737" lon="5.23726">
        <ele>208.2</ele>
        <time>2021-12-06T13:41:30Z</time>
      </trkpt>
      <trkpt lat="46.51775" lon="5.23719">
        <ele>208</ele>
        <time>2021-12-06T13:41:35Z</time>
      </trkpt>
      <trkpt lat="46.51824" lon="5.23711">
        <ele>207.6</ele>
        <time>2021-12-06T13:41:41Z</time>
      </trkpt>
      <trkpt lat="46.51854" lon="5.23706">
        <ele>207.4</ele>
        <time>2021-12-06T13:41:45Z</time>
      </trkpt>
      <trkpt lat="46.5191" lon="5.23698">
        <ele>207</ele>
        <time>2021-12-06T13:41:52Z</time>
      </trkpt>
      <trkpt lat="46.51935" lon="5.23697">
        <ele>206.8</ele>
        <time>2021-12-06T13:41:55Z</time>
      </trkpt>
      <trkpt lat="46.51988" lon="5.23689">
        <ele>206.8</ele>
        <time>2021-12-06T13:42:02Z</time>
      </trkpt>
      <trkpt lat="46.5204" lon="5.23675">
        <ele>207.2</ele>
        <time>2021-12-06T13:42:09Z</time>
      </trkpt>
      <trkpt lat="46.52098" lon="5.23665">
        <ele>207.6</ele>
        <time>2021-12-06T13:42:17Z</time>
      </trkpt>
      <trkpt lat="46.52106" lon="5.23665">
        <ele>207.4</ele>
        <time>2021-12-06T13:42:18Z</time>
      </trkpt>
      <trkpt lat="46.5212" lon="5.23666">
        <ele>207.4</ele>
        <time>2021-12-06T13:42:20Z</time>
      </trkpt>
      <trkpt lat="46.52134" lon="5.23672">
        <ele>207.4</ele>
        <time>2021-12-06T13:42:22Z</time>
      </trkpt>
      <trkpt lat="46.52147" lon="5.23682">
        <ele>207.4</ele>
        <time>2021-12-06T13:42:24Z</time>
      </trkpt>
      <trkpt lat="46.52158" lon="5.23695">
        <ele>207.4</ele>
        <time>2021-12-06T13:42:26Z</time>
      </trkpt>
      <trkpt lat="46.52198" lon="5.2376">
        <ele>207.4</ele>
        <time>2021-12-06T13:42:34Z</time>
      </trkpt>
      <trkpt lat="46.52237" lon="5.23824">
        <ele>207.4</ele>
        <time>2021-12-06T13:42:42Z</time>
      </trkpt>
      <trkpt lat="46.52256" lon="5.23855">
        <ele>207.6</ele>
        <time>2021-12-06T13:42:46Z</time>
      </trkpt>
      <trkpt lat="46.52292" lon="5.23912">
        <ele>207.6</ele>
        <time>2021-12-06T13:42:53Z</time>
      </trkpt>
      <trkpt lat="46.5232" lon="5.23978">
        <ele>207.6</ele>
        <time>2021-12-06T13:43:00Z</time>
      </trkpt>
      <trkpt lat="46.52348" lon="5.24049">
        <ele>207.6</ele>
        <time>2021-12-06T13:43:08Z</time>
      </trkpt>
      <trkpt lat="46.52361" lon="5.2408">
        <ele>207.6</ele>
        <time>2021-12-06T13:43:12Z</time>
      </trkpt>
      <trkpt lat="46.52362" lon="5.24086">
        <ele>207.6</ele>
        <time>2021-12-06T13:43:13Z</time>
      </trkpt>
      <trkpt lat="46.52369" lon="5.241">
        <ele>207.6</ele>
        <time>2021-12-06T13:43:16Z</time>
      </trkpt>
      <trkpt lat="46.52379" lon="5.24105">
        <ele>207.6</ele>
        <time>2021-12-06T13:43:18Z</time>
      </trkpt>
      <trkpt lat="46.52385" lon="5.24106">
        <ele>207.6</ele>
        <time>2021-12-06T13:43:19Z</time>
      </trkpt>
      <trkpt lat="46.52418" lon="5.24114">
        <ele>207.6</ele>
        <time>2021-12-06T13:43:24Z</time>
      </trkpt>
      <trkpt lat="46.5246" lon="5.24123">
        <ele>208</ele>
        <time>2021-12-06T13:43:30Z</time>
      </trkpt>
      <trkpt lat="46.52471" lon="5.24135">
        <ele>208.2</ele>
        <time>2021-12-06T13:43:32Z</time>
      </trkpt>
      <trkpt lat="46.52474" lon="5.24144">
        <ele>208.2</ele>
        <time>2021-12-06T13:43:33Z</time>
      </trkpt>
      <trkpt lat="46.52475" lon="5.24154">
        <ele>208.2</ele>
        <time>2021-12-06T13:43:34Z</time>
      </trkpt>
      <trkpt lat="46.52478" lon="5.24176">
        <ele>208.2</ele>
        <time>2021-12-06T13:43:36Z</time>
      </trkpt>
      <trkpt lat="46.5248" lon="5.24186">
        <ele>208.2</ele>
        <time>2021-12-06T13:43:37Z</time>
      </trkpt>
      <trkpt lat="46.5249" lon="5.24266">
        <ele>207.4</ele>
        <time>2021-12-06T13:43:44Z</time>
      </trkpt>
      <trkpt lat="46.52498" lon="5.24324">
        <ele>206.6</ele>
        <time>2021-12-06T13:43:49Z</time>
      </trkpt>
      <trkpt lat="46.52509" lon="5.24403">
        <ele>205.6</ele>
        <time>2021-12-06T13:43:56Z</time>
      </trkpt>
      <trkpt lat="46.52511" lon="5.24414">
        <ele>205.6</ele>
        <time>2021-12-06T13:43:57Z</time>
      </trkpt>
      <trkpt lat="46.52521" lon="5.24476">
        <ele>205.8</ele>
        <time>2021-12-06T13:44:03Z</time>
      </trkpt>
      <trkpt lat="46.5254" lon="5.24538">
        <ele>206.6</ele>
        <time>2021-12-06T13:44:10Z</time>
      </trkpt>
      <trkpt lat="46.52544" lon="5.24547">
        <ele>206.8</ele>
        <time>2021-12-06T13:44:11Z</time>
      </trkpt>
      <trkpt lat="46.52565" lon="5.24606">
        <ele>208</ele>
        <time>2021-12-06T13:44:18Z</time>
      </trkpt>
      <trkpt lat="46.52571" lon="5.24624">
        <ele>208.2</ele>
        <time>2021-12-06T13:44:20Z</time>
      </trkpt>
      <trkpt lat="46.52582" lon="5.2468">
        <ele>208.6</ele>
        <time>2021-12-06T13:44:26Z</time>
      </trkpt>
      <trkpt lat="46.52585" lon="5.24752">
        <ele>209</ele>
        <time>2021-12-06T13:44:33Z</time>
      </trkpt>
      <trkpt lat="46.52588" lon="5.24835">
        <ele>208.8</ele>
        <time>2021-12-06T13:44:41Z</time>
      </trkpt>
      <trkpt lat="46.52589" lon="5.24856">
        <ele>208.6</ele>
        <time>2021-12-06T13:44:43Z</time>
      </trkpt>
      <trkpt lat="46.52595" lon="5.24936">
        <ele>208.6</ele>
        <time>2021-12-06T13:44:51Z</time>
      </trkpt>
      <trkpt lat="46.52608" lon="5.25015">
        <ele>208.6</ele>
        <time>2021-12-06T13:44:59Z</time>
      </trkpt>
      <trkpt lat="46.5261" lon="5.25045">
        <ele>209.2</ele>
        <time>2021-12-06T13:45:02Z</time>
      </trkpt>
      <trkpt lat="46.52614" lon="5.25124">
        <ele>210</ele>
        <time>2021-12-06T13:45:10Z</time>
      </trkpt>
      <trkpt lat="46.52615" lon="5.25155">
        <ele>210</ele>
        <time>2021-12-06T13:45:13Z</time>
      </trkpt>
      <trkpt lat="46.52618" lon="5.25236">
        <ele>210</ele>
        <time>2021-12-06T13:45:21Z</time>
      </trkpt>
      <trkpt lat="46.52626" lon="5.25305">
        <ele>210.4</ele>
        <time>2021-12-06T13:45:28Z</time>
      </trkpt>
      <trkpt lat="46.52642" lon="5.2535">
        <ele>210.6</ele>
        <time>2021-12-06T13:45:33Z</time>
      </trkpt>
      <trkpt lat="46.52671" lon="5.25399">
        <ele>210.4</ele>
        <time>2021-12-06T13:45:39Z</time>
      </trkpt>
      <trkpt lat="46.5271" lon="5.25454">
        <ele>210</ele>
        <time>2021-12-06T13:45:46Z</time>
      </trkpt>
      <trkpt lat="46.52714" lon="5.25463">
        <ele>210</ele>
        <time>2021-12-06T13:45:47Z</time>
      </trkpt>
      <trkpt lat="46.52717" lon="5.25474">
        <ele>209.8</ele>
        <time>2021-12-06T13:45:48Z</time>
      </trkpt>
      <trkpt lat="46.5272" lon="5.25495">
        <ele>209.6</ele>
        <time>2021-12-06T13:45:50Z</time>
      </trkpt>
      <trkpt lat="46.52718" lon="5.25575">
        <ele>208.8</ele>
        <time>2021-12-06T13:45:57Z</time>
      </trkpt>
      <trkpt lat="46.52715" lon="5.25654">
        <ele>208.4</ele>
        <time>2021-12-06T13:46:04Z</time>
      </trkpt>
      <trkpt lat="46.52714" lon="5.25687">
        <ele>208.4</ele>
        <time>2021-12-06T13:46:07Z</time>
      </trkpt>
      <trkpt lat="46.52707" lon="5.25735">
        <ele>208.4</ele>
        <time>2021-12-06T13:46:12Z</time>
      </trkpt>
      <trkpt lat="46.52692" lon="5.2579">
        <ele>208.2</ele>
        <time>2021-12-06T13:46:18Z</time>
      </trkpt>
      <trkpt lat="46.52691" lon="5.258">
        <ele>207.8</ele>
        <time>2021-12-06T13:46:19Z</time>
      </trkpt>
      <trkpt lat="46.5269" lon="5.2581">
        <ele>207.6</ele>
        <time>2021-12-06T13:46:20Z</time>
      </trkpt>
      <trkpt lat="46.52691" lon="5.25831">
        <ele>207</ele>
        <time>2021-12-06T13:46:22Z</time>
      </trkpt>
      <trkpt lat="46.52691" lon="5.25853">
        <ele>206.6</ele>
        <time>2021-12-06T13:46:24Z</time>
      </trkpt>
      <trkpt lat="46.5269" lon="5.25876">
        <ele>206.2</ele>
        <time>2021-12-06T13:46:26Z</time>
      </trkpt>
      <trkpt lat="46.52688" lon="5.25888">
        <ele>206.2</ele>
        <time>2021-12-06T13:46:27Z</time>
      </trkpt>
      <trkpt lat="46.52685" lon="5.259">
        <ele>205.8</ele>
        <time>2021-12-06T13:46:28Z</time>
      </trkpt>
      <trkpt lat="46.52681" lon="5.25911">
        <ele>205.4</ele>
        <time>2021-12-06T13:46:29Z</time>
      </trkpt>
      <trkpt lat="46.52676" lon="5.25922">
        <ele>204.8</ele>
        <time>2021-12-06T13:46:30Z</time>
      </trkpt>
      <trkpt lat="46.5267" lon="5.25931">
        <ele>204.2</ele>
        <time>2021-12-06T13:46:31Z</time>
      </trkpt>
      <trkpt lat="46.52662" lon="5.25939">
        <ele>203.8</ele>
        <time>2021-12-06T13:46:32Z</time>
      </trkpt>
      <trkpt lat="46.52654" lon="5.25943">
        <ele>203.4</ele>
        <time>2021-12-06T13:46:33Z</time>
      </trkpt>
      <trkpt lat="46.52645" lon="5.25946">
        <ele>202.8</ele>
        <time>2021-12-06T13:46:34Z</time>
      </trkpt>
      <trkpt lat="46.52625" lon="5.25953">
        <ele>201.6</ele>
        <time>2021-12-06T13:46:36Z</time>
      </trkpt>
      <trkpt lat="46.52618" lon="5.2596">
        <ele>200.4</ele>
        <time>2021-12-06T13:46:37Z</time>
      </trkpt>
      <trkpt lat="46.52611" lon="5.2597">
        <ele>199.4</ele>
        <time>2021-12-06T13:46:38Z</time>
      </trkpt>
      <trkpt lat="46.52603" lon="5.25996">
        <ele>197.8</ele>
        <time>2021-12-06T13:46:40Z</time>
      </trkpt>
      <trkpt lat="46.52599" lon="5.26009">
        <ele>197.2</ele>
        <time>2021-12-06T13:46:41Z</time>
      </trkpt>
      <trkpt lat="46.52597" lon="5.26024">
        <ele>196.4</ele>
        <time>2021-12-06T13:46:42Z</time>
      </trkpt>
      <trkpt lat="46.5259" lon="5.26055">
        <ele>194.8</ele>
        <time>2021-12-06T13:46:44Z</time>
      </trkpt>
      <trkpt lat="46.52582" lon="5.26083">
        <ele>193.2</ele>
        <time>2021-12-06T13:46:46Z</time>
      </trkpt>
      <trkpt lat="46.52571" lon="5.26103">
        <ele>191.6</ele>
        <time>2021-12-06T13:46:48Z</time>
      </trkpt>
      <trkpt lat="46.52564" lon="5.26109">
        <ele>190.6</ele>
        <time>2021-12-06T13:46:49Z</time>
      </trkpt>
      <trkpt lat="46.52555" lon="5.26113">
        <ele>190</ele>
        <time>2021-12-06T13:46:50Z</time>
      </trkpt>
      <trkpt lat="46.52546" lon="5.26115">
        <ele>189.6</ele>
        <time>2021-12-06T13:46:51Z</time>
      </trkpt>
      <trkpt lat="46.52536" lon="5.26116">
        <ele>189.2</ele>
        <time>2021-12-06T13:46:52Z</time>
      </trkpt>
      <trkpt lat="46.52527" lon="5.26118">
        <ele>188.6</ele>
        <time>2021-12-06T13:46:53Z</time>
      </trkpt>
      <trkpt lat="46.52519" lon="5.26122">
        <ele>188.2</ele>
        <time>2021-12-06T13:46:54Z</time>
      </trkpt>
      <trkpt lat="46.52512" lon="5.26129">
        <ele>187.6</ele>
        <time>2021-12-06T13:46:55Z</time>
      </trkpt>
      <trkpt lat="46.52506" lon="5.26139">
        <ele>187</ele>
        <time>2021-12-06T13:46:56Z</time>
      </trkpt>
      <trkpt lat="46.52502" lon="5.26148">
        <ele>186.8</ele>
        <time>2021-12-06T13:46:57Z</time>
      </trkpt>
      <trkpt lat="46.52498" lon="5.26158">
        <ele>186.6</ele>
        <time>2021-12-06T13:46:58Z</time>
      </trkpt>
      <trkpt lat="46.5247" lon="5.26231">
        <ele>186</ele>
        <time>2021-12-06T13:47:05Z</time>
      </trkpt>
      <trkpt lat="46.52462" lon="5.26251">
        <ele>186</ele>
        <time>2021-12-06T13:47:07Z</time>
      </trkpt>
      <trkpt lat="46.52443" lon="5.26302">
        <ele>186</ele>
        <time>2021-12-06T13:47:12Z</time>
      </trkpt>
      <trkpt lat="46.52415" lon="5.26379">
        <ele>186</ele>
        <time>2021-12-06T13:47:20Z</time>
      </trkpt>
      <trkpt lat="46.52387" lon="5.26439">
        <ele>186.4</ele>
        <time>2021-12-06T13:47:27Z</time>
      </trkpt>
      <trkpt lat="46.52376" lon="5.26452">
        <ele>186.6</ele>
        <time>2021-12-06T13:47:29Z</time>
      </trkpt>
      <trkpt lat="46.52363" lon="5.2646">
        <ele>186.8</ele>
        <time>2021-12-06T13:47:31Z</time>
      </trkpt>
      <trkpt lat="46.52357" lon="5.26463">
        <ele>187</ele>
        <time>2021-12-06T13:47:32Z</time>
      </trkpt>
      <trkpt lat="46.52334" lon="5.26473">
        <ele>187.6</ele>
        <time>2021-12-06T13:47:36Z</time>
      </trkpt>
      <trkpt lat="46.52319" lon="5.2648">
        <ele>188.2</ele>
        <time>2021-12-06T13:47:39Z</time>
      </trkpt>
      <trkpt lat="46.52315" lon="5.26482">
        <ele>188.4</ele>
        <time>2021-12-06T13:47:40Z</time>
      </trkpt>
      <trkpt lat="46.52307" lon="5.26485">
        <ele>189</ele>
        <time>2021-12-06T13:47:42Z</time>
      </trkpt>
      <trkpt lat="46.52306" lon="5.26486">
        <ele>189.4</ele>
        <time>2021-12-06T13:47:45Z</time>
      </trkpt>
      <trkpt lat="46.52297" lon="5.2649">
        <ele>190.4</ele>
        <time>2021-12-06T13:47:56Z</time>
      </trkpt>
      <trkpt lat="46.5229" lon="5.26494">
        <ele>190.4</ele>
        <time>2021-12-06T13:47:58Z</time>
      </trkpt>
      <trkpt lat="46.52281" lon="5.26499">
        <ele>190.4</ele>
        <time>2021-12-06T13:48:00Z</time>
      </trkpt>
      <trkpt lat="46.5226" lon="5.2651">
        <ele>191</ele>
        <time>2021-12-06T13:48:05Z</time>
      </trkpt>
      <trkpt lat="46.52246" lon="5.26516">
        <ele>191.4</ele>
        <time>2021-12-06T13:48:08Z</time>
      </trkpt>
      <trkpt lat="46.52223" lon="5.26526">
        <ele>192.4</ele>
        <time>2021-12-06T13:48:13Z</time>
      </trkpt>
      <trkpt lat="46.52209" lon="5.26534">
        <ele>193</ele>
        <time>2021-12-06T13:48:16Z</time>
      </trkpt>
      <trkpt lat="46.52196" lon="5.26543">
        <ele>193.6</ele>
        <time>2021-12-06T13:48:19Z</time>
      </trkpt>
      <trkpt lat="46.52191" lon="5.26547">
        <ele>193.8</ele>
        <time>2021-12-06T13:48:20Z</time>
      </trkpt>
      <trkpt lat="46.52169" lon="5.26578">
        <ele>194.4</ele>
        <time>2021-12-06T13:48:26Z</time>
      </trkpt>
      <trkpt lat="46.52165" lon="5.26584">
        <ele>194.6</ele>
        <time>2021-12-06T13:48:27Z</time>
      </trkpt>
      <trkpt lat="46.52141" lon="5.26628">
        <ele>195</ele>
        <time>2021-12-06T13:48:34Z</time>
      </trkpt>
      <trkpt lat="46.52112" lon="5.26665">
        <ele>195.4</ele>
        <time>2021-12-06T13:48:41Z</time>
      </trkpt>
      <trkpt lat="46.52108" lon="5.26669">
        <ele>195.6</ele>
        <time>2021-12-06T13:48:42Z</time>
      </trkpt>
      <trkpt lat="46.52082" lon="5.26691">
        <ele>196.8</ele>
        <time>2021-12-06T13:48:48Z</time>
      </trkpt>
      <trkpt lat="46.52071" lon="5.267">
        <ele>197.4</ele>
        <time>2021-12-06T13:48:51Z</time>
      </trkpt>
      <trkpt lat="46.52063" lon="5.26706">
        <ele>198</ele>
        <time>2021-12-06T13:48:53Z</time>
      </trkpt>
      <trkpt lat="46.52048" lon="5.26719">
        <ele>199</ele>
        <time>2021-12-06T13:48:57Z</time>
      </trkpt>
      <trkpt lat="46.52036" lon="5.26729">
        <ele>200</ele>
        <time>2021-12-06T13:49:00Z</time>
      </trkpt>
      <trkpt lat="46.52033" lon="5.26732">
        <ele>200</ele>
        <time>2021-12-06T13:49:01Z</time>
      </trkpt>
      <trkpt lat="46.52026" lon="5.26738">
        <ele>200.6</ele>
        <time>2021-12-06T13:49:03Z</time>
      </trkpt>
      <trkpt lat="46.52016" lon="5.26747">
        <ele>201.2</ele>
        <time>2021-12-06T13:49:06Z</time>
      </trkpt>
      <trkpt lat="46.52013" lon="5.26749">
        <ele>201.6</ele>
        <time>2021-12-06T13:49:07Z</time>
      </trkpt>
      <trkpt lat="46.52002" lon="5.26758">
        <ele>202.4</ele>
        <time>2021-12-06T13:49:10Z</time>
      </trkpt>
      <trkpt lat="46.51984" lon="5.26774">
        <ele>203.4</ele>
        <time>2021-12-06T13:49:15Z</time>
      </trkpt>
      <trkpt lat="46.51981" lon="5.26777">
        <ele>203.6</ele>
        <time>2021-12-06T13:49:16Z</time>
      </trkpt>
      <trkpt lat="46.51968" lon="5.26793">
        <ele>204.6</ele>
        <time>2021-12-06T13:49:20Z</time>
      </trkpt>
      <trkpt lat="46.5196" lon="5.26806">
        <ele>205.2</ele>
        <time>2021-12-06T13:49:23Z</time>
      </trkpt>
      <trkpt lat="46.51958" lon="5.26811">
        <ele>205.4</ele>
        <time>2021-12-06T13:49:24Z</time>
      </trkpt>
      <trkpt lat="46.51953" lon="5.26831">
        <ele>206.4</ele>
        <time>2021-12-06T13:49:28Z</time>
      </trkpt>
      <trkpt lat="46.51953" lon="5.26837">
        <ele>206.6</ele>
        <time>2021-12-06T13:49:29Z</time>
      </trkpt>
      <trkpt lat="46.51954" lon="5.26865">
        <ele>207.8</ele>
        <time>2021-12-06T13:49:34Z</time>
      </trkpt>
      <trkpt lat="46.51955" lon="5.2687">
        <ele>208</ele>
        <time>2021-12-06T13:49:35Z</time>
      </trkpt>
      <trkpt lat="46.51961" lon="5.26892">
        <ele>209</ele>
        <time>2021-12-06T13:49:39Z</time>
      </trkpt>
      <trkpt lat="46.51965" lon="5.26902">
        <ele>209.6</ele>
        <time>2021-12-06T13:49:41Z</time>
      </trkpt>
      <trkpt lat="46.51969" lon="5.26914">
        <ele>210</ele>
        <time>2021-12-06T13:49:43Z</time>
      </trkpt>
      <trkpt lat="46.51981" lon="5.26953">
        <ele>210.8</ele>
        <time>2021-12-06T13:49:49Z</time>
      </trkpt>
      <trkpt lat="46.51985" lon="5.26977">
        <ele>211</ele>
        <time>2021-12-06T13:49:52Z</time>
      </trkpt>
      <trkpt lat="46.51989" lon="5.27003">
        <ele>211</ele>
        <time>2021-12-06T13:49:55Z</time>
      </trkpt>
      <trkpt lat="46.51995" lon="5.27065">
        <ele>210.4</ele>
        <time>2021-12-06T13:50:01Z</time>
      </trkpt>
      <trkpt lat="46.51997" lon="5.27087">
        <ele>209.6</ele>
        <time>2021-12-06T13:50:03Z</time>
      </trkpt>
      <trkpt lat="46.52003" lon="5.27145">
        <ele>208.6</ele>
        <time>2021-12-06T13:50:08Z</time>
      </trkpt>
      <trkpt lat="46.52013" lon="5.27192">
        <ele>207.2</ele>
        <time>2021-12-06T13:50:12Z</time>
      </trkpt>
      <trkpt lat="46.52019" lon="5.27216">
        <ele>206.4</ele>
        <time>2021-12-06T13:50:14Z</time>
      </trkpt>
      <trkpt lat="46.52023" lon="5.27228">
        <ele>206.2</ele>
        <time>2021-12-06T13:50:15Z</time>
      </trkpt>
      <trkpt lat="46.52032" lon="5.2725">
        <ele>204.8</ele>
        <time>2021-12-06T13:50:17Z</time>
      </trkpt>
      <trkpt lat="46.52037" lon="5.2726">
        <ele>204.6</ele>
        <time>2021-12-06T13:50:18Z</time>
      </trkpt>
      <trkpt lat="46.52043" lon="5.27269">
        <ele>204</ele>
        <time>2021-12-06T13:50:19Z</time>
      </trkpt>
      <trkpt lat="46.52051" lon="5.27277">
        <ele>203.8</ele>
        <time>2021-12-06T13:50:20Z</time>
      </trkpt>
      <trkpt lat="46.52067" lon="5.27289">
        <ele>203.2</ele>
        <time>2021-12-06T13:50:22Z</time>
      </trkpt>
      <trkpt lat="46.52076" lon="5.27294">
        <ele>202.4</ele>
        <time>2021-12-06T13:50:23Z</time>
      </trkpt>
      <trkpt lat="46.52103" lon="5.27309">
        <ele>201.2</ele>
        <time>2021-12-06T13:50:26Z</time>
      </trkpt>
      <trkpt lat="46.52116" lon="5.27329">
        <ele>200.4</ele>
        <time>2021-12-06T13:50:28Z</time>
      </trkpt>
      <trkpt lat="46.5212" lon="5.27342">
        <ele>200.2</ele>
        <time>2021-12-06T13:50:29Z</time>
      </trkpt>
      <trkpt lat="46.52122" lon="5.27356">
        <ele>199.8</ele>
        <time>2021-12-06T13:50:30Z</time>
      </trkpt>
      <trkpt lat="46.52121" lon="5.27385">
        <ele>199.2</ele>
        <time>2021-12-06T13:50:32Z</time>
      </trkpt>
      <trkpt lat="46.52115" lon="5.27412">
        <ele>198.2</ele>
        <time>2021-12-06T13:50:34Z</time>
      </trkpt>
      <trkpt lat="46.5211" lon="5.27424">
        <ele>197.4</ele>
        <time>2021-12-06T13:50:35Z</time>
      </trkpt>
      <trkpt lat="46.52105" lon="5.27436">
        <ele>197.2</ele>
        <time>2021-12-06T13:50:36Z</time>
      </trkpt>
      <trkpt lat="46.52099" lon="5.27447">
        <ele>196.6</ele>
        <time>2021-12-06T13:50:37Z</time>
      </trkpt>
      <trkpt lat="46.52086" lon="5.27468">
        <ele>195.4</ele>
        <time>2021-12-06T13:50:39Z</time>
      </trkpt>
      <trkpt lat="46.52063" lon="5.27497">
        <ele>194.2</ele>
        <time>2021-12-06T13:50:42Z</time>
      </trkpt>
      <trkpt lat="46.52048" lon="5.27516">
        <ele>193</ele>
        <time>2021-12-06T13:50:44Z</time>
      </trkpt>
      <trkpt lat="46.52041" lon="5.27526">
        <ele>192.6</ele>
        <time>2021-12-06T13:50:45Z</time>
      </trkpt>
      <trkpt lat="46.52025" lon="5.27545">
        <ele>191.8</ele>
        <time>2021-12-06T13:50:47Z</time>
      </trkpt>
      <trkpt lat="46.52004" lon="5.27574">
        <ele>190.2</ele>
        <time>2021-12-06T13:50:50Z</time>
      </trkpt>
      <trkpt lat="46.51977" lon="5.27609">
        <ele>189.2</ele>
        <time>2021-12-06T13:50:54Z</time>
      </trkpt>
      <trkpt lat="46.5197" lon="5.27618">
        <ele>189</ele>
        <time>2021-12-06T13:50:55Z</time>
      </trkpt>
      <trkpt lat="46.5194" lon="5.27657">
        <ele>189</ele>
        <time>2021-12-06T13:51:00Z</time>
      </trkpt>
      <trkpt lat="46.51907" lon="5.27694">
        <ele>190</ele>
        <time>2021-12-06T13:51:06Z</time>
      </trkpt>
      <trkpt lat="46.51898" lon="5.27705">
        <ele>190.6</ele>
        <time>2021-12-06T13:51:08Z</time>
      </trkpt>
      <trkpt lat="46.51878" lon="5.27725">
        <ele>191.8</ele>
        <time>2021-12-06T13:51:12Z</time>
      </trkpt>
      <trkpt lat="46.51874" lon="5.2773">
        <ele>192.2</ele>
        <time>2021-12-06T13:51:13Z</time>
      </trkpt>
      <trkpt lat="46.5186" lon="5.27744">
        <ele>192.8</ele>
        <time>2021-12-06T13:51:16Z</time>
      </trkpt>
      <trkpt lat="46.51842" lon="5.2776">
        <ele>194</ele>
        <time>2021-12-06T13:51:20Z</time>
      </trkpt>
      <trkpt lat="46.51825" lon="5.27777">
        <ele>195.2</ele>
        <time>2021-12-06T13:51:24Z</time>
      </trkpt>
      <trkpt lat="46.51813" lon="5.27789">
        <ele>195.8</ele>
        <time>2021-12-06T13:51:27Z</time>
      </trkpt>
      <trkpt lat="46.51805" lon="5.27797">
        <ele>196.4</ele>
        <time>2021-12-06T13:51:29Z</time>
      </trkpt>
      <trkpt lat="46.51786" lon="5.27818">
        <ele>197.4</ele>
        <time>2021-12-06T13:51:34Z</time>
      </trkpt>
      <trkpt lat="46.51778" lon="5.27826">
        <ele>198</ele>
        <time>2021-12-06T13:51:36Z</time>
      </trkpt>
      <trkpt lat="46.51771" lon="5.27834">
        <ele>198.6</ele>
        <time>2021-12-06T13:51:38Z</time>
      </trkpt>
      <trkpt lat="46.51748" lon="5.27856">
        <ele>199.6</ele>
        <time>2021-12-06T13:51:44Z</time>
      </trkpt>
      <trkpt lat="46.51741" lon="5.27864">
        <ele>199.8</ele>
        <time>2021-12-06T13:51:46Z</time>
      </trkpt>
      <trkpt lat="46.5173" lon="5.27875">
        <ele>200.8</ele>
        <time>2021-12-06T13:51:49Z</time>
      </trkpt>
      <trkpt lat="46.51711" lon="5.27896">
        <ele>202</ele>
        <time>2021-12-06T13:51:54Z</time>
      </trkpt>
      <trkpt lat="46.51707" lon="5.279">
        <ele>202.2</ele>
        <time>2021-12-06T13:51:55Z</time>
      </trkpt>
      <trkpt lat="46.51674" lon="5.27933">
        <ele>203.2</ele>
        <time>2021-12-06T13:52:03Z</time>
      </trkpt>
      <trkpt lat="46.51665" lon="5.27941">
        <ele>203.4</ele>
        <time>2021-12-06T13:52:05Z</time>
      </trkpt>
      <trkpt lat="46.51627" lon="5.27979">
        <ele>204.4</ele>
        <time>2021-12-06T13:52:14Z</time>
      </trkpt>
      <trkpt lat="46.51623" lon="5.27984">
        <ele>204.4</ele>
        <time>2021-12-06T13:52:15Z</time>
      </trkpt>
      <trkpt lat="46.51598" lon="5.2802">
        <ele>204.6</ele>
        <time>2021-12-06T13:52:21Z</time>
      </trkpt>
      <trkpt lat="46.51591" lon="5.28036">
        <ele>204.6</ele>
        <time>2021-12-06T13:52:23Z</time>
      </trkpt>
      <trkpt lat="46.51581" lon="5.28065">
        <ele>204.4</ele>
        <time>2021-12-06T13:52:26Z</time>
      </trkpt>
      <trkpt lat="46.51569" lon="5.28106">
        <ele>203.2</ele>
        <time>2021-12-06T13:52:30Z</time>
      </trkpt>
      <trkpt lat="46.51564" lon="5.28128">
        <ele>202.4</ele>
        <time>2021-12-06T13:52:32Z</time>
      </trkpt>
      <trkpt lat="46.51557" lon="5.2815">
        <ele>201.8</ele>
        <time>2021-12-06T13:52:34Z</time>
      </trkpt>
      <trkpt lat="46.51546" lon="5.28184">
        <ele>200.6</ele>
        <time>2021-12-06T13:52:37Z</time>
      </trkpt>
      <trkpt lat="46.51542" lon="5.28195">
        <ele>200.4</ele>
        <time>2021-12-06T13:52:38Z</time>
      </trkpt>
      <trkpt lat="46.51524" lon="5.28239">
        <ele>199.2</ele>
        <time>2021-12-06T13:52:42Z</time>
      </trkpt>
      <trkpt lat="46.51514" lon="5.2826">
        <ele>198.6</ele>
        <time>2021-12-06T13:52:44Z</time>
      </trkpt>
      <trkpt lat="46.51509" lon="5.28271">
        <ele>198</ele>
        <time>2021-12-06T13:52:45Z</time>
      </trkpt>
      <trkpt lat="46.51492" lon="5.28303">
        <ele>196.2</ele>
        <time>2021-12-06T13:52:48Z</time>
      </trkpt>
      <trkpt lat="46.51476" lon="5.28335">
        <ele>195.2</ele>
        <time>2021-12-06T13:52:51Z</time>
      </trkpt>
      <trkpt lat="46.51454" lon="5.28377">
        <ele>193.6</ele>
        <time>2021-12-06T13:52:55Z</time>
      </trkpt>
      <trkpt lat="46.51432" lon="5.28421">
        <ele>192.2</ele>
        <time>2021-12-06T13:52:59Z</time>
      </trkpt>
      <trkpt lat="46.51423" lon="5.28444">
        <ele>191.2</ele>
        <time>2021-12-06T13:53:01Z</time>
      </trkpt>
      <trkpt lat="46.5142" lon="5.28456">
        <ele>191</ele>
        <time>2021-12-06T13:53:02Z</time>
      </trkpt>
      <trkpt lat="46.51419" lon="5.28469">
        <ele>190.4</ele>
        <time>2021-12-06T13:53:03Z</time>
      </trkpt>
      <trkpt lat="46.51419" lon="5.28483">
        <ele>190</ele>
        <time>2021-12-06T13:53:04Z</time>
      </trkpt>
      <trkpt lat="46.51421" lon="5.28496">
        <ele>189.8</ele>
        <time>2021-12-06T13:53:05Z</time>
      </trkpt>
      <trkpt lat="46.51428" lon="5.28521">
        <ele>189.4</ele>
        <time>2021-12-06T13:53:07Z</time>
      </trkpt>
      <trkpt lat="46.5144" lon="5.28556">
        <ele>188.6</ele>
        <time>2021-12-06T13:53:10Z</time>
      </trkpt>
      <trkpt lat="46.51459" lon="5.28614">
        <ele>188</ele>
        <time>2021-12-06T13:53:15Z</time>
      </trkpt>
      <trkpt lat="46.51486" lon="5.28693">
        <ele>187.8</ele>
        <time>2021-12-06T13:53:22Z</time>
      </trkpt>
      <trkpt lat="46.51493" lon="5.28715">
        <ele>187.8</ele>
        <time>2021-12-06T13:53:24Z</time>
      </trkpt>
      <trkpt lat="46.51505" lon="5.28767">
        <ele>187.6</ele>
        <time>2021-12-06T13:53:29Z</time>
      </trkpt>
      <trkpt lat="46.51509" lon="5.28811">
        <ele>187.8</ele>
        <time>2021-12-06T13:53:33Z</time>
      </trkpt>
      <trkpt lat="46.51508" lon="5.28822">
        <ele>187.8</ele>
        <time>2021-12-06T13:53:34Z</time>
      </trkpt>
      <trkpt lat="46.51507" lon="5.28833">
        <ele>187.8</ele>
        <time>2021-12-06T13:53:35Z</time>
      </trkpt>
      <trkpt lat="46.51498" lon="5.28877">
        <ele>187.8</ele>
        <time>2021-12-06T13:53:39Z</time>
      </trkpt>
      <trkpt lat="46.51493" lon="5.28909">
        <ele>187.6</ele>
        <time>2021-12-06T13:53:42Z</time>
      </trkpt>
      <trkpt lat="46.51481" lon="5.2898">
        <ele>187.4</ele>
        <time>2021-12-06T13:53:49Z</time>
      </trkpt>
      <trkpt lat="46.51469" lon="5.29047">
        <ele>188.2</ele>
        <time>2021-12-06T13:53:56Z</time>
      </trkpt>
      <trkpt lat="46.51462" lon="5.29083">
        <ele>188.8</ele>
        <time>2021-12-06T13:54:00Z</time>
      </trkpt>
      <trkpt lat="46.51455" lon="5.29129">
        <ele>189.4</ele>
        <time>2021-12-06T13:54:05Z</time>
      </trkpt>
      <trkpt lat="46.51436" lon="5.29209">
        <ele>189.8</ele>
        <time>2021-12-06T13:54:14Z</time>
      </trkpt>
      <trkpt lat="46.51433" lon="5.29216">
        <ele>189.8</ele>
        <time>2021-12-06T13:54:15Z</time>
      </trkpt>
      <trkpt lat="46.51416" lon="5.29243">
        <ele>189.8</ele>
        <time>2021-12-06T13:54:19Z</time>
      </trkpt>
      <trkpt lat="46.51387" lon="5.29293">
        <ele>190.2</ele>
        <time>2021-12-06T13:54:26Z</time>
      </trkpt>
      <trkpt lat="46.51359" lon="5.29337">
        <ele>190</ele>
        <time>2021-12-06T13:54:32Z</time>
      </trkpt>
      <trkpt lat="46.51353" lon="5.29343">
        <ele>190</ele>
        <time>2021-12-06T13:54:33Z</time>
      </trkpt>
      <trkpt lat="46.51334" lon="5.29356">
        <ele>189.8</ele>
        <time>2021-12-06T13:54:36Z</time>
      </trkpt>
      <trkpt lat="46.51283" lon="5.29385">
        <ele>189.6</ele>
        <time>2021-12-06T13:54:44Z</time>
      </trkpt>
      <trkpt lat="46.51264" lon="5.29393">
        <ele>189.6</ele>
        <time>2021-12-06T13:54:47Z</time>
      </trkpt>
      <trkpt lat="46.51218" lon="5.29403">
        <ele>189.6</ele>
        <time>2021-12-06T13:54:54Z</time>
      </trkpt>
      <trkpt lat="46.51165" lon="5.29417">
        <ele>190.4</ele>
        <time>2021-12-06T13:55:03Z</time>
      </trkpt>
      <trkpt lat="46.51159" lon="5.29418">
        <ele>190.4</ele>
        <time>2021-12-06T13:55:04Z</time>
      </trkpt>
      <trkpt lat="46.51147" lon="5.29422">
        <ele>190.8</ele>
        <time>2021-12-06T13:55:06Z</time>
      </trkpt>
      <trkpt lat="46.51094" lon="5.29437">
        <ele>191.2</ele>
        <time>2021-12-06T13:55:15Z</time>
      </trkpt>
      <trkpt lat="46.51049" lon="5.29459">
        <ele>191.4</ele>
        <time>2021-12-06T13:55:23Z</time>
      </trkpt>
      <trkpt lat="46.51024" lon="5.29475">
        <ele>192</ele>
        <time>2021-12-06T13:55:28Z</time>
      </trkpt>
      <trkpt lat="46.5101" lon="5.29486">
        <ele>192.8</ele>
        <time>2021-12-06T13:55:31Z</time>
      </trkpt>
      <trkpt lat="46.50998" lon="5.29496">
        <ele>193</ele>
        <time>2021-12-06T13:55:34Z</time>
      </trkpt>
      <trkpt lat="46.50979" lon="5.29511">
        <ele>193.8</ele>
        <time>2021-12-06T13:55:39Z</time>
      </trkpt>
      <trkpt lat="46.50975" lon="5.29515">
        <ele>194.4</ele>
        <time>2021-12-06T13:55:40Z</time>
      </trkpt>
      <trkpt lat="46.50952" lon="5.29534">
        <ele>195.8</ele>
        <time>2021-12-06T13:55:46Z</time>
      </trkpt>
      <trkpt lat="46.50949" lon="5.29536">
        <ele>196</ele>
        <time>2021-12-06T13:55:47Z</time>
      </trkpt>
      <trkpt lat="46.50942" lon="5.29542">
        <ele>196.8</ele>
        <time>2021-12-06T13:55:49Z</time>
      </trkpt>
      <trkpt lat="46.50925" lon="5.29555">
        <ele>197.8</ele>
        <time>2021-12-06T13:55:54Z</time>
      </trkpt>
      <trkpt lat="46.50918" lon="5.29559">
        <ele>198.8</ele>
        <time>2021-12-06T13:55:56Z</time>
      </trkpt>
      <trkpt lat="46.50915" lon="5.29561">
        <ele>199</ele>
        <time>2021-12-06T13:55:57Z</time>
      </trkpt>
      <trkpt lat="46.509" lon="5.29568">
        <ele>200</ele>
        <time>2021-12-06T13:56:01Z</time>
      </trkpt>
      <trkpt lat="46.50886" lon="5.29572">
        <ele>201.2</ele>
        <time>2021-12-06T13:56:05Z</time>
      </trkpt>
      <trkpt lat="46.50872" lon="5.29571">
        <ele>202.2</ele>
        <time>2021-12-06T13:56:09Z</time>
      </trkpt>
      <trkpt lat="46.50861" lon="5.2957">
        <ele>202.8</ele>
        <time>2021-12-06T13:56:12Z</time>
      </trkpt>
      <trkpt lat="46.50858" lon="5.2957">
        <ele>203.4</ele>
        <time>2021-12-06T13:56:13Z</time>
      </trkpt>
      <trkpt lat="46.50848" lon="5.29569">
        <ele>204.4</ele>
        <time>2021-12-06T13:56:16Z</time>
      </trkpt>
      <trkpt lat="46.50833" lon="5.29567">
        <ele>205.2</ele>
        <time>2021-12-06T13:56:20Z</time>
      </trkpt>
      <trkpt lat="46.50825" lon="5.29566">
        <ele>205.6</ele>
        <time>2021-12-06T13:56:22Z</time>
      </trkpt>
      <trkpt lat="46.50799" lon="5.29564">
        <ele>206.8</ele>
        <time>2021-12-06T13:56:29Z</time>
      </trkpt>
      <trkpt lat="46.50796" lon="5.29563">
        <ele>206.8</ele>
        <time>2021-12-06T13:56:30Z</time>
      </trkpt>
      <trkpt lat="46.50778" lon="5.29563">
        <ele>207.8</ele>
        <time>2021-12-06T13:56:35Z</time>
      </trkpt>
      <trkpt lat="46.50764" lon="5.29561">
        <ele>208.6</ele>
        <time>2021-12-06T13:56:39Z</time>
      </trkpt>
      <trkpt lat="46.50757" lon="5.29559">
        <ele>209</ele>
        <time>2021-12-06T13:56:41Z</time>
      </trkpt>
      <trkpt lat="46.5074" lon="5.29554">
        <ele>210</ele>
        <time>2021-12-06T13:56:46Z</time>
      </trkpt>
      <trkpt lat="46.50729" lon="5.29549">
        <ele>210.6</ele>
        <time>2021-12-06T13:56:49Z</time>
      </trkpt>
      <trkpt lat="46.50714" lon="5.29542">
        <ele>211</ele>
        <time>2021-12-06T13:56:53Z</time>
      </trkpt>
      <trkpt lat="46.50691" lon="5.29531">
        <ele>212</ele>
        <time>2021-12-06T13:56:59Z</time>
      </trkpt>
      <trkpt lat="46.50683" lon="5.29528">
        <ele>212.4</ele>
        <time>2021-12-06T13:57:01Z</time>
      </trkpt>
      <trkpt lat="46.50653" lon="5.29522">
        <ele>213.4</ele>
        <time>2021-12-06T13:57:08Z</time>
      </trkpt>
      <trkpt lat="46.50649" lon="5.29523">
        <ele>213.6</ele>
        <time>2021-12-06T13:57:09Z</time>
      </trkpt>
      <trkpt lat="46.5064" lon="5.29526">
        <ele>213.8</ele>
        <time>2021-12-06T13:57:11Z</time>
      </trkpt>
      <trkpt lat="46.50627" lon="5.29534">
        <ele>214.2</ele>
        <time>2021-12-06T13:57:14Z</time>
      </trkpt>
      <trkpt lat="46.50613" lon="5.29545">
        <ele>214.6</ele>
        <time>2021-12-06T13:57:17Z</time>
      </trkpt>
      <trkpt lat="46.50588" lon="5.29564">
        <ele>214.8</ele>
        <time>2021-12-06T13:57:22Z</time>
      </trkpt>
      <trkpt lat="46.50542" lon="5.296">
        <ele>214.8</ele>
        <time>2021-12-06T13:57:31Z</time>
      </trkpt>
      <trkpt lat="46.50492" lon="5.29636">
        <ele>215.2</ele>
        <time>2021-12-06T13:57:40Z</time>
      </trkpt>
      <trkpt lat="46.50445" lon="5.29668">
        <ele>215.2</ele>
        <time>2021-12-06T13:57:48Z</time>
      </trkpt>
      <trkpt lat="46.50391" lon="5.29703">
        <ele>215.4</ele>
        <time>2021-12-06T13:57:57Z</time>
      </trkpt>
      <trkpt lat="46.50385" lon="5.29707">
        <ele>215.4</ele>
        <time>2021-12-06T13:57:58Z</time>
      </trkpt>
      <trkpt lat="46.50329" lon="5.29734">
        <ele>215.4</ele>
        <time>2021-12-06T13:58:07Z</time>
      </trkpt>
      <trkpt lat="46.50322" lon="5.29736">
        <ele>215.4</ele>
        <time>2021-12-06T13:58:08Z</time>
      </trkpt>
      <trkpt lat="46.50275" lon="5.29756">
        <ele>215.4</ele>
        <time>2021-12-06T13:58:15Z</time>
      </trkpt>
      <trkpt lat="46.50232" lon="5.29768">
        <ele>214.8</ele>
        <time>2021-12-06T13:58:21Z</time>
      </trkpt>
      <trkpt lat="46.50189" lon="5.29767">
        <ele>214.2</ele>
        <time>2021-12-06T13:58:27Z</time>
      </trkpt>
      <trkpt lat="46.5014" lon="5.29772">
        <ele>213.8</ele>
        <time>2021-12-06T13:58:34Z</time>
      </trkpt>
      <trkpt lat="46.50124" lon="5.29776">
        <ele>213.6</ele>
        <time>2021-12-06T13:58:36Z</time>
      </trkpt>
      <trkpt lat="46.50093" lon="5.29786">
        <ele>212.6</ele>
        <time>2021-12-06T13:58:40Z</time>
      </trkpt>
      <trkpt lat="46.50085" lon="5.29789">
        <ele>212</ele>
        <time>2021-12-06T13:58:41Z</time>
      </trkpt>
      <trkpt lat="46.50055" lon="5.29804">
        <ele>210.8</ele>
        <time>2021-12-06T13:58:45Z</time>
      </trkpt>
      <trkpt lat="46.50049" lon="5.2981">
        <ele>210.6</ele>
        <time>2021-12-06T13:58:46Z</time>
      </trkpt>
      <trkpt lat="46.50042" lon="5.29817">
        <ele>209.8</ele>
        <time>2021-12-06T13:58:47Z</time>
      </trkpt>
      <trkpt lat="46.50036" lon="5.29825">
        <ele>209.4</ele>
        <time>2021-12-06T13:58:48Z</time>
      </trkpt>
      <trkpt lat="46.50026" lon="5.2984">
        <ele>208.8</ele>
        <time>2021-12-06T13:58:50Z</time>
      </trkpt>
      <trkpt lat="46.50022" lon="5.29848">
        <ele>208.8</ele>
        <time>2021-12-06T13:58:51Z</time>
      </trkpt>
      <trkpt lat="46.5002" lon="5.29856">
        <ele>208.6</ele>
        <time>2021-12-06T13:58:52Z</time>
      </trkpt>
      <trkpt lat="46.5002" lon="5.29865">
        <ele>208.6</ele>
        <time>2021-12-06T13:58:53Z</time>
      </trkpt>
      <trkpt lat="46.50025" lon="5.2988">
        <ele>208.6</ele>
        <time>2021-12-06T13:58:55Z</time>
      </trkpt>
      <trkpt lat="46.5003" lon="5.29886">
        <ele>208.6</ele>
        <time>2021-12-06T13:58:56Z</time>
      </trkpt>
      <trkpt lat="46.50057" lon="5.2992">
        <ele>208.8</ele>
        <time>2021-12-06T13:59:01Z</time>
      </trkpt>
      <trkpt lat="46.50066" lon="5.29937">
        <ele>209</ele>
        <time>2021-12-06T13:59:03Z</time>
      </trkpt>
      <trkpt lat="46.50076" lon="5.29966">
        <ele>209</ele>
        <time>2021-12-06T13:59:06Z</time>
      </trkpt>
      <trkpt lat="46.5008" lon="5.29985">
        <ele>209.4</ele>
        <time>2021-12-06T13:59:08Z</time>
      </trkpt>
      <trkpt lat="46.50084" lon="5.30014">
        <ele>209.8</ele>
        <time>2021-12-06T13:59:11Z</time>
      </trkpt>
      <trkpt lat="46.50088" lon="5.30085">
        <ele>210.6</ele>
        <time>2021-12-06T13:59:18Z</time>
      </trkpt>
      <trkpt lat="46.50087" lon="5.30172">
        <ele>210.2</ele>
        <time>2021-12-06T13:59:26Z</time>
      </trkpt>
      <trkpt lat="46.50087" lon="5.30184">
        <ele>210.2</ele>
        <time>2021-12-06T13:59:27Z</time>
      </trkpt>
      <trkpt lat="46.50086" lon="5.30216">
        <ele>209.6</ele>
        <time>2021-12-06T13:59:30Z</time>
      </trkpt>
      <trkpt lat="46.50086" lon="5.30237">
        <ele>209.6</ele>
        <time>2021-12-06T13:59:32Z</time>
      </trkpt>
      <trkpt lat="46.5008" lon="5.30306">
        <ele>209</ele>
        <time>2021-12-06T13:59:38Z</time>
      </trkpt>
      <trkpt lat="46.50077" lon="5.30317">
        <ele>208.8</ele>
        <time>2021-12-06T13:59:39Z</time>
      </trkpt>
      <trkpt lat="46.50074" lon="5.30329">
        <ele>208.6</ele>
        <time>2021-12-06T13:59:40Z</time>
      </trkpt>
      <trkpt lat="46.50065" lon="5.30351">
        <ele>208</ele>
        <time>2021-12-06T13:59:42Z</time>
      </trkpt>
      <trkpt lat="46.50054" lon="5.30371">
        <ele>207.2</ele>
        <time>2021-12-06T13:59:44Z</time>
      </trkpt>
      <trkpt lat="46.5004" lon="5.30388">
        <ele>206.6</ele>
        <time>2021-12-06T13:59:46Z</time>
      </trkpt>
      <trkpt lat="46.50026" lon="5.30401">
        <ele>206</ele>
        <time>2021-12-06T13:59:48Z</time>
      </trkpt>
      <trkpt lat="46.50005" lon="5.30418">
        <ele>205.2</ele>
        <time>2021-12-06T13:59:51Z</time>
      </trkpt>
      <trkpt lat="46.4997" lon="5.30448">
        <ele>205.8</ele>
        <time>2021-12-06T13:59:57Z</time>
      </trkpt>
      <trkpt lat="46.4995" lon="5.30481">
        <ele>207</ele>
        <time>2021-12-06T14:00:02Z</time>
      </trkpt>
      <trkpt lat="46.49943" lon="5.30496">
        <ele>207.4</ele>
        <time>2021-12-06T14:00:04Z</time>
      </trkpt>
      <trkpt lat="46.49938" lon="5.30512">
        <ele>208</ele>
        <time>2021-12-06T14:00:06Z</time>
      </trkpt>
      <trkpt lat="46.49934" lon="5.30527">
        <ele>208.4</ele>
        <time>2021-12-06T14:00:08Z</time>
      </trkpt>
      <trkpt lat="46.49931" lon="5.3055">
        <ele>209.2</ele>
        <time>2021-12-06T14:00:11Z</time>
      </trkpt>
      <trkpt lat="46.4993" lon="5.30558">
        <ele>209.4</ele>
        <time>2021-12-06T14:00:12Z</time>
      </trkpt>
      <trkpt lat="46.49929" lon="5.30574">
        <ele>210</ele>
        <time>2021-12-06T14:00:14Z</time>
      </trkpt>
      <trkpt lat="46.4993" lon="5.30582">
        <ele>210.4</ele>
        <time>2021-12-06T14:00:15Z</time>
      </trkpt>
      <trkpt lat="46.49932" lon="5.30615">
        <ele>211.4</ele>
        <time>2021-12-06T14:00:19Z</time>
      </trkpt>
      <trkpt lat="46.49935" lon="5.30632">
        <ele>211.8</ele>
        <time>2021-12-06T14:00:21Z</time>
      </trkpt>
      <trkpt lat="46.49941" lon="5.30666">
        <ele>212.6</ele>
        <time>2021-12-06T14:00:25Z</time>
      </trkpt>
      <trkpt lat="46.49947" lon="5.30698">
        <ele>213.4</ele>
        <time>2021-12-06T14:00:29Z</time>
      </trkpt>
      <trkpt lat="46.4995" lon="5.30714">
        <ele>214</ele>
        <time>2021-12-06T14:00:31Z</time>
      </trkpt>
      <trkpt lat="46.49962" lon="5.30772">
        <ele>215</ele>
        <time>2021-12-06T14:00:38Z</time>
      </trkpt>
      <trkpt lat="46.49976" lon="5.30827">
        <ele>215.2</ele>
        <time>2021-12-06T14:00:44Z</time>
      </trkpt>
      <trkpt lat="46.49997" lon="5.30886">
        <ele>214.4</ele>
        <time>2021-12-06T14:00:50Z</time>
      </trkpt>
      <trkpt lat="46.50006" lon="5.30907">
        <ele>213.8</ele>
        <time>2021-12-06T14:00:52Z</time>
      </trkpt>
      <trkpt lat="46.50022" lon="5.30955">
        <ele>212.4</ele>
        <time>2021-12-06T14:00:56Z</time>
      </trkpt>
      <trkpt lat="46.50031" lon="5.30981">
        <ele>211.4</ele>
        <time>2021-12-06T14:00:58Z</time>
      </trkpt>
      <trkpt lat="46.50045" lon="5.3102">
        <ele>210</ele>
        <time>2021-12-06T14:01:01Z</time>
      </trkpt>
      <trkpt lat="46.50054" lon="5.31048">
        <ele>208.8</ele>
        <time>2021-12-06T14:01:03Z</time>
      </trkpt>
      <trkpt lat="46.50059" lon="5.31062">
        <ele>208.4</ele>
        <time>2021-12-06T14:01:04Z</time>
      </trkpt>
      <trkpt lat="46.50064" lon="5.31076">
        <ele>207.6</ele>
        <time>2021-12-06T14:01:05Z</time>
      </trkpt>
      <trkpt lat="46.50073" lon="5.31105">
        <ele>206.2</ele>
        <time>2021-12-06T14:01:07Z</time>
      </trkpt>
      <trkpt lat="46.50083" lon="5.31134">
        <ele>204.8</ele>
        <time>2021-12-06T14:01:09Z</time>
      </trkpt>
      <trkpt lat="46.50092" lon="5.31161">
        <ele>203.6</ele>
        <time>2021-12-06T14:01:11Z</time>
      </trkpt>
      <trkpt lat="46.50106" lon="5.312">
        <ele>202.2</ele>
        <time>2021-12-06T14:01:14Z</time>
      </trkpt>
      <trkpt lat="46.50114" lon="5.31223">
        <ele>202</ele>
        <time>2021-12-06T14:01:16Z</time>
      </trkpt>
      <trkpt lat="46.50141" lon="5.31301">
        <ele>203</ele>
        <time>2021-12-06T14:01:23Z</time>
      </trkpt>
      <trkpt lat="46.50148" lon="5.31324">
        <ele>203.4</ele>
        <time>2021-12-06T14:01:25Z</time>
      </trkpt>
      <trkpt lat="46.50167" lon="5.31381">
        <ele>203.8</ele>
        <time>2021-12-06T14:01:30Z</time>
      </trkpt>
      <trkpt lat="46.50192" lon="5.31454">
        <ele>203</ele>
        <time>2021-12-06T14:01:36Z</time>
      </trkpt>
      <trkpt lat="46.50196" lon="5.31467">
        <ele>202.8</ele>
        <time>2021-12-06T14:01:37Z</time>
      </trkpt>
      <trkpt lat="46.50205" lon="5.31493">
        <ele>202</ele>
        <time>2021-12-06T14:01:39Z</time>
      </trkpt>
      <trkpt lat="46.50221" lon="5.31533">
        <ele>201.2</ele>
        <time>2021-12-06T14:01:42Z</time>
      </trkpt>
      <trkpt lat="46.50227" lon="5.31545">
        <ele>200.2</ele>
        <time>2021-12-06T14:01:43Z</time>
      </trkpt>
      <trkpt lat="46.50241" lon="5.31567">
        <ele>199.2</ele>
        <time>2021-12-06T14:01:45Z</time>
      </trkpt>
      <trkpt lat="46.50257" lon="5.31586">
        <ele>198</ele>
        <time>2021-12-06T14:01:47Z</time>
      </trkpt>
      <trkpt lat="46.50274" lon="5.31601">
        <ele>197</ele>
        <time>2021-12-06T14:01:49Z</time>
      </trkpt>
      <trkpt lat="46.50308" lon="5.31629">
        <ele>196.2</ele>
        <time>2021-12-06T14:01:53Z</time>
      </trkpt>
      <trkpt lat="46.50316" lon="5.31635">
        <ele>196</ele>
        <time>2021-12-06T14:01:54Z</time>
      </trkpt>
      <trkpt lat="46.50342" lon="5.31653">
        <ele>196</ele>
        <time>2021-12-06T14:01:57Z</time>
      </trkpt>
      <trkpt lat="46.50357" lon="5.31667">
        <ele>195.8</ele>
        <time>2021-12-06T14:01:59Z</time>
      </trkpt>
      <trkpt lat="46.50381" lon="5.31701">
        <ele>196</ele>
        <time>2021-12-06T14:02:03Z</time>
      </trkpt>
      <trkpt lat="46.50405" lon="5.3175">
        <ele>196.4</ele>
        <time>2021-12-06T14:02:08Z</time>
      </trkpt>
      <trkpt lat="46.50423" lon="5.31817">
        <ele>197</ele>
        <time>2021-12-06T14:02:14Z</time>
      </trkpt>
      <trkpt lat="46.50426" lon="5.31828">
        <ele>197</ele>
        <time>2021-12-06T14:02:15Z</time>
      </trkpt>
      <trkpt lat="46.50436" lon="5.31897">
        <ele>197.4</ele>
        <time>2021-12-06T14:02:21Z</time>
      </trkpt>
      <trkpt lat="46.50435" lon="5.31975">
        <ele>197.4</ele>
        <time>2021-12-06T14:02:28Z</time>
      </trkpt>
      <trkpt lat="46.50433" lon="5.32054">
        <ele>197.8</ele>
        <time>2021-12-06T14:02:35Z</time>
      </trkpt>
      <trkpt lat="46.50433" lon="5.32076">
        <ele>198</ele>
        <time>2021-12-06T14:02:37Z</time>
      </trkpt>
      <trkpt lat="46.50432" lon="5.32098">
        <ele>198.2</ele>
        <time>2021-12-06T14:02:39Z</time>
      </trkpt>
      <trkpt lat="46.50431" lon="5.3216">
        <ele>198.8</ele>
        <time>2021-12-06T14:02:45Z</time>
      </trkpt>
      <trkpt lat="46.5043" lon="5.3218">
        <ele>199.2</ele>
        <time>2021-12-06T14:02:47Z</time>
      </trkpt>
      <trkpt lat="46.5043" lon="5.32239">
        <ele>200.2</ele>
        <time>2021-12-06T14:02:53Z</time>
      </trkpt>
      <trkpt lat="46.5043" lon="5.32249">
        <ele>200.4</ele>
        <time>2021-12-06T14:02:54Z</time>
      </trkpt>
      <trkpt lat="46.50436" lon="5.32307">
        <ele>201.2</ele>
        <time>2021-12-06T14:03:00Z</time>
      </trkpt>
      <trkpt lat="46.5044" lon="5.32326">
        <ele>201.4</ele>
        <time>2021-12-06T14:03:02Z</time>
      </trkpt>
      <trkpt lat="46.50449" lon="5.32367">
        <ele>201.6</ele>
        <time>2021-12-06T14:03:06Z</time>
      </trkpt>
      <trkpt lat="46.50465" lon="5.3245">
        <ele>201.2</ele>
        <time>2021-12-06T14:03:14Z</time>
      </trkpt>
      <trkpt lat="46.50472" lon="5.3253">
        <ele>201.6</ele>
        <time>2021-12-06T14:03:22Z</time>
      </trkpt>
      <trkpt lat="46.50475" lon="5.32617">
        <ele>202.4</ele>
        <time>2021-12-06T14:03:31Z</time>
      </trkpt>
      <trkpt lat="46.50476" lon="5.32627">
        <ele>202.6</ele>
        <time>2021-12-06T14:03:32Z</time>
      </trkpt>
      <trkpt lat="46.50475" lon="5.3269">
        <ele>203.2</ele>
        <time>2021-12-06T14:03:39Z</time>
      </trkpt>
      <trkpt lat="46.50475" lon="5.32716">
        <ele>203.6</ele>
        <time>2021-12-06T14:03:42Z</time>
      </trkpt>
      <trkpt lat="46.50473" lon="5.32795">
        <ele>204.6</ele>
        <time>2021-12-06T14:03:51Z</time>
      </trkpt>
      <trkpt lat="46.50471" lon="5.32873">
        <ele>205.2</ele>
        <time>2021-12-06T14:04:00Z</time>
      </trkpt>
      <trkpt lat="46.50471" lon="5.32896">
        <ele>205.4</ele>
        <time>2021-12-06T14:04:03Z</time>
      </trkpt>
      <trkpt lat="46.50471" lon="5.32904">
        <ele>205.8</ele>
        <time>2021-12-06T14:04:04Z</time>
      </trkpt>
      <trkpt lat="46.50471" lon="5.32934">
        <ele>207</ele>
        <time>2021-12-06T14:04:08Z</time>
      </trkpt>
      <trkpt lat="46.50471" lon="5.32963">
        <ele>208.2</ele>
        <time>2021-12-06T14:04:12Z</time>
      </trkpt>
      <trkpt lat="46.50471" lon="5.32985">
        <ele>209.2</ele>
        <time>2021-12-06T14:04:15Z</time>
      </trkpt>
      <trkpt lat="46.5047" lon="5.3302">
        <ele>210.2</ele>
        <time>2021-12-06T14:04:20Z</time>
      </trkpt>
      <trkpt lat="46.50469" lon="5.33026">
        <ele>210.6</ele>
        <time>2021-12-06T14:04:21Z</time>
      </trkpt>
      <trkpt lat="46.50467" lon="5.33046">
        <ele>211.6</ele>
        <time>2021-12-06T14:04:24Z</time>
      </trkpt>
      <trkpt lat="46.50467" lon="5.33058">
        <ele>212.2</ele>
        <time>2021-12-06T14:04:26Z</time>
      </trkpt>
      <trkpt lat="46.50468" lon="5.33075">
        <ele>212.8</ele>
        <time>2021-12-06T14:04:29Z</time>
      </trkpt>
      <trkpt lat="46.50469" lon="5.3309">
        <ele>213.6</ele>
        <time>2021-12-06T14:04:32Z</time>
      </trkpt>
      <trkpt lat="46.50469" lon="5.33096">
        <ele>213.8</ele>
        <time>2021-12-06T14:04:33Z</time>
      </trkpt>
      <trkpt lat="46.5047" lon="5.33118">
        <ele>214.8</ele>
        <time>2021-12-06T14:04:37Z</time>
      </trkpt>
      <trkpt lat="46.50469" lon="5.3315">
        <ele>215.8</ele>
        <time>2021-12-06T14:04:42Z</time>
      </trkpt>
      <trkpt lat="46.50469" lon="5.33156">
        <ele>216</ele>
        <time>2021-12-06T14:04:43Z</time>
      </trkpt>
      <trkpt lat="46.50468" lon="5.33176">
        <ele>216.8</ele>
        <time>2021-12-06T14:04:46Z</time>
      </trkpt>
      <trkpt lat="46.50468" lon="5.33183">
        <ele>217</ele>
        <time>2021-12-06T14:04:47Z</time>
      </trkpt>
      <trkpt lat="46.50468" lon="5.33202">
        <ele>217.4</ele>
        <time>2021-12-06T14:04:49Z</time>
      </trkpt>
      <trkpt lat="46.50467" lon="5.33219">
        <ele>217.8</ele>
        <time>2021-12-06T14:04:51Z</time>
      </trkpt>
      <trkpt lat="46.50465" lon="5.33237">
        <ele>218</ele>
        <time>2021-12-06T14:04:53Z</time>
      </trkpt>
      <trkpt lat="46.50465" lon="5.33245">
        <ele>218</ele>
        <time>2021-12-06T14:04:54Z</time>
      </trkpt>
      <trkpt lat="46.50462" lon="5.3329">
        <ele>218.2</ele>
        <time>2021-12-06T14:04:59Z</time>
      </trkpt>
      <trkpt lat="46.50459" lon="5.33336">
        <ele>218.2</ele>
        <time>2021-12-06T14:05:04Z</time>
      </trkpt>
      <trkpt lat="46.50451" lon="5.33401">
        <ele>217.6</ele>
        <time>2021-12-06T14:05:11Z</time>
      </trkpt>
      <trkpt lat="46.5045" lon="5.33409">
        <ele>217.4</ele>
        <time>2021-12-06T14:05:12Z</time>
      </trkpt>
      <trkpt lat="46.50441" lon="5.3343">
        <ele>217.4</ele>
        <time>2021-12-06T14:05:15Z</time>
      </trkpt>
      <trkpt lat="46.50433" lon="5.33443">
        <ele>217.4</ele>
        <time>2021-12-06T14:05:17Z</time>
      </trkpt>
      <trkpt lat="46.50424" lon="5.33453">
        <ele>217.4</ele>
        <time>2021-12-06T14:05:19Z</time>
      </trkpt>
      <trkpt lat="46.50419" lon="5.33459">
        <ele>217.6</ele>
        <time>2021-12-06T14:05:20Z</time>
      </trkpt>
      <trkpt lat="46.50381" lon="5.33498">
        <ele>218.6</ele>
        <time>2021-12-06T14:05:28Z</time>
      </trkpt>
      <trkpt lat="46.50372" lon="5.33507">
        <ele>218.8</ele>
        <time>2021-12-06T14:05:30Z</time>
      </trkpt>
      <trkpt lat="46.50343" lon="5.33537">
        <ele>219.4</ele>
        <time>2021-12-06T14:05:36Z</time>
      </trkpt>
      <trkpt lat="46.50314" lon="5.33568">
        <ele>219.8</ele>
        <time>2021-12-06T14:05:42Z</time>
      </trkpt>
      <trkpt lat="46.503" lon="5.33584">
        <ele>220</ele>
        <time>2021-12-06T14:05:45Z</time>
      </trkpt>
      <trkpt lat="46.50257" lon="5.33632">
        <ele>220.8</ele>
        <time>2021-12-06T14:05:54Z</time>
      </trkpt>
      <trkpt lat="46.50247" lon="5.33643">
        <ele>220.8</ele>
        <time>2021-12-06T14:05:56Z</time>
      </trkpt>
      <trkpt lat="46.50225" lon="5.33668">
        <ele>221.2</ele>
        <time>2021-12-06T14:06:01Z</time>
      </trkpt>
      <trkpt lat="46.50192" lon="5.33704">
        <ele>221.4</ele>
        <time>2021-12-06T14:06:08Z</time>
      </trkpt>
      <trkpt lat="46.50158" lon="5.3374">
        <ele>221.6</ele>
        <time>2021-12-06T14:06:14Z</time>
      </trkpt>
      <trkpt lat="46.50127" lon="5.33769">
        <ele>221</ele>
        <time>2021-12-06T14:06:19Z</time>
      </trkpt>
      <trkpt lat="46.50085" lon="5.33815">
        <ele>220.8</ele>
        <time>2021-12-06T14:06:26Z</time>
      </trkpt>
      <trkpt lat="46.50055" lon="5.33848">
        <ele>221</ele>
        <time>2021-12-06T14:06:32Z</time>
      </trkpt>
      <trkpt lat="46.50036" lon="5.33868">
        <ele>221.8</ele>
        <time>2021-12-06T14:06:36Z</time>
      </trkpt>
      <trkpt lat="46.50028" lon="5.33877">
        <ele>222</ele>
        <time>2021-12-06T14:06:38Z</time>
      </trkpt>
      <trkpt lat="46.5001" lon="5.33896">
        <ele>222.6</ele>
        <time>2021-12-06T14:06:42Z</time>
      </trkpt>
      <trkpt lat="46.50005" lon="5.33901">
        <ele>222.8</ele>
        <time>2021-12-06T14:06:43Z</time>
      </trkpt>
      <trkpt lat="46.49995" lon="5.33912">
        <ele>223.4</ele>
        <time>2021-12-06T14:06:45Z</time>
      </trkpt>
      <trkpt lat="46.49967" lon="5.33944">
        <ele>223.8</ele>
        <time>2021-12-06T14:06:50Z</time>
      </trkpt>
      <trkpt lat="46.49937" lon="5.33978">
        <ele>223.8</ele>
        <time>2021-12-06T14:06:55Z</time>
      </trkpt>
      <trkpt lat="46.49929" lon="5.33985">
        <ele>223.6</ele>
        <time>2021-12-06T14:06:56Z</time>
      </trkpt>
      <trkpt lat="46.49903" lon="5.34012">
        <ele>223.2</ele>
        <time>2021-12-06T14:07:00Z</time>
      </trkpt>
      <trkpt lat="46.49869" lon="5.34049">
        <ele>221.6</ele>
        <time>2021-12-06T14:07:05Z</time>
      </trkpt>
      <trkpt lat="46.49836" lon="5.34096">
        <ele>220.8</ele>
        <time>2021-12-06T14:07:11Z</time>
      </trkpt>
      <trkpt lat="46.49808" lon="5.34143">
        <ele>220.8</ele>
        <time>2021-12-06T14:07:17Z</time>
      </trkpt>
      <trkpt lat="46.49771" lon="5.34205">
        <ele>221</ele>
        <time>2021-12-06T14:07:25Z</time>
      </trkpt>
      <trkpt lat="46.49733" lon="5.34268">
        <ele>220.6</ele>
        <time>2021-12-06T14:07:33Z</time>
      </trkpt>
      <trkpt lat="46.49729" lon="5.34276">
        <ele>220.4</ele>
        <time>2021-12-06T14:07:34Z</time>
      </trkpt>
      <trkpt lat="46.49706" lon="5.34329">
        <ele>220.6</ele>
        <time>2021-12-06T14:07:40Z</time>
      </trkpt>
      <trkpt lat="46.49689" lon="5.34389">
        <ele>220.6</ele>
        <time>2021-12-06T14:07:46Z</time>
      </trkpt>
      <trkpt lat="46.49686" lon="5.344">
        <ele>220.4</ele>
        <time>2021-12-06T14:07:47Z</time>
      </trkpt>
      <trkpt lat="46.49672" lon="5.34446">
        <ele>219.4</ele>
        <time>2021-12-06T14:07:51Z</time>
      </trkpt>
      <trkpt lat="46.49662" lon="5.3448">
        <ele>218.2</ele>
        <time>2021-12-06T14:07:54Z</time>
      </trkpt>
      <trkpt lat="46.49648" lon="5.34523">
        <ele>217.2</ele>
        <time>2021-12-06T14:07:58Z</time>
      </trkpt>
      <trkpt lat="46.49644" lon="5.34531">
        <ele>217</ele>
        <time>2021-12-06T14:07:59Z</time>
      </trkpt>
      <trkpt lat="46.49639" lon="5.34539">
        <ele>216.8</ele>
        <time>2021-12-06T14:08:00Z</time>
      </trkpt>
      <trkpt lat="46.49632" lon="5.34546">
        <ele>216.6</ele>
        <time>2021-12-06T14:08:01Z</time>
      </trkpt>
      <trkpt lat="46.49608" lon="5.34577">
        <ele>216</ele>
        <time>2021-12-06T14:08:05Z</time>
      </trkpt>
      <trkpt lat="46.49604" lon="5.34584">
        <ele>215.8</ele>
        <time>2021-12-06T14:08:06Z</time>
      </trkpt>
      <trkpt lat="46.49574" lon="5.34628">
        <ele>215.6</ele>
        <time>2021-12-06T14:08:12Z</time>
      </trkpt>
      <trkpt lat="46.49551" lon="5.34655">
        <ele>216.2</ele>
        <time>2021-12-06T14:08:17Z</time>
      </trkpt>
      <trkpt lat="46.49543" lon="5.34664">
        <ele>216.8</ele>
        <time>2021-12-06T14:08:19Z</time>
      </trkpt>
      <trkpt lat="46.49536" lon="5.34673">
        <ele>217.4</ele>
        <time>2021-12-06T14:08:21Z</time>
      </trkpt>
      <trkpt lat="46.49532" lon="5.34677">
        <ele>217.6</ele>
        <time>2021-12-06T14:08:22Z</time>
      </trkpt>
      <trkpt lat="46.49528" lon="5.34681">
        <ele>218.2</ele>
        <time>2021-12-06T14:08:23Z</time>
      </trkpt>
      <trkpt lat="46.49524" lon="5.34685">
        <ele>218.6</ele>
        <time>2021-12-06T14:08:24Z</time>
      </trkpt>
      <trkpt lat="46.49509" lon="5.347">
        <ele>219.4</ele>
        <time>2021-12-06T14:08:28Z</time>
      </trkpt>
      <trkpt lat="46.49501" lon="5.34708">
        <ele>219.8</ele>
        <time>2021-12-06T14:08:30Z</time>
      </trkpt>
      <trkpt lat="46.49486" lon="5.34727">
        <ele>221</ele>
        <time>2021-12-06T14:08:35Z</time>
      </trkpt>
      <trkpt lat="46.49473" lon="5.34744">
        <ele>222.4</ele>
        <time>2021-12-06T14:08:39Z</time>
      </trkpt>
      <trkpt lat="46.49463" lon="5.34756">
        <ele>222.6</ele>
        <time>2021-12-06T14:08:41Z</time>
      </trkpt>
      <trkpt lat="46.49453" lon="5.34766">
        <ele>223.6</ele>
        <time>2021-12-06T14:08:44Z</time>
      </trkpt>
      <trkpt lat="46.49447" lon="5.34771">
        <ele>224.2</ele>
        <time>2021-12-06T14:08:46Z</time>
      </trkpt>
      <trkpt lat="46.49439" lon="5.34778">
        <ele>224.8</ele>
        <time>2021-12-06T14:08:48Z</time>
      </trkpt>
      <trkpt lat="46.49422" lon="5.34791">
        <ele>226.2</ele>
        <time>2021-12-06T14:08:53Z</time>
      </trkpt>
      <trkpt lat="46.49402" lon="5.3481">
        <ele>227.2</ele>
        <time>2021-12-06T14:08:58Z</time>
      </trkpt>
      <trkpt lat="46.49398" lon="5.34811">
        <ele>227.4</ele>
        <time>2021-12-06T14:08:59Z</time>
      </trkpt>
      <trkpt lat="46.49352" lon="5.34821">
        <ele>227.8</ele>
        <time>2021-12-06T14:09:07Z</time>
      </trkpt>
      <trkpt lat="46.49324" lon="5.34827">
        <ele>227.8</ele>
        <time>2021-12-06T14:09:12Z</time>
      </trkpt>
      <trkpt lat="46.49319" lon="5.34829">
        <ele>227.6</ele>
        <time>2021-12-06T14:09:13Z</time>
      </trkpt>
      <trkpt lat="46.49302" lon="5.34838">
        <ele>227.4</ele>
        <time>2021-12-06T14:09:16Z</time>
      </trkpt>
      <trkpt lat="46.49297" lon="5.34842">
        <ele>227.4</ele>
        <time>2021-12-06T14:09:17Z</time>
      </trkpt>
      <trkpt lat="46.49276" lon="5.34856">
        <ele>227.2</ele>
        <time>2021-12-06T14:09:21Z</time>
      </trkpt>
      <trkpt lat="46.49257" lon="5.3488">
        <ele>227.6</ele>
        <time>2021-12-06T14:09:25Z</time>
      </trkpt>
      <trkpt lat="46.49229" lon="5.34923">
        <ele>228</ele>
        <time>2021-12-06T14:09:32Z</time>
      </trkpt>
      <trkpt lat="46.492" lon="5.34966">
        <ele>228.2</ele>
        <time>2021-12-06T14:09:39Z</time>
      </trkpt>
      <trkpt lat="46.49183" lon="5.3499">
        <ele>228.2</ele>
        <time>2021-12-06T14:09:43Z</time>
      </trkpt>
      <trkpt lat="46.49179" lon="5.34995">
        <ele>228.2</ele>
        <time>2021-12-06T14:09:44Z</time>
      </trkpt>
      <trkpt lat="46.49174" lon="5.35">
        <ele>228.4</ele>
        <time>2021-12-06T14:09:45Z</time>
      </trkpt>
      <trkpt lat="46.49139" lon="5.35031">
        <ele>228.6</ele>
        <time>2021-12-06T14:09:52Z</time>
      </trkpt>
      <trkpt lat="46.49113" lon="5.35058">
        <ele>229</ele>
        <time>2021-12-06T14:09:58Z</time>
      </trkpt>
      <trkpt lat="46.49104" lon="5.35066">
        <ele>229.2</ele>
        <time>2021-12-06T14:10:00Z</time>
      </trkpt>
      <trkpt lat="46.49083" lon="5.35082">
        <ele>229.4</ele>
        <time>2021-12-06T14:10:04Z</time>
      </trkpt>
      <trkpt lat="46.49071" lon="5.35089">
        <ele>229.8</ele>
        <time>2021-12-06T14:10:06Z</time>
      </trkpt>
      <trkpt lat="46.4906" lon="5.35096">
        <ele>230</ele>
        <time>2021-12-06T14:10:08Z</time>
      </trkpt>
      <trkpt lat="46.49055" lon="5.35102">
        <ele>230.2</ele>
        <time>2021-12-06T14:10:09Z</time>
      </trkpt>
      <trkpt lat="46.49049" lon="5.35108">
        <ele>230.2</ele>
        <time>2021-12-06T14:10:10Z</time>
      </trkpt>
      <trkpt lat="46.4904" lon="5.3512">
        <ele>230.4</ele>
        <time>2021-12-06T14:10:12Z</time>
      </trkpt>
      <trkpt lat="46.49032" lon="5.35134">
        <ele>230.6</ele>
        <time>2021-12-06T14:10:14Z</time>
      </trkpt>
      <trkpt lat="46.49008" lon="5.35187">
        <ele>231</ele>
        <time>2021-12-06T14:10:21Z</time>
      </trkpt>
      <trkpt lat="46.48984" lon="5.35239">
        <ele>230.4</ele>
        <time>2021-12-06T14:10:27Z</time>
      </trkpt>
      <trkpt lat="46.48959" lon="5.35294">
        <ele>229.2</ele>
        <time>2021-12-06T14:10:33Z</time>
      </trkpt>
      <trkpt lat="46.48928" lon="5.35359">
        <ele>228.4</ele>
        <time>2021-12-06T14:10:40Z</time>
      </trkpt>
      <trkpt lat="46.48924" lon="5.35368">
        <ele>228.4</ele>
        <time>2021-12-06T14:10:41Z</time>
      </trkpt>
      <trkpt lat="46.48897" lon="5.35432">
        <ele>229</ele>
        <time>2021-12-06T14:10:49Z</time>
      </trkpt>
      <trkpt lat="46.48865" lon="5.35503">
        <ele>229.6</ele>
        <time>2021-12-06T14:10:58Z</time>
      </trkpt>
      <trkpt lat="46.48858" lon="5.35519">
        <ele>229.8</ele>
        <time>2021-12-06T14:11:00Z</time>
      </trkpt>
      <trkpt lat="46.48829" lon="5.35586">
        <ele>230.2</ele>
        <time>2021-12-06T14:11:08Z</time>
      </trkpt>
      <trkpt lat="46.4881" lon="5.35629">
        <ele>230</ele>
        <time>2021-12-06T14:11:13Z</time>
      </trkpt>
      <trkpt lat="46.4878" lon="5.35698">
        <ele>230</ele>
        <time>2021-12-06T14:11:21Z</time>
      </trkpt>
      <trkpt lat="46.48772" lon="5.35716">
        <ele>230</ele>
        <time>2021-12-06T14:11:23Z</time>
      </trkpt>
      <trkpt lat="46.48743" lon="5.35782">
        <ele>229.8</ele>
        <time>2021-12-06T14:11:31Z</time>
      </trkpt>
      <trkpt lat="46.48739" lon="5.3579">
        <ele>229.8</ele>
        <time>2021-12-06T14:11:32Z</time>
      </trkpt>
      <trkpt lat="46.48716" lon="5.35845">
        <ele>230.2</ele>
        <time>2021-12-06T14:11:39Z</time>
      </trkpt>
      <trkpt lat="46.48695" lon="5.35896">
        <ele>231</ele>
        <time>2021-12-06T14:11:46Z</time>
      </trkpt>
      <trkpt lat="46.48687" lon="5.35918">
        <ele>231.4</ele>
        <time>2021-12-06T14:11:49Z</time>
      </trkpt>
      <trkpt lat="46.48683" lon="5.35942">
        <ele>232</ele>
        <time>2021-12-06T14:11:52Z</time>
      </trkpt>
      <trkpt lat="46.48679" lon="5.3596">
        <ele>232.4</ele>
        <time>2021-12-06T14:11:54Z</time>
      </trkpt>
      <trkpt lat="46.48673" lon="5.36001">
        <ele>233.2</ele>
        <time>2021-12-06T14:11:59Z</time>
      </trkpt>
      <trkpt lat="46.48662" lon="5.36059">
        <ele>233.2</ele>
        <time>2021-12-06T14:12:05Z</time>
      </trkpt>
      <trkpt lat="46.48645" lon="5.36137">
        <ele>231.4</ele>
        <time>2021-12-06T14:12:12Z</time>
      </trkpt>
      <trkpt lat="46.48644" lon="5.36148">
        <ele>231.4</ele>
        <time>2021-12-06T14:12:13Z</time>
      </trkpt>
      <trkpt lat="46.48638" lon="5.36226">
        <ele>231.2</ele>
        <time>2021-12-06T14:12:21Z</time>
      </trkpt>
      <trkpt lat="46.48629" lon="5.3629">
        <ele>232.2</ele>
        <time>2021-12-06T14:12:28Z</time>
      </trkpt>
      <trkpt lat="46.48624" lon="5.36304">
        <ele>232.6</ele>
        <time>2021-12-06T14:12:30Z</time>
      </trkpt>
      <trkpt lat="46.4862" lon="5.3631">
        <ele>232.6</ele>
        <time>2021-12-06T14:12:31Z</time>
      </trkpt>
      <trkpt lat="46.48616" lon="5.36315">
        <ele>232.8</ele>
        <time>2021-12-06T14:12:32Z</time>
      </trkpt>
      <trkpt lat="46.48607" lon="5.36321">
        <ele>233</ele>
        <time>2021-12-06T14:12:34Z</time>
      </trkpt>
      <trkpt lat="46.48602" lon="5.36322">
        <ele>233.4</ele>
        <time>2021-12-06T14:12:35Z</time>
      </trkpt>
      <trkpt lat="46.48598" lon="5.36324">
        <ele>233.8</ele>
        <time>2021-12-06T14:12:36Z</time>
      </trkpt>
      <trkpt lat="46.48573" lon="5.36326">
        <ele>235.2</ele>
        <time>2021-12-06T14:12:41Z</time>
      </trkpt>
      <trkpt lat="46.48568" lon="5.36326">
        <ele>235.6</ele>
        <time>2021-12-06T14:12:42Z</time>
      </trkpt>
      <trkpt lat="46.48554" lon="5.36327">
        <ele>236.4</ele>
        <time>2021-12-06T14:12:45Z</time>
      </trkpt>
      <trkpt lat="46.48529" lon="5.3633">
        <ele>237.6</ele>
        <time>2021-12-06T14:12:50Z</time>
      </trkpt>
      <trkpt lat="46.4849" lon="5.36338">
        <ele>238.8</ele>
        <time>2021-12-06T14:12:57Z</time>
      </trkpt>
      <trkpt lat="46.48437" lon="5.36347">
        <ele>239.2</ele>
        <time>2021-12-06T14:13:06Z</time>
      </trkpt>
      <trkpt lat="46.48404" lon="5.36363">
        <ele>239.4</ele>
        <time>2021-12-06T14:13:12Z</time>
      </trkpt>
      <trkpt lat="46.4837" lon="5.36398">
        <ele>239.6</ele>
        <time>2021-12-06T14:13:19Z</time>
      </trkpt>
      <trkpt lat="46.48348" lon="5.36422">
        <ele>239.8</ele>
        <time>2021-12-06T14:13:24Z</time>
      </trkpt>
      <trkpt lat="46.48332" lon="5.36439">
        <ele>240.4</ele>
        <time>2021-12-06T14:13:28Z</time>
      </trkpt>
      <trkpt lat="46.48324" lon="5.36449">
        <ele>241</ele>
        <time>2021-12-06T14:13:30Z</time>
      </trkpt>
      <trkpt lat="46.48296" lon="5.36479">
        <ele>241.8</ele>
        <time>2021-12-06T14:13:37Z</time>
      </trkpt>
      <trkpt lat="46.48289" lon="5.36488">
        <ele>242</ele>
        <time>2021-12-06T14:13:39Z</time>
      </trkpt>
      <trkpt lat="46.48266" lon="5.36513">
        <ele>243.2</ele>
        <time>2021-12-06T14:13:45Z</time>
      </trkpt>
      <trkpt lat="46.48255" lon="5.36525">
        <ele>243.8</ele>
        <time>2021-12-06T14:13:48Z</time>
      </trkpt>
      <trkpt lat="46.4824" lon="5.36542">
        <ele>244.4</ele>
        <time>2021-12-06T14:13:52Z</time>
      </trkpt>
      <trkpt lat="46.48224" lon="5.36557">
        <ele>244.8</ele>
        <time>2021-12-06T14:13:56Z</time>
      </trkpt>
      <trkpt lat="46.48219" lon="5.36558">
        <ele>244.8</ele>
        <time>2021-12-06T14:13:57Z</time>
      </trkpt>
      <trkpt lat="46.48205" lon="5.36559">
        <ele>245.2</ele>
        <time>2021-12-06T14:14:00Z</time>
      </trkpt>
      <trkpt lat="46.48196" lon="5.36562">
        <ele>245.4</ele>
        <time>2021-12-06T14:14:02Z</time>
      </trkpt>
      <trkpt lat="46.48189" lon="5.36571">
        <ele>245.6</ele>
        <time>2021-12-06T14:14:04Z</time>
      </trkpt>
      <trkpt lat="46.48187" lon="5.36578">
        <ele>245.8</ele>
        <time>2021-12-06T14:14:05Z</time>
      </trkpt>
      <trkpt lat="46.48187" lon="5.36585">
        <ele>245.8</ele>
        <time>2021-12-06T14:14:06Z</time>
      </trkpt>
      <trkpt lat="46.48183" lon="5.36598">
        <ele>245.8</ele>
        <time>2021-12-06T14:14:08Z</time>
      </trkpt>
      <trkpt lat="46.4816" lon="5.36626">
        <ele>246.2</ele>
        <time>2021-12-06T14:14:14Z</time>
      </trkpt>
      <trkpt lat="46.48153" lon="5.36634">
        <ele>246.2</ele>
        <time>2021-12-06T14:14:16Z</time>
      </trkpt>
      <trkpt lat="46.48146" lon="5.36643">
        <ele>246.4</ele>
        <time>2021-12-06T14:14:18Z</time>
      </trkpt>
      <trkpt lat="46.48134" lon="5.36659">
        <ele>246.6</ele>
        <time>2021-12-06T14:14:21Z</time>
      </trkpt>
      <trkpt lat="46.48109" lon="5.36683">
        <ele>247.2</ele>
        <time>2021-12-06T14:14:28Z</time>
      </trkpt>
      <trkpt lat="46.48108" lon="5.36687">
        <ele>247.4</ele>
        <time>2021-12-06T14:14:29Z</time>
      </trkpt>
      <trkpt lat="46.48107" lon="5.36694">
        <ele>247.6</ele>
        <time>2021-12-06T14:14:30Z</time>
      </trkpt>
      <trkpt lat="46.48109" lon="5.367">
        <ele>247.8</ele>
        <time>2021-12-06T14:14:31Z</time>
      </trkpt>
      <trkpt lat="46.48111" lon="5.36705">
        <ele>248</ele>
        <time>2021-12-06T14:14:32Z</time>
      </trkpt>
      <trkpt lat="46.48122" lon="5.36716">
        <ele>248.4</ele>
        <time>2021-12-06T14:14:35Z</time>
      </trkpt>
      <trkpt lat="46.48126" lon="5.36719">
        <ele>248.8</ele>
        <time>2021-12-06T14:14:36Z</time>
      </trkpt>
      <trkpt lat="46.48148" lon="5.36738">
        <ele>249.8</ele>
        <time>2021-12-06T14:14:42Z</time>
      </trkpt>
      <trkpt lat="46.48156" lon="5.36744">
        <ele>250.4</ele>
        <time>2021-12-06T14:14:44Z</time>
      </trkpt>
      <trkpt lat="46.48167" lon="5.36753">
        <ele>251</ele>
        <time>2021-12-06T14:14:47Z</time>
      </trkpt>
      <trkpt lat="46.48186" lon="5.36767">
        <ele>252.4</ele>
        <time>2021-12-06T14:14:52Z</time>
      </trkpt>
      <trkpt lat="46.48196" lon="5.36776">
        <ele>252.8</ele>
        <time>2021-12-06T14:14:55Z</time>
      </trkpt>
      <trkpt lat="46.48211" lon="5.36788">
        <ele>253.8</ele>
        <time>2021-12-06T14:14:59Z</time>
      </trkpt>
      <trkpt lat="46.48225" lon="5.368">
        <ele>255</ele>
        <time>2021-12-06T14:15:03Z</time>
      </trkpt>
      <trkpt lat="46.48228" lon="5.36803">
        <ele>255.2</ele>
        <time>2021-12-06T14:15:04Z</time>
      </trkpt>
      <trkpt lat="46.48238" lon="5.36811">
        <ele>256.2</ele>
        <time>2021-12-06T14:15:07Z</time>
      </trkpt>
      <trkpt lat="46.48254" lon="5.36826">
        <ele>257.2</ele>
        <time>2021-12-06T14:15:12Z</time>
      </trkpt>
      <trkpt lat="46.48258" lon="5.36829">
        <ele>257.4</ele>
        <time>2021-12-06T14:15:13Z</time>
      </trkpt>
    </trkseg>
  </trk>
</gpx>